<?xml version="1.0" encoding="UTF-8" standalone="no" ?>
<gpx xmlns="http://www.topografix.com/GPX/1/1" xmlns:xsi="http://www.w3.org/2001/XMLSchema-instance" xsi:schemaLocation="http://www.topografix.com/GPX/1/1 http://www.topografix.com/GPX/1/1/gpx.xsd" version="1.1" creator="VisuGPX - https://www.visugpx.com">
  <metadata>
    <name>Nevy/seille,Chaumois Boivin,Chaumois Martin,Blois/seille,Château Chalon,Nevy.</name>
  </metadata>
  <trk>
    <name><![CDATA[Nevy/seille,Chaumois Boivin,Chaumois Martin,Blois/seille,Château Chalon,Nevy._1]]></name>
    <trkseg>
      <trkpt lat="46.74391" lon="5.62684">
        <ele>230.8</ele>
        <time>2019-11-26T08:19:42Z</time>
      </trkpt>
      <trkpt lat="46.74387" lon="5.62681">
        <ele>231.2</ele>
        <time>2019-11-26T08:19:45Z</time>
      </trkpt>
      <trkpt lat="46.74383" lon="5.62677">
        <ele>248.7</ele>
        <time>2019-11-26T08:19:54Z</time>
      </trkpt>
      <trkpt lat="46.74378" lon="5.62678">
        <ele>270.3</ele>
        <time>2019-11-26T08:19:59Z</time>
      </trkpt>
      <trkpt lat="46.74379" lon="5.62686">
        <ele>274.8</ele>
        <time>2019-11-26T08:22:40Z</time>
      </trkpt>
      <trkpt lat="46.74381" lon="5.62691">
        <ele>274.1</ele>
        <time>2019-11-26T08:22:44Z</time>
      </trkpt>
      <trkpt lat="46.74381" lon="5.62699">
        <ele>273.3</ele>
        <time>2019-11-26T08:22:49Z</time>
      </trkpt>
      <trkpt lat="46.74381" lon="5.62706">
        <ele>272.5</ele>
        <time>2019-11-26T08:22:54Z</time>
      </trkpt>
      <trkpt lat="46.7438" lon="5.62713">
        <ele>271.8</ele>
        <time>2019-11-26T08:22:59Z</time>
      </trkpt>
      <trkpt lat="46.74378" lon="5.62724">
        <ele>270.5</ele>
        <time>2019-11-26T08:23:08Z</time>
      </trkpt>
      <trkpt lat="46.74376" lon="5.6273">
        <ele>269.9</ele>
        <time>2019-11-26T08:23:12Z</time>
      </trkpt>
      <trkpt lat="46.74373" lon="5.62735">
        <ele>269.3</ele>
        <time>2019-11-26T08:23:16Z</time>
      </trkpt>
      <trkpt lat="46.74369" lon="5.62738">
        <ele>268.9</ele>
        <time>2019-11-26T08:23:19Z</time>
      </trkpt>
      <trkpt lat="46.74365" lon="5.62743">
        <ele>268</ele>
        <time>2019-11-26T08:23:24Z</time>
      </trkpt>
      <trkpt lat="46.7436" lon="5.62743">
        <ele>267.3</ele>
        <time>2019-11-26T08:23:28Z</time>
      </trkpt>
      <trkpt lat="46.74347" lon="5.62748">
        <ele>265.3</ele>
        <time>2019-11-26T08:23:42Z</time>
      </trkpt>
      <trkpt lat="46.74342" lon="5.6275">
        <ele>265</ele>
        <time>2019-11-26T08:23:45Z</time>
      </trkpt>
      <trkpt lat="46.74338" lon="5.62753">
        <ele>264.8</ele>
        <time>2019-11-26T08:23:48Z</time>
      </trkpt>
      <trkpt lat="46.74333" lon="5.62758">
        <ele>264.7</ele>
        <time>2019-11-26T08:23:52Z</time>
      </trkpt>
      <trkpt lat="46.74328" lon="5.6276">
        <ele>264.7</ele>
        <time>2019-11-26T08:23:57Z</time>
      </trkpt>
      <trkpt lat="46.74322" lon="5.62762">
        <ele>264.6</ele>
        <time>2019-11-26T08:24:01Z</time>
      </trkpt>
      <trkpt lat="46.74317" lon="5.62764">
        <ele>264.5</ele>
        <time>2019-11-26T08:24:06Z</time>
      </trkpt>
      <trkpt lat="46.74314" lon="5.62759">
        <ele>264.6</ele>
        <time>2019-11-26T08:24:13Z</time>
      </trkpt>
      <trkpt lat="46.74309" lon="5.62757">
        <ele>265</ele>
        <time>2019-11-26T08:24:18Z</time>
      </trkpt>
      <trkpt lat="46.74304" lon="5.62757">
        <ele>265.3</ele>
        <time>2019-11-26T08:24:23Z</time>
      </trkpt>
      <trkpt lat="46.74299" lon="5.62756">
        <ele>265.4</ele>
        <time>2019-11-26T08:24:28Z</time>
      </trkpt>
      <trkpt lat="46.74293" lon="5.62756">
        <ele>265.2</ele>
        <time>2019-11-26T08:24:34Z</time>
      </trkpt>
      <trkpt lat="46.74289" lon="5.62757">
        <ele>264.7</ele>
        <time>2019-11-26T08:24:39Z</time>
      </trkpt>
      <trkpt lat="46.74284" lon="5.62756">
        <ele>264.1</ele>
        <time>2019-11-26T08:24:45Z</time>
      </trkpt>
      <trkpt lat="46.74279" lon="5.62757">
        <ele>263.7</ele>
        <time>2019-11-26T08:24:48Z</time>
      </trkpt>
      <trkpt lat="46.74273" lon="5.62758">
        <ele>263</ele>
        <time>2019-11-26T08:24:52Z</time>
      </trkpt>
      <trkpt lat="46.74269" lon="5.62758">
        <ele>262.3</ele>
        <time>2019-11-26T08:24:57Z</time>
      </trkpt>
      <trkpt lat="46.74264" lon="5.62758">
        <ele>261.7</ele>
        <time>2019-11-26T08:25:02Z</time>
      </trkpt>
      <trkpt lat="46.74259" lon="5.62758">
        <ele>261.4</ele>
        <time>2019-11-26T08:25:06Z</time>
      </trkpt>
      <trkpt lat="46.74254" lon="5.62757">
        <ele>261.1</ele>
        <time>2019-11-26T08:25:10Z</time>
      </trkpt>
      <trkpt lat="46.74249" lon="5.62757">
        <ele>260.8</ele>
        <time>2019-11-26T08:25:14Z</time>
      </trkpt>
      <trkpt lat="46.74244" lon="5.62758">
        <ele>260.5</ele>
        <time>2019-11-26T08:25:18Z</time>
      </trkpt>
      <trkpt lat="46.74238" lon="5.6276">
        <ele>260.1</ele>
        <time>2019-11-26T08:25:23Z</time>
      </trkpt>
      <trkpt lat="46.74233" lon="5.6276">
        <ele>259.7</ele>
        <time>2019-11-26T08:25:31Z</time>
      </trkpt>
      <trkpt lat="46.74222" lon="5.62763">
        <ele>258.3</ele>
        <time>2019-11-26T08:25:42Z</time>
      </trkpt>
      <trkpt lat="46.7421" lon="5.6277">
        <ele>255.6</ele>
        <time>2019-11-26T08:25:55Z</time>
      </trkpt>
      <trkpt lat="46.74205" lon="5.62773">
        <ele>255.1</ele>
        <time>2019-11-26T08:25:59Z</time>
      </trkpt>
      <trkpt lat="46.74198" lon="5.62786">
        <ele>253.8</ele>
        <time>2019-11-26T08:26:07Z</time>
      </trkpt>
      <trkpt lat="46.74194" lon="5.62787">
        <ele>253.7</ele>
        <time>2019-11-26T08:26:09Z</time>
      </trkpt>
      <trkpt lat="46.74189" lon="5.62789">
        <ele>253.6</ele>
        <time>2019-11-26T08:26:13Z</time>
      </trkpt>
      <trkpt lat="46.74185" lon="5.62794">
        <ele>253.8</ele>
        <time>2019-11-26T08:26:16Z</time>
      </trkpt>
      <trkpt lat="46.74182" lon="5.62799">
        <ele>254.1</ele>
        <time>2019-11-26T08:26:21Z</time>
      </trkpt>
      <trkpt lat="46.74179" lon="5.62804">
        <ele>254.2</ele>
        <time>2019-11-26T08:26:26Z</time>
      </trkpt>
      <trkpt lat="46.74174" lon="5.62807">
        <ele>254.1</ele>
        <time>2019-11-26T08:26:33Z</time>
      </trkpt>
      <trkpt lat="46.7417" lon="5.62812">
        <ele>253.9</ele>
        <time>2019-11-26T08:26:38Z</time>
      </trkpt>
      <trkpt lat="46.74168" lon="5.62819">
        <ele>253.8</ele>
        <time>2019-11-26T08:26:42Z</time>
      </trkpt>
      <trkpt lat="46.74164" lon="5.62824">
        <ele>253.5</ele>
        <time>2019-11-26T08:26:46Z</time>
      </trkpt>
      <trkpt lat="46.7416" lon="5.62829">
        <ele>252.9</ele>
        <time>2019-11-26T08:26:50Z</time>
      </trkpt>
      <trkpt lat="46.74155" lon="5.6283">
        <ele>252.4</ele>
        <time>2019-11-26T08:26:55Z</time>
      </trkpt>
      <trkpt lat="46.74151" lon="5.62833">
        <ele>252.4</ele>
        <time>2019-11-26T08:26:59Z</time>
      </trkpt>
      <trkpt lat="46.74145" lon="5.62835">
        <ele>252.6</ele>
        <time>2019-11-26T08:27:03Z</time>
      </trkpt>
      <trkpt lat="46.74141" lon="5.62838">
        <ele>252.8</ele>
        <time>2019-11-26T08:27:06Z</time>
      </trkpt>
      <trkpt lat="46.74136" lon="5.62841">
        <ele>253.4</ele>
        <time>2019-11-26T08:27:10Z</time>
      </trkpt>
      <trkpt lat="46.74131" lon="5.62843">
        <ele>253.9</ele>
        <time>2019-11-26T08:27:14Z</time>
      </trkpt>
      <trkpt lat="46.74125" lon="5.62844">
        <ele>254.4</ele>
        <time>2019-11-26T08:27:18Z</time>
      </trkpt>
      <trkpt lat="46.7412" lon="5.62845">
        <ele>255</ele>
        <time>2019-11-26T08:27:22Z</time>
      </trkpt>
      <trkpt lat="46.74116" lon="5.62846">
        <ele>255.6</ele>
        <time>2019-11-26T08:27:27Z</time>
      </trkpt>
      <trkpt lat="46.74111" lon="5.62847">
        <ele>256.7</ele>
        <time>2019-11-26T08:27:33Z</time>
      </trkpt>
      <trkpt lat="46.74106" lon="5.62849">
        <ele>257.7</ele>
        <time>2019-11-26T08:27:39Z</time>
      </trkpt>
      <trkpt lat="46.74101" lon="5.62852">
        <ele>258.6</ele>
        <time>2019-11-26T08:27:44Z</time>
      </trkpt>
      <trkpt lat="46.74095" lon="5.62855">
        <ele>259.1</ele>
        <time>2019-11-26T08:27:47Z</time>
      </trkpt>
      <trkpt lat="46.74091" lon="5.62858">
        <ele>259.7</ele>
        <time>2019-11-26T08:27:51Z</time>
      </trkpt>
      <trkpt lat="46.74086" lon="5.6286">
        <ele>260</ele>
        <time>2019-11-26T08:27:54Z</time>
      </trkpt>
      <trkpt lat="46.74081" lon="5.62861">
        <ele>260.3</ele>
        <time>2019-11-26T08:27:58Z</time>
      </trkpt>
      <trkpt lat="46.74076" lon="5.62864">
        <ele>260.3</ele>
        <time>2019-11-26T08:28:03Z</time>
      </trkpt>
      <trkpt lat="46.74072" lon="5.62867">
        <ele>260.3</ele>
        <time>2019-11-26T08:28:08Z</time>
      </trkpt>
      <trkpt lat="46.74067" lon="5.62868">
        <ele>260.4</ele>
        <time>2019-11-26T08:28:12Z</time>
      </trkpt>
      <trkpt lat="46.74062" lon="5.62868">
        <ele>260.3</ele>
        <time>2019-11-26T08:28:16Z</time>
      </trkpt>
      <trkpt lat="46.74048" lon="5.62864">
        <ele>260.2</ele>
        <time>2019-11-26T08:28:29Z</time>
      </trkpt>
      <trkpt lat="46.74043" lon="5.62863">
        <ele>259.8</ele>
        <time>2019-11-26T08:28:35Z</time>
      </trkpt>
      <trkpt lat="46.74039" lon="5.62861">
        <ele>259.6</ele>
        <time>2019-11-26T08:28:40Z</time>
      </trkpt>
      <trkpt lat="46.74033" lon="5.6286">
        <ele>259.5</ele>
        <time>2019-11-26T08:28:44Z</time>
      </trkpt>
      <trkpt lat="46.74029" lon="5.62858">
        <ele>259.4</ele>
        <time>2019-11-26T08:28:47Z</time>
      </trkpt>
      <trkpt lat="46.74024" lon="5.62856">
        <ele>259.3</ele>
        <time>2019-11-26T08:28:50Z</time>
      </trkpt>
      <trkpt lat="46.74019" lon="5.62856">
        <ele>259</ele>
        <time>2019-11-26T08:28:54Z</time>
      </trkpt>
      <trkpt lat="46.74014" lon="5.62857">
        <ele>258.7</ele>
        <time>2019-11-26T08:28:59Z</time>
      </trkpt>
      <trkpt lat="46.74009" lon="5.62857">
        <ele>258.5</ele>
        <time>2019-11-26T08:29:02Z</time>
      </trkpt>
      <trkpt lat="46.73991" lon="5.6286">
        <ele>257.2</ele>
        <time>2019-11-26T08:29:17Z</time>
      </trkpt>
      <trkpt lat="46.73987" lon="5.62862">
        <ele>257.1</ele>
        <time>2019-11-26T08:29:20Z</time>
      </trkpt>
      <trkpt lat="46.73981" lon="5.62863">
        <ele>257.3</ele>
        <time>2019-11-26T08:29:26Z</time>
      </trkpt>
      <trkpt lat="46.73977" lon="5.62865">
        <ele>257.3</ele>
        <time>2019-11-26T08:29:30Z</time>
      </trkpt>
      <trkpt lat="46.73971" lon="5.62865">
        <ele>257.4</ele>
        <time>2019-11-26T08:29:35Z</time>
      </trkpt>
      <trkpt lat="46.73965" lon="5.62867">
        <ele>257.5</ele>
        <time>2019-11-26T08:29:39Z</time>
      </trkpt>
      <trkpt lat="46.73961" lon="5.62868">
        <ele>257.7</ele>
        <time>2019-11-26T08:29:42Z</time>
      </trkpt>
      <trkpt lat="46.73956" lon="5.62868">
        <ele>257.8</ele>
        <time>2019-11-26T08:29:46Z</time>
      </trkpt>
      <trkpt lat="46.73952" lon="5.62868">
        <ele>257.9</ele>
        <time>2019-11-26T08:29:50Z</time>
      </trkpt>
      <trkpt lat="46.73946" lon="5.62868">
        <ele>258.2</ele>
        <time>2019-11-26T08:29:55Z</time>
      </trkpt>
      <trkpt lat="46.73941" lon="5.62867">
        <ele>258.6</ele>
        <time>2019-11-26T08:29:59Z</time>
      </trkpt>
      <trkpt lat="46.73936" lon="5.62865">
        <ele>259</ele>
        <time>2019-11-26T08:30:04Z</time>
      </trkpt>
      <trkpt lat="46.73931" lon="5.62862">
        <ele>259.4</ele>
        <time>2019-11-26T08:30:09Z</time>
      </trkpt>
      <trkpt lat="46.73926" lon="5.62863">
        <ele>259.5</ele>
        <time>2019-11-26T08:30:14Z</time>
      </trkpt>
      <trkpt lat="46.73921" lon="5.62864">
        <ele>259.7</ele>
        <time>2019-11-26T08:30:20Z</time>
      </trkpt>
      <trkpt lat="46.73917" lon="5.62865">
        <ele>259.8</ele>
        <time>2019-11-26T08:30:23Z</time>
      </trkpt>
      <trkpt lat="46.73911" lon="5.62864">
        <ele>260.1</ele>
        <time>2019-11-26T08:30:27Z</time>
      </trkpt>
      <trkpt lat="46.73907" lon="5.62865">
        <ele>260.5</ele>
        <time>2019-11-26T08:30:31Z</time>
      </trkpt>
      <trkpt lat="46.73901" lon="5.62865">
        <ele>260.7</ele>
        <time>2019-11-26T08:30:35Z</time>
      </trkpt>
      <trkpt lat="46.73896" lon="5.62866">
        <ele>260.7</ele>
        <time>2019-11-26T08:30:39Z</time>
      </trkpt>
      <trkpt lat="46.7389" lon="5.62867">
        <ele>260.4</ele>
        <time>2019-11-26T08:30:44Z</time>
      </trkpt>
      <trkpt lat="46.73886" lon="5.62871">
        <ele>259.9</ele>
        <time>2019-11-26T08:30:49Z</time>
      </trkpt>
      <trkpt lat="46.73882" lon="5.62877">
        <ele>259.1</ele>
        <time>2019-11-26T08:30:54Z</time>
      </trkpt>
      <trkpt lat="46.73878" lon="5.62882">
        <ele>258.3</ele>
        <time>2019-11-26T08:31:00Z</time>
      </trkpt>
      <trkpt lat="46.73873" lon="5.62885">
        <ele>257.9</ele>
        <time>2019-11-26T08:31:05Z</time>
      </trkpt>
      <trkpt lat="46.73868" lon="5.62887">
        <ele>257.7</ele>
        <time>2019-11-26T08:31:09Z</time>
      </trkpt>
      <trkpt lat="46.73863" lon="5.62891">
        <ele>257.7</ele>
        <time>2019-11-26T08:31:14Z</time>
      </trkpt>
      <trkpt lat="46.7386" lon="5.62897">
        <ele>257.7</ele>
        <time>2019-11-26T08:31:18Z</time>
      </trkpt>
      <trkpt lat="46.73856" lon="5.62901">
        <ele>257.9</ele>
        <time>2019-11-26T08:31:22Z</time>
      </trkpt>
      <trkpt lat="46.73851" lon="5.62905">
        <ele>258.3</ele>
        <time>2019-11-26T08:31:27Z</time>
      </trkpt>
      <trkpt lat="46.73847" lon="5.6291">
        <ele>258.7</ele>
        <time>2019-11-26T08:31:31Z</time>
      </trkpt>
      <trkpt lat="46.73846" lon="5.62916">
        <ele>259.2</ele>
        <time>2019-11-26T08:31:35Z</time>
      </trkpt>
      <trkpt lat="46.73845" lon="5.62923">
        <ele>259.9</ele>
        <time>2019-11-26T08:31:39Z</time>
      </trkpt>
      <trkpt lat="46.73846" lon="5.62932">
        <ele>261.2</ele>
        <time>2019-11-26T08:31:45Z</time>
      </trkpt>
      <trkpt lat="46.73846" lon="5.62938">
        <ele>261.9</ele>
        <time>2019-11-26T08:31:49Z</time>
      </trkpt>
      <trkpt lat="46.73845" lon="5.62946">
        <ele>262.5</ele>
        <time>2019-11-26T08:31:53Z</time>
      </trkpt>
      <trkpt lat="46.73844" lon="5.62954">
        <ele>263.3</ele>
        <time>2019-11-26T08:31:58Z</time>
      </trkpt>
      <trkpt lat="46.73844" lon="5.62962">
        <ele>263.9</ele>
        <time>2019-11-26T08:32:03Z</time>
      </trkpt>
      <trkpt lat="46.73843" lon="5.62968">
        <ele>264.3</ele>
        <time>2019-11-26T08:32:07Z</time>
      </trkpt>
      <trkpt lat="46.73841" lon="5.62975">
        <ele>264.8</ele>
        <time>2019-11-26T08:32:11Z</time>
      </trkpt>
      <trkpt lat="46.73839" lon="5.62982">
        <ele>264.9</ele>
        <time>2019-11-26T08:32:15Z</time>
      </trkpt>
      <trkpt lat="46.73839" lon="5.62989">
        <ele>264.8</ele>
        <time>2019-11-26T08:32:26Z</time>
      </trkpt>
      <trkpt lat="46.73839" lon="5.62996">
        <ele>264.5</ele>
        <time>2019-11-26T08:32:35Z</time>
      </trkpt>
      <trkpt lat="46.73842" lon="5.63002">
        <ele>264.7</ele>
        <time>2019-11-26T08:32:39Z</time>
      </trkpt>
      <trkpt lat="46.73844" lon="5.63008">
        <ele>265</ele>
        <time>2019-11-26T08:32:45Z</time>
      </trkpt>
      <trkpt lat="46.73846" lon="5.63015">
        <ele>265.2</ele>
        <time>2019-11-26T08:32:50Z</time>
      </trkpt>
      <trkpt lat="46.73847" lon="5.63023">
        <ele>265.3</ele>
        <time>2019-11-26T08:32:55Z</time>
      </trkpt>
      <trkpt lat="46.73848" lon="5.6303">
        <ele>265.4</ele>
        <time>2019-11-26T08:33:00Z</time>
      </trkpt>
      <trkpt lat="46.7385" lon="5.63037">
        <ele>265.4</ele>
        <time>2019-11-26T08:33:04Z</time>
      </trkpt>
      <trkpt lat="46.73851" lon="5.63044">
        <ele>265.4</ele>
        <time>2019-11-26T08:33:07Z</time>
      </trkpt>
      <trkpt lat="46.73853" lon="5.6305">
        <ele>265.3</ele>
        <time>2019-11-26T08:33:12Z</time>
      </trkpt>
      <trkpt lat="46.73857" lon="5.63057">
        <ele>265.4</ele>
        <time>2019-11-26T08:33:17Z</time>
      </trkpt>
      <trkpt lat="46.73862" lon="5.63061">
        <ele>265.7</ele>
        <time>2019-11-26T08:33:21Z</time>
      </trkpt>
      <trkpt lat="46.73865" lon="5.63066">
        <ele>266</ele>
        <time>2019-11-26T08:33:26Z</time>
      </trkpt>
      <trkpt lat="46.73868" lon="5.63072">
        <ele>266.6</ele>
        <time>2019-11-26T08:33:32Z</time>
      </trkpt>
      <trkpt lat="46.73871" lon="5.63078">
        <ele>267</ele>
        <time>2019-11-26T08:33:36Z</time>
      </trkpt>
      <trkpt lat="46.73874" lon="5.63083">
        <ele>267.6</ele>
        <time>2019-11-26T08:33:41Z</time>
      </trkpt>
      <trkpt lat="46.73877" lon="5.63089">
        <ele>268</ele>
        <time>2019-11-26T08:33:46Z</time>
      </trkpt>
      <trkpt lat="46.7388" lon="5.63095">
        <ele>268.4</ele>
        <time>2019-11-26T08:33:51Z</time>
      </trkpt>
      <trkpt lat="46.73884" lon="5.63101">
        <ele>268.7</ele>
        <time>2019-11-26T08:33:55Z</time>
      </trkpt>
      <trkpt lat="46.73887" lon="5.63107">
        <ele>269</ele>
        <time>2019-11-26T08:33:59Z</time>
      </trkpt>
      <trkpt lat="46.7389" lon="5.63113">
        <ele>269.4</ele>
        <time>2019-11-26T08:34:04Z</time>
      </trkpt>
      <trkpt lat="46.73894" lon="5.63118">
        <ele>269.7</ele>
        <time>2019-11-26T08:34:09Z</time>
      </trkpt>
      <trkpt lat="46.73896" lon="5.63124">
        <ele>269.9</ele>
        <time>2019-11-26T08:34:13Z</time>
      </trkpt>
      <trkpt lat="46.73897" lon="5.6313">
        <ele>270.1</ele>
        <time>2019-11-26T08:34:17Z</time>
      </trkpt>
      <trkpt lat="46.739" lon="5.63137">
        <ele>270.2</ele>
        <time>2019-11-26T08:34:21Z</time>
      </trkpt>
      <trkpt lat="46.73902" lon="5.63144">
        <ele>270.3</ele>
        <time>2019-11-26T08:34:26Z</time>
      </trkpt>
      <trkpt lat="46.73905" lon="5.6315">
        <ele>270.4</ele>
        <time>2019-11-26T08:34:30Z</time>
      </trkpt>
      <trkpt lat="46.73907" lon="5.63156">
        <ele>270.6</ele>
        <time>2019-11-26T08:34:35Z</time>
      </trkpt>
      <trkpt lat="46.73909" lon="5.63163">
        <ele>271</ele>
        <time>2019-11-26T08:34:40Z</time>
      </trkpt>
      <trkpt lat="46.73911" lon="5.6317">
        <ele>271.3</ele>
        <time>2019-11-26T08:34:44Z</time>
      </trkpt>
      <trkpt lat="46.73913" lon="5.63177">
        <ele>271.7</ele>
        <time>2019-11-26T08:34:49Z</time>
      </trkpt>
      <trkpt lat="46.73917" lon="5.63183">
        <ele>272</ele>
        <time>2019-11-26T08:34:53Z</time>
      </trkpt>
      <trkpt lat="46.73921" lon="5.63186">
        <ele>272.3</ele>
        <time>2019-11-26T08:34:58Z</time>
      </trkpt>
      <trkpt lat="46.73925" lon="5.63189">
        <ele>272.5</ele>
        <time>2019-11-26T08:35:03Z</time>
      </trkpt>
      <trkpt lat="46.7393" lon="5.6319">
        <ele>272.7</ele>
        <time>2019-11-26T08:35:07Z</time>
      </trkpt>
      <trkpt lat="46.73934" lon="5.63193">
        <ele>272.9</ele>
        <time>2019-11-26T08:35:12Z</time>
      </trkpt>
      <trkpt lat="46.73932" lon="5.632">
        <ele>273.9</ele>
        <time>2019-11-26T08:35:22Z</time>
      </trkpt>
      <trkpt lat="46.73929" lon="5.63205">
        <ele>274.2</ele>
        <time>2019-11-26T08:35:26Z</time>
      </trkpt>
      <trkpt lat="46.73927" lon="5.63212">
        <ele>274.3</ele>
        <time>2019-11-26T08:35:30Z</time>
      </trkpt>
      <trkpt lat="46.73925" lon="5.63218">
        <ele>274.1</ele>
        <time>2019-11-26T08:35:33Z</time>
      </trkpt>
      <trkpt lat="46.73922" lon="5.63224">
        <ele>273.8</ele>
        <time>2019-11-26T08:35:36Z</time>
      </trkpt>
      <trkpt lat="46.7392" lon="5.63232">
        <ele>273.4</ele>
        <time>2019-11-26T08:35:41Z</time>
      </trkpt>
      <trkpt lat="46.73919" lon="5.63239">
        <ele>273.2</ele>
        <time>2019-11-26T08:35:47Z</time>
      </trkpt>
      <trkpt lat="46.73918" lon="5.63246">
        <ele>273.1</ele>
        <time>2019-11-26T08:35:51Z</time>
      </trkpt>
      <trkpt lat="46.73916" lon="5.63253">
        <ele>273</ele>
        <time>2019-11-26T08:35:55Z</time>
      </trkpt>
      <trkpt lat="46.73912" lon="5.63257">
        <ele>272.8</ele>
        <time>2019-11-26T08:36:01Z</time>
      </trkpt>
      <trkpt lat="46.73902" lon="5.6327">
        <ele>272.3</ele>
        <time>2019-11-26T08:36:12Z</time>
      </trkpt>
      <trkpt lat="46.73898" lon="5.63276">
        <ele>272</ele>
        <time>2019-11-26T08:36:16Z</time>
      </trkpt>
      <trkpt lat="46.73895" lon="5.6328">
        <ele>271.8</ele>
        <time>2019-11-26T08:36:20Z</time>
      </trkpt>
      <trkpt lat="46.73892" lon="5.63286">
        <ele>271.8</ele>
        <time>2019-11-26T08:36:24Z</time>
      </trkpt>
      <trkpt lat="46.73889" lon="5.63292">
        <ele>272</ele>
        <time>2019-11-26T08:36:30Z</time>
      </trkpt>
      <trkpt lat="46.73887" lon="5.63299">
        <ele>272.1</ele>
        <time>2019-11-26T08:36:36Z</time>
      </trkpt>
      <trkpt lat="46.73884" lon="5.63305">
        <ele>272</ele>
        <time>2019-11-26T08:36:40Z</time>
      </trkpt>
      <trkpt lat="46.73881" lon="5.63311">
        <ele>271.8</ele>
        <time>2019-11-26T08:36:43Z</time>
      </trkpt>
      <trkpt lat="46.73878" lon="5.63317">
        <ele>271.4</ele>
        <time>2019-11-26T08:36:47Z</time>
      </trkpt>
      <trkpt lat="46.73874" lon="5.63321">
        <ele>270.9</ele>
        <time>2019-11-26T08:36:51Z</time>
      </trkpt>
      <trkpt lat="46.7387" lon="5.63326">
        <ele>270.1</ele>
        <time>2019-11-26T08:36:56Z</time>
      </trkpt>
      <trkpt lat="46.73866" lon="5.6333">
        <ele>269.4</ele>
        <time>2019-11-26T08:37:01Z</time>
      </trkpt>
      <trkpt lat="46.73862" lon="5.63336">
        <ele>269</ele>
        <time>2019-11-26T08:37:05Z</time>
      </trkpt>
      <trkpt lat="46.73857" lon="5.63339">
        <ele>268.7</ele>
        <time>2019-11-26T08:37:09Z</time>
      </trkpt>
      <trkpt lat="46.73851" lon="5.63341">
        <ele>268.5</ele>
        <time>2019-11-26T08:37:13Z</time>
      </trkpt>
      <trkpt lat="46.73847" lon="5.63344">
        <ele>268.6</ele>
        <time>2019-11-26T08:37:18Z</time>
      </trkpt>
      <trkpt lat="46.73844" lon="5.6335">
        <ele>268.7</ele>
        <time>2019-11-26T08:37:22Z</time>
      </trkpt>
      <trkpt lat="46.73842" lon="5.63356">
        <ele>268.7</ele>
        <time>2019-11-26T08:37:26Z</time>
      </trkpt>
      <trkpt lat="46.73838" lon="5.63362">
        <ele>268.6</ele>
        <time>2019-11-26T08:37:32Z</time>
      </trkpt>
      <trkpt lat="46.73835" lon="5.63368">
        <ele>268.6</ele>
        <time>2019-11-26T08:37:37Z</time>
      </trkpt>
      <trkpt lat="46.73831" lon="5.63373">
        <ele>268.8</ele>
        <time>2019-11-26T08:37:41Z</time>
      </trkpt>
      <trkpt lat="46.73828" lon="5.63377">
        <ele>269</ele>
        <time>2019-11-26T08:37:44Z</time>
      </trkpt>
      <trkpt lat="46.73823" lon="5.6338">
        <ele>269.3</ele>
        <time>2019-11-26T08:37:48Z</time>
      </trkpt>
      <trkpt lat="46.73818" lon="5.63384">
        <ele>269.5</ele>
        <time>2019-11-26T08:37:54Z</time>
      </trkpt>
      <trkpt lat="46.73815" lon="5.63388">
        <ele>269.3</ele>
        <time>2019-11-26T08:37:58Z</time>
      </trkpt>
      <trkpt lat="46.73811" lon="5.63393">
        <ele>268.7</ele>
        <time>2019-11-26T08:38:03Z</time>
      </trkpt>
      <trkpt lat="46.73808" lon="5.63398">
        <ele>267.8</ele>
        <time>2019-11-26T08:38:14Z</time>
      </trkpt>
      <trkpt lat="46.73803" lon="5.634">
        <ele>270.9</ele>
        <time>2019-11-26T08:39:47Z</time>
      </trkpt>
      <trkpt lat="46.73798" lon="5.63405">
        <ele>271.1</ele>
        <time>2019-11-26T08:39:51Z</time>
      </trkpt>
      <trkpt lat="46.73795" lon="5.63409">
        <ele>271.2</ele>
        <time>2019-11-26T08:39:54Z</time>
      </trkpt>
      <trkpt lat="46.73791" lon="5.63414">
        <ele>271.2</ele>
        <time>2019-11-26T08:39:58Z</time>
      </trkpt>
      <trkpt lat="46.73787" lon="5.63418">
        <ele>271.1</ele>
        <time>2019-11-26T08:40:03Z</time>
      </trkpt>
      <trkpt lat="46.73782" lon="5.63422">
        <ele>270.7</ele>
        <time>2019-11-26T08:40:08Z</time>
      </trkpt>
      <trkpt lat="46.73778" lon="5.63427">
        <ele>270</ele>
        <time>2019-11-26T08:40:14Z</time>
      </trkpt>
      <trkpt lat="46.73776" lon="5.63432">
        <ele>269.7</ele>
        <time>2019-11-26T08:40:18Z</time>
      </trkpt>
      <trkpt lat="46.73771" lon="5.63437">
        <ele>269.3</ele>
        <time>2019-11-26T08:40:23Z</time>
      </trkpt>
      <trkpt lat="46.73767" lon="5.63441">
        <ele>269.3</ele>
        <time>2019-11-26T08:40:28Z</time>
      </trkpt>
      <trkpt lat="46.73762" lon="5.63444">
        <ele>269.4</ele>
        <time>2019-11-26T08:40:33Z</time>
      </trkpt>
      <trkpt lat="46.73757" lon="5.63448">
        <ele>269.7</ele>
        <time>2019-11-26T08:40:38Z</time>
      </trkpt>
      <trkpt lat="46.73753" lon="5.63451">
        <ele>270</ele>
        <time>2019-11-26T08:40:41Z</time>
      </trkpt>
      <trkpt lat="46.73748" lon="5.63454">
        <ele>270.5</ele>
        <time>2019-11-26T08:40:46Z</time>
      </trkpt>
      <trkpt lat="46.73744" lon="5.63456">
        <ele>270.8</ele>
        <time>2019-11-26T08:40:51Z</time>
      </trkpt>
      <trkpt lat="46.7374" lon="5.63461">
        <ele>271</ele>
        <time>2019-11-26T08:40:55Z</time>
      </trkpt>
      <trkpt lat="46.73735" lon="5.63465">
        <ele>271</ele>
        <time>2019-11-26T08:41:01Z</time>
      </trkpt>
      <trkpt lat="46.73731" lon="5.6347">
        <ele>270.8</ele>
        <time>2019-11-26T08:41:05Z</time>
      </trkpt>
      <trkpt lat="46.73727" lon="5.63474">
        <ele>270.5</ele>
        <time>2019-11-26T08:41:09Z</time>
      </trkpt>
      <trkpt lat="46.73723" lon="5.63478">
        <ele>270.3</ele>
        <time>2019-11-26T08:41:14Z</time>
      </trkpt>
      <trkpt lat="46.73718" lon="5.63482">
        <ele>270</ele>
        <time>2019-11-26T08:41:18Z</time>
      </trkpt>
      <trkpt lat="46.73714" lon="5.63485">
        <ele>269.6</ele>
        <time>2019-11-26T08:41:22Z</time>
      </trkpt>
      <trkpt lat="46.7371" lon="5.63489">
        <ele>269.2</ele>
        <time>2019-11-26T08:41:26Z</time>
      </trkpt>
      <trkpt lat="46.73706" lon="5.63494">
        <ele>268.8</ele>
        <time>2019-11-26T08:41:30Z</time>
      </trkpt>
      <trkpt lat="46.73702" lon="5.63498">
        <ele>268.4</ele>
        <time>2019-11-26T08:41:33Z</time>
      </trkpt>
      <trkpt lat="46.73699" lon="5.63502">
        <ele>268</ele>
        <time>2019-11-26T08:41:36Z</time>
      </trkpt>
      <trkpt lat="46.73694" lon="5.63505">
        <ele>267.3</ele>
        <time>2019-11-26T08:41:40Z</time>
      </trkpt>
      <trkpt lat="46.73689" lon="5.63508">
        <ele>266.6</ele>
        <time>2019-11-26T08:41:44Z</time>
      </trkpt>
      <trkpt lat="46.73685" lon="5.63509">
        <ele>265.8</ele>
        <time>2019-11-26T08:41:48Z</time>
      </trkpt>
      <trkpt lat="46.7368" lon="5.63508">
        <ele>265.4</ele>
        <time>2019-11-26T08:41:52Z</time>
      </trkpt>
      <trkpt lat="46.73675" lon="5.63507">
        <ele>265.2</ele>
        <time>2019-11-26T08:41:56Z</time>
      </trkpt>
      <trkpt lat="46.7367" lon="5.63505">
        <ele>265.1</ele>
        <time>2019-11-26T08:42:01Z</time>
      </trkpt>
      <trkpt lat="46.73665" lon="5.63504">
        <ele>265.3</ele>
        <time>2019-11-26T08:42:06Z</time>
      </trkpt>
      <trkpt lat="46.7366" lon="5.63502">
        <ele>265.6</ele>
        <time>2019-11-26T08:42:11Z</time>
      </trkpt>
      <trkpt lat="46.73655" lon="5.63501">
        <ele>265.8</ele>
        <time>2019-11-26T08:42:17Z</time>
      </trkpt>
      <trkpt lat="46.73651" lon="5.63501">
        <ele>266</ele>
        <time>2019-11-26T08:42:21Z</time>
      </trkpt>
      <trkpt lat="46.73646" lon="5.63503">
        <ele>266.4</ele>
        <time>2019-11-26T08:42:25Z</time>
      </trkpt>
      <trkpt lat="46.73641" lon="5.63502">
        <ele>266.8</ele>
        <time>2019-11-26T08:42:29Z</time>
      </trkpt>
      <trkpt lat="46.73636" lon="5.63504">
        <ele>267.3</ele>
        <time>2019-11-26T08:42:34Z</time>
      </trkpt>
      <trkpt lat="46.73635" lon="5.6351">
        <ele>267.8</ele>
        <time>2019-11-26T08:42:39Z</time>
      </trkpt>
      <trkpt lat="46.73633" lon="5.63517">
        <ele>268.2</ele>
        <time>2019-11-26T08:42:43Z</time>
      </trkpt>
      <trkpt lat="46.73632" lon="5.63523">
        <ele>268.6</ele>
        <time>2019-11-26T08:42:47Z</time>
      </trkpt>
      <trkpt lat="46.73631" lon="5.6353">
        <ele>268.9</ele>
        <time>2019-11-26T08:42:51Z</time>
      </trkpt>
      <trkpt lat="46.7363" lon="5.63536">
        <ele>269.1</ele>
        <time>2019-11-26T08:42:55Z</time>
      </trkpt>
      <trkpt lat="46.7363" lon="5.63544">
        <ele>269.4</ele>
        <time>2019-11-26T08:43:01Z</time>
      </trkpt>
      <trkpt lat="46.73629" lon="5.63551">
        <ele>269.7</ele>
        <time>2019-11-26T08:43:05Z</time>
      </trkpt>
      <trkpt lat="46.73631" lon="5.63559">
        <ele>270.1</ele>
        <time>2019-11-26T08:43:10Z</time>
      </trkpt>
      <trkpt lat="46.73632" lon="5.63566">
        <ele>270.3</ele>
        <time>2019-11-26T08:43:14Z</time>
      </trkpt>
      <trkpt lat="46.73634" lon="5.63574">
        <ele>270.6</ele>
        <time>2019-11-26T08:43:18Z</time>
      </trkpt>
      <trkpt lat="46.73635" lon="5.6358">
        <ele>271</ele>
        <time>2019-11-26T08:43:22Z</time>
      </trkpt>
      <trkpt lat="46.73634" lon="5.63588">
        <ele>271.4</ele>
        <time>2019-11-26T08:43:26Z</time>
      </trkpt>
      <trkpt lat="46.73632" lon="5.63594">
        <ele>271.6</ele>
        <time>2019-11-26T08:43:31Z</time>
      </trkpt>
      <trkpt lat="46.73631" lon="5.63601">
        <ele>271.5</ele>
        <time>2019-11-26T08:43:37Z</time>
      </trkpt>
      <trkpt lat="46.73629" lon="5.63609">
        <ele>271.4</ele>
        <time>2019-11-26T08:43:42Z</time>
      </trkpt>
      <trkpt lat="46.73627" lon="5.63615">
        <ele>271.2</ele>
        <time>2019-11-26T08:43:45Z</time>
      </trkpt>
      <trkpt lat="46.73624" lon="5.63621">
        <ele>271.1</ele>
        <time>2019-11-26T08:43:48Z</time>
      </trkpt>
      <trkpt lat="46.73622" lon="5.63629">
        <ele>271.2</ele>
        <time>2019-11-26T08:43:52Z</time>
      </trkpt>
      <trkpt lat="46.73621" lon="5.63636">
        <ele>271.3</ele>
        <time>2019-11-26T08:43:56Z</time>
      </trkpt>
      <trkpt lat="46.7362" lon="5.63644">
        <ele>271.6</ele>
        <time>2019-11-26T08:44:00Z</time>
      </trkpt>
      <trkpt lat="46.73619" lon="5.63651">
        <ele>271.7</ele>
        <time>2019-11-26T08:44:05Z</time>
      </trkpt>
      <trkpt lat="46.73618" lon="5.63658">
        <ele>271.8</ele>
        <time>2019-11-26T08:44:09Z</time>
      </trkpt>
      <trkpt lat="46.73616" lon="5.63663">
        <ele>272</ele>
        <time>2019-11-26T08:44:13Z</time>
      </trkpt>
      <trkpt lat="46.73614" lon="5.6367">
        <ele>272.2</ele>
        <time>2019-11-26T08:44:17Z</time>
      </trkpt>
      <trkpt lat="46.73612" lon="5.63678">
        <ele>272.6</ele>
        <time>2019-11-26T08:44:21Z</time>
      </trkpt>
      <trkpt lat="46.73611" lon="5.63685">
        <ele>272.8</ele>
        <time>2019-11-26T08:44:25Z</time>
      </trkpt>
      <trkpt lat="46.7361" lon="5.63692">
        <ele>272.9</ele>
        <time>2019-11-26T08:44:29Z</time>
      </trkpt>
      <trkpt lat="46.73608" lon="5.63698">
        <ele>272.8</ele>
        <time>2019-11-26T08:44:33Z</time>
      </trkpt>
      <trkpt lat="46.73607" lon="5.63705">
        <ele>272.6</ele>
        <time>2019-11-26T08:44:37Z</time>
      </trkpt>
      <trkpt lat="46.73606" lon="5.63714">
        <ele>272.5</ele>
        <time>2019-11-26T08:44:42Z</time>
      </trkpt>
      <trkpt lat="46.73605" lon="5.63721">
        <ele>272.4</ele>
        <time>2019-11-26T08:44:47Z</time>
      </trkpt>
      <trkpt lat="46.73604" lon="5.63728">
        <ele>272.2</ele>
        <time>2019-11-26T08:44:53Z</time>
      </trkpt>
      <trkpt lat="46.73602" lon="5.63734">
        <ele>272.2</ele>
        <time>2019-11-26T08:44:57Z</time>
      </trkpt>
      <trkpt lat="46.736" lon="5.63742">
        <ele>272.2</ele>
        <time>2019-11-26T08:45:01Z</time>
      </trkpt>
      <trkpt lat="46.73596" lon="5.63748">
        <ele>272.3</ele>
        <time>2019-11-26T08:45:05Z</time>
      </trkpt>
      <trkpt lat="46.73593" lon="5.63754">
        <ele>272.5</ele>
        <time>2019-11-26T08:45:09Z</time>
      </trkpt>
      <trkpt lat="46.73591" lon="5.6376">
        <ele>272.6</ele>
        <time>2019-11-26T08:45:13Z</time>
      </trkpt>
      <trkpt lat="46.73589" lon="5.63767">
        <ele>272.6</ele>
        <time>2019-11-26T08:45:18Z</time>
      </trkpt>
      <trkpt lat="46.73587" lon="5.63773">
        <ele>272.7</ele>
        <time>2019-11-26T08:45:22Z</time>
      </trkpt>
      <trkpt lat="46.73584" lon="5.63779">
        <ele>272.8</ele>
        <time>2019-11-26T08:45:26Z</time>
      </trkpt>
      <trkpt lat="46.73582" lon="5.63786">
        <ele>273.1</ele>
        <time>2019-11-26T08:45:31Z</time>
      </trkpt>
      <trkpt lat="46.73579" lon="5.63792">
        <ele>273.5</ele>
        <time>2019-11-26T08:45:35Z</time>
      </trkpt>
      <trkpt lat="46.73576" lon="5.63798">
        <ele>274</ele>
        <time>2019-11-26T08:45:39Z</time>
      </trkpt>
      <trkpt lat="46.73574" lon="5.63805">
        <ele>274.5</ele>
        <time>2019-11-26T08:45:43Z</time>
      </trkpt>
      <trkpt lat="46.73571" lon="5.6381">
        <ele>274.8</ele>
        <time>2019-11-26T08:45:46Z</time>
      </trkpt>
      <trkpt lat="46.73567" lon="5.63816">
        <ele>275.2</ele>
        <time>2019-11-26T08:45:51Z</time>
      </trkpt>
      <trkpt lat="46.73564" lon="5.63821">
        <ele>275.3</ele>
        <time>2019-11-26T08:45:56Z</time>
      </trkpt>
      <trkpt lat="46.73561" lon="5.63826">
        <ele>275.6</ele>
        <time>2019-11-26T08:46:00Z</time>
      </trkpt>
      <trkpt lat="46.73559" lon="5.63834">
        <ele>275.9</ele>
        <time>2019-11-26T08:46:04Z</time>
      </trkpt>
      <trkpt lat="46.73556" lon="5.6384">
        <ele>276.2</ele>
        <time>2019-11-26T08:46:08Z</time>
      </trkpt>
      <trkpt lat="46.73554" lon="5.63846">
        <ele>276.5</ele>
        <time>2019-11-26T08:46:13Z</time>
      </trkpt>
      <trkpt lat="46.73552" lon="5.63853">
        <ele>276.8</ele>
        <time>2019-11-26T08:46:19Z</time>
      </trkpt>
      <trkpt lat="46.73549" lon="5.63859">
        <ele>277</ele>
        <time>2019-11-26T08:46:23Z</time>
      </trkpt>
      <trkpt lat="46.73545" lon="5.63864">
        <ele>277.3</ele>
        <time>2019-11-26T08:46:28Z</time>
      </trkpt>
      <trkpt lat="46.73543" lon="5.63869">
        <ele>277.6</ele>
        <time>2019-11-26T08:46:32Z</time>
      </trkpt>
      <trkpt lat="46.73539" lon="5.63877">
        <ele>277.8</ele>
        <time>2019-11-26T08:46:36Z</time>
      </trkpt>
      <trkpt lat="46.73535" lon="5.63882">
        <ele>277.9</ele>
        <time>2019-11-26T08:46:40Z</time>
      </trkpt>
      <trkpt lat="46.73532" lon="5.63887">
        <ele>277.9</ele>
        <time>2019-11-26T08:46:43Z</time>
      </trkpt>
      <trkpt lat="46.73528" lon="5.63892">
        <ele>277.8</ele>
        <time>2019-11-26T08:46:48Z</time>
      </trkpt>
      <trkpt lat="46.73524" lon="5.63896">
        <ele>277.8</ele>
        <time>2019-11-26T08:46:51Z</time>
      </trkpt>
      <trkpt lat="46.73521" lon="5.63901">
        <ele>277.7</ele>
        <time>2019-11-26T08:46:55Z</time>
      </trkpt>
      <trkpt lat="46.73517" lon="5.63907">
        <ele>278</ele>
        <time>2019-11-26T08:47:00Z</time>
      </trkpt>
      <trkpt lat="46.73512" lon="5.63911">
        <ele>278</ele>
        <time>2019-11-26T08:47:06Z</time>
      </trkpt>
      <trkpt lat="46.73508" lon="5.63914">
        <ele>277.8</ele>
        <time>2019-11-26T08:47:10Z</time>
      </trkpt>
      <trkpt lat="46.73503" lon="5.63919">
        <ele>277.6</ele>
        <time>2019-11-26T08:47:15Z</time>
      </trkpt>
      <trkpt lat="46.735" lon="5.63924">
        <ele>277.4</ele>
        <time>2019-11-26T08:47:19Z</time>
      </trkpt>
      <trkpt lat="46.73496" lon="5.63928">
        <ele>277.3</ele>
        <time>2019-11-26T08:47:24Z</time>
      </trkpt>
      <trkpt lat="46.73492" lon="5.63932">
        <ele>277.3</ele>
        <time>2019-11-26T08:47:28Z</time>
      </trkpt>
      <trkpt lat="46.73487" lon="5.63937">
        <ele>277.3</ele>
        <time>2019-11-26T08:47:32Z</time>
      </trkpt>
      <trkpt lat="46.73484" lon="5.63941">
        <ele>277.2</ele>
        <time>2019-11-26T08:47:36Z</time>
      </trkpt>
      <trkpt lat="46.7348" lon="5.63946">
        <ele>276.9</ele>
        <time>2019-11-26T08:47:40Z</time>
      </trkpt>
      <trkpt lat="46.73477" lon="5.63951">
        <ele>276.7</ele>
        <time>2019-11-26T08:47:44Z</time>
      </trkpt>
      <trkpt lat="46.73474" lon="5.63956">
        <ele>276.3</ele>
        <time>2019-11-26T08:47:49Z</time>
      </trkpt>
      <trkpt lat="46.73471" lon="5.63962">
        <ele>275.9</ele>
        <time>2019-11-26T08:47:53Z</time>
      </trkpt>
      <trkpt lat="46.73469" lon="5.63968">
        <ele>275.8</ele>
        <time>2019-11-26T08:47:57Z</time>
      </trkpt>
      <trkpt lat="46.73467" lon="5.63974">
        <ele>275.6</ele>
        <time>2019-11-26T08:48:01Z</time>
      </trkpt>
      <trkpt lat="46.73465" lon="5.63981">
        <ele>275.4</ele>
        <time>2019-11-26T08:48:06Z</time>
      </trkpt>
      <trkpt lat="46.73462" lon="5.63986">
        <ele>275.3</ele>
        <time>2019-11-26T08:48:10Z</time>
      </trkpt>
      <trkpt lat="46.73459" lon="5.63991">
        <ele>275.1</ele>
        <time>2019-11-26T08:48:14Z</time>
      </trkpt>
      <trkpt lat="46.73457" lon="5.63997">
        <ele>275</ele>
        <time>2019-11-26T08:48:18Z</time>
      </trkpt>
      <trkpt lat="46.73453" lon="5.64004">
        <ele>274.7</ele>
        <time>2019-11-26T08:48:23Z</time>
      </trkpt>
      <trkpt lat="46.73452" lon="5.6401">
        <ele>274.4</ele>
        <time>2019-11-26T08:48:27Z</time>
      </trkpt>
      <trkpt lat="46.7345" lon="5.64016">
        <ele>274.1</ele>
        <time>2019-11-26T08:48:31Z</time>
      </trkpt>
      <trkpt lat="46.73448" lon="5.64023">
        <ele>273.8</ele>
        <time>2019-11-26T08:48:35Z</time>
      </trkpt>
      <trkpt lat="46.73445" lon="5.6403">
        <ele>273.6</ele>
        <time>2019-11-26T08:48:39Z</time>
      </trkpt>
      <trkpt lat="46.73444" lon="5.64038">
        <ele>273.5</ele>
        <time>2019-11-26T08:48:43Z</time>
      </trkpt>
      <trkpt lat="46.73443" lon="5.64046">
        <ele>273.5</ele>
        <time>2019-11-26T08:48:47Z</time>
      </trkpt>
      <trkpt lat="46.73441" lon="5.64053">
        <ele>273.3</ele>
        <time>2019-11-26T08:48:51Z</time>
      </trkpt>
      <trkpt lat="46.73439" lon="5.6406">
        <ele>273.3</ele>
        <time>2019-11-26T08:48:55Z</time>
      </trkpt>
      <trkpt lat="46.73437" lon="5.64068">
        <ele>273.5</ele>
        <time>2019-11-26T08:48:59Z</time>
      </trkpt>
      <trkpt lat="46.73435" lon="5.64075">
        <ele>273.6</ele>
        <time>2019-11-26T08:49:04Z</time>
      </trkpt>
      <trkpt lat="46.73434" lon="5.64082">
        <ele>273.6</ele>
        <time>2019-11-26T08:49:09Z</time>
      </trkpt>
      <trkpt lat="46.73431" lon="5.64089">
        <ele>273.5</ele>
        <time>2019-11-26T08:49:14Z</time>
      </trkpt>
      <trkpt lat="46.73428" lon="5.64095">
        <ele>273.7</ele>
        <time>2019-11-26T08:49:19Z</time>
      </trkpt>
      <trkpt lat="46.73427" lon="5.64103">
        <ele>274.3</ele>
        <time>2019-11-26T08:49:24Z</time>
      </trkpt>
      <trkpt lat="46.73424" lon="5.64109">
        <ele>274.8</ele>
        <time>2019-11-26T08:49:28Z</time>
      </trkpt>
      <trkpt lat="46.73422" lon="5.64116">
        <ele>275.3</ele>
        <time>2019-11-26T08:49:32Z</time>
      </trkpt>
      <trkpt lat="46.73421" lon="5.64123">
        <ele>275.8</ele>
        <time>2019-11-26T08:49:36Z</time>
      </trkpt>
      <trkpt lat="46.73419" lon="5.64129">
        <ele>276.1</ele>
        <time>2019-11-26T08:49:40Z</time>
      </trkpt>
      <trkpt lat="46.73416" lon="5.64136">
        <ele>276.1</ele>
        <time>2019-11-26T08:49:45Z</time>
      </trkpt>
      <trkpt lat="46.73414" lon="5.64143">
        <ele>276.2</ele>
        <time>2019-11-26T08:49:50Z</time>
      </trkpt>
      <trkpt lat="46.73411" lon="5.64149">
        <ele>276.2</ele>
        <time>2019-11-26T08:49:54Z</time>
      </trkpt>
      <trkpt lat="46.7341" lon="5.64156">
        <ele>276.4</ele>
        <time>2019-11-26T08:49:58Z</time>
      </trkpt>
      <trkpt lat="46.73408" lon="5.64163">
        <ele>276.7</ele>
        <time>2019-11-26T08:50:03Z</time>
      </trkpt>
      <trkpt lat="46.73406" lon="5.6417">
        <ele>276.8</ele>
        <time>2019-11-26T08:50:07Z</time>
      </trkpt>
      <trkpt lat="46.73404" lon="5.64177">
        <ele>276.9</ele>
        <time>2019-11-26T08:50:11Z</time>
      </trkpt>
      <trkpt lat="46.73402" lon="5.64185">
        <ele>277</ele>
        <time>2019-11-26T08:50:15Z</time>
      </trkpt>
      <trkpt lat="46.734" lon="5.64192">
        <ele>277.3</ele>
        <time>2019-11-26T08:50:19Z</time>
      </trkpt>
      <trkpt lat="46.73397" lon="5.64199">
        <ele>277.7</ele>
        <time>2019-11-26T08:50:23Z</time>
      </trkpt>
      <trkpt lat="46.73394" lon="5.64205">
        <ele>278.1</ele>
        <time>2019-11-26T08:50:27Z</time>
      </trkpt>
      <trkpt lat="46.73391" lon="5.64211">
        <ele>278.5</ele>
        <time>2019-11-26T08:50:31Z</time>
      </trkpt>
      <trkpt lat="46.73389" lon="5.64217">
        <ele>278.7</ele>
        <time>2019-11-26T08:50:35Z</time>
      </trkpt>
      <trkpt lat="46.73387" lon="5.64223">
        <ele>279.2</ele>
        <time>2019-11-26T08:50:40Z</time>
      </trkpt>
      <trkpt lat="46.73385" lon="5.64231">
        <ele>279.7</ele>
        <time>2019-11-26T08:50:45Z</time>
      </trkpt>
      <trkpt lat="46.73384" lon="5.64237">
        <ele>279.9</ele>
        <time>2019-11-26T08:50:49Z</time>
      </trkpt>
      <trkpt lat="46.73382" lon="5.64244">
        <ele>280.3</ele>
        <time>2019-11-26T08:50:55Z</time>
      </trkpt>
      <trkpt lat="46.73382" lon="5.64251">
        <ele>280.4</ele>
        <time>2019-11-26T08:51:00Z</time>
      </trkpt>
      <trkpt lat="46.73382" lon="5.64258">
        <ele>280.3</ele>
        <time>2019-11-26T08:51:05Z</time>
      </trkpt>
      <trkpt lat="46.73381" lon="5.64266">
        <ele>280.1</ele>
        <time>2019-11-26T08:51:10Z</time>
      </trkpt>
      <trkpt lat="46.7338" lon="5.64274">
        <ele>280.1</ele>
        <time>2019-11-26T08:51:14Z</time>
      </trkpt>
      <trkpt lat="46.73378" lon="5.64281">
        <ele>280.1</ele>
        <time>2019-11-26T08:51:18Z</time>
      </trkpt>
      <trkpt lat="46.73378" lon="5.64288">
        <ele>280.3</ele>
        <time>2019-11-26T08:51:23Z</time>
      </trkpt>
      <trkpt lat="46.73377" lon="5.64296">
        <ele>280.3</ele>
        <time>2019-11-26T08:51:28Z</time>
      </trkpt>
      <trkpt lat="46.73377" lon="5.64303">
        <ele>280.2</ele>
        <time>2019-11-26T08:51:32Z</time>
      </trkpt>
      <trkpt lat="46.73376" lon="5.6431">
        <ele>280</ele>
        <time>2019-11-26T08:51:38Z</time>
      </trkpt>
      <trkpt lat="46.73374" lon="5.64318">
        <ele>279.9</ele>
        <time>2019-11-26T08:51:43Z</time>
      </trkpt>
      <trkpt lat="46.73373" lon="5.64325">
        <ele>279.7</ele>
        <time>2019-11-26T08:51:48Z</time>
      </trkpt>
      <trkpt lat="46.73371" lon="5.64333">
        <ele>279.5</ele>
        <time>2019-11-26T08:51:53Z</time>
      </trkpt>
      <trkpt lat="46.7337" lon="5.6434">
        <ele>279.3</ele>
        <time>2019-11-26T08:51:57Z</time>
      </trkpt>
      <trkpt lat="46.73367" lon="5.64347">
        <ele>278.9</ele>
        <time>2019-11-26T08:52:02Z</time>
      </trkpt>
      <trkpt lat="46.73366" lon="5.64354">
        <ele>278.4</ele>
        <time>2019-11-26T08:52:06Z</time>
      </trkpt>
      <trkpt lat="46.73366" lon="5.64361">
        <ele>278.1</ele>
        <time>2019-11-26T08:52:10Z</time>
      </trkpt>
      <trkpt lat="46.73366" lon="5.64368">
        <ele>277.9</ele>
        <time>2019-11-26T08:52:14Z</time>
      </trkpt>
      <trkpt lat="46.73367" lon="5.64376">
        <ele>277.9</ele>
        <time>2019-11-26T08:52:19Z</time>
      </trkpt>
      <trkpt lat="46.73367" lon="5.64384">
        <ele>278.1</ele>
        <time>2019-11-26T08:52:23Z</time>
      </trkpt>
      <trkpt lat="46.73368" lon="5.64392">
        <ele>278.2</ele>
        <time>2019-11-26T08:52:27Z</time>
      </trkpt>
      <trkpt lat="46.73369" lon="5.64398">
        <ele>278.2</ele>
        <time>2019-11-26T08:52:31Z</time>
      </trkpt>
      <trkpt lat="46.73372" lon="5.64405">
        <ele>278.2</ele>
        <time>2019-11-26T08:52:36Z</time>
      </trkpt>
      <trkpt lat="46.73373" lon="5.64412">
        <ele>278.3</ele>
        <time>2019-11-26T08:52:40Z</time>
      </trkpt>
      <trkpt lat="46.73379" lon="5.64432">
        <ele>278.4</ele>
        <time>2019-11-26T08:52:51Z</time>
      </trkpt>
      <trkpt lat="46.73381" lon="5.6444">
        <ele>278.5</ele>
        <time>2019-11-26T08:52:55Z</time>
      </trkpt>
      <trkpt lat="46.73383" lon="5.64447">
        <ele>278.7</ele>
        <time>2019-11-26T08:53:00Z</time>
      </trkpt>
      <trkpt lat="46.73385" lon="5.64452">
        <ele>278.9</ele>
        <time>2019-11-26T08:53:04Z</time>
      </trkpt>
      <trkpt lat="46.73386" lon="5.6446">
        <ele>279</ele>
        <time>2019-11-26T08:53:08Z</time>
      </trkpt>
      <trkpt lat="46.73387" lon="5.64467">
        <ele>279.1</ele>
        <time>2019-11-26T08:53:13Z</time>
      </trkpt>
      <trkpt lat="46.73387" lon="5.64475">
        <ele>279.1</ele>
        <time>2019-11-26T08:53:17Z</time>
      </trkpt>
      <trkpt lat="46.73388" lon="5.64482">
        <ele>279.2</ele>
        <time>2019-11-26T08:53:22Z</time>
      </trkpt>
      <trkpt lat="46.73389" lon="5.64489">
        <ele>279.3</ele>
        <time>2019-11-26T08:53:26Z</time>
      </trkpt>
      <trkpt lat="46.7339" lon="5.64497">
        <ele>279.3</ele>
        <time>2019-11-26T08:53:31Z</time>
      </trkpt>
      <trkpt lat="46.73391" lon="5.64503">
        <ele>279.1</ele>
        <time>2019-11-26T08:53:36Z</time>
      </trkpt>
      <trkpt lat="46.73392" lon="5.6451">
        <ele>278.8</ele>
        <time>2019-11-26T08:53:40Z</time>
      </trkpt>
      <trkpt lat="46.73392" lon="5.64517">
        <ele>278.6</ele>
        <time>2019-11-26T08:53:44Z</time>
      </trkpt>
      <trkpt lat="46.73394" lon="5.64524">
        <ele>278.6</ele>
        <time>2019-11-26T08:53:49Z</time>
      </trkpt>
      <trkpt lat="46.73396" lon="5.64531">
        <ele>278.8</ele>
        <time>2019-11-26T08:53:54Z</time>
      </trkpt>
      <trkpt lat="46.73397" lon="5.64538">
        <ele>278.9</ele>
        <time>2019-11-26T08:53:58Z</time>
      </trkpt>
      <trkpt lat="46.73398" lon="5.64546">
        <ele>278.8</ele>
        <time>2019-11-26T08:54:02Z</time>
      </trkpt>
      <trkpt lat="46.734" lon="5.64553">
        <ele>278.8</ele>
        <time>2019-11-26T08:54:06Z</time>
      </trkpt>
      <trkpt lat="46.73402" lon="5.6456">
        <ele>278.8</ele>
        <time>2019-11-26T08:54:11Z</time>
      </trkpt>
      <trkpt lat="46.73403" lon="5.64566">
        <ele>278.8</ele>
        <time>2019-11-26T08:54:15Z</time>
      </trkpt>
      <trkpt lat="46.73406" lon="5.64572">
        <ele>278.7</ele>
        <time>2019-11-26T08:54:19Z</time>
      </trkpt>
      <trkpt lat="46.73409" lon="5.64577">
        <ele>278.5</ele>
        <time>2019-11-26T08:54:23Z</time>
      </trkpt>
      <trkpt lat="46.73412" lon="5.64582">
        <ele>278.5</ele>
        <time>2019-11-26T08:54:27Z</time>
      </trkpt>
      <trkpt lat="46.73416" lon="5.64589">
        <ele>278.4</ele>
        <time>2019-11-26T08:54:31Z</time>
      </trkpt>
      <trkpt lat="46.7342" lon="5.64594">
        <ele>278.6</ele>
        <time>2019-11-26T08:54:35Z</time>
      </trkpt>
      <trkpt lat="46.73424" lon="5.646">
        <ele>278.7</ele>
        <time>2019-11-26T08:54:39Z</time>
      </trkpt>
      <trkpt lat="46.73428" lon="5.64605">
        <ele>278.9</ele>
        <time>2019-11-26T08:54:42Z</time>
      </trkpt>
      <trkpt lat="46.73431" lon="5.6461">
        <ele>279.2</ele>
        <time>2019-11-26T08:54:46Z</time>
      </trkpt>
      <trkpt lat="46.73435" lon="5.64615">
        <ele>279.5</ele>
        <time>2019-11-26T08:54:50Z</time>
      </trkpt>
      <trkpt lat="46.73439" lon="5.64621">
        <ele>279.8</ele>
        <time>2019-11-26T08:54:54Z</time>
      </trkpt>
      <trkpt lat="46.73443" lon="5.64628">
        <ele>280.3</ele>
        <time>2019-11-26T08:54:59Z</time>
      </trkpt>
      <trkpt lat="46.73446" lon="5.64633">
        <ele>280.8</ele>
        <time>2019-11-26T08:55:03Z</time>
      </trkpt>
      <trkpt lat="46.7345" lon="5.6464">
        <ele>281.3</ele>
        <time>2019-11-26T08:55:07Z</time>
      </trkpt>
      <trkpt lat="46.73452" lon="5.64647">
        <ele>282.1</ele>
        <time>2019-11-26T08:55:13Z</time>
      </trkpt>
      <trkpt lat="46.73455" lon="5.64653">
        <ele>282.4</ele>
        <time>2019-11-26T08:55:18Z</time>
      </trkpt>
      <trkpt lat="46.73458" lon="5.64659">
        <ele>282.5</ele>
        <time>2019-11-26T08:55:23Z</time>
      </trkpt>
      <trkpt lat="46.7346" lon="5.64667">
        <ele>282.6</ele>
        <time>2019-11-26T08:55:27Z</time>
      </trkpt>
      <trkpt lat="46.73464" lon="5.64673">
        <ele>282.7</ele>
        <time>2019-11-26T08:55:31Z</time>
      </trkpt>
      <trkpt lat="46.73467" lon="5.64679">
        <ele>282.7</ele>
        <time>2019-11-26T08:55:37Z</time>
      </trkpt>
      <trkpt lat="46.73469" lon="5.64685">
        <ele>282.7</ele>
        <time>2019-11-26T08:55:42Z</time>
      </trkpt>
      <trkpt lat="46.73472" lon="5.64692">
        <ele>282.7</ele>
        <time>2019-11-26T08:55:46Z</time>
      </trkpt>
      <trkpt lat="46.73475" lon="5.64697">
        <ele>282.8</ele>
        <time>2019-11-26T08:55:49Z</time>
      </trkpt>
      <trkpt lat="46.73478" lon="5.64703">
        <ele>282.9</ele>
        <time>2019-11-26T08:55:53Z</time>
      </trkpt>
      <trkpt lat="46.73481" lon="5.64709">
        <ele>283</ele>
        <time>2019-11-26T08:55:57Z</time>
      </trkpt>
      <trkpt lat="46.73484" lon="5.64714">
        <ele>283</ele>
        <time>2019-11-26T08:56:01Z</time>
      </trkpt>
      <trkpt lat="46.73488" lon="5.6472">
        <ele>283.1</ele>
        <time>2019-11-26T08:56:05Z</time>
      </trkpt>
      <trkpt lat="46.73491" lon="5.64725">
        <ele>283.4</ele>
        <time>2019-11-26T08:56:10Z</time>
      </trkpt>
      <trkpt lat="46.73495" lon="5.6473">
        <ele>283.6</ele>
        <time>2019-11-26T08:56:15Z</time>
      </trkpt>
      <trkpt lat="46.73498" lon="5.64737">
        <ele>283.7</ele>
        <time>2019-11-26T08:56:20Z</time>
      </trkpt>
      <trkpt lat="46.73501" lon="5.64742">
        <ele>283.7</ele>
        <time>2019-11-26T08:56:23Z</time>
      </trkpt>
      <trkpt lat="46.73504" lon="5.64749">
        <ele>283.8</ele>
        <time>2019-11-26T08:56:27Z</time>
      </trkpt>
      <trkpt lat="46.73507" lon="5.64754">
        <ele>283.9</ele>
        <time>2019-11-26T08:56:31Z</time>
      </trkpt>
      <trkpt lat="46.73509" lon="5.6476">
        <ele>283.9</ele>
        <time>2019-11-26T08:56:36Z</time>
      </trkpt>
      <trkpt lat="46.73511" lon="5.64767">
        <ele>284</ele>
        <time>2019-11-26T08:56:40Z</time>
      </trkpt>
      <trkpt lat="46.73514" lon="5.64772">
        <ele>284</ele>
        <time>2019-11-26T08:56:44Z</time>
      </trkpt>
      <trkpt lat="46.73517" lon="5.64778">
        <ele>284.1</ele>
        <time>2019-11-26T08:56:48Z</time>
      </trkpt>
      <trkpt lat="46.73519" lon="5.64784">
        <ele>284.2</ele>
        <time>2019-11-26T08:56:52Z</time>
      </trkpt>
      <trkpt lat="46.73521" lon="5.64791">
        <ele>284.1</ele>
        <time>2019-11-26T08:56:56Z</time>
      </trkpt>
      <trkpt lat="46.73523" lon="5.64797">
        <ele>283.8</ele>
        <time>2019-11-26T08:57:01Z</time>
      </trkpt>
      <trkpt lat="46.73526" lon="5.64804">
        <ele>283.5</ele>
        <time>2019-11-26T08:57:06Z</time>
      </trkpt>
      <trkpt lat="46.7353" lon="5.64809">
        <ele>283.1</ele>
        <time>2019-11-26T08:57:11Z</time>
      </trkpt>
      <trkpt lat="46.73533" lon="5.64814">
        <ele>283</ele>
        <time>2019-11-26T08:57:14Z</time>
      </trkpt>
      <trkpt lat="46.73537" lon="5.64819">
        <ele>282.8</ele>
        <time>2019-11-26T08:57:19Z</time>
      </trkpt>
      <trkpt lat="46.73541" lon="5.64825">
        <ele>282.6</ele>
        <time>2019-11-26T08:57:23Z</time>
      </trkpt>
      <trkpt lat="46.73545" lon="5.64829">
        <ele>282.6</ele>
        <time>2019-11-26T08:57:26Z</time>
      </trkpt>
      <trkpt lat="46.7355" lon="5.64832">
        <ele>282.5</ele>
        <time>2019-11-26T08:57:29Z</time>
      </trkpt>
      <trkpt lat="46.73555" lon="5.64836">
        <ele>282.6</ele>
        <time>2019-11-26T08:57:33Z</time>
      </trkpt>
      <trkpt lat="46.7356" lon="5.64838">
        <ele>282.7</ele>
        <time>2019-11-26T08:57:37Z</time>
      </trkpt>
      <trkpt lat="46.73563" lon="5.64844">
        <ele>282.8</ele>
        <time>2019-11-26T08:57:44Z</time>
      </trkpt>
      <trkpt lat="46.73566" lon="5.64851">
        <ele>283.1</ele>
        <time>2019-11-26T08:57:50Z</time>
      </trkpt>
      <trkpt lat="46.7357" lon="5.64858">
        <ele>283.3</ele>
        <time>2019-11-26T08:57:55Z</time>
      </trkpt>
      <trkpt lat="46.73572" lon="5.64865">
        <ele>283.4</ele>
        <time>2019-11-26T08:57:59Z</time>
      </trkpt>
      <trkpt lat="46.73574" lon="5.64872">
        <ele>283.5</ele>
        <time>2019-11-26T08:58:03Z</time>
      </trkpt>
      <trkpt lat="46.73575" lon="5.64878">
        <ele>283.6</ele>
        <time>2019-11-26T08:58:08Z</time>
      </trkpt>
      <trkpt lat="46.73577" lon="5.64885">
        <ele>283.5</ele>
        <time>2019-11-26T08:58:12Z</time>
      </trkpt>
      <trkpt lat="46.7358" lon="5.64891">
        <ele>283.5</ele>
        <time>2019-11-26T08:58:18Z</time>
      </trkpt>
      <trkpt lat="46.73582" lon="5.64898">
        <ele>283.5</ele>
        <time>2019-11-26T08:58:23Z</time>
      </trkpt>
      <trkpt lat="46.73584" lon="5.64904">
        <ele>283.7</ele>
        <time>2019-11-26T08:58:28Z</time>
      </trkpt>
      <trkpt lat="46.73587" lon="5.6491">
        <ele>284</ele>
        <time>2019-11-26T08:58:33Z</time>
      </trkpt>
      <trkpt lat="46.73591" lon="5.64929">
        <ele>284.6</ele>
        <time>2019-11-26T08:58:44Z</time>
      </trkpt>
      <trkpt lat="46.73594" lon="5.64935">
        <ele>284.5</ele>
        <time>2019-11-26T08:58:48Z</time>
      </trkpt>
      <trkpt lat="46.73596" lon="5.64941">
        <ele>284.5</ele>
        <time>2019-11-26T08:58:52Z</time>
      </trkpt>
      <trkpt lat="46.73611" lon="5.64985">
        <ele>286.2</ele>
        <time>2019-11-26T08:59:19Z</time>
      </trkpt>
      <trkpt lat="46.73612" lon="5.64992">
        <ele>286.4</ele>
        <time>2019-11-26T08:59:24Z</time>
      </trkpt>
      <trkpt lat="46.73613" lon="5.65">
        <ele>286.6</ele>
        <time>2019-11-26T08:59:29Z</time>
      </trkpt>
      <trkpt lat="46.73614" lon="5.65008">
        <ele>286.8</ele>
        <time>2019-11-26T08:59:35Z</time>
      </trkpt>
      <trkpt lat="46.73615" lon="5.65016">
        <ele>287</ele>
        <time>2019-11-26T08:59:40Z</time>
      </trkpt>
      <trkpt lat="46.73616" lon="5.65022">
        <ele>287.1</ele>
        <time>2019-11-26T08:59:44Z</time>
      </trkpt>
      <trkpt lat="46.73616" lon="5.65031">
        <ele>287.4</ele>
        <time>2019-11-26T08:59:49Z</time>
      </trkpt>
      <trkpt lat="46.73617" lon="5.65038">
        <ele>287.6</ele>
        <time>2019-11-26T08:59:53Z</time>
      </trkpt>
      <trkpt lat="46.73617" lon="5.65045">
        <ele>287.8</ele>
        <time>2019-11-26T08:59:57Z</time>
      </trkpt>
      <trkpt lat="46.73617" lon="5.65053">
        <ele>288</ele>
        <time>2019-11-26T09:00:01Z</time>
      </trkpt>
      <trkpt lat="46.73616" lon="5.6506">
        <ele>288.3</ele>
        <time>2019-11-26T09:00:06Z</time>
      </trkpt>
      <trkpt lat="46.73615" lon="5.65068">
        <ele>288.5</ele>
        <time>2019-11-26T09:00:11Z</time>
      </trkpt>
      <trkpt lat="46.73613" lon="5.65075">
        <ele>288.5</ele>
        <time>2019-11-26T09:00:15Z</time>
      </trkpt>
      <trkpt lat="46.73611" lon="5.65081">
        <ele>288.5</ele>
        <time>2019-11-26T09:00:19Z</time>
      </trkpt>
      <trkpt lat="46.73609" lon="5.65087">
        <ele>288.4</ele>
        <time>2019-11-26T09:00:23Z</time>
      </trkpt>
      <trkpt lat="46.73607" lon="5.65093">
        <ele>288.3</ele>
        <time>2019-11-26T09:00:28Z</time>
      </trkpt>
      <trkpt lat="46.73606" lon="5.65099">
        <ele>288.2</ele>
        <time>2019-11-26T09:00:31Z</time>
      </trkpt>
      <trkpt lat="46.73604" lon="5.65106">
        <ele>288.3</ele>
        <time>2019-11-26T09:00:35Z</time>
      </trkpt>
      <trkpt lat="46.73602" lon="5.65112">
        <ele>288.4</ele>
        <time>2019-11-26T09:00:39Z</time>
      </trkpt>
      <trkpt lat="46.736" lon="5.65119">
        <ele>288.6</ele>
        <time>2019-11-26T09:00:45Z</time>
      </trkpt>
      <trkpt lat="46.73596" lon="5.65125">
        <ele>288.7</ele>
        <time>2019-11-26T09:00:49Z</time>
      </trkpt>
      <trkpt lat="46.73594" lon="5.65132">
        <ele>288.9</ele>
        <time>2019-11-26T09:00:55Z</time>
      </trkpt>
      <trkpt lat="46.73595" lon="5.65139">
        <ele>289</ele>
        <time>2019-11-26T09:01:00Z</time>
      </trkpt>
      <trkpt lat="46.73599" lon="5.65144">
        <ele>290.2</ele>
        <time>2019-11-26T09:01:12Z</time>
      </trkpt>
      <trkpt lat="46.73606" lon="5.65148">
        <ele>290.8</ele>
        <time>2019-11-26T09:01:36Z</time>
      </trkpt>
      <trkpt lat="46.736" lon="5.65146">
        <ele>288.7</ele>
        <time>2019-11-26T09:01:52Z</time>
      </trkpt>
      <trkpt lat="46.73595" lon="5.65145">
        <ele>288.6</ele>
        <time>2019-11-26T09:01:55Z</time>
      </trkpt>
      <trkpt lat="46.73589" lon="5.65145">
        <ele>288.7</ele>
        <time>2019-11-26T09:01:59Z</time>
      </trkpt>
      <trkpt lat="46.73584" lon="5.65147">
        <ele>289</ele>
        <time>2019-11-26T09:02:03Z</time>
      </trkpt>
      <trkpt lat="46.73579" lon="5.6515">
        <ele>289.4</ele>
        <time>2019-11-26T09:02:07Z</time>
      </trkpt>
      <trkpt lat="46.73575" lon="5.65153">
        <ele>289.8</ele>
        <time>2019-11-26T09:02:11Z</time>
      </trkpt>
      <trkpt lat="46.73569" lon="5.65155">
        <ele>290.2</ele>
        <time>2019-11-26T09:02:15Z</time>
      </trkpt>
      <trkpt lat="46.73564" lon="5.65157">
        <ele>290.7</ele>
        <time>2019-11-26T09:02:19Z</time>
      </trkpt>
      <trkpt lat="46.73559" lon="5.65159">
        <ele>290.9</ele>
        <time>2019-11-26T09:02:22Z</time>
      </trkpt>
      <trkpt lat="46.73554" lon="5.65161">
        <ele>291.2</ele>
        <time>2019-11-26T09:02:25Z</time>
      </trkpt>
      <trkpt lat="46.7355" lon="5.65164">
        <ele>291.5</ele>
        <time>2019-11-26T09:02:28Z</time>
      </trkpt>
      <trkpt lat="46.73545" lon="5.65167">
        <ele>291.6</ele>
        <time>2019-11-26T09:02:31Z</time>
      </trkpt>
      <trkpt lat="46.7354" lon="5.6517">
        <ele>291.6</ele>
        <time>2019-11-26T09:02:35Z</time>
      </trkpt>
      <trkpt lat="46.73536" lon="5.65175">
        <ele>291.5</ele>
        <time>2019-11-26T09:02:39Z</time>
      </trkpt>
      <trkpt lat="46.73531" lon="5.65178">
        <ele>291.4</ele>
        <time>2019-11-26T09:02:43Z</time>
      </trkpt>
      <trkpt lat="46.73526" lon="5.65182">
        <ele>291.4</ele>
        <time>2019-11-26T09:02:47Z</time>
      </trkpt>
      <trkpt lat="46.73523" lon="5.65187">
        <ele>291.3</ele>
        <time>2019-11-26T09:02:51Z</time>
      </trkpt>
      <trkpt lat="46.73518" lon="5.6519">
        <ele>291.3</ele>
        <time>2019-11-26T09:02:56Z</time>
      </trkpt>
      <trkpt lat="46.73514" lon="5.65195">
        <ele>291.2</ele>
        <time>2019-11-26T09:03:00Z</time>
      </trkpt>
      <trkpt lat="46.7351" lon="5.652">
        <ele>291.2</ele>
        <time>2019-11-26T09:03:04Z</time>
      </trkpt>
      <trkpt lat="46.73506" lon="5.65205">
        <ele>291.1</ele>
        <time>2019-11-26T09:03:07Z</time>
      </trkpt>
      <trkpt lat="46.73502" lon="5.65211">
        <ele>290.9</ele>
        <time>2019-11-26T09:03:11Z</time>
      </trkpt>
      <trkpt lat="46.73498" lon="5.65216">
        <ele>290.8</ele>
        <time>2019-11-26T09:03:16Z</time>
      </trkpt>
      <trkpt lat="46.73494" lon="5.6522">
        <ele>291</ele>
        <time>2019-11-26T09:03:20Z</time>
      </trkpt>
      <trkpt lat="46.73489" lon="5.65223">
        <ele>291.4</ele>
        <time>2019-11-26T09:03:26Z</time>
      </trkpt>
      <trkpt lat="46.73485" lon="5.65226">
        <ele>291.4</ele>
        <time>2019-11-26T09:03:31Z</time>
      </trkpt>
      <trkpt lat="46.73475" lon="5.65238">
        <ele>289.8</ele>
        <time>2019-11-26T09:03:43Z</time>
      </trkpt>
      <trkpt lat="46.73471" lon="5.65243">
        <ele>289.8</ele>
        <time>2019-11-26T09:03:47Z</time>
      </trkpt>
      <trkpt lat="46.73467" lon="5.65247">
        <ele>290</ele>
        <time>2019-11-26T09:03:52Z</time>
      </trkpt>
      <trkpt lat="46.73463" lon="5.65251">
        <ele>290.5</ele>
        <time>2019-11-26T09:03:56Z</time>
      </trkpt>
      <trkpt lat="46.73459" lon="5.65255">
        <ele>291.1</ele>
        <time>2019-11-26T09:04:00Z</time>
      </trkpt>
      <trkpt lat="46.73455" lon="5.65261">
        <ele>291.8</ele>
        <time>2019-11-26T09:04:04Z</time>
      </trkpt>
      <trkpt lat="46.73451" lon="5.65265">
        <ele>292.3</ele>
        <time>2019-11-26T09:04:07Z</time>
      </trkpt>
      <trkpt lat="46.73448" lon="5.6527">
        <ele>292.8</ele>
        <time>2019-11-26T09:04:11Z</time>
      </trkpt>
      <trkpt lat="46.73444" lon="5.65273">
        <ele>293.2</ele>
        <time>2019-11-26T09:04:15Z</time>
      </trkpt>
      <trkpt lat="46.73436" lon="5.65278">
        <ele>294.4</ele>
        <time>2019-11-26T09:04:24Z</time>
      </trkpt>
      <trkpt lat="46.73432" lon="5.65282">
        <ele>294.9</ele>
        <time>2019-11-26T09:04:28Z</time>
      </trkpt>
      <trkpt lat="46.73428" lon="5.65287">
        <ele>295.2</ele>
        <time>2019-11-26T09:04:30Z</time>
      </trkpt>
      <trkpt lat="46.73425" lon="5.65291">
        <ele>295.7</ele>
        <time>2019-11-26T09:04:33Z</time>
      </trkpt>
      <trkpt lat="46.73421" lon="5.65297">
        <ele>296.6</ele>
        <time>2019-11-26T09:04:38Z</time>
      </trkpt>
      <trkpt lat="46.73417" lon="5.65301">
        <ele>297.6</ele>
        <time>2019-11-26T09:04:45Z</time>
      </trkpt>
      <trkpt lat="46.73412" lon="5.65304">
        <ele>298.4</ele>
        <time>2019-11-26T09:04:51Z</time>
      </trkpt>
      <trkpt lat="46.73408" lon="5.65309">
        <ele>298.9</ele>
        <time>2019-11-26T09:04:57Z</time>
      </trkpt>
      <trkpt lat="46.73403" lon="5.65312">
        <ele>298.9</ele>
        <time>2019-11-26T09:05:02Z</time>
      </trkpt>
      <trkpt lat="46.73398" lon="5.65315">
        <ele>299</ele>
        <time>2019-11-26T09:05:07Z</time>
      </trkpt>
      <trkpt lat="46.73394" lon="5.65318">
        <ele>299.2</ele>
        <time>2019-11-26T09:05:11Z</time>
      </trkpt>
      <trkpt lat="46.73389" lon="5.65318">
        <ele>299.3</ele>
        <time>2019-11-26T09:05:15Z</time>
      </trkpt>
      <trkpt lat="46.73384" lon="5.6532">
        <ele>299.3</ele>
        <time>2019-11-26T09:05:20Z</time>
      </trkpt>
      <trkpt lat="46.7338" lon="5.65323">
        <ele>299.3</ele>
        <time>2019-11-26T09:05:24Z</time>
      </trkpt>
      <trkpt lat="46.73376" lon="5.65326">
        <ele>299.6</ele>
        <time>2019-11-26T09:05:29Z</time>
      </trkpt>
      <trkpt lat="46.73371" lon="5.65329">
        <ele>299.9</ele>
        <time>2019-11-26T09:05:33Z</time>
      </trkpt>
      <trkpt lat="46.73366" lon="5.6533">
        <ele>300.2</ele>
        <time>2019-11-26T09:05:37Z</time>
      </trkpt>
      <trkpt lat="46.73361" lon="5.65331">
        <ele>300.7</ele>
        <time>2019-11-26T09:05:42Z</time>
      </trkpt>
      <trkpt lat="46.73356" lon="5.65332">
        <ele>301.3</ele>
        <time>2019-11-26T09:05:48Z</time>
      </trkpt>
      <trkpt lat="46.73351" lon="5.65334">
        <ele>301.7</ele>
        <time>2019-11-26T09:05:52Z</time>
      </trkpt>
      <trkpt lat="46.73345" lon="5.65336">
        <ele>302.2</ele>
        <time>2019-11-26T09:05:56Z</time>
      </trkpt>
      <trkpt lat="46.73341" lon="5.65337">
        <ele>302.4</ele>
        <time>2019-11-26T09:06:00Z</time>
      </trkpt>
      <trkpt lat="46.73336" lon="5.65338">
        <ele>302.6</ele>
        <time>2019-11-26T09:06:04Z</time>
      </trkpt>
      <trkpt lat="46.7333" lon="5.65338">
        <ele>302.8</ele>
        <time>2019-11-26T09:06:08Z</time>
      </trkpt>
      <trkpt lat="46.73325" lon="5.65339">
        <ele>303.1</ele>
        <time>2019-11-26T09:06:13Z</time>
      </trkpt>
      <trkpt lat="46.7332" lon="5.6534">
        <ele>303.3</ele>
        <time>2019-11-26T09:06:19Z</time>
      </trkpt>
      <trkpt lat="46.73316" lon="5.6534">
        <ele>303.6</ele>
        <time>2019-11-26T09:06:24Z</time>
      </trkpt>
      <trkpt lat="46.73311" lon="5.6534">
        <ele>303.7</ele>
        <time>2019-11-26T09:06:29Z</time>
      </trkpt>
      <trkpt lat="46.73306" lon="5.65339">
        <ele>303.8</ele>
        <time>2019-11-26T09:06:33Z</time>
      </trkpt>
      <trkpt lat="46.733" lon="5.65339">
        <ele>304</ele>
        <time>2019-11-26T09:06:37Z</time>
      </trkpt>
      <trkpt lat="46.73295" lon="5.65337">
        <ele>304.1</ele>
        <time>2019-11-26T09:06:40Z</time>
      </trkpt>
      <trkpt lat="46.7329" lon="5.65338">
        <ele>304.2</ele>
        <time>2019-11-26T09:06:43Z</time>
      </trkpt>
      <trkpt lat="46.73285" lon="5.65339">
        <ele>304.5</ele>
        <time>2019-11-26T09:06:47Z</time>
      </trkpt>
      <trkpt lat="46.73281" lon="5.65339">
        <ele>304.9</ele>
        <time>2019-11-26T09:06:51Z</time>
      </trkpt>
      <trkpt lat="46.73276" lon="5.65339">
        <ele>305.4</ele>
        <time>2019-11-26T09:06:55Z</time>
      </trkpt>
      <trkpt lat="46.73271" lon="5.6534">
        <ele>306.3</ele>
        <time>2019-11-26T09:07:00Z</time>
      </trkpt>
      <trkpt lat="46.73265" lon="5.6534">
        <ele>307.6</ele>
        <time>2019-11-26T09:07:06Z</time>
      </trkpt>
      <trkpt lat="46.7326" lon="5.65339">
        <ele>309</ele>
        <time>2019-11-26T09:07:12Z</time>
      </trkpt>
      <trkpt lat="46.73255" lon="5.65341">
        <ele>310.4</ele>
        <time>2019-11-26T09:07:19Z</time>
      </trkpt>
      <trkpt lat="46.7325" lon="5.65341">
        <ele>311.1</ele>
        <time>2019-11-26T09:07:23Z</time>
      </trkpt>
      <trkpt lat="46.73244" lon="5.65343">
        <ele>312</ele>
        <time>2019-11-26T09:07:29Z</time>
      </trkpt>
      <trkpt lat="46.73239" lon="5.65344">
        <ele>312.9</ele>
        <time>2019-11-26T09:07:34Z</time>
      </trkpt>
      <trkpt lat="46.73234" lon="5.65345">
        <ele>313.4</ele>
        <time>2019-11-26T09:07:38Z</time>
      </trkpt>
      <trkpt lat="46.73229" lon="5.65347">
        <ele>313.9</ele>
        <time>2019-11-26T09:07:44Z</time>
      </trkpt>
      <trkpt lat="46.73224" lon="5.65348">
        <ele>314</ele>
        <time>2019-11-26T09:07:49Z</time>
      </trkpt>
      <trkpt lat="46.73219" lon="5.65348">
        <ele>314.2</ele>
        <time>2019-11-26T09:07:53Z</time>
      </trkpt>
      <trkpt lat="46.73214" lon="5.6535">
        <ele>314.4</ele>
        <time>2019-11-26T09:08:01Z</time>
      </trkpt>
      <trkpt lat="46.7321" lon="5.65351">
        <ele>314.4</ele>
        <time>2019-11-26T09:08:07Z</time>
      </trkpt>
      <trkpt lat="46.73205" lon="5.65354">
        <ele>314.2</ele>
        <time>2019-11-26T09:08:12Z</time>
      </trkpt>
      <trkpt lat="46.732" lon="5.65356">
        <ele>313.9</ele>
        <time>2019-11-26T09:08:17Z</time>
      </trkpt>
      <trkpt lat="46.73195" lon="5.65357">
        <ele>313.7</ele>
        <time>2019-11-26T09:08:26Z</time>
      </trkpt>
      <trkpt lat="46.7319" lon="5.65358">
        <ele>313.8</ele>
        <time>2019-11-26T09:08:31Z</time>
      </trkpt>
      <trkpt lat="46.73186" lon="5.6536">
        <ele>314.2</ele>
        <time>2019-11-26T09:08:36Z</time>
      </trkpt>
      <trkpt lat="46.73181" lon="5.65363">
        <ele>314.9</ele>
        <time>2019-11-26T09:08:42Z</time>
      </trkpt>
      <trkpt lat="46.73176" lon="5.65365">
        <ele>315.5</ele>
        <time>2019-11-26T09:08:47Z</time>
      </trkpt>
      <trkpt lat="46.73171" lon="5.65366">
        <ele>315.9</ele>
        <time>2019-11-26T09:08:51Z</time>
      </trkpt>
      <trkpt lat="46.73166" lon="5.65367">
        <ele>316.5</ele>
        <time>2019-11-26T09:08:56Z</time>
      </trkpt>
      <trkpt lat="46.73161" lon="5.65368">
        <ele>317</ele>
        <time>2019-11-26T09:09:02Z</time>
      </trkpt>
      <trkpt lat="46.73157" lon="5.65371">
        <ele>317.3</ele>
        <time>2019-11-26T09:09:08Z</time>
      </trkpt>
      <trkpt lat="46.73152" lon="5.65373">
        <ele>317.4</ele>
        <time>2019-11-26T09:09:14Z</time>
      </trkpt>
      <trkpt lat="46.73147" lon="5.65375">
        <ele>317.4</ele>
        <time>2019-11-26T09:09:21Z</time>
      </trkpt>
      <trkpt lat="46.73141" lon="5.65376">
        <ele>317.5</ele>
        <time>2019-11-26T09:09:26Z</time>
      </trkpt>
      <trkpt lat="46.73136" lon="5.65376">
        <ele>318</ele>
        <time>2019-11-26T09:09:30Z</time>
      </trkpt>
      <trkpt lat="46.73132" lon="5.65377">
        <ele>319.6</ele>
        <time>2019-11-26T09:09:36Z</time>
      </trkpt>
      <trkpt lat="46.73125" lon="5.65377">
        <ele>321.1</ele>
        <time>2019-11-26T09:09:41Z</time>
      </trkpt>
      <trkpt lat="46.7312" lon="5.65377">
        <ele>322.2</ele>
        <time>2019-11-26T09:09:45Z</time>
      </trkpt>
      <trkpt lat="46.73115" lon="5.65378">
        <ele>323.2</ele>
        <time>2019-11-26T09:09:50Z</time>
      </trkpt>
      <trkpt lat="46.7311" lon="5.6538">
        <ele>324.3</ele>
        <time>2019-11-26T09:09:55Z</time>
      </trkpt>
      <trkpt lat="46.73105" lon="5.65382">
        <ele>325</ele>
        <time>2019-11-26T09:09:59Z</time>
      </trkpt>
      <trkpt lat="46.731" lon="5.65382">
        <ele>325.8</ele>
        <time>2019-11-26T09:10:04Z</time>
      </trkpt>
      <trkpt lat="46.73094" lon="5.65383">
        <ele>326.4</ele>
        <time>2019-11-26T09:10:08Z</time>
      </trkpt>
      <trkpt lat="46.7309" lon="5.65382">
        <ele>326.9</ele>
        <time>2019-11-26T09:10:11Z</time>
      </trkpt>
      <trkpt lat="46.73085" lon="5.65382">
        <ele>327.5</ele>
        <time>2019-11-26T09:10:15Z</time>
      </trkpt>
      <trkpt lat="46.7308" lon="5.65383">
        <ele>328.4</ele>
        <time>2019-11-26T09:10:20Z</time>
      </trkpt>
      <trkpt lat="46.73075" lon="5.65384">
        <ele>329</ele>
        <time>2019-11-26T09:10:25Z</time>
      </trkpt>
      <trkpt lat="46.73071" lon="5.65385">
        <ele>329.1</ele>
        <time>2019-11-26T09:10:30Z</time>
      </trkpt>
      <trkpt lat="46.73065" lon="5.65386">
        <ele>329.3</ele>
        <time>2019-11-26T09:10:36Z</time>
      </trkpt>
      <trkpt lat="46.73061" lon="5.65385">
        <ele>329.2</ele>
        <time>2019-11-26T09:10:40Z</time>
      </trkpt>
      <trkpt lat="46.73056" lon="5.65386">
        <ele>329.1</ele>
        <time>2019-11-26T09:10:46Z</time>
      </trkpt>
      <trkpt lat="46.73051" lon="5.65385">
        <ele>329.3</ele>
        <time>2019-11-26T09:10:53Z</time>
      </trkpt>
      <trkpt lat="46.73047" lon="5.65382">
        <ele>329.8</ele>
        <time>2019-11-26T09:11:00Z</time>
      </trkpt>
      <trkpt lat="46.73047" lon="5.65389">
        <ele>342.9</ele>
        <time>2019-11-26T09:18:33Z</time>
      </trkpt>
      <trkpt lat="46.7305" lon="5.65394">
        <ele>344.7</ele>
        <time>2019-11-26T09:18:40Z</time>
      </trkpt>
      <trkpt lat="46.73054" lon="5.65399">
        <ele>345.4</ele>
        <time>2019-11-26T09:18:45Z</time>
      </trkpt>
      <trkpt lat="46.73058" lon="5.65401">
        <ele>345.8</ele>
        <time>2019-11-26T09:18:49Z</time>
      </trkpt>
      <trkpt lat="46.73063" lon="5.65404">
        <ele>346.5</ele>
        <time>2019-11-26T09:18:54Z</time>
      </trkpt>
      <trkpt lat="46.73068" lon="5.65406">
        <ele>347.1</ele>
        <time>2019-11-26T09:19:02Z</time>
      </trkpt>
      <trkpt lat="46.73072" lon="5.65409">
        <ele>347.2</ele>
        <time>2019-11-26T09:19:11Z</time>
      </trkpt>
      <trkpt lat="46.73077" lon="5.6541">
        <ele>347.5</ele>
        <time>2019-11-26T09:19:17Z</time>
      </trkpt>
      <trkpt lat="46.73082" lon="5.65412">
        <ele>348.3</ele>
        <time>2019-11-26T09:19:23Z</time>
      </trkpt>
      <trkpt lat="46.73088" lon="5.65413">
        <ele>349.1</ele>
        <time>2019-11-26T09:19:28Z</time>
      </trkpt>
      <trkpt lat="46.73093" lon="5.65416">
        <ele>349.9</ele>
        <time>2019-11-26T09:19:34Z</time>
      </trkpt>
      <trkpt lat="46.73099" lon="5.65416">
        <ele>350.6</ele>
        <time>2019-11-26T09:19:39Z</time>
      </trkpt>
      <trkpt lat="46.73113" lon="5.65421">
        <ele>352</ele>
        <time>2019-11-26T09:19:51Z</time>
      </trkpt>
      <trkpt lat="46.73118" lon="5.6542">
        <ele>351.9</ele>
        <time>2019-11-26T09:19:56Z</time>
      </trkpt>
      <trkpt lat="46.73123" lon="5.65418">
        <ele>351.9</ele>
        <time>2019-11-26T09:20:01Z</time>
      </trkpt>
      <trkpt lat="46.73128" lon="5.65418">
        <ele>351.9</ele>
        <time>2019-11-26T09:20:05Z</time>
      </trkpt>
      <trkpt lat="46.73132" lon="5.65419">
        <ele>351.8</ele>
        <time>2019-11-26T09:20:09Z</time>
      </trkpt>
      <trkpt lat="46.73136" lon="5.65422">
        <ele>351.6</ele>
        <time>2019-11-26T09:20:13Z</time>
      </trkpt>
      <trkpt lat="46.73141" lon="5.65424">
        <ele>351.3</ele>
        <time>2019-11-26T09:20:17Z</time>
      </trkpt>
      <trkpt lat="46.73146" lon="5.65424">
        <ele>350.8</ele>
        <time>2019-11-26T09:20:22Z</time>
      </trkpt>
      <trkpt lat="46.73151" lon="5.65424">
        <ele>350.3</ele>
        <time>2019-11-26T09:20:27Z</time>
      </trkpt>
      <trkpt lat="46.73156" lon="5.65422">
        <ele>349.8</ele>
        <time>2019-11-26T09:20:32Z</time>
      </trkpt>
      <trkpt lat="46.73161" lon="5.6542">
        <ele>349.2</ele>
        <time>2019-11-26T09:20:38Z</time>
      </trkpt>
      <trkpt lat="46.73167" lon="5.65421">
        <ele>349.2</ele>
        <time>2019-11-26T09:20:46Z</time>
      </trkpt>
      <trkpt lat="46.73172" lon="5.65421">
        <ele>349.3</ele>
        <time>2019-11-26T09:20:51Z</time>
      </trkpt>
      <trkpt lat="46.73176" lon="5.65421">
        <ele>349.2</ele>
        <time>2019-11-26T09:20:57Z</time>
      </trkpt>
      <trkpt lat="46.73181" lon="5.65421">
        <ele>349.2</ele>
        <time>2019-11-26T09:21:06Z</time>
      </trkpt>
      <trkpt lat="46.73187" lon="5.65422">
        <ele>349.7</ele>
        <time>2019-11-26T09:21:11Z</time>
      </trkpt>
      <trkpt lat="46.73193" lon="5.65422">
        <ele>350.6</ele>
        <time>2019-11-26T09:21:17Z</time>
      </trkpt>
      <trkpt lat="46.73197" lon="5.65421">
        <ele>351.2</ele>
        <time>2019-11-26T09:21:20Z</time>
      </trkpt>
      <trkpt lat="46.73202" lon="5.6542">
        <ele>351.7</ele>
        <time>2019-11-26T09:21:23Z</time>
      </trkpt>
      <trkpt lat="46.73207" lon="5.6542">
        <ele>352.4</ele>
        <time>2019-11-26T09:21:28Z</time>
      </trkpt>
      <trkpt lat="46.73212" lon="5.65419">
        <ele>353.1</ele>
        <time>2019-11-26T09:21:33Z</time>
      </trkpt>
      <trkpt lat="46.73218" lon="5.65419">
        <ele>354</ele>
        <time>2019-11-26T09:21:38Z</time>
      </trkpt>
      <trkpt lat="46.73223" lon="5.65418">
        <ele>355.5</ele>
        <time>2019-11-26T09:21:46Z</time>
      </trkpt>
      <trkpt lat="46.73228" lon="5.6542">
        <ele>356.4</ele>
        <time>2019-11-26T09:21:50Z</time>
      </trkpt>
      <trkpt lat="46.73233" lon="5.65422">
        <ele>357.7</ele>
        <time>2019-11-26T09:21:56Z</time>
      </trkpt>
      <trkpt lat="46.73237" lon="5.65424">
        <ele>358.5</ele>
        <time>2019-11-26T09:22:00Z</time>
      </trkpt>
      <trkpt lat="46.73242" lon="5.65427">
        <ele>359.3</ele>
        <time>2019-11-26T09:22:05Z</time>
      </trkpt>
      <trkpt lat="46.73246" lon="5.6543">
        <ele>359.7</ele>
        <time>2019-11-26T09:22:09Z</time>
      </trkpt>
      <trkpt lat="46.73251" lon="5.65433">
        <ele>359.8</ele>
        <time>2019-11-26T09:22:13Z</time>
      </trkpt>
      <trkpt lat="46.73256" lon="5.65434">
        <ele>359.9</ele>
        <time>2019-11-26T09:22:17Z</time>
      </trkpt>
      <trkpt lat="46.73262" lon="5.65435">
        <ele>360.1</ele>
        <time>2019-11-26T09:22:21Z</time>
      </trkpt>
      <trkpt lat="46.73267" lon="5.65437">
        <ele>360.4</ele>
        <time>2019-11-26T09:22:25Z</time>
      </trkpt>
      <trkpt lat="46.73272" lon="5.65439">
        <ele>360.9</ele>
        <time>2019-11-26T09:22:30Z</time>
      </trkpt>
      <trkpt lat="46.73276" lon="5.65442">
        <ele>361.2</ele>
        <time>2019-11-26T09:22:34Z</time>
      </trkpt>
      <trkpt lat="46.73281" lon="5.65444">
        <ele>361.8</ele>
        <time>2019-11-26T09:22:39Z</time>
      </trkpt>
      <trkpt lat="46.73286" lon="5.65446">
        <ele>362.7</ele>
        <time>2019-11-26T09:22:46Z</time>
      </trkpt>
      <trkpt lat="46.7329" lon="5.65451">
        <ele>363.2</ele>
        <time>2019-11-26T09:22:51Z</time>
      </trkpt>
      <trkpt lat="46.73294" lon="5.65455">
        <ele>363.9</ele>
        <time>2019-11-26T09:22:55Z</time>
      </trkpt>
      <trkpt lat="46.73299" lon="5.65457">
        <ele>364.3</ele>
        <time>2019-11-26T09:22:58Z</time>
      </trkpt>
      <trkpt lat="46.73304" lon="5.65459">
        <ele>365</ele>
        <time>2019-11-26T09:23:03Z</time>
      </trkpt>
      <trkpt lat="46.73308" lon="5.65461">
        <ele>365.7</ele>
        <time>2019-11-26T09:23:09Z</time>
      </trkpt>
      <trkpt lat="46.73313" lon="5.65464">
        <ele>365.9</ele>
        <time>2019-11-26T09:23:13Z</time>
      </trkpt>
      <trkpt lat="46.73317" lon="5.65469">
        <ele>366.2</ele>
        <time>2019-11-26T09:23:17Z</time>
      </trkpt>
      <trkpt lat="46.73321" lon="5.65472">
        <ele>366.4</ele>
        <time>2019-11-26T09:23:21Z</time>
      </trkpt>
      <trkpt lat="46.73325" lon="5.65474">
        <ele>366.4</ele>
        <time>2019-11-26T09:23:27Z</time>
      </trkpt>
      <trkpt lat="46.7333" lon="5.65477">
        <ele>366.1</ele>
        <time>2019-11-26T09:23:32Z</time>
      </trkpt>
      <trkpt lat="46.73334" lon="5.65478">
        <ele>365.9</ele>
        <time>2019-11-26T09:23:36Z</time>
      </trkpt>
      <trkpt lat="46.73338" lon="5.65481">
        <ele>365.8</ele>
        <time>2019-11-26T09:23:41Z</time>
      </trkpt>
      <trkpt lat="46.73343" lon="5.65483">
        <ele>365.7</ele>
        <time>2019-11-26T09:23:46Z</time>
      </trkpt>
      <trkpt lat="46.73348" lon="5.65484">
        <ele>365.8</ele>
        <time>2019-11-26T09:23:50Z</time>
      </trkpt>
      <trkpt lat="46.73354" lon="5.65486">
        <ele>366.1</ele>
        <time>2019-11-26T09:23:55Z</time>
      </trkpt>
      <trkpt lat="46.73359" lon="5.65486">
        <ele>366.4</ele>
        <time>2019-11-26T09:23:59Z</time>
      </trkpt>
      <trkpt lat="46.73364" lon="5.65486">
        <ele>366.9</ele>
        <time>2019-11-26T09:24:03Z</time>
      </trkpt>
      <trkpt lat="46.7337" lon="5.65487">
        <ele>367.7</ele>
        <time>2019-11-26T09:24:08Z</time>
      </trkpt>
      <trkpt lat="46.73375" lon="5.65486">
        <ele>368.7</ele>
        <time>2019-11-26T09:24:14Z</time>
      </trkpt>
      <trkpt lat="46.73381" lon="5.65487">
        <ele>369.2</ele>
        <time>2019-11-26T09:24:17Z</time>
      </trkpt>
      <trkpt lat="46.73385" lon="5.65489">
        <ele>369.7</ele>
        <time>2019-11-26T09:24:21Z</time>
      </trkpt>
      <trkpt lat="46.73389" lon="5.65494">
        <ele>370.4</ele>
        <time>2019-11-26T09:24:26Z</time>
      </trkpt>
      <trkpt lat="46.73393" lon="5.65499">
        <ele>371.2</ele>
        <time>2019-11-26T09:24:31Z</time>
      </trkpt>
      <trkpt lat="46.73397" lon="5.65503">
        <ele>372.1</ele>
        <time>2019-11-26T09:24:36Z</time>
      </trkpt>
      <trkpt lat="46.734" lon="5.65507">
        <ele>372.7</ele>
        <time>2019-11-26T09:24:40Z</time>
      </trkpt>
      <trkpt lat="46.73404" lon="5.65511">
        <ele>373.5</ele>
        <time>2019-11-26T09:24:45Z</time>
      </trkpt>
      <trkpt lat="46.73409" lon="5.65518">
        <ele>374.1</ele>
        <time>2019-11-26T09:24:50Z</time>
      </trkpt>
      <trkpt lat="46.73411" lon="5.65524">
        <ele>374.2</ele>
        <time>2019-11-26T09:24:52Z</time>
      </trkpt>
      <trkpt lat="46.73414" lon="5.65529">
        <ele>374.2</ele>
        <time>2019-11-26T09:24:55Z</time>
      </trkpt>
      <trkpt lat="46.73417" lon="5.65535">
        <ele>374.1</ele>
        <time>2019-11-26T09:24:59Z</time>
      </trkpt>
      <trkpt lat="46.7342" lon="5.6554">
        <ele>373.9</ele>
        <time>2019-11-26T09:25:03Z</time>
      </trkpt>
      <trkpt lat="46.73424" lon="5.65544">
        <ele>373.5</ele>
        <time>2019-11-26T09:25:09Z</time>
      </trkpt>
      <trkpt lat="46.73429" lon="5.65547">
        <ele>373.1</ele>
        <time>2019-11-26T09:25:15Z</time>
      </trkpt>
      <trkpt lat="46.73437" lon="5.65554">
        <ele>372.8</ele>
        <time>2019-11-26T09:25:22Z</time>
      </trkpt>
      <trkpt lat="46.73441" lon="5.65557">
        <ele>372.9</ele>
        <time>2019-11-26T09:25:26Z</time>
      </trkpt>
      <trkpt lat="46.73445" lon="5.6556">
        <ele>373.1</ele>
        <time>2019-11-26T09:25:30Z</time>
      </trkpt>
      <trkpt lat="46.73449" lon="5.65564">
        <ele>373.5</ele>
        <time>2019-11-26T09:25:34Z</time>
      </trkpt>
      <trkpt lat="46.73455" lon="5.65567">
        <ele>373.9</ele>
        <time>2019-11-26T09:25:39Z</time>
      </trkpt>
      <trkpt lat="46.73459" lon="5.6557">
        <ele>374</ele>
        <time>2019-11-26T09:25:46Z</time>
      </trkpt>
      <trkpt lat="46.73463" lon="5.65575">
        <ele>374.2</ele>
        <time>2019-11-26T09:25:51Z</time>
      </trkpt>
      <trkpt lat="46.73468" lon="5.65579">
        <ele>374.8</ele>
        <time>2019-11-26T09:25:57Z</time>
      </trkpt>
      <trkpt lat="46.73472" lon="5.65582">
        <ele>375.1</ele>
        <time>2019-11-26T09:26:01Z</time>
      </trkpt>
      <trkpt lat="46.73477" lon="5.65585">
        <ele>375.3</ele>
        <time>2019-11-26T09:26:06Z</time>
      </trkpt>
      <trkpt lat="46.73481" lon="5.6559">
        <ele>375.2</ele>
        <time>2019-11-26T09:26:11Z</time>
      </trkpt>
      <trkpt lat="46.73485" lon="5.65594">
        <ele>375.1</ele>
        <time>2019-11-26T09:26:15Z</time>
      </trkpt>
      <trkpt lat="46.73488" lon="5.65599">
        <ele>375.2</ele>
        <time>2019-11-26T09:26:19Z</time>
      </trkpt>
      <trkpt lat="46.73491" lon="5.65604">
        <ele>375.4</ele>
        <time>2019-11-26T09:26:23Z</time>
      </trkpt>
      <trkpt lat="46.73494" lon="5.6561">
        <ele>375.8</ele>
        <time>2019-11-26T09:26:27Z</time>
      </trkpt>
      <trkpt lat="46.73497" lon="5.65615">
        <ele>376.4</ele>
        <time>2019-11-26T09:26:32Z</time>
      </trkpt>
      <trkpt lat="46.73501" lon="5.65619">
        <ele>377.2</ele>
        <time>2019-11-26T09:26:39Z</time>
      </trkpt>
      <trkpt lat="46.73506" lon="5.65621">
        <ele>377.6</ele>
        <time>2019-11-26T09:26:45Z</time>
      </trkpt>
      <trkpt lat="46.73509" lon="5.65626">
        <ele>377.9</ele>
        <time>2019-11-26T09:26:49Z</time>
      </trkpt>
      <trkpt lat="46.73513" lon="5.65631">
        <ele>378.3</ele>
        <time>2019-11-26T09:26:55Z</time>
      </trkpt>
      <trkpt lat="46.73518" lon="5.65634">
        <ele>378.2</ele>
        <time>2019-11-26T09:27:03Z</time>
      </trkpt>
      <trkpt lat="46.73522" lon="5.65638">
        <ele>378.2</ele>
        <time>2019-11-26T09:27:09Z</time>
      </trkpt>
      <trkpt lat="46.73526" lon="5.6564">
        <ele>378.6</ele>
        <time>2019-11-26T09:27:14Z</time>
      </trkpt>
      <trkpt lat="46.73532" lon="5.65642">
        <ele>378.9</ele>
        <time>2019-11-26T09:27:19Z</time>
      </trkpt>
      <trkpt lat="46.73537" lon="5.65642">
        <ele>379</ele>
        <time>2019-11-26T09:27:25Z</time>
      </trkpt>
      <trkpt lat="46.73541" lon="5.65645">
        <ele>378.9</ele>
        <time>2019-11-26T09:27:33Z</time>
      </trkpt>
      <trkpt lat="46.73545" lon="5.6565">
        <ele>379.6</ele>
        <time>2019-11-26T09:27:40Z</time>
      </trkpt>
      <trkpt lat="46.73548" lon="5.65656">
        <ele>380.1</ele>
        <time>2019-11-26T09:27:44Z</time>
      </trkpt>
      <trkpt lat="46.73545" lon="5.6567">
        <ele>382.9</ele>
        <time>2019-11-26T09:28:00Z</time>
      </trkpt>
      <trkpt lat="46.7354" lon="5.65671">
        <ele>383.6</ele>
        <time>2019-11-26T09:28:05Z</time>
      </trkpt>
      <trkpt lat="46.73535" lon="5.65671">
        <ele>383.9</ele>
        <time>2019-11-26T09:28:09Z</time>
      </trkpt>
      <trkpt lat="46.7353" lon="5.65672">
        <ele>384</ele>
        <time>2019-11-26T09:28:13Z</time>
      </trkpt>
      <trkpt lat="46.73526" lon="5.65674">
        <ele>383.8</ele>
        <time>2019-11-26T09:28:17Z</time>
      </trkpt>
      <trkpt lat="46.73513" lon="5.65672">
        <ele>382.2</ele>
        <time>2019-11-26T09:28:32Z</time>
      </trkpt>
      <trkpt lat="46.73508" lon="5.65672">
        <ele>382.2</ele>
        <time>2019-11-26T09:28:38Z</time>
      </trkpt>
      <trkpt lat="46.73504" lon="5.65672">
        <ele>382.6</ele>
        <time>2019-11-26T09:28:44Z</time>
      </trkpt>
      <trkpt lat="46.73499" lon="5.65671">
        <ele>382.7</ele>
        <time>2019-11-26T09:28:49Z</time>
      </trkpt>
      <trkpt lat="46.73494" lon="5.65672">
        <ele>382.7</ele>
        <time>2019-11-26T09:28:55Z</time>
      </trkpt>
      <trkpt lat="46.73489" lon="5.65671">
        <ele>382.8</ele>
        <time>2019-11-26T09:29:00Z</time>
      </trkpt>
      <trkpt lat="46.7348" lon="5.65664">
        <ele>383.9</ele>
        <time>2019-11-26T09:29:15Z</time>
      </trkpt>
      <trkpt lat="46.73475" lon="5.65662">
        <ele>383.7</ele>
        <time>2019-11-26T09:29:21Z</time>
      </trkpt>
      <trkpt lat="46.7347" lon="5.6566">
        <ele>383.9</ele>
        <time>2019-11-26T09:29:29Z</time>
      </trkpt>
      <trkpt lat="46.73466" lon="5.65657">
        <ele>384.2</ele>
        <time>2019-11-26T09:29:34Z</time>
      </trkpt>
      <trkpt lat="46.73458" lon="5.65648">
        <ele>385.1</ele>
        <time>2019-11-26T09:29:43Z</time>
      </trkpt>
      <trkpt lat="46.73454" lon="5.65646">
        <ele>385.3</ele>
        <time>2019-11-26T09:29:49Z</time>
      </trkpt>
      <trkpt lat="46.7345" lon="5.65644">
        <ele>385.9</ele>
        <time>2019-11-26T09:29:55Z</time>
      </trkpt>
      <trkpt lat="46.73445" lon="5.65645">
        <ele>386.7</ele>
        <time>2019-11-26T09:30:02Z</time>
      </trkpt>
      <trkpt lat="46.7344" lon="5.65644">
        <ele>387.5</ele>
        <time>2019-11-26T09:30:07Z</time>
      </trkpt>
      <trkpt lat="46.7343" lon="5.65635">
        <ele>391.2</ele>
        <time>2019-11-26T09:30:23Z</time>
      </trkpt>
      <trkpt lat="46.73425" lon="5.65631">
        <ele>391.6</ele>
        <time>2019-11-26T09:30:27Z</time>
      </trkpt>
      <trkpt lat="46.73422" lon="5.65627">
        <ele>392.5</ele>
        <time>2019-11-26T09:30:35Z</time>
      </trkpt>
      <trkpt lat="46.73417" lon="5.65624">
        <ele>392.9</ele>
        <time>2019-11-26T09:30:42Z</time>
      </trkpt>
      <trkpt lat="46.73413" lon="5.65622">
        <ele>393.1</ele>
        <time>2019-11-26T09:30:49Z</time>
      </trkpt>
      <trkpt lat="46.73408" lon="5.65623">
        <ele>393.2</ele>
        <time>2019-11-26T09:30:52Z</time>
      </trkpt>
      <trkpt lat="46.73403" lon="5.65623">
        <ele>393.2</ele>
        <time>2019-11-26T09:30:58Z</time>
      </trkpt>
      <trkpt lat="46.73399" lon="5.65621">
        <ele>393.5</ele>
        <time>2019-11-26T09:31:07Z</time>
      </trkpt>
      <trkpt lat="46.73394" lon="5.65619">
        <ele>394</ele>
        <time>2019-11-26T09:31:18Z</time>
      </trkpt>
      <trkpt lat="46.73389" lon="5.65616">
        <ele>394</ele>
        <time>2019-11-26T09:31:22Z</time>
      </trkpt>
      <trkpt lat="46.73384" lon="5.65614">
        <ele>393.9</ele>
        <time>2019-11-26T09:31:27Z</time>
      </trkpt>
      <trkpt lat="46.73379" lon="5.65614">
        <ele>393.9</ele>
        <time>2019-11-26T09:31:33Z</time>
      </trkpt>
      <trkpt lat="46.73372" lon="5.65614">
        <ele>394</ele>
        <time>2019-11-26T09:31:46Z</time>
      </trkpt>
      <trkpt lat="46.73367" lon="5.65614">
        <ele>394</ele>
        <time>2019-11-26T09:31:48Z</time>
      </trkpt>
      <trkpt lat="46.73355" lon="5.65609">
        <ele>395.2</ele>
        <time>2019-11-26T09:32:04Z</time>
      </trkpt>
      <trkpt lat="46.7335" lon="5.65609">
        <ele>395.6</ele>
        <time>2019-11-26T09:32:11Z</time>
      </trkpt>
      <trkpt lat="46.73345" lon="5.65607">
        <ele>395.6</ele>
        <time>2019-11-26T09:32:17Z</time>
      </trkpt>
      <trkpt lat="46.73341" lon="5.65605">
        <ele>395.7</ele>
        <time>2019-11-26T09:32:22Z</time>
      </trkpt>
      <trkpt lat="46.73337" lon="5.65602">
        <ele>395.8</ele>
        <time>2019-11-26T09:32:27Z</time>
      </trkpt>
      <trkpt lat="46.73332" lon="5.656">
        <ele>396</ele>
        <time>2019-11-26T09:32:33Z</time>
      </trkpt>
      <trkpt lat="46.73327" lon="5.65595">
        <ele>395.6</ele>
        <time>2019-11-26T09:32:40Z</time>
      </trkpt>
      <trkpt lat="46.73324" lon="5.65592">
        <ele>395.4</ele>
        <time>2019-11-26T09:32:46Z</time>
      </trkpt>
      <trkpt lat="46.73319" lon="5.65589">
        <ele>395.2</ele>
        <time>2019-11-26T09:32:55Z</time>
      </trkpt>
      <trkpt lat="46.73315" lon="5.65586">
        <ele>395.3</ele>
        <time>2019-11-26T09:33:00Z</time>
      </trkpt>
      <trkpt lat="46.7331" lon="5.65585">
        <ele>395.7</ele>
        <time>2019-11-26T09:33:06Z</time>
      </trkpt>
      <trkpt lat="46.73306" lon="5.65584">
        <ele>396</ele>
        <time>2019-11-26T09:33:09Z</time>
      </trkpt>
      <trkpt lat="46.73301" lon="5.65583">
        <ele>396.4</ele>
        <time>2019-11-26T09:33:13Z</time>
      </trkpt>
      <trkpt lat="46.73296" lon="5.65583">
        <ele>397.3</ele>
        <time>2019-11-26T09:33:20Z</time>
      </trkpt>
      <trkpt lat="46.73291" lon="5.65583">
        <ele>398.3</ele>
        <time>2019-11-26T09:33:25Z</time>
      </trkpt>
      <trkpt lat="46.73286" lon="5.65582">
        <ele>399.1</ele>
        <time>2019-11-26T09:33:29Z</time>
      </trkpt>
      <trkpt lat="46.73266" lon="5.65582">
        <ele>408.1</ele>
        <time>2019-11-26T09:33:56Z</time>
      </trkpt>
      <trkpt lat="46.73261" lon="5.65582">
        <ele>410.6</ele>
        <time>2019-11-26T09:34:07Z</time>
      </trkpt>
      <trkpt lat="46.73256" lon="5.65583">
        <ele>412.1</ele>
        <time>2019-11-26T09:34:14Z</time>
      </trkpt>
      <trkpt lat="46.73251" lon="5.65586">
        <ele>412.9</ele>
        <time>2019-11-26T09:34:18Z</time>
      </trkpt>
      <trkpt lat="46.73246" lon="5.65588">
        <ele>413.8</ele>
        <time>2019-11-26T09:34:22Z</time>
      </trkpt>
      <trkpt lat="46.73241" lon="5.6559">
        <ele>414.7</ele>
        <time>2019-11-26T09:34:28Z</time>
      </trkpt>
      <trkpt lat="46.73237" lon="5.65594">
        <ele>415</ele>
        <time>2019-11-26T09:34:35Z</time>
      </trkpt>
      <trkpt lat="46.73233" lon="5.65597">
        <ele>414.9</ele>
        <time>2019-11-26T09:34:40Z</time>
      </trkpt>
      <trkpt lat="46.73228" lon="5.65597">
        <ele>415.3</ele>
        <time>2019-11-26T09:34:47Z</time>
      </trkpt>
      <trkpt lat="46.73223" lon="5.65598">
        <ele>415.9</ele>
        <time>2019-11-26T09:34:54Z</time>
      </trkpt>
      <trkpt lat="46.73219" lon="5.656">
        <ele>415.9</ele>
        <time>2019-11-26T09:35:02Z</time>
      </trkpt>
      <trkpt lat="46.73214" lon="5.65603">
        <ele>416</ele>
        <time>2019-11-26T09:35:11Z</time>
      </trkpt>
      <trkpt lat="46.73209" lon="5.65604">
        <ele>416.5</ele>
        <time>2019-11-26T09:35:19Z</time>
      </trkpt>
      <trkpt lat="46.73204" lon="5.65607">
        <ele>417.6</ele>
        <time>2019-11-26T09:35:25Z</time>
      </trkpt>
      <trkpt lat="46.732" lon="5.65608">
        <ele>418.5</ele>
        <time>2019-11-26T09:35:30Z</time>
      </trkpt>
      <trkpt lat="46.73195" lon="5.6561">
        <ele>419.7</ele>
        <time>2019-11-26T09:35:36Z</time>
      </trkpt>
      <trkpt lat="46.73191" lon="5.65613">
        <ele>420.8</ele>
        <time>2019-11-26T09:35:40Z</time>
      </trkpt>
      <trkpt lat="46.73185" lon="5.65614">
        <ele>422</ele>
        <time>2019-11-26T09:35:45Z</time>
      </trkpt>
      <trkpt lat="46.7318" lon="5.65612">
        <ele>423</ele>
        <time>2019-11-26T09:35:51Z</time>
      </trkpt>
      <trkpt lat="46.73175" lon="5.65612">
        <ele>423.6</ele>
        <time>2019-11-26T09:35:57Z</time>
      </trkpt>
      <trkpt lat="46.73171" lon="5.6561">
        <ele>423.7</ele>
        <time>2019-11-26T09:36:02Z</time>
      </trkpt>
      <trkpt lat="46.73166" lon="5.6561">
        <ele>423.7</ele>
        <time>2019-11-26T09:36:10Z</time>
      </trkpt>
      <trkpt lat="46.73164" lon="5.6562">
        <ele>429.3</ele>
        <time>2019-11-26T09:36:51Z</time>
      </trkpt>
      <trkpt lat="46.73167" lon="5.65624">
        <ele>430.1</ele>
        <time>2019-11-26T09:36:56Z</time>
      </trkpt>
      <trkpt lat="46.73172" lon="5.65626">
        <ele>430.9</ele>
        <time>2019-11-26T09:37:03Z</time>
      </trkpt>
      <trkpt lat="46.73177" lon="5.65627">
        <ele>431.4</ele>
        <time>2019-11-26T09:37:09Z</time>
      </trkpt>
      <trkpt lat="46.73189" lon="5.65629">
        <ele>432.9</ele>
        <time>2019-11-26T09:37:21Z</time>
      </trkpt>
      <trkpt lat="46.73194" lon="5.65628">
        <ele>433.3</ele>
        <time>2019-11-26T09:37:28Z</time>
      </trkpt>
      <trkpt lat="46.73199" lon="5.65628">
        <ele>433.8</ele>
        <time>2019-11-26T09:37:35Z</time>
      </trkpt>
      <trkpt lat="46.73204" lon="5.65627">
        <ele>434.3</ele>
        <time>2019-11-26T09:37:40Z</time>
      </trkpt>
      <trkpt lat="46.73209" lon="5.65626">
        <ele>434.7</ele>
        <time>2019-11-26T09:37:44Z</time>
      </trkpt>
      <trkpt lat="46.73214" lon="5.65627">
        <ele>435.4</ele>
        <time>2019-11-26T09:37:51Z</time>
      </trkpt>
      <trkpt lat="46.73219" lon="5.65627">
        <ele>436.3</ele>
        <time>2019-11-26T09:38:00Z</time>
      </trkpt>
      <trkpt lat="46.73224" lon="5.65626">
        <ele>437</ele>
        <time>2019-11-26T09:38:07Z</time>
      </trkpt>
      <trkpt lat="46.7323" lon="5.65624">
        <ele>437.2</ele>
        <time>2019-11-26T09:38:13Z</time>
      </trkpt>
      <trkpt lat="46.73235" lon="5.65623">
        <ele>437.2</ele>
        <time>2019-11-26T09:38:18Z</time>
      </trkpt>
      <trkpt lat="46.73239" lon="5.65622">
        <ele>437.1</ele>
        <time>2019-11-26T09:38:21Z</time>
      </trkpt>
      <trkpt lat="46.73244" lon="5.65623">
        <ele>437.1</ele>
        <time>2019-11-26T09:38:26Z</time>
      </trkpt>
      <trkpt lat="46.73249" lon="5.65623">
        <ele>437.1</ele>
        <time>2019-11-26T09:38:31Z</time>
      </trkpt>
      <trkpt lat="46.73253" lon="5.65625">
        <ele>437.1</ele>
        <time>2019-11-26T09:38:36Z</time>
      </trkpt>
      <trkpt lat="46.73258" lon="5.65626">
        <ele>437.4</ele>
        <time>2019-11-26T09:38:42Z</time>
      </trkpt>
      <trkpt lat="46.73263" lon="5.65628">
        <ele>438</ele>
        <time>2019-11-26T09:38:49Z</time>
      </trkpt>
      <trkpt lat="46.73267" lon="5.6563">
        <ele>438.4</ele>
        <time>2019-11-26T09:38:55Z</time>
      </trkpt>
      <trkpt lat="46.73272" lon="5.6563">
        <ele>438.7</ele>
        <time>2019-11-26T09:39:00Z</time>
      </trkpt>
      <trkpt lat="46.73277" lon="5.65633">
        <ele>439</ele>
        <time>2019-11-26T09:39:05Z</time>
      </trkpt>
      <trkpt lat="46.73292" lon="5.65642">
        <ele>440.2</ele>
        <time>2019-11-26T09:39:18Z</time>
      </trkpt>
      <trkpt lat="46.73297" lon="5.65643">
        <ele>440.6</ele>
        <time>2019-11-26T09:39:24Z</time>
      </trkpt>
      <trkpt lat="46.73302" lon="5.65646">
        <ele>440.9</ele>
        <time>2019-11-26T09:39:31Z</time>
      </trkpt>
      <trkpt lat="46.73307" lon="5.65646">
        <ele>440.6</ele>
        <time>2019-11-26T09:39:36Z</time>
      </trkpt>
      <trkpt lat="46.73311" lon="5.6565">
        <ele>440.1</ele>
        <time>2019-11-26T09:39:44Z</time>
      </trkpt>
      <trkpt lat="46.73316" lon="5.65653">
        <ele>439.8</ele>
        <time>2019-11-26T09:39:48Z</time>
      </trkpt>
      <trkpt lat="46.73321" lon="5.65656">
        <ele>439.7</ele>
        <time>2019-11-26T09:39:53Z</time>
      </trkpt>
      <trkpt lat="46.73326" lon="5.65658">
        <ele>439.5</ele>
        <time>2019-11-26T09:39:57Z</time>
      </trkpt>
      <trkpt lat="46.7333" lon="5.65662">
        <ele>439.2</ele>
        <time>2019-11-26T09:40:03Z</time>
      </trkpt>
      <trkpt lat="46.73335" lon="5.65664">
        <ele>439</ele>
        <time>2019-11-26T09:40:07Z</time>
      </trkpt>
      <trkpt lat="46.73339" lon="5.65668">
        <ele>438.8</ele>
        <time>2019-11-26T09:40:12Z</time>
      </trkpt>
      <trkpt lat="46.73343" lon="5.65672">
        <ele>439.1</ele>
        <time>2019-11-26T09:40:16Z</time>
      </trkpt>
      <trkpt lat="46.73347" lon="5.65676">
        <ele>439.6</ele>
        <time>2019-11-26T09:40:22Z</time>
      </trkpt>
      <trkpt lat="46.73351" lon="5.6568">
        <ele>440.2</ele>
        <time>2019-11-26T09:40:28Z</time>
      </trkpt>
      <trkpt lat="46.73355" lon="5.65683">
        <ele>440.9</ele>
        <time>2019-11-26T09:40:34Z</time>
      </trkpt>
      <trkpt lat="46.73359" lon="5.65687">
        <ele>441.8</ele>
        <time>2019-11-26T09:40:40Z</time>
      </trkpt>
      <trkpt lat="46.73362" lon="5.65692">
        <ele>442.6</ele>
        <time>2019-11-26T09:40:45Z</time>
      </trkpt>
      <trkpt lat="46.73366" lon="5.65699">
        <ele>443.5</ele>
        <time>2019-11-26T09:40:50Z</time>
      </trkpt>
      <trkpt lat="46.7337" lon="5.65704">
        <ele>444.8</ele>
        <time>2019-11-26T09:40:55Z</time>
      </trkpt>
      <trkpt lat="46.73372" lon="5.6571">
        <ele>446.4</ele>
        <time>2019-11-26T09:41:01Z</time>
      </trkpt>
      <trkpt lat="46.73373" lon="5.65717">
        <ele>448.1</ele>
        <time>2019-11-26T09:41:07Z</time>
      </trkpt>
      <trkpt lat="46.73375" lon="5.65724">
        <ele>449.6</ele>
        <time>2019-11-26T09:41:13Z</time>
      </trkpt>
      <trkpt lat="46.73375" lon="5.65731">
        <ele>450.7</ele>
        <time>2019-11-26T09:41:18Z</time>
      </trkpt>
      <trkpt lat="46.73377" lon="5.65738">
        <ele>451.6</ele>
        <time>2019-11-26T09:41:24Z</time>
      </trkpt>
      <trkpt lat="46.73377" lon="5.65745">
        <ele>452.5</ele>
        <time>2019-11-26T09:41:30Z</time>
      </trkpt>
      <trkpt lat="46.73378" lon="5.65751">
        <ele>453.6</ele>
        <time>2019-11-26T09:41:37Z</time>
      </trkpt>
      <trkpt lat="46.73378" lon="5.65758">
        <ele>454.3</ele>
        <time>2019-11-26T09:41:42Z</time>
      </trkpt>
      <trkpt lat="46.73378" lon="5.65765">
        <ele>454.7</ele>
        <time>2019-11-26T09:41:49Z</time>
      </trkpt>
      <trkpt lat="46.73378" lon="5.65772">
        <ele>454.3</ele>
        <time>2019-11-26T09:41:57Z</time>
      </trkpt>
      <trkpt lat="46.73376" lon="5.65779">
        <ele>453.9</ele>
        <time>2019-11-26T09:42:03Z</time>
      </trkpt>
      <trkpt lat="46.73375" lon="5.65787">
        <ele>453.7</ele>
        <time>2019-11-26T09:42:09Z</time>
      </trkpt>
      <trkpt lat="46.73378" lon="5.65794">
        <ele>453.6</ele>
        <time>2019-11-26T09:42:15Z</time>
      </trkpt>
      <trkpt lat="46.73379" lon="5.658">
        <ele>453.6</ele>
        <time>2019-11-26T09:42:20Z</time>
      </trkpt>
      <trkpt lat="46.73379" lon="5.65808">
        <ele>453.7</ele>
        <time>2019-11-26T09:42:26Z</time>
      </trkpt>
      <trkpt lat="46.7338" lon="5.65814">
        <ele>454.1</ele>
        <time>2019-11-26T09:42:31Z</time>
      </trkpt>
      <trkpt lat="46.73383" lon="5.6582">
        <ele>455.1</ele>
        <time>2019-11-26T09:42:37Z</time>
      </trkpt>
      <trkpt lat="46.73386" lon="5.65826">
        <ele>456.5</ele>
        <time>2019-11-26T09:42:44Z</time>
      </trkpt>
      <trkpt lat="46.73389" lon="5.65831">
        <ele>457.5</ele>
        <time>2019-11-26T09:42:51Z</time>
      </trkpt>
      <trkpt lat="46.73393" lon="5.65836">
        <ele>458.1</ele>
        <time>2019-11-26T09:42:55Z</time>
      </trkpt>
      <trkpt lat="46.73397" lon="5.6584">
        <ele>459.3</ele>
        <time>2019-11-26T09:43:02Z</time>
      </trkpt>
      <trkpt lat="46.73399" lon="5.65845">
        <ele>460.5</ele>
        <time>2019-11-26T09:43:09Z</time>
      </trkpt>
      <trkpt lat="46.73401" lon="5.65852">
        <ele>461.6</ele>
        <time>2019-11-26T09:43:15Z</time>
      </trkpt>
      <trkpt lat="46.73403" lon="5.65859">
        <ele>463.3</ele>
        <time>2019-11-26T09:43:22Z</time>
      </trkpt>
      <trkpt lat="46.73407" lon="5.65864">
        <ele>464.7</ele>
        <time>2019-11-26T09:43:28Z</time>
      </trkpt>
      <trkpt lat="46.73411" lon="5.65868">
        <ele>465.7</ele>
        <time>2019-11-26T09:43:33Z</time>
      </trkpt>
      <trkpt lat="46.73415" lon="5.65873">
        <ele>466.5</ele>
        <time>2019-11-26T09:43:38Z</time>
      </trkpt>
      <trkpt lat="46.73419" lon="5.65877">
        <ele>467.1</ele>
        <time>2019-11-26T09:43:43Z</time>
      </trkpt>
      <trkpt lat="46.73422" lon="5.65883">
        <ele>467.9</ele>
        <time>2019-11-26T09:43:48Z</time>
      </trkpt>
      <trkpt lat="46.73426" lon="5.65887">
        <ele>468.8</ele>
        <time>2019-11-26T09:43:53Z</time>
      </trkpt>
      <trkpt lat="46.7343" lon="5.65891">
        <ele>469.5</ele>
        <time>2019-11-26T09:44:02Z</time>
      </trkpt>
      <trkpt lat="46.73435" lon="5.65896">
        <ele>470.2</ele>
        <time>2019-11-26T09:44:09Z</time>
      </trkpt>
      <trkpt lat="46.73439" lon="5.65899">
        <ele>470.6</ele>
        <time>2019-11-26T09:44:16Z</time>
      </trkpt>
      <trkpt lat="46.73443" lon="5.65904">
        <ele>471.1</ele>
        <time>2019-11-26T09:44:21Z</time>
      </trkpt>
      <trkpt lat="46.73447" lon="5.65909">
        <ele>471.7</ele>
        <time>2019-11-26T09:44:26Z</time>
      </trkpt>
      <trkpt lat="46.7345" lon="5.65914">
        <ele>472.7</ele>
        <time>2019-11-26T09:44:32Z</time>
      </trkpt>
      <trkpt lat="46.73454" lon="5.65919">
        <ele>474.2</ele>
        <time>2019-11-26T09:44:40Z</time>
      </trkpt>
      <trkpt lat="46.73459" lon="5.65923">
        <ele>475.4</ele>
        <time>2019-11-26T09:44:46Z</time>
      </trkpt>
      <trkpt lat="46.73463" lon="5.65927">
        <ele>476.4</ele>
        <time>2019-11-26T09:44:52Z</time>
      </trkpt>
      <trkpt lat="46.73466" lon="5.65932">
        <ele>477.2</ele>
        <time>2019-11-26T09:45:02Z</time>
      </trkpt>
      <trkpt lat="46.73471" lon="5.65933">
        <ele>476.7</ele>
        <time>2019-11-26T09:45:11Z</time>
      </trkpt>
      <trkpt lat="46.73476" lon="5.65934">
        <ele>475.9</ele>
        <time>2019-11-26T09:45:19Z</time>
      </trkpt>
      <trkpt lat="46.7348" lon="5.65933">
        <ele>475.7</ele>
        <time>2019-11-26T09:45:28Z</time>
      </trkpt>
      <trkpt lat="46.73485" lon="5.65933">
        <ele>476</ele>
        <time>2019-11-26T09:45:33Z</time>
      </trkpt>
      <trkpt lat="46.7349" lon="5.65931">
        <ele>476.6</ele>
        <time>2019-11-26T09:45:38Z</time>
      </trkpt>
      <trkpt lat="46.73494" lon="5.65929">
        <ele>476.6</ele>
        <time>2019-11-26T09:45:45Z</time>
      </trkpt>
      <trkpt lat="46.73499" lon="5.65929">
        <ele>476.6</ele>
        <time>2019-11-26T09:45:53Z</time>
      </trkpt>
      <trkpt lat="46.73504" lon="5.65928">
        <ele>477.3</ele>
        <time>2019-11-26T09:46:01Z</time>
      </trkpt>
      <trkpt lat="46.7351" lon="5.65928">
        <ele>477.8</ele>
        <time>2019-11-26T09:46:06Z</time>
      </trkpt>
      <trkpt lat="46.73515" lon="5.65927">
        <ele>478.5</ele>
        <time>2019-11-26T09:46:11Z</time>
      </trkpt>
      <trkpt lat="46.7352" lon="5.65928">
        <ele>479</ele>
        <time>2019-11-26T09:46:16Z</time>
      </trkpt>
      <trkpt lat="46.73525" lon="5.65927">
        <ele>479.3</ele>
        <time>2019-11-26T09:46:23Z</time>
      </trkpt>
      <trkpt lat="46.7353" lon="5.65927">
        <ele>479.3</ele>
        <time>2019-11-26T09:46:30Z</time>
      </trkpt>
      <trkpt lat="46.73535" lon="5.65927">
        <ele>479.1</ele>
        <time>2019-11-26T09:46:35Z</time>
      </trkpt>
      <trkpt lat="46.73539" lon="5.65926">
        <ele>478.8</ele>
        <time>2019-11-26T09:46:39Z</time>
      </trkpt>
      <trkpt lat="46.73544" lon="5.65923">
        <ele>478.6</ele>
        <time>2019-11-26T09:46:47Z</time>
      </trkpt>
      <trkpt lat="46.73549" lon="5.65923">
        <ele>478.9</ele>
        <time>2019-11-26T09:46:56Z</time>
      </trkpt>
      <trkpt lat="46.73554" lon="5.65922">
        <ele>479.4</ele>
        <time>2019-11-26T09:47:02Z</time>
      </trkpt>
      <trkpt lat="46.73558" lon="5.6592">
        <ele>479.7</ele>
        <time>2019-11-26T09:47:07Z</time>
      </trkpt>
      <trkpt lat="46.73563" lon="5.65916">
        <ele>480.2</ele>
        <time>2019-11-26T09:47:12Z</time>
      </trkpt>
      <trkpt lat="46.73568" lon="5.65915">
        <ele>480.8</ele>
        <time>2019-11-26T09:47:17Z</time>
      </trkpt>
      <trkpt lat="46.73572" lon="5.65911">
        <ele>481.3</ele>
        <time>2019-11-26T09:47:22Z</time>
      </trkpt>
      <trkpt lat="46.73577" lon="5.65909">
        <ele>481.8</ele>
        <time>2019-11-26T09:47:28Z</time>
      </trkpt>
      <trkpt lat="46.73582" lon="5.6591">
        <ele>482.5</ele>
        <time>2019-11-26T09:47:36Z</time>
      </trkpt>
      <trkpt lat="46.73587" lon="5.65907">
        <ele>482.9</ele>
        <time>2019-11-26T09:47:41Z</time>
      </trkpt>
      <trkpt lat="46.73591" lon="5.65904">
        <ele>483.5</ele>
        <time>2019-11-26T09:47:46Z</time>
      </trkpt>
      <trkpt lat="46.73596" lon="5.65905">
        <ele>484.1</ele>
        <time>2019-11-26T09:47:55Z</time>
      </trkpt>
      <trkpt lat="46.73601" lon="5.65906">
        <ele>484.5</ele>
        <time>2019-11-26T09:48:04Z</time>
      </trkpt>
      <trkpt lat="46.73606" lon="5.65906">
        <ele>484.7</ele>
        <time>2019-11-26T09:48:08Z</time>
      </trkpt>
      <trkpt lat="46.73611" lon="5.65906">
        <ele>484.9</ele>
        <time>2019-11-26T09:48:14Z</time>
      </trkpt>
      <trkpt lat="46.73616" lon="5.65906">
        <ele>484.8</ele>
        <time>2019-11-26T09:48:18Z</time>
      </trkpt>
      <trkpt lat="46.7362" lon="5.65908">
        <ele>484.6</ele>
        <time>2019-11-26T09:48:21Z</time>
      </trkpt>
      <trkpt lat="46.73625" lon="5.65912">
        <ele>484.4</ele>
        <time>2019-11-26T09:48:24Z</time>
      </trkpt>
      <trkpt lat="46.73629" lon="5.65916">
        <ele>484.3</ele>
        <time>2019-11-26T09:48:27Z</time>
      </trkpt>
      <trkpt lat="46.73633" lon="5.65921">
        <ele>484.1</ele>
        <time>2019-11-26T09:48:30Z</time>
      </trkpt>
      <trkpt lat="46.73637" lon="5.65925">
        <ele>484.1</ele>
        <time>2019-11-26T09:48:34Z</time>
      </trkpt>
      <trkpt lat="46.73641" lon="5.6593">
        <ele>484.3</ele>
        <time>2019-11-26T09:48:40Z</time>
      </trkpt>
      <trkpt lat="46.73644" lon="5.65936">
        <ele>484.8</ele>
        <time>2019-11-26T09:48:46Z</time>
      </trkpt>
      <trkpt lat="46.73646" lon="5.65942">
        <ele>485.1</ele>
        <time>2019-11-26T09:48:50Z</time>
      </trkpt>
      <trkpt lat="46.73651" lon="5.65946">
        <ele>485.5</ele>
        <time>2019-11-26T09:48:56Z</time>
      </trkpt>
      <trkpt lat="46.73655" lon="5.65949">
        <ele>485.6</ele>
        <time>2019-11-26T09:49:01Z</time>
      </trkpt>
      <trkpt lat="46.73661" lon="5.65953">
        <ele>485.9</ele>
        <time>2019-11-26T09:49:08Z</time>
      </trkpt>
      <trkpt lat="46.73665" lon="5.65957">
        <ele>486.4</ele>
        <time>2019-11-26T09:49:12Z</time>
      </trkpt>
      <trkpt lat="46.73667" lon="5.65963">
        <ele>487</ele>
        <time>2019-11-26T09:49:17Z</time>
      </trkpt>
      <trkpt lat="46.73671" lon="5.65968">
        <ele>487.8</ele>
        <time>2019-11-26T09:49:23Z</time>
      </trkpt>
      <trkpt lat="46.73674" lon="5.65974">
        <ele>488.5</ele>
        <time>2019-11-26T09:49:28Z</time>
      </trkpt>
      <trkpt lat="46.73676" lon="5.6598">
        <ele>489.3</ele>
        <time>2019-11-26T09:49:34Z</time>
      </trkpt>
      <trkpt lat="46.73677" lon="5.65987">
        <ele>489.9</ele>
        <time>2019-11-26T09:49:39Z</time>
      </trkpt>
      <trkpt lat="46.73677" lon="5.65994">
        <ele>490.4</ele>
        <time>2019-11-26T09:49:44Z</time>
      </trkpt>
      <trkpt lat="46.73679" lon="5.66001">
        <ele>491</ele>
        <time>2019-11-26T09:49:51Z</time>
      </trkpt>
      <trkpt lat="46.73679" lon="5.66008">
        <ele>491.1</ele>
        <time>2019-11-26T09:49:53Z</time>
      </trkpt>
      <trkpt lat="46.73679" lon="5.66015">
        <ele>491.2</ele>
        <time>2019-11-26T09:49:57Z</time>
      </trkpt>
      <trkpt lat="46.73678" lon="5.66023">
        <ele>491.6</ele>
        <time>2019-11-26T09:50:02Z</time>
      </trkpt>
      <trkpt lat="46.73677" lon="5.66031">
        <ele>492.3</ele>
        <time>2019-11-26T09:50:07Z</time>
      </trkpt>
      <trkpt lat="46.73678" lon="5.66038">
        <ele>492.9</ele>
        <time>2019-11-26T09:50:11Z</time>
      </trkpt>
      <trkpt lat="46.73678" lon="5.66045">
        <ele>493.5</ele>
        <time>2019-11-26T09:50:15Z</time>
      </trkpt>
      <trkpt lat="46.73677" lon="5.66052">
        <ele>494.1</ele>
        <time>2019-11-26T09:50:20Z</time>
      </trkpt>
      <trkpt lat="46.73677" lon="5.66059">
        <ele>494.4</ele>
        <time>2019-11-26T09:50:26Z</time>
      </trkpt>
      <trkpt lat="46.73678" lon="5.66066">
        <ele>494.7</ele>
        <time>2019-11-26T09:50:30Z</time>
      </trkpt>
      <trkpt lat="46.73678" lon="5.66073">
        <ele>495.6</ele>
        <time>2019-11-26T09:50:37Z</time>
      </trkpt>
      <trkpt lat="46.73679" lon="5.66079">
        <ele>496.4</ele>
        <time>2019-11-26T09:50:42Z</time>
      </trkpt>
      <trkpt lat="46.73678" lon="5.66087">
        <ele>497</ele>
        <time>2019-11-26T09:50:47Z</time>
      </trkpt>
      <trkpt lat="46.73678" lon="5.66094">
        <ele>497.6</ele>
        <time>2019-11-26T09:50:51Z</time>
      </trkpt>
      <trkpt lat="46.73676" lon="5.66101">
        <ele>498</ele>
        <time>2019-11-26T09:50:55Z</time>
      </trkpt>
      <trkpt lat="46.73675" lon="5.66108">
        <ele>498.4</ele>
        <time>2019-11-26T09:51:00Z</time>
      </trkpt>
      <trkpt lat="46.73674" lon="5.66114">
        <ele>499</ele>
        <time>2019-11-26T09:51:06Z</time>
      </trkpt>
      <trkpt lat="46.73672" lon="5.66122">
        <ele>499</ele>
        <time>2019-11-26T09:51:11Z</time>
      </trkpt>
      <trkpt lat="46.7367" lon="5.66128">
        <ele>498.9</ele>
        <time>2019-11-26T09:51:16Z</time>
      </trkpt>
      <trkpt lat="46.73667" lon="5.66136">
        <ele>498.8</ele>
        <time>2019-11-26T09:51:21Z</time>
      </trkpt>
      <trkpt lat="46.73665" lon="5.66143">
        <ele>498.6</ele>
        <time>2019-11-26T09:51:25Z</time>
      </trkpt>
      <trkpt lat="46.73663" lon="5.6615">
        <ele>498.1</ele>
        <time>2019-11-26T09:51:30Z</time>
      </trkpt>
      <trkpt lat="46.73662" lon="5.66157">
        <ele>497.5</ele>
        <time>2019-11-26T09:51:35Z</time>
      </trkpt>
      <trkpt lat="46.7366" lon="5.66163">
        <ele>497.3</ele>
        <time>2019-11-26T09:51:39Z</time>
      </trkpt>
      <trkpt lat="46.73659" lon="5.6617">
        <ele>497.3</ele>
        <time>2019-11-26T09:51:43Z</time>
      </trkpt>
      <trkpt lat="46.73657" lon="5.66176">
        <ele>497.5</ele>
        <time>2019-11-26T09:51:47Z</time>
      </trkpt>
      <trkpt lat="46.73656" lon="5.66183">
        <ele>497.7</ele>
        <time>2019-11-26T09:51:53Z</time>
      </trkpt>
      <trkpt lat="46.73655" lon="5.6619">
        <ele>497.8</ele>
        <time>2019-11-26T09:51:58Z</time>
      </trkpt>
      <trkpt lat="46.73655" lon="5.66197">
        <ele>497.7</ele>
        <time>2019-11-26T09:52:03Z</time>
      </trkpt>
      <trkpt lat="46.73653" lon="5.66205">
        <ele>497.8</ele>
        <time>2019-11-26T09:52:08Z</time>
      </trkpt>
      <trkpt lat="46.73651" lon="5.66213">
        <ele>497.9</ele>
        <time>2019-11-26T09:52:12Z</time>
      </trkpt>
      <trkpt lat="46.73651" lon="5.6622">
        <ele>498.1</ele>
        <time>2019-11-26T09:52:16Z</time>
      </trkpt>
      <trkpt lat="46.73651" lon="5.66226">
        <ele>498.3</ele>
        <time>2019-11-26T09:52:20Z</time>
      </trkpt>
      <trkpt lat="46.7365" lon="5.66233">
        <ele>498.5</ele>
        <time>2019-11-26T09:52:23Z</time>
      </trkpt>
      <trkpt lat="46.73649" lon="5.6624">
        <ele>498.6</ele>
        <time>2019-11-26T09:52:27Z</time>
      </trkpt>
      <trkpt lat="46.73649" lon="5.66247">
        <ele>498.6</ele>
        <time>2019-11-26T09:52:31Z</time>
      </trkpt>
      <trkpt lat="46.73648" lon="5.66255">
        <ele>498.6</ele>
        <time>2019-11-26T09:52:36Z</time>
      </trkpt>
      <trkpt lat="46.73646" lon="5.66262">
        <ele>498.5</ele>
        <time>2019-11-26T09:52:41Z</time>
      </trkpt>
      <trkpt lat="46.73644" lon="5.6627">
        <ele>498</ele>
        <time>2019-11-26T09:52:46Z</time>
      </trkpt>
      <trkpt lat="46.73641" lon="5.66277">
        <ele>497.4</ele>
        <time>2019-11-26T09:52:50Z</time>
      </trkpt>
      <trkpt lat="46.7364" lon="5.66284">
        <ele>496.8</ele>
        <time>2019-11-26T09:52:54Z</time>
      </trkpt>
      <trkpt lat="46.73637" lon="5.66291">
        <ele>496.1</ele>
        <time>2019-11-26T09:52:59Z</time>
      </trkpt>
      <trkpt lat="46.73635" lon="5.66297">
        <ele>495.1</ele>
        <time>2019-11-26T09:53:03Z</time>
      </trkpt>
      <trkpt lat="46.73631" lon="5.66303">
        <ele>494.5</ele>
        <time>2019-11-26T09:53:06Z</time>
      </trkpt>
      <trkpt lat="46.73628" lon="5.66309">
        <ele>493.7</ele>
        <time>2019-11-26T09:53:10Z</time>
      </trkpt>
      <trkpt lat="46.73625" lon="5.66316">
        <ele>493.1</ele>
        <time>2019-11-26T09:53:14Z</time>
      </trkpt>
      <trkpt lat="46.73623" lon="5.66324">
        <ele>492.8</ele>
        <time>2019-11-26T09:53:18Z</time>
      </trkpt>
      <trkpt lat="46.73621" lon="5.66331">
        <ele>492.6</ele>
        <time>2019-11-26T09:53:22Z</time>
      </trkpt>
      <trkpt lat="46.73619" lon="5.66338">
        <ele>492.3</ele>
        <time>2019-11-26T09:53:27Z</time>
      </trkpt>
      <trkpt lat="46.73616" lon="5.66343">
        <ele>492.1</ele>
        <time>2019-11-26T09:53:30Z</time>
      </trkpt>
      <trkpt lat="46.73613" lon="5.66348">
        <ele>492.1</ele>
        <time>2019-11-26T09:53:35Z</time>
      </trkpt>
      <trkpt lat="46.73609" lon="5.66353">
        <ele>492.4</ele>
        <time>2019-11-26T09:53:40Z</time>
      </trkpt>
      <trkpt lat="46.73607" lon="5.66358">
        <ele>492.5</ele>
        <time>2019-11-26T09:53:43Z</time>
      </trkpt>
      <trkpt lat="46.73603" lon="5.66364">
        <ele>492.4</ele>
        <time>2019-11-26T09:53:47Z</time>
      </trkpt>
      <trkpt lat="46.736" lon="5.6637">
        <ele>492.3</ele>
        <time>2019-11-26T09:53:52Z</time>
      </trkpt>
      <trkpt lat="46.73598" lon="5.66376">
        <ele>492.4</ele>
        <time>2019-11-26T09:53:56Z</time>
      </trkpt>
      <trkpt lat="46.73596" lon="5.66383">
        <ele>492.7</ele>
        <time>2019-11-26T09:54:01Z</time>
      </trkpt>
      <trkpt lat="46.73594" lon="5.66391">
        <ele>492.8</ele>
        <time>2019-11-26T09:54:05Z</time>
      </trkpt>
      <trkpt lat="46.73591" lon="5.66397">
        <ele>493.1</ele>
        <time>2019-11-26T09:54:11Z</time>
      </trkpt>
      <trkpt lat="46.73588" lon="5.66403">
        <ele>493.2</ele>
        <time>2019-11-26T09:54:16Z</time>
      </trkpt>
      <trkpt lat="46.73587" lon="5.66409">
        <ele>493.3</ele>
        <time>2019-11-26T09:54:22Z</time>
      </trkpt>
      <trkpt lat="46.73585" lon="5.66416">
        <ele>493.3</ele>
        <time>2019-11-26T09:54:29Z</time>
      </trkpt>
      <trkpt lat="46.73583" lon="5.66424">
        <ele>493.5</ele>
        <time>2019-11-26T09:54:34Z</time>
      </trkpt>
      <trkpt lat="46.73581" lon="5.6643">
        <ele>493.8</ele>
        <time>2019-11-26T09:54:39Z</time>
      </trkpt>
      <trkpt lat="46.73579" lon="5.66437">
        <ele>494</ele>
        <time>2019-11-26T09:54:44Z</time>
      </trkpt>
      <trkpt lat="46.73577" lon="5.66444">
        <ele>494.2</ele>
        <time>2019-11-26T09:54:48Z</time>
      </trkpt>
      <trkpt lat="46.73575" lon="5.66451">
        <ele>494.4</ele>
        <time>2019-11-26T09:54:53Z</time>
      </trkpt>
      <trkpt lat="46.73573" lon="5.66457">
        <ele>494.7</ele>
        <time>2019-11-26T09:54:58Z</time>
      </trkpt>
      <trkpt lat="46.73572" lon="5.66465">
        <ele>495.2</ele>
        <time>2019-11-26T09:55:02Z</time>
      </trkpt>
      <trkpt lat="46.73572" lon="5.66472">
        <ele>496</ele>
        <time>2019-11-26T09:55:08Z</time>
      </trkpt>
      <trkpt lat="46.73573" lon="5.66479">
        <ele>496.5</ele>
        <time>2019-11-26T09:55:13Z</time>
      </trkpt>
      <trkpt lat="46.7357" lon="5.66485">
        <ele>496.9</ele>
        <time>2019-11-26T09:55:19Z</time>
      </trkpt>
      <trkpt lat="46.73569" lon="5.66492">
        <ele>497.1</ele>
        <time>2019-11-26T09:55:24Z</time>
      </trkpt>
      <trkpt lat="46.73568" lon="5.66498">
        <ele>497.1</ele>
        <time>2019-11-26T09:55:28Z</time>
      </trkpt>
      <trkpt lat="46.73566" lon="5.66506">
        <ele>497.3</ele>
        <time>2019-11-26T09:55:32Z</time>
      </trkpt>
      <trkpt lat="46.73565" lon="5.66513">
        <ele>497.4</ele>
        <time>2019-11-26T09:55:37Z</time>
      </trkpt>
      <trkpt lat="46.73562" lon="5.66519">
        <ele>497.2</ele>
        <time>2019-11-26T09:55:42Z</time>
      </trkpt>
      <trkpt lat="46.73558" lon="5.66525">
        <ele>496.9</ele>
        <time>2019-11-26T09:55:47Z</time>
      </trkpt>
      <trkpt lat="46.73557" lon="5.66532">
        <ele>496.8</ele>
        <time>2019-11-26T09:55:51Z</time>
      </trkpt>
      <trkpt lat="46.73555" lon="5.66538">
        <ele>496.8</ele>
        <time>2019-11-26T09:55:56Z</time>
      </trkpt>
      <trkpt lat="46.73554" lon="5.66546">
        <ele>496.8</ele>
        <time>2019-11-26T09:56:01Z</time>
      </trkpt>
      <trkpt lat="46.73551" lon="5.66553">
        <ele>496.8</ele>
        <time>2019-11-26T09:56:05Z</time>
      </trkpt>
      <trkpt lat="46.7355" lon="5.66561">
        <ele>496.8</ele>
        <time>2019-11-26T09:56:09Z</time>
      </trkpt>
      <trkpt lat="46.7355" lon="5.66568">
        <ele>496.9</ele>
        <time>2019-11-26T09:56:14Z</time>
      </trkpt>
      <trkpt lat="46.73551" lon="5.66575">
        <ele>496.5</ele>
        <time>2019-11-26T09:56:21Z</time>
      </trkpt>
      <trkpt lat="46.73549" lon="5.66582">
        <ele>495.9</ele>
        <time>2019-11-26T09:56:26Z</time>
      </trkpt>
      <trkpt lat="46.73548" lon="5.66589">
        <ele>495.5</ele>
        <time>2019-11-26T09:56:31Z</time>
      </trkpt>
      <trkpt lat="46.73548" lon="5.66596">
        <ele>495.1</ele>
        <time>2019-11-26T09:56:37Z</time>
      </trkpt>
      <trkpt lat="46.73549" lon="5.66604">
        <ele>494.7</ele>
        <time>2019-11-26T09:56:43Z</time>
      </trkpt>
      <trkpt lat="46.73549" lon="5.66612">
        <ele>494.4</ele>
        <time>2019-11-26T09:56:49Z</time>
      </trkpt>
      <trkpt lat="46.73549" lon="5.66618">
        <ele>494.3</ele>
        <time>2019-11-26T09:56:52Z</time>
      </trkpt>
      <trkpt lat="46.73549" lon="5.66625">
        <ele>494.4</ele>
        <time>2019-11-26T09:56:56Z</time>
      </trkpt>
      <trkpt lat="46.73549" lon="5.66632">
        <ele>495</ele>
        <time>2019-11-26T09:57:01Z</time>
      </trkpt>
      <trkpt lat="46.73552" lon="5.66638">
        <ele>496.2</ele>
        <time>2019-11-26T09:57:10Z</time>
      </trkpt>
      <trkpt lat="46.73555" lon="5.66646">
        <ele>496.3</ele>
        <time>2019-11-26T09:57:15Z</time>
      </trkpt>
      <trkpt lat="46.73556" lon="5.66653">
        <ele>496</ele>
        <time>2019-11-26T09:57:19Z</time>
      </trkpt>
      <trkpt lat="46.73559" lon="5.66658">
        <ele>495.1</ele>
        <time>2019-11-26T09:57:26Z</time>
      </trkpt>
      <trkpt lat="46.73563" lon="5.66662">
        <ele>493.5</ele>
        <time>2019-11-26T09:57:38Z</time>
      </trkpt>
      <trkpt lat="46.73567" lon="5.66666">
        <ele>493</ele>
        <time>2019-11-26T09:57:45Z</time>
      </trkpt>
      <trkpt lat="46.73572" lon="5.66668">
        <ele>492.6</ele>
        <time>2019-11-26T09:57:51Z</time>
      </trkpt>
      <trkpt lat="46.73578" lon="5.66671">
        <ele>492.1</ele>
        <time>2019-11-26T09:57:56Z</time>
      </trkpt>
      <trkpt lat="46.73583" lon="5.66671">
        <ele>491.6</ele>
        <time>2019-11-26T09:58:00Z</time>
      </trkpt>
      <trkpt lat="46.73588" lon="5.66672">
        <ele>491</ele>
        <time>2019-11-26T09:58:05Z</time>
      </trkpt>
      <trkpt lat="46.73594" lon="5.66674">
        <ele>490.7</ele>
        <time>2019-11-26T09:58:11Z</time>
      </trkpt>
      <trkpt lat="46.73599" lon="5.66675">
        <ele>490.6</ele>
        <time>2019-11-26T09:58:14Z</time>
      </trkpt>
      <trkpt lat="46.73604" lon="5.66676">
        <ele>490.7</ele>
        <time>2019-11-26T09:58:18Z</time>
      </trkpt>
      <trkpt lat="46.73608" lon="5.66676">
        <ele>490.9</ele>
        <time>2019-11-26T09:58:23Z</time>
      </trkpt>
      <trkpt lat="46.73613" lon="5.66677">
        <ele>491.1</ele>
        <time>2019-11-26T09:58:29Z</time>
      </trkpt>
      <trkpt lat="46.73618" lon="5.66678">
        <ele>491.3</ele>
        <time>2019-11-26T09:58:34Z</time>
      </trkpt>
      <trkpt lat="46.73623" lon="5.66678">
        <ele>491.4</ele>
        <time>2019-11-26T09:58:38Z</time>
      </trkpt>
      <trkpt lat="46.73628" lon="5.66679">
        <ele>491.3</ele>
        <time>2019-11-26T09:58:42Z</time>
      </trkpt>
      <trkpt lat="46.73633" lon="5.66679">
        <ele>491.1</ele>
        <time>2019-11-26T09:58:47Z</time>
      </trkpt>
      <trkpt lat="46.73638" lon="5.6668">
        <ele>491.2</ele>
        <time>2019-11-26T09:58:51Z</time>
      </trkpt>
      <trkpt lat="46.73643" lon="5.66679">
        <ele>491.4</ele>
        <time>2019-11-26T09:58:55Z</time>
      </trkpt>
      <trkpt lat="46.73649" lon="5.66679">
        <ele>491.8</ele>
        <time>2019-11-26T09:58:59Z</time>
      </trkpt>
      <trkpt lat="46.73654" lon="5.6668">
        <ele>492.1</ele>
        <time>2019-11-26T09:59:02Z</time>
      </trkpt>
      <trkpt lat="46.73659" lon="5.66681">
        <ele>492.6</ele>
        <time>2019-11-26T09:59:07Z</time>
      </trkpt>
      <trkpt lat="46.73664" lon="5.66682">
        <ele>492.8</ele>
        <time>2019-11-26T09:59:13Z</time>
      </trkpt>
      <trkpt lat="46.73669" lon="5.66684">
        <ele>492.9</ele>
        <time>2019-11-26T09:59:20Z</time>
      </trkpt>
      <trkpt lat="46.73674" lon="5.66685">
        <ele>492.9</ele>
        <time>2019-11-26T09:59:24Z</time>
      </trkpt>
      <trkpt lat="46.73679" lon="5.66686">
        <ele>492.9</ele>
        <time>2019-11-26T09:59:29Z</time>
      </trkpt>
      <trkpt lat="46.73684" lon="5.66686">
        <ele>492.9</ele>
        <time>2019-11-26T09:59:33Z</time>
      </trkpt>
      <trkpt lat="46.73689" lon="5.66687">
        <ele>493</ele>
        <time>2019-11-26T09:59:36Z</time>
      </trkpt>
      <trkpt lat="46.73695" lon="5.66688">
        <ele>493.3</ele>
        <time>2019-11-26T09:59:40Z</time>
      </trkpt>
      <trkpt lat="46.737" lon="5.66688">
        <ele>493.6</ele>
        <time>2019-11-26T09:59:44Z</time>
      </trkpt>
      <trkpt lat="46.73705" lon="5.66685">
        <ele>493.9</ele>
        <time>2019-11-26T09:59:49Z</time>
      </trkpt>
      <trkpt lat="46.73709" lon="5.66684">
        <ele>493.8</ele>
        <time>2019-11-26T09:59:57Z</time>
      </trkpt>
      <trkpt lat="46.73714" lon="5.66682">
        <ele>493.9</ele>
        <time>2019-11-26T10:00:01Z</time>
      </trkpt>
      <trkpt lat="46.73719" lon="5.66681">
        <ele>494</ele>
        <time>2019-11-26T10:00:07Z</time>
      </trkpt>
      <trkpt lat="46.73724" lon="5.66681">
        <ele>493.8</ele>
        <time>2019-11-26T10:00:11Z</time>
      </trkpt>
      <trkpt lat="46.73729" lon="5.66683">
        <ele>493.7</ele>
        <time>2019-11-26T10:00:15Z</time>
      </trkpt>
      <trkpt lat="46.73734" lon="5.66685">
        <ele>493.5</ele>
        <time>2019-11-26T10:00:20Z</time>
      </trkpt>
      <trkpt lat="46.73739" lon="5.66687">
        <ele>493.2</ele>
        <time>2019-11-26T10:00:24Z</time>
      </trkpt>
      <trkpt lat="46.73744" lon="5.6669">
        <ele>492.9</ele>
        <time>2019-11-26T10:00:29Z</time>
      </trkpt>
      <trkpt lat="46.73749" lon="5.66691">
        <ele>492.7</ele>
        <time>2019-11-26T10:00:34Z</time>
      </trkpt>
      <trkpt lat="46.73754" lon="5.66691">
        <ele>492.5</ele>
        <time>2019-11-26T10:00:40Z</time>
      </trkpt>
      <trkpt lat="46.73759" lon="5.66692">
        <ele>492.4</ele>
        <time>2019-11-26T10:00:44Z</time>
      </trkpt>
      <trkpt lat="46.73763" lon="5.66692">
        <ele>492.2</ele>
        <time>2019-11-26T10:00:48Z</time>
      </trkpt>
      <trkpt lat="46.73769" lon="5.66693">
        <ele>492</ele>
        <time>2019-11-26T10:00:53Z</time>
      </trkpt>
      <trkpt lat="46.73774" lon="5.66694">
        <ele>491.7</ele>
        <time>2019-11-26T10:00:57Z</time>
      </trkpt>
      <trkpt lat="46.73778" lon="5.66696">
        <ele>491.3</ele>
        <time>2019-11-26T10:01:02Z</time>
      </trkpt>
      <trkpt lat="46.73783" lon="5.66698">
        <ele>491</ele>
        <time>2019-11-26T10:01:06Z</time>
      </trkpt>
      <trkpt lat="46.73789" lon="5.66699">
        <ele>490.6</ele>
        <time>2019-11-26T10:01:11Z</time>
      </trkpt>
      <trkpt lat="46.73794" lon="5.667">
        <ele>490.3</ele>
        <time>2019-11-26T10:01:15Z</time>
      </trkpt>
      <trkpt lat="46.73799" lon="5.66701">
        <ele>490.3</ele>
        <time>2019-11-26T10:01:19Z</time>
      </trkpt>
      <trkpt lat="46.73805" lon="5.66702">
        <ele>490.2</ele>
        <time>2019-11-26T10:01:24Z</time>
      </trkpt>
      <trkpt lat="46.73809" lon="5.66704">
        <ele>490</ele>
        <time>2019-11-26T10:01:28Z</time>
      </trkpt>
      <trkpt lat="46.73814" lon="5.66707">
        <ele>489.8</ele>
        <time>2019-11-26T10:01:33Z</time>
      </trkpt>
      <trkpt lat="46.73819" lon="5.6671">
        <ele>489.6</ele>
        <time>2019-11-26T10:01:37Z</time>
      </trkpt>
      <trkpt lat="46.73824" lon="5.66712">
        <ele>489.2</ele>
        <time>2019-11-26T10:01:42Z</time>
      </trkpt>
      <trkpt lat="46.73828" lon="5.66716">
        <ele>488.8</ele>
        <time>2019-11-26T10:01:48Z</time>
      </trkpt>
      <trkpt lat="46.73833" lon="5.66719">
        <ele>488.2</ele>
        <time>2019-11-26T10:01:53Z</time>
      </trkpt>
      <trkpt lat="46.73837" lon="5.66722">
        <ele>487.8</ele>
        <time>2019-11-26T10:01:57Z</time>
      </trkpt>
      <trkpt lat="46.73842" lon="5.66724">
        <ele>487.5</ele>
        <time>2019-11-26T10:02:02Z</time>
      </trkpt>
      <trkpt lat="46.73847" lon="5.66727">
        <ele>487.3</ele>
        <time>2019-11-26T10:02:06Z</time>
      </trkpt>
      <trkpt lat="46.73851" lon="5.6673">
        <ele>487.1</ele>
        <time>2019-11-26T10:02:09Z</time>
      </trkpt>
      <trkpt lat="46.73855" lon="5.66735">
        <ele>487.1</ele>
        <time>2019-11-26T10:02:14Z</time>
      </trkpt>
      <trkpt lat="46.73859" lon="5.6674">
        <ele>487.2</ele>
        <time>2019-11-26T10:02:19Z</time>
      </trkpt>
      <trkpt lat="46.73863" lon="5.66745">
        <ele>487.3</ele>
        <time>2019-11-26T10:02:23Z</time>
      </trkpt>
      <trkpt lat="46.73867" lon="5.6675">
        <ele>487.6</ele>
        <time>2019-11-26T10:02:27Z</time>
      </trkpt>
      <trkpt lat="46.73871" lon="5.66755">
        <ele>487.9</ele>
        <time>2019-11-26T10:02:31Z</time>
      </trkpt>
      <trkpt lat="46.73874" lon="5.66762">
        <ele>488.1</ele>
        <time>2019-11-26T10:02:36Z</time>
      </trkpt>
      <trkpt lat="46.73877" lon="5.66768">
        <ele>488.4</ele>
        <time>2019-11-26T10:02:41Z</time>
      </trkpt>
      <trkpt lat="46.7388" lon="5.66773">
        <ele>488.7</ele>
        <time>2019-11-26T10:02:46Z</time>
      </trkpt>
      <trkpt lat="46.73883" lon="5.66779">
        <ele>488.8</ele>
        <time>2019-11-26T10:02:51Z</time>
      </trkpt>
      <trkpt lat="46.73886" lon="5.66785">
        <ele>488.9</ele>
        <time>2019-11-26T10:02:55Z</time>
      </trkpt>
      <trkpt lat="46.73889" lon="5.66791">
        <ele>489</ele>
        <time>2019-11-26T10:02:59Z</time>
      </trkpt>
      <trkpt lat="46.73891" lon="5.66798">
        <ele>489.1</ele>
        <time>2019-11-26T10:03:03Z</time>
      </trkpt>
      <trkpt lat="46.73894" lon="5.66804">
        <ele>489.4</ele>
        <time>2019-11-26T10:03:07Z</time>
      </trkpt>
      <trkpt lat="46.73898" lon="5.66811">
        <ele>489.9</ele>
        <time>2019-11-26T10:03:12Z</time>
      </trkpt>
      <trkpt lat="46.73899" lon="5.66817">
        <ele>490.4</ele>
        <time>2019-11-26T10:03:16Z</time>
      </trkpt>
      <trkpt lat="46.73901" lon="5.66825">
        <ele>491</ele>
        <time>2019-11-26T10:03:20Z</time>
      </trkpt>
      <trkpt lat="46.73902" lon="5.66832">
        <ele>491.7</ele>
        <time>2019-11-26T10:03:24Z</time>
      </trkpt>
      <trkpt lat="46.73904" lon="5.66838">
        <ele>492.3</ele>
        <time>2019-11-26T10:03:28Z</time>
      </trkpt>
      <trkpt lat="46.73906" lon="5.66844">
        <ele>492.9</ele>
        <time>2019-11-26T10:03:32Z</time>
      </trkpt>
      <trkpt lat="46.73909" lon="5.6685">
        <ele>493.5</ele>
        <time>2019-11-26T10:03:37Z</time>
      </trkpt>
      <trkpt lat="46.73912" lon="5.66856">
        <ele>494.1</ele>
        <time>2019-11-26T10:03:41Z</time>
      </trkpt>
      <trkpt lat="46.73915" lon="5.66862">
        <ele>494.5</ele>
        <time>2019-11-26T10:03:45Z</time>
      </trkpt>
      <trkpt lat="46.73917" lon="5.66867">
        <ele>494.9</ele>
        <time>2019-11-26T10:03:50Z</time>
      </trkpt>
      <trkpt lat="46.7392" lon="5.66874">
        <ele>495.3</ele>
        <time>2019-11-26T10:03:56Z</time>
      </trkpt>
      <trkpt lat="46.73923" lon="5.66881">
        <ele>495.6</ele>
        <time>2019-11-26T10:04:00Z</time>
      </trkpt>
      <trkpt lat="46.73927" lon="5.66886">
        <ele>496</ele>
        <time>2019-11-26T10:04:05Z</time>
      </trkpt>
      <trkpt lat="46.73931" lon="5.66891">
        <ele>496.3</ele>
        <time>2019-11-26T10:04:10Z</time>
      </trkpt>
      <trkpt lat="46.73934" lon="5.66896">
        <ele>496.5</ele>
        <time>2019-11-26T10:04:17Z</time>
      </trkpt>
      <trkpt lat="46.73938" lon="5.66901">
        <ele>496.7</ele>
        <time>2019-11-26T10:04:21Z</time>
      </trkpt>
      <trkpt lat="46.73942" lon="5.66906">
        <ele>496.8</ele>
        <time>2019-11-26T10:04:25Z</time>
      </trkpt>
      <trkpt lat="46.73946" lon="5.66911">
        <ele>497</ele>
        <time>2019-11-26T10:04:29Z</time>
      </trkpt>
      <trkpt lat="46.7395" lon="5.66916">
        <ele>497.3</ele>
        <time>2019-11-26T10:04:34Z</time>
      </trkpt>
      <trkpt lat="46.73953" lon="5.66922">
        <ele>497.7</ele>
        <time>2019-11-26T10:04:39Z</time>
      </trkpt>
      <trkpt lat="46.73956" lon="5.66927">
        <ele>498</ele>
        <time>2019-11-26T10:04:43Z</time>
      </trkpt>
      <trkpt lat="46.7396" lon="5.66932">
        <ele>498.3</ele>
        <time>2019-11-26T10:04:47Z</time>
      </trkpt>
      <trkpt lat="46.73964" lon="5.66936">
        <ele>498.4</ele>
        <time>2019-11-26T10:04:52Z</time>
      </trkpt>
      <trkpt lat="46.73968" lon="5.66941">
        <ele>498.3</ele>
        <time>2019-11-26T10:04:57Z</time>
      </trkpt>
      <trkpt lat="46.73971" lon="5.66947">
        <ele>498.1</ele>
        <time>2019-11-26T10:05:03Z</time>
      </trkpt>
      <trkpt lat="46.73973" lon="5.66953">
        <ele>498.2</ele>
        <time>2019-11-26T10:05:08Z</time>
      </trkpt>
      <trkpt lat="46.73973" lon="5.6696">
        <ele>498.5</ele>
        <time>2019-11-26T10:05:15Z</time>
      </trkpt>
      <trkpt lat="46.73972" lon="5.66967">
        <ele>498.6</ele>
        <time>2019-11-26T10:05:25Z</time>
      </trkpt>
      <trkpt lat="46.73972" lon="5.66959">
        <ele>496.4</ele>
        <time>2019-11-26T10:05:59Z</time>
      </trkpt>
      <trkpt lat="46.73976" lon="5.66956">
        <ele>498.3</ele>
        <time>2019-11-26T10:06:46Z</time>
      </trkpt>
      <trkpt lat="46.7398" lon="5.66958">
        <ele>498.5</ele>
        <time>2019-11-26T10:06:51Z</time>
      </trkpt>
      <trkpt lat="46.73986" lon="5.6696">
        <ele>498.6</ele>
        <time>2019-11-26T10:06:54Z</time>
      </trkpt>
      <trkpt lat="46.73991" lon="5.66962">
        <ele>498.7</ele>
        <time>2019-11-26T10:06:57Z</time>
      </trkpt>
      <trkpt lat="46.73996" lon="5.66964">
        <ele>498.7</ele>
        <time>2019-11-26T10:07:00Z</time>
      </trkpt>
      <trkpt lat="46.74" lon="5.66968">
        <ele>498.6</ele>
        <time>2019-11-26T10:07:04Z</time>
      </trkpt>
      <trkpt lat="46.74005" lon="5.66971">
        <ele>498.5</ele>
        <time>2019-11-26T10:07:08Z</time>
      </trkpt>
      <trkpt lat="46.7401" lon="5.66975">
        <ele>498.3</ele>
        <time>2019-11-26T10:07:12Z</time>
      </trkpt>
      <trkpt lat="46.74015" lon="5.66977">
        <ele>498.1</ele>
        <time>2019-11-26T10:07:15Z</time>
      </trkpt>
      <trkpt lat="46.7402" lon="5.66979">
        <ele>497.7</ele>
        <time>2019-11-26T10:07:19Z</time>
      </trkpt>
      <trkpt lat="46.74024" lon="5.66982">
        <ele>497.4</ele>
        <time>2019-11-26T10:07:23Z</time>
      </trkpt>
      <trkpt lat="46.74029" lon="5.66984">
        <ele>497</ele>
        <time>2019-11-26T10:07:28Z</time>
      </trkpt>
      <trkpt lat="46.74034" lon="5.66986">
        <ele>496.8</ele>
        <time>2019-11-26T10:07:32Z</time>
      </trkpt>
      <trkpt lat="46.74038" lon="5.66989">
        <ele>496.5</ele>
        <time>2019-11-26T10:07:37Z</time>
      </trkpt>
      <trkpt lat="46.74043" lon="5.66993">
        <ele>496.3</ele>
        <time>2019-11-26T10:07:43Z</time>
      </trkpt>
      <trkpt lat="46.74049" lon="5.66995">
        <ele>496.1</ele>
        <time>2019-11-26T10:07:47Z</time>
      </trkpt>
      <trkpt lat="46.74053" lon="5.66997">
        <ele>496</ele>
        <time>2019-11-26T10:07:50Z</time>
      </trkpt>
      <trkpt lat="46.74058" lon="5.66997">
        <ele>495.7</ele>
        <time>2019-11-26T10:07:54Z</time>
      </trkpt>
      <trkpt lat="46.74063" lon="5.66998">
        <ele>495.5</ele>
        <time>2019-11-26T10:07:58Z</time>
      </trkpt>
      <trkpt lat="46.74067" lon="5.66998">
        <ele>495.3</ele>
        <time>2019-11-26T10:08:02Z</time>
      </trkpt>
      <trkpt lat="46.74072" lon="5.66997">
        <ele>495.1</ele>
        <time>2019-11-26T10:08:07Z</time>
      </trkpt>
      <trkpt lat="46.74078" lon="5.66997">
        <ele>494.8</ele>
        <time>2019-11-26T10:08:12Z</time>
      </trkpt>
      <trkpt lat="46.74083" lon="5.66995">
        <ele>494.6</ele>
        <time>2019-11-26T10:08:16Z</time>
      </trkpt>
      <trkpt lat="46.74087" lon="5.66994">
        <ele>494.5</ele>
        <time>2019-11-26T10:08:20Z</time>
      </trkpt>
      <trkpt lat="46.74093" lon="5.66993">
        <ele>494.5</ele>
        <time>2019-11-26T10:08:25Z</time>
      </trkpt>
      <trkpt lat="46.74097" lon="5.66992">
        <ele>494.4</ele>
        <time>2019-11-26T10:08:30Z</time>
      </trkpt>
      <trkpt lat="46.74102" lon="5.6699">
        <ele>494.3</ele>
        <time>2019-11-26T10:08:35Z</time>
      </trkpt>
      <trkpt lat="46.74107" lon="5.66988">
        <ele>494.4</ele>
        <time>2019-11-26T10:08:40Z</time>
      </trkpt>
      <trkpt lat="46.74112" lon="5.66988">
        <ele>494.5</ele>
        <time>2019-11-26T10:08:44Z</time>
      </trkpt>
      <trkpt lat="46.74116" lon="5.66986">
        <ele>494.4</ele>
        <time>2019-11-26T10:08:48Z</time>
      </trkpt>
      <trkpt lat="46.74121" lon="5.66985">
        <ele>494.4</ele>
        <time>2019-11-26T10:08:52Z</time>
      </trkpt>
      <trkpt lat="46.74126" lon="5.66984">
        <ele>494.4</ele>
        <time>2019-11-26T10:08:57Z</time>
      </trkpt>
      <trkpt lat="46.74132" lon="5.66984">
        <ele>494.3</ele>
        <time>2019-11-26T10:09:01Z</time>
      </trkpt>
      <trkpt lat="46.74136" lon="5.66982">
        <ele>494.2</ele>
        <time>2019-11-26T10:09:05Z</time>
      </trkpt>
      <trkpt lat="46.74142" lon="5.66982">
        <ele>493.9</ele>
        <time>2019-11-26T10:09:10Z</time>
      </trkpt>
      <trkpt lat="46.74147" lon="5.66981">
        <ele>493.5</ele>
        <time>2019-11-26T10:09:16Z</time>
      </trkpt>
      <trkpt lat="46.74151" lon="5.66981">
        <ele>493.3</ele>
        <time>2019-11-26T10:09:21Z</time>
      </trkpt>
      <trkpt lat="46.74156" lon="5.66982">
        <ele>493.2</ele>
        <time>2019-11-26T10:09:25Z</time>
      </trkpt>
      <trkpt lat="46.7416" lon="5.66983">
        <ele>493</ele>
        <time>2019-11-26T10:09:29Z</time>
      </trkpt>
      <trkpt lat="46.74165" lon="5.66984">
        <ele>492.9</ele>
        <time>2019-11-26T10:09:33Z</time>
      </trkpt>
      <trkpt lat="46.74171" lon="5.66983">
        <ele>492.5</ele>
        <time>2019-11-26T10:09:38Z</time>
      </trkpt>
      <trkpt lat="46.74176" lon="5.66982">
        <ele>492.3</ele>
        <time>2019-11-26T10:09:42Z</time>
      </trkpt>
      <trkpt lat="46.7418" lon="5.66981">
        <ele>492.2</ele>
        <time>2019-11-26T10:09:46Z</time>
      </trkpt>
      <trkpt lat="46.74186" lon="5.66981">
        <ele>491.9</ele>
        <time>2019-11-26T10:09:50Z</time>
      </trkpt>
      <trkpt lat="46.74191" lon="5.66979">
        <ele>491.7</ele>
        <time>2019-11-26T10:09:54Z</time>
      </trkpt>
      <trkpt lat="46.74195" lon="5.66977">
        <ele>491.5</ele>
        <time>2019-11-26T10:09:58Z</time>
      </trkpt>
      <trkpt lat="46.742" lon="5.66976">
        <ele>491.2</ele>
        <time>2019-11-26T10:10:03Z</time>
      </trkpt>
      <trkpt lat="46.74205" lon="5.66976">
        <ele>491</ele>
        <time>2019-11-26T10:10:08Z</time>
      </trkpt>
      <trkpt lat="46.7421" lon="5.66976">
        <ele>491</ele>
        <time>2019-11-26T10:10:14Z</time>
      </trkpt>
      <trkpt lat="46.74215" lon="5.66977">
        <ele>491</ele>
        <time>2019-11-26T10:10:18Z</time>
      </trkpt>
      <trkpt lat="46.7422" lon="5.66978">
        <ele>491</ele>
        <time>2019-11-26T10:10:22Z</time>
      </trkpt>
      <trkpt lat="46.74226" lon="5.66979">
        <ele>491</ele>
        <time>2019-11-26T10:10:26Z</time>
      </trkpt>
      <trkpt lat="46.7423" lon="5.66981">
        <ele>491</ele>
        <time>2019-11-26T10:10:29Z</time>
      </trkpt>
      <trkpt lat="46.74235" lon="5.66983">
        <ele>490.9</ele>
        <time>2019-11-26T10:10:33Z</time>
      </trkpt>
      <trkpt lat="46.7424" lon="5.66985">
        <ele>490.7</ele>
        <time>2019-11-26T10:10:38Z</time>
      </trkpt>
      <trkpt lat="46.74244" lon="5.66988">
        <ele>490.5</ele>
        <time>2019-11-26T10:10:43Z</time>
      </trkpt>
      <trkpt lat="46.74248" lon="5.66992">
        <ele>490.4</ele>
        <time>2019-11-26T10:10:48Z</time>
      </trkpt>
      <trkpt lat="46.7425" lon="5.66998">
        <ele>490.7</ele>
        <time>2019-11-26T10:10:54Z</time>
      </trkpt>
      <trkpt lat="46.74252" lon="5.67005">
        <ele>491.4</ele>
        <time>2019-11-26T10:10:59Z</time>
      </trkpt>
      <trkpt lat="46.74253" lon="5.67012">
        <ele>492.1</ele>
        <time>2019-11-26T10:11:03Z</time>
      </trkpt>
      <trkpt lat="46.74254" lon="5.67019">
        <ele>492.9</ele>
        <time>2019-11-26T10:11:07Z</time>
      </trkpt>
      <trkpt lat="46.74255" lon="5.67027">
        <ele>494.2</ele>
        <time>2019-11-26T10:11:12Z</time>
      </trkpt>
      <trkpt lat="46.74255" lon="5.67035">
        <ele>495.5</ele>
        <time>2019-11-26T10:11:17Z</time>
      </trkpt>
      <trkpt lat="46.74253" lon="5.67043">
        <ele>496.7</ele>
        <time>2019-11-26T10:11:22Z</time>
      </trkpt>
      <trkpt lat="46.74253" lon="5.6705">
        <ele>497.8</ele>
        <time>2019-11-26T10:11:27Z</time>
      </trkpt>
      <trkpt lat="46.74252" lon="5.67058">
        <ele>498.9</ele>
        <time>2019-11-26T10:11:32Z</time>
      </trkpt>
      <trkpt lat="46.74252" lon="5.67065">
        <ele>499.6</ele>
        <time>2019-11-26T10:11:36Z</time>
      </trkpt>
      <trkpt lat="46.74251" lon="5.67072">
        <ele>500.6</ele>
        <time>2019-11-26T10:11:41Z</time>
      </trkpt>
      <trkpt lat="46.7425" lon="5.67079">
        <ele>501.4</ele>
        <time>2019-11-26T10:11:46Z</time>
      </trkpt>
      <trkpt lat="46.74249" lon="5.67085">
        <ele>501.9</ele>
        <time>2019-11-26T10:11:50Z</time>
      </trkpt>
      <trkpt lat="46.74248" lon="5.67092">
        <ele>502.3</ele>
        <time>2019-11-26T10:11:54Z</time>
      </trkpt>
      <trkpt lat="46.74247" lon="5.671">
        <ele>502.8</ele>
        <time>2019-11-26T10:11:58Z</time>
      </trkpt>
      <trkpt lat="46.74247" lon="5.67107">
        <ele>503.4</ele>
        <time>2019-11-26T10:12:03Z</time>
      </trkpt>
      <trkpt lat="46.74247" lon="5.67115">
        <ele>503.9</ele>
        <time>2019-11-26T10:12:09Z</time>
      </trkpt>
      <trkpt lat="46.74247" lon="5.67123">
        <ele>504.3</ele>
        <time>2019-11-26T10:12:14Z</time>
      </trkpt>
      <trkpt lat="46.74247" lon="5.67129">
        <ele>504.8</ele>
        <time>2019-11-26T10:12:18Z</time>
      </trkpt>
      <trkpt lat="46.74248" lon="5.67136">
        <ele>505.6</ele>
        <time>2019-11-26T10:12:24Z</time>
      </trkpt>
      <trkpt lat="46.7425" lon="5.67142">
        <ele>506.3</ele>
        <time>2019-11-26T10:12:29Z</time>
      </trkpt>
      <trkpt lat="46.74253" lon="5.67147">
        <ele>507.3</ele>
        <time>2019-11-26T10:12:35Z</time>
      </trkpt>
      <trkpt lat="46.74255" lon="5.67154">
        <ele>508.2</ele>
        <time>2019-11-26T10:12:41Z</time>
      </trkpt>
      <trkpt lat="46.74258" lon="5.67158">
        <ele>508.7</ele>
        <time>2019-11-26T10:12:45Z</time>
      </trkpt>
      <trkpt lat="46.74262" lon="5.67163">
        <ele>509.2</ele>
        <time>2019-11-26T10:12:49Z</time>
      </trkpt>
      <trkpt lat="46.74265" lon="5.67168">
        <ele>510</ele>
        <time>2019-11-26T10:12:54Z</time>
      </trkpt>
      <trkpt lat="46.7427" lon="5.67172">
        <ele>510.9</ele>
        <time>2019-11-26T10:12:59Z</time>
      </trkpt>
      <trkpt lat="46.74275" lon="5.67177">
        <ele>511.4</ele>
        <time>2019-11-26T10:13:04Z</time>
      </trkpt>
      <trkpt lat="46.74279" lon="5.67181">
        <ele>511.5</ele>
        <time>2019-11-26T10:13:08Z</time>
      </trkpt>
      <trkpt lat="46.74284" lon="5.67185">
        <ele>511.4</ele>
        <time>2019-11-26T10:13:13Z</time>
      </trkpt>
      <trkpt lat="46.74288" lon="5.67188">
        <ele>511.2</ele>
        <time>2019-11-26T10:13:18Z</time>
      </trkpt>
      <trkpt lat="46.74292" lon="5.6719">
        <ele>511</ele>
        <time>2019-11-26T10:13:22Z</time>
      </trkpt>
      <trkpt lat="46.74297" lon="5.67193">
        <ele>510.7</ele>
        <time>2019-11-26T10:13:26Z</time>
      </trkpt>
      <trkpt lat="46.74301" lon="5.67196">
        <ele>510.5</ele>
        <time>2019-11-26T10:13:30Z</time>
      </trkpt>
      <trkpt lat="46.74305" lon="5.67202">
        <ele>510.1</ele>
        <time>2019-11-26T10:13:35Z</time>
      </trkpt>
      <trkpt lat="46.74307" lon="5.67209">
        <ele>509.5</ele>
        <time>2019-11-26T10:13:40Z</time>
      </trkpt>
      <trkpt lat="46.74309" lon="5.67216">
        <ele>509.1</ele>
        <time>2019-11-26T10:13:44Z</time>
      </trkpt>
      <trkpt lat="46.7431" lon="5.67223">
        <ele>508.5</ele>
        <time>2019-11-26T10:13:48Z</time>
      </trkpt>
      <trkpt lat="46.74312" lon="5.67229">
        <ele>507.7</ele>
        <time>2019-11-26T10:13:53Z</time>
      </trkpt>
      <trkpt lat="46.74314" lon="5.67235">
        <ele>506.9</ele>
        <time>2019-11-26T10:14:00Z</time>
      </trkpt>
      <trkpt lat="46.74314" lon="5.67242">
        <ele>506.3</ele>
        <time>2019-11-26T10:14:06Z</time>
      </trkpt>
      <trkpt lat="46.74315" lon="5.67249">
        <ele>506</ele>
        <time>2019-11-26T10:14:11Z</time>
      </trkpt>
      <trkpt lat="46.74316" lon="5.67257">
        <ele>506</ele>
        <time>2019-11-26T10:14:16Z</time>
      </trkpt>
      <trkpt lat="46.74318" lon="5.67264">
        <ele>506.1</ele>
        <time>2019-11-26T10:14:20Z</time>
      </trkpt>
      <trkpt lat="46.7432" lon="5.67271">
        <ele>506.4</ele>
        <time>2019-11-26T10:14:24Z</time>
      </trkpt>
      <trkpt lat="46.74321" lon="5.67277">
        <ele>506.8</ele>
        <time>2019-11-26T10:14:29Z</time>
      </trkpt>
      <trkpt lat="46.74319" lon="5.67283">
        <ele>506.1</ele>
        <time>2019-11-26T10:14:52Z</time>
      </trkpt>
      <trkpt lat="46.74323" lon="5.67287">
        <ele>505.5</ele>
        <time>2019-11-26T10:14:55Z</time>
      </trkpt>
      <trkpt lat="46.74327" lon="5.67291">
        <ele>504.6</ele>
        <time>2019-11-26T10:14:59Z</time>
      </trkpt>
      <trkpt lat="46.74331" lon="5.67294">
        <ele>503.9</ele>
        <time>2019-11-26T10:15:03Z</time>
      </trkpt>
      <trkpt lat="46.74335" lon="5.67299">
        <ele>503.3</ele>
        <time>2019-11-26T10:15:06Z</time>
      </trkpt>
      <trkpt lat="46.74339" lon="5.67305">
        <ele>502.5</ele>
        <time>2019-11-26T10:15:10Z</time>
      </trkpt>
      <trkpt lat="46.74342" lon="5.6731">
        <ele>501.5</ele>
        <time>2019-11-26T10:15:17Z</time>
      </trkpt>
      <trkpt lat="46.74345" lon="5.67316">
        <ele>500</ele>
        <time>2019-11-26T10:15:50Z</time>
      </trkpt>
      <trkpt lat="46.7435" lon="5.67319">
        <ele>499.6</ele>
        <time>2019-11-26T10:15:59Z</time>
      </trkpt>
      <trkpt lat="46.74354" lon="5.67325">
        <ele>499.3</ele>
        <time>2019-11-26T10:16:03Z</time>
      </trkpt>
      <trkpt lat="46.74357" lon="5.6733">
        <ele>499</ele>
        <time>2019-11-26T10:16:07Z</time>
      </trkpt>
      <trkpt lat="46.74361" lon="5.67334">
        <ele>498.7</ele>
        <time>2019-11-26T10:16:11Z</time>
      </trkpt>
      <trkpt lat="46.74366" lon="5.67337">
        <ele>498.7</ele>
        <time>2019-11-26T10:16:15Z</time>
      </trkpt>
      <trkpt lat="46.74371" lon="5.6734">
        <ele>498.6</ele>
        <time>2019-11-26T10:16:19Z</time>
      </trkpt>
      <trkpt lat="46.74376" lon="5.67341">
        <ele>498.5</ele>
        <time>2019-11-26T10:16:23Z</time>
      </trkpt>
      <trkpt lat="46.74381" lon="5.6734">
        <ele>498.4</ele>
        <time>2019-11-26T10:16:28Z</time>
      </trkpt>
      <trkpt lat="46.74386" lon="5.67337">
        <ele>498.2</ele>
        <time>2019-11-26T10:16:33Z</time>
      </trkpt>
      <trkpt lat="46.74389" lon="5.67331">
        <ele>497.9</ele>
        <time>2019-11-26T10:16:38Z</time>
      </trkpt>
      <trkpt lat="46.74393" lon="5.67326">
        <ele>497.5</ele>
        <time>2019-11-26T10:16:43Z</time>
      </trkpt>
      <trkpt lat="46.74399" lon="5.67316">
        <ele>496.6</ele>
        <time>2019-11-26T10:16:52Z</time>
      </trkpt>
      <trkpt lat="46.74403" lon="5.6731">
        <ele>496.5</ele>
        <time>2019-11-26T10:16:56Z</time>
      </trkpt>
      <trkpt lat="46.74405" lon="5.67304">
        <ele>496.3</ele>
        <time>2019-11-26T10:16:59Z</time>
      </trkpt>
      <trkpt lat="46.74408" lon="5.67298">
        <ele>496.1</ele>
        <time>2019-11-26T10:17:03Z</time>
      </trkpt>
      <trkpt lat="46.74411" lon="5.67293">
        <ele>496</ele>
        <time>2019-11-26T10:17:06Z</time>
      </trkpt>
      <trkpt lat="46.74413" lon="5.67287">
        <ele>495.8</ele>
        <time>2019-11-26T10:17:10Z</time>
      </trkpt>
      <trkpt lat="46.74419" lon="5.6727">
        <ele>494.8</ele>
        <time>2019-11-26T10:17:25Z</time>
      </trkpt>
      <trkpt lat="46.74422" lon="5.67263">
        <ele>494.8</ele>
        <time>2019-11-26T10:17:29Z</time>
      </trkpt>
      <trkpt lat="46.74424" lon="5.67258">
        <ele>494.6</ele>
        <time>2019-11-26T10:17:32Z</time>
      </trkpt>
      <trkpt lat="46.74427" lon="5.67251">
        <ele>494.4</ele>
        <time>2019-11-26T10:17:36Z</time>
      </trkpt>
      <trkpt lat="46.74429" lon="5.67245">
        <ele>494.2</ele>
        <time>2019-11-26T10:17:39Z</time>
      </trkpt>
      <trkpt lat="46.74432" lon="5.67238">
        <ele>494</ele>
        <time>2019-11-26T10:17:44Z</time>
      </trkpt>
      <trkpt lat="46.74434" lon="5.67233">
        <ele>493.8</ele>
        <time>2019-11-26T10:17:49Z</time>
      </trkpt>
      <trkpt lat="46.74438" lon="5.67228">
        <ele>493.4</ele>
        <time>2019-11-26T10:17:55Z</time>
      </trkpt>
      <trkpt lat="46.74442" lon="5.67224">
        <ele>493.1</ele>
        <time>2019-11-26T10:17:59Z</time>
      </trkpt>
      <trkpt lat="46.74446" lon="5.67219">
        <ele>492.4</ele>
        <time>2019-11-26T10:18:06Z</time>
      </trkpt>
      <trkpt lat="46.74447" lon="5.67211">
        <ele>492</ele>
        <time>2019-11-26T10:18:10Z</time>
      </trkpt>
      <trkpt lat="46.74448" lon="5.67204">
        <ele>491.6</ele>
        <time>2019-11-26T10:18:14Z</time>
      </trkpt>
      <trkpt lat="46.74448" lon="5.67197">
        <ele>491.5</ele>
        <time>2019-11-26T10:18:18Z</time>
      </trkpt>
      <trkpt lat="46.74446" lon="5.6719">
        <ele>491.6</ele>
        <time>2019-11-26T10:18:24Z</time>
      </trkpt>
      <trkpt lat="46.74445" lon="5.67183">
        <ele>491.9</ele>
        <time>2019-11-26T10:18:29Z</time>
      </trkpt>
      <trkpt lat="46.74442" lon="5.67177">
        <ele>492.4</ele>
        <time>2019-11-26T10:18:35Z</time>
      </trkpt>
      <trkpt lat="46.74441" lon="5.6717">
        <ele>493.6</ele>
        <time>2019-11-26T10:18:44Z</time>
      </trkpt>
      <trkpt lat="46.74439" lon="5.67163">
        <ele>494.4</ele>
        <time>2019-11-26T10:18:50Z</time>
      </trkpt>
      <trkpt lat="46.74438" lon="5.67156">
        <ele>494.7</ele>
        <time>2019-11-26T10:18:57Z</time>
      </trkpt>
      <trkpt lat="46.74435" lon="5.6715">
        <ele>495.5</ele>
        <time>2019-11-26T10:19:10Z</time>
      </trkpt>
      <trkpt lat="46.74433" lon="5.67144">
        <ele>496.1</ele>
        <time>2019-11-26T10:19:17Z</time>
      </trkpt>
      <trkpt lat="46.7443" lon="5.67138">
        <ele>497.1</ele>
        <time>2019-11-26T10:19:38Z</time>
      </trkpt>
      <trkpt lat="46.74435" lon="5.67139">
        <ele>499.4</ele>
        <time>2019-11-26T10:20:31Z</time>
      </trkpt>
      <trkpt lat="46.7444" lon="5.67138">
        <ele>498.9</ele>
        <time>2019-11-26T10:20:56Z</time>
      </trkpt>
      <trkpt lat="46.74444" lon="5.67135">
        <ele>498.5</ele>
        <time>2019-11-26T10:21:04Z</time>
      </trkpt>
      <trkpt lat="46.74441" lon="5.6714">
        <ele>497.5</ele>
        <time>2019-11-26T10:21:37Z</time>
      </trkpt>
      <trkpt lat="46.74437" lon="5.6715">
        <ele>497.3</ele>
        <time>2019-11-26T10:23:13Z</time>
      </trkpt>
      <trkpt lat="46.74437" lon="5.67156">
        <ele>498</ele>
        <time>2019-11-26T10:23:28Z</time>
      </trkpt>
      <trkpt lat="46.74438" lon="5.67164">
        <ele>498.3</ele>
        <time>2019-11-26T10:23:33Z</time>
      </trkpt>
      <trkpt lat="46.7444" lon="5.6717">
        <ele>498.5</ele>
        <time>2019-11-26T10:23:37Z</time>
      </trkpt>
      <trkpt lat="46.74442" lon="5.67177">
        <ele>499</ele>
        <time>2019-11-26T10:23:42Z</time>
      </trkpt>
      <trkpt lat="46.74445" lon="5.67184">
        <ele>499.5</ele>
        <time>2019-11-26T10:23:47Z</time>
      </trkpt>
      <trkpt lat="46.74446" lon="5.67191">
        <ele>500.2</ele>
        <time>2019-11-26T10:23:53Z</time>
      </trkpt>
      <trkpt lat="46.7445" lon="5.67195">
        <ele>501.1</ele>
        <time>2019-11-26T10:24:17Z</time>
      </trkpt>
      <trkpt lat="46.74454" lon="5.672">
        <ele>501</ele>
        <time>2019-11-26T10:24:30Z</time>
      </trkpt>
      <trkpt lat="46.74453" lon="5.67206">
        <ele>501.5</ele>
        <time>2019-11-26T10:24:47Z</time>
      </trkpt>
      <trkpt lat="46.74453" lon="5.67214">
        <ele>500</ele>
        <time>2019-11-26T10:24:56Z</time>
      </trkpt>
      <trkpt lat="46.74451" lon="5.6722">
        <ele>499.2</ele>
        <time>2019-11-26T10:25:01Z</time>
      </trkpt>
      <trkpt lat="46.74448" lon="5.67228">
        <ele>498.6</ele>
        <time>2019-11-26T10:25:07Z</time>
      </trkpt>
      <trkpt lat="46.74446" lon="5.67234">
        <ele>498.3</ele>
        <time>2019-11-26T10:25:11Z</time>
      </trkpt>
      <trkpt lat="46.74443" lon="5.6724">
        <ele>498.1</ele>
        <time>2019-11-26T10:25:15Z</time>
      </trkpt>
      <trkpt lat="46.7444" lon="5.67247">
        <ele>497.8</ele>
        <time>2019-11-26T10:25:21Z</time>
      </trkpt>
      <trkpt lat="46.74438" lon="5.67253">
        <ele>497.5</ele>
        <time>2019-11-26T10:25:26Z</time>
      </trkpt>
      <trkpt lat="46.74435" lon="5.67258">
        <ele>497.5</ele>
        <time>2019-11-26T10:25:31Z</time>
      </trkpt>
      <trkpt lat="46.74433" lon="5.67265">
        <ele>497.4</ele>
        <time>2019-11-26T10:25:35Z</time>
      </trkpt>
      <trkpt lat="46.74431" lon="5.6727">
        <ele>497.3</ele>
        <time>2019-11-26T10:25:41Z</time>
      </trkpt>
      <trkpt lat="46.74427" lon="5.67276">
        <ele>497.3</ele>
        <time>2019-11-26T10:25:46Z</time>
      </trkpt>
      <trkpt lat="46.74425" lon="5.67282">
        <ele>497.4</ele>
        <time>2019-11-26T10:25:50Z</time>
      </trkpt>
      <trkpt lat="46.74422" lon="5.67289">
        <ele>497.7</ele>
        <time>2019-11-26T10:25:54Z</time>
      </trkpt>
      <trkpt lat="46.74419" lon="5.67295">
        <ele>498.5</ele>
        <time>2019-11-26T10:26:02Z</time>
      </trkpt>
      <trkpt lat="46.74418" lon="5.67302">
        <ele>498.3</ele>
        <time>2019-11-26T10:26:08Z</time>
      </trkpt>
      <trkpt lat="46.74416" lon="5.67308">
        <ele>498.1</ele>
        <time>2019-11-26T10:26:13Z</time>
      </trkpt>
      <trkpt lat="46.74412" lon="5.67313">
        <ele>498</ele>
        <time>2019-11-26T10:26:17Z</time>
      </trkpt>
      <trkpt lat="46.74408" lon="5.67317">
        <ele>498.1</ele>
        <time>2019-11-26T10:26:21Z</time>
      </trkpt>
      <trkpt lat="46.74403" lon="5.67322">
        <ele>498.2</ele>
        <time>2019-11-26T10:26:25Z</time>
      </trkpt>
      <trkpt lat="46.744" lon="5.67327">
        <ele>498.2</ele>
        <time>2019-11-26T10:26:29Z</time>
      </trkpt>
      <trkpt lat="46.74398" lon="5.67334">
        <ele>498.2</ele>
        <time>2019-11-26T10:26:33Z</time>
      </trkpt>
      <trkpt lat="46.74398" lon="5.67341">
        <ele>498.1</ele>
        <time>2019-11-26T10:26:38Z</time>
      </trkpt>
      <trkpt lat="46.74401" lon="5.67346">
        <ele>497.3</ele>
        <time>2019-11-26T10:26:45Z</time>
      </trkpt>
      <trkpt lat="46.74404" lon="5.67353">
        <ele>496.6</ele>
        <time>2019-11-26T10:26:51Z</time>
      </trkpt>
      <trkpt lat="46.74406" lon="5.67359">
        <ele>496.2</ele>
        <time>2019-11-26T10:26:57Z</time>
      </trkpt>
      <trkpt lat="46.74408" lon="5.67365">
        <ele>496.1</ele>
        <time>2019-11-26T10:27:01Z</time>
      </trkpt>
      <trkpt lat="46.7441" lon="5.67372">
        <ele>496.2</ele>
        <time>2019-11-26T10:27:07Z</time>
      </trkpt>
      <trkpt lat="46.74411" lon="5.6738">
        <ele>496.6</ele>
        <time>2019-11-26T10:27:12Z</time>
      </trkpt>
      <trkpt lat="46.74413" lon="5.67387">
        <ele>497.1</ele>
        <time>2019-11-26T10:27:17Z</time>
      </trkpt>
      <trkpt lat="46.74414" lon="5.67394">
        <ele>497.8</ele>
        <time>2019-11-26T10:27:22Z</time>
      </trkpt>
      <trkpt lat="46.74413" lon="5.67401">
        <ele>498.8</ele>
        <time>2019-11-26T10:27:28Z</time>
      </trkpt>
      <trkpt lat="46.74412" lon="5.67407">
        <ele>499.7</ele>
        <time>2019-11-26T10:27:32Z</time>
      </trkpt>
      <trkpt lat="46.7441" lon="5.67414">
        <ele>500.8</ele>
        <time>2019-11-26T10:27:37Z</time>
      </trkpt>
      <trkpt lat="46.74407" lon="5.6742">
        <ele>501.9</ele>
        <time>2019-11-26T10:27:42Z</time>
      </trkpt>
      <trkpt lat="46.74405" lon="5.67427">
        <ele>502.8</ele>
        <time>2019-11-26T10:27:47Z</time>
      </trkpt>
      <trkpt lat="46.74405" lon="5.67434">
        <ele>503.8</ele>
        <time>2019-11-26T10:27:53Z</time>
      </trkpt>
      <trkpt lat="46.74405" lon="5.67442">
        <ele>505.3</ele>
        <time>2019-11-26T10:28:13Z</time>
      </trkpt>
      <trkpt lat="46.74404" lon="5.67449">
        <ele>505.5</ele>
        <time>2019-11-26T10:28:19Z</time>
      </trkpt>
      <trkpt lat="46.74405" lon="5.67457">
        <ele>505.7</ele>
        <time>2019-11-26T10:28:25Z</time>
      </trkpt>
      <trkpt lat="46.74405" lon="5.67464">
        <ele>505.9</ele>
        <time>2019-11-26T10:28:29Z</time>
      </trkpt>
      <trkpt lat="46.74404" lon="5.67471">
        <ele>506.4</ele>
        <time>2019-11-26T10:28:34Z</time>
      </trkpt>
      <trkpt lat="46.74403" lon="5.67478">
        <ele>507.3</ele>
        <time>2019-11-26T10:28:41Z</time>
      </trkpt>
      <trkpt lat="46.74402" lon="5.67486">
        <ele>508</ele>
        <time>2019-11-26T10:28:47Z</time>
      </trkpt>
      <trkpt lat="46.74399" lon="5.67493">
        <ele>508.2</ele>
        <time>2019-11-26T10:28:52Z</time>
      </trkpt>
      <trkpt lat="46.74396" lon="5.67499">
        <ele>508.5</ele>
        <time>2019-11-26T10:28:56Z</time>
      </trkpt>
      <trkpt lat="46.74393" lon="5.67505">
        <ele>508.7</ele>
        <time>2019-11-26T10:29:00Z</time>
      </trkpt>
      <trkpt lat="46.74392" lon="5.67512">
        <ele>508.7</ele>
        <time>2019-11-26T10:29:06Z</time>
      </trkpt>
      <trkpt lat="46.74391" lon="5.67519">
        <ele>508.7</ele>
        <time>2019-11-26T10:29:10Z</time>
      </trkpt>
      <trkpt lat="46.74392" lon="5.67526">
        <ele>508.7</ele>
        <time>2019-11-26T10:29:16Z</time>
      </trkpt>
      <trkpt lat="46.74391" lon="5.67532">
        <ele>508.6</ele>
        <time>2019-11-26T10:29:20Z</time>
      </trkpt>
      <trkpt lat="46.7439" lon="5.67539">
        <ele>508.4</ele>
        <time>2019-11-26T10:29:24Z</time>
      </trkpt>
      <trkpt lat="46.74392" lon="5.67546">
        <ele>507.9</ele>
        <time>2019-11-26T10:29:29Z</time>
      </trkpt>
      <trkpt lat="46.74394" lon="5.67552">
        <ele>507</ele>
        <time>2019-11-26T10:29:35Z</time>
      </trkpt>
      <trkpt lat="46.74395" lon="5.67558">
        <ele>506.4</ele>
        <time>2019-11-26T10:29:39Z</time>
      </trkpt>
      <trkpt lat="46.74396" lon="5.67566">
        <ele>505.9</ele>
        <time>2019-11-26T10:29:42Z</time>
      </trkpt>
      <trkpt lat="46.74399" lon="5.67572">
        <ele>505.2</ele>
        <time>2019-11-26T10:29:47Z</time>
      </trkpt>
      <trkpt lat="46.744" lon="5.67579">
        <ele>504.8</ele>
        <time>2019-11-26T10:29:52Z</time>
      </trkpt>
      <trkpt lat="46.74402" lon="5.67585">
        <ele>504.8</ele>
        <time>2019-11-26T10:29:58Z</time>
      </trkpt>
      <trkpt lat="46.74406" lon="5.6759">
        <ele>504.8</ele>
        <time>2019-11-26T10:30:04Z</time>
      </trkpt>
      <trkpt lat="46.74409" lon="5.67595">
        <ele>504.7</ele>
        <time>2019-11-26T10:30:09Z</time>
      </trkpt>
      <trkpt lat="46.74412" lon="5.676">
        <ele>504.7</ele>
        <time>2019-11-26T10:30:15Z</time>
      </trkpt>
      <trkpt lat="46.74415" lon="5.67605">
        <ele>504.7</ele>
        <time>2019-11-26T10:30:21Z</time>
      </trkpt>
      <trkpt lat="46.7442" lon="5.67609">
        <ele>504.7</ele>
        <time>2019-11-26T10:30:25Z</time>
      </trkpt>
      <trkpt lat="46.74423" lon="5.67614">
        <ele>504.9</ele>
        <time>2019-11-26T10:30:32Z</time>
      </trkpt>
      <trkpt lat="46.74419" lon="5.67618">
        <ele>505.5</ele>
        <time>2019-11-26T10:30:42Z</time>
      </trkpt>
      <trkpt lat="46.74414" lon="5.67611">
        <ele>506.2</ele>
        <time>2019-11-26T10:31:01Z</time>
      </trkpt>
      <trkpt lat="46.74411" lon="5.67606">
        <ele>505.7</ele>
        <time>2019-11-26T10:31:09Z</time>
      </trkpt>
      <trkpt lat="46.74414" lon="5.676">
        <ele>504.3</ele>
        <time>2019-11-26T10:31:16Z</time>
      </trkpt>
      <trkpt lat="46.74419" lon="5.67601">
        <ele>502.6</ele>
        <time>2019-11-26T10:31:23Z</time>
      </trkpt>
      <trkpt lat="46.74422" lon="5.67605">
        <ele>502.3</ele>
        <time>2019-11-26T10:31:26Z</time>
      </trkpt>
      <trkpt lat="46.74426" lon="5.67609">
        <ele>502.1</ele>
        <time>2019-11-26T10:31:29Z</time>
      </trkpt>
      <trkpt lat="46.74432" lon="5.67614">
        <ele>502.2</ele>
        <time>2019-11-26T10:31:33Z</time>
      </trkpt>
      <trkpt lat="46.74436" lon="5.67617">
        <ele>502.2</ele>
        <time>2019-11-26T10:31:35Z</time>
      </trkpt>
      <trkpt lat="46.74441" lon="5.6762">
        <ele>502.4</ele>
        <time>2019-11-26T10:31:38Z</time>
      </trkpt>
      <trkpt lat="46.74446" lon="5.67624">
        <ele>502.7</ele>
        <time>2019-11-26T10:31:42Z</time>
      </trkpt>
      <trkpt lat="46.74447" lon="5.6763">
        <ele>503</ele>
        <time>2019-11-26T10:31:45Z</time>
      </trkpt>
      <trkpt lat="46.74448" lon="5.67638">
        <ele>503.2</ele>
        <time>2019-11-26T10:31:48Z</time>
      </trkpt>
      <trkpt lat="46.74449" lon="5.67646">
        <ele>503.4</ele>
        <time>2019-11-26T10:31:51Z</time>
      </trkpt>
      <trkpt lat="46.74449" lon="5.67654">
        <ele>503.5</ele>
        <time>2019-11-26T10:31:55Z</time>
      </trkpt>
      <trkpt lat="46.7445" lon="5.67661">
        <ele>503.8</ele>
        <time>2019-11-26T10:32:01Z</time>
      </trkpt>
      <trkpt lat="46.74451" lon="5.67671">
        <ele>504</ele>
        <time>2019-11-26T10:32:04Z</time>
      </trkpt>
      <trkpt lat="46.7445" lon="5.67678">
        <ele>504.3</ele>
        <time>2019-11-26T10:32:08Z</time>
      </trkpt>
      <trkpt lat="46.74448" lon="5.67696">
        <ele>505.1</ele>
        <time>2019-11-26T10:32:23Z</time>
      </trkpt>
      <trkpt lat="46.74447" lon="5.67703">
        <ele>505.7</ele>
        <time>2019-11-26T10:32:27Z</time>
      </trkpt>
      <trkpt lat="46.74447" lon="5.67712">
        <ele>506.3</ele>
        <time>2019-11-26T10:32:31Z</time>
      </trkpt>
      <trkpt lat="46.74447" lon="5.67718">
        <ele>506.8</ele>
        <time>2019-11-26T10:32:34Z</time>
      </trkpt>
      <trkpt lat="46.74446" lon="5.67726">
        <ele>507.2</ele>
        <time>2019-11-26T10:32:36Z</time>
      </trkpt>
      <trkpt lat="46.74445" lon="5.67734">
        <ele>507.7</ele>
        <time>2019-11-26T10:32:39Z</time>
      </trkpt>
      <trkpt lat="46.74447" lon="5.67741">
        <ele>508.1</ele>
        <time>2019-11-26T10:32:43Z</time>
      </trkpt>
      <trkpt lat="46.7445" lon="5.67748">
        <ele>508.6</ele>
        <time>2019-11-26T10:32:47Z</time>
      </trkpt>
      <trkpt lat="46.74452" lon="5.67754">
        <ele>509.1</ele>
        <time>2019-11-26T10:32:51Z</time>
      </trkpt>
      <trkpt lat="46.74452" lon="5.67762">
        <ele>509.5</ele>
        <time>2019-11-26T10:32:57Z</time>
      </trkpt>
      <trkpt lat="46.74455" lon="5.67769">
        <ele>509.6</ele>
        <time>2019-11-26T10:33:01Z</time>
      </trkpt>
      <trkpt lat="46.74459" lon="5.67776">
        <ele>509.7</ele>
        <time>2019-11-26T10:33:04Z</time>
      </trkpt>
      <trkpt lat="46.7446" lon="5.67783">
        <ele>509.7</ele>
        <time>2019-11-26T10:33:08Z</time>
      </trkpt>
      <trkpt lat="46.74463" lon="5.67789">
        <ele>509.5</ele>
        <time>2019-11-26T10:33:15Z</time>
      </trkpt>
      <trkpt lat="46.74467" lon="5.67792">
        <ele>509.2</ele>
        <time>2019-11-26T10:33:20Z</time>
      </trkpt>
      <trkpt lat="46.7447" lon="5.67798">
        <ele>508.6</ele>
        <time>2019-11-26T10:33:25Z</time>
      </trkpt>
      <trkpt lat="46.74474" lon="5.67802">
        <ele>508</ele>
        <time>2019-11-26T10:33:29Z</time>
      </trkpt>
      <trkpt lat="46.74479" lon="5.67805">
        <ele>507.2</ele>
        <time>2019-11-26T10:33:33Z</time>
      </trkpt>
      <trkpt lat="46.74483" lon="5.67811">
        <ele>506.4</ele>
        <time>2019-11-26T10:33:38Z</time>
      </trkpt>
      <trkpt lat="46.74486" lon="5.67818">
        <ele>505.7</ele>
        <time>2019-11-26T10:33:42Z</time>
      </trkpt>
      <trkpt lat="46.74487" lon="5.67825">
        <ele>505.1</ele>
        <time>2019-11-26T10:33:46Z</time>
      </trkpt>
      <trkpt lat="46.74487" lon="5.67832">
        <ele>504.7</ele>
        <time>2019-11-26T10:33:50Z</time>
      </trkpt>
      <trkpt lat="46.74487" lon="5.67838">
        <ele>504.6</ele>
        <time>2019-11-26T10:33:53Z</time>
      </trkpt>
      <trkpt lat="46.74488" lon="5.67846">
        <ele>504.5</ele>
        <time>2019-11-26T10:33:57Z</time>
      </trkpt>
      <trkpt lat="46.7449" lon="5.67852">
        <ele>504.3</ele>
        <time>2019-11-26T10:34:02Z</time>
      </trkpt>
      <trkpt lat="46.74493" lon="5.67857">
        <ele>504.1</ele>
        <time>2019-11-26T10:34:06Z</time>
      </trkpt>
      <trkpt lat="46.74496" lon="5.67863">
        <ele>503.7</ele>
        <time>2019-11-26T10:34:12Z</time>
      </trkpt>
      <trkpt lat="46.74495" lon="5.6787">
        <ele>503.3</ele>
        <time>2019-11-26T10:34:18Z</time>
      </trkpt>
      <trkpt lat="46.74495" lon="5.67878">
        <ele>503.2</ele>
        <time>2019-11-26T10:34:23Z</time>
      </trkpt>
      <trkpt lat="46.74496" lon="5.67885">
        <ele>503.2</ele>
        <time>2019-11-26T10:34:29Z</time>
      </trkpt>
      <trkpt lat="46.74497" lon="5.67891">
        <ele>503.4</ele>
        <time>2019-11-26T10:34:34Z</time>
      </trkpt>
      <trkpt lat="46.74497" lon="5.679">
        <ele>503.9</ele>
        <time>2019-11-26T10:34:39Z</time>
      </trkpt>
      <trkpt lat="46.74496" lon="5.67906">
        <ele>504.6</ele>
        <time>2019-11-26T10:34:43Z</time>
      </trkpt>
      <trkpt lat="46.74498" lon="5.67913">
        <ele>505.4</ele>
        <time>2019-11-26T10:34:47Z</time>
      </trkpt>
      <trkpt lat="46.745" lon="5.6792">
        <ele>506.3</ele>
        <time>2019-11-26T10:34:52Z</time>
      </trkpt>
      <trkpt lat="46.74501" lon="5.67926">
        <ele>507.3</ele>
        <time>2019-11-26T10:34:57Z</time>
      </trkpt>
      <trkpt lat="46.74502" lon="5.67934">
        <ele>508.4</ele>
        <time>2019-11-26T10:35:03Z</time>
      </trkpt>
      <trkpt lat="46.74503" lon="5.67941">
        <ele>509.5</ele>
        <time>2019-11-26T10:35:09Z</time>
      </trkpt>
      <trkpt lat="46.74504" lon="5.67948">
        <ele>510.3</ele>
        <time>2019-11-26T10:35:15Z</time>
      </trkpt>
      <trkpt lat="46.74504" lon="5.67955">
        <ele>511.1</ele>
        <time>2019-11-26T10:35:22Z</time>
      </trkpt>
      <trkpt lat="46.74504" lon="5.67962">
        <ele>511.8</ele>
        <time>2019-11-26T10:35:28Z</time>
      </trkpt>
      <trkpt lat="46.74505" lon="5.6797">
        <ele>512.3</ele>
        <time>2019-11-26T10:35:33Z</time>
      </trkpt>
      <trkpt lat="46.74505" lon="5.67977">
        <ele>512.5</ele>
        <time>2019-11-26T10:35:38Z</time>
      </trkpt>
      <trkpt lat="46.74505" lon="5.67984">
        <ele>512.7</ele>
        <time>2019-11-26T10:35:43Z</time>
      </trkpt>
      <trkpt lat="46.74506" lon="5.67991">
        <ele>512.8</ele>
        <time>2019-11-26T10:35:49Z</time>
      </trkpt>
      <trkpt lat="46.74506" lon="5.67999">
        <ele>512.8</ele>
        <time>2019-11-26T10:35:55Z</time>
      </trkpt>
      <trkpt lat="46.74506" lon="5.68006">
        <ele>512.9</ele>
        <time>2019-11-26T10:36:00Z</time>
      </trkpt>
      <trkpt lat="46.74505" lon="5.68013">
        <ele>512.9</ele>
        <time>2019-11-26T10:36:05Z</time>
      </trkpt>
      <trkpt lat="46.74505" lon="5.6802">
        <ele>512.7</ele>
        <time>2019-11-26T10:36:10Z</time>
      </trkpt>
      <trkpt lat="46.74507" lon="5.68026">
        <ele>512.6</ele>
        <time>2019-11-26T10:36:16Z</time>
      </trkpt>
      <trkpt lat="46.74507" lon="5.68034">
        <ele>512.6</ele>
        <time>2019-11-26T10:36:22Z</time>
      </trkpt>
      <trkpt lat="46.74508" lon="5.68042">
        <ele>512.3</ele>
        <time>2019-11-26T10:36:28Z</time>
      </trkpt>
      <trkpt lat="46.7451" lon="5.68049">
        <ele>511.9</ele>
        <time>2019-11-26T10:36:33Z</time>
      </trkpt>
      <trkpt lat="46.74514" lon="5.68054">
        <ele>511.7</ele>
        <time>2019-11-26T10:36:38Z</time>
      </trkpt>
      <trkpt lat="46.74518" lon="5.6806">
        <ele>511.6</ele>
        <time>2019-11-26T10:36:44Z</time>
      </trkpt>
      <trkpt lat="46.74521" lon="5.68065">
        <ele>511.8</ele>
        <time>2019-11-26T10:36:50Z</time>
      </trkpt>
      <trkpt lat="46.74524" lon="5.68072">
        <ele>511.9</ele>
        <time>2019-11-26T10:36:55Z</time>
      </trkpt>
      <trkpt lat="46.74526" lon="5.68079">
        <ele>512.1</ele>
        <time>2019-11-26T10:36:59Z</time>
      </trkpt>
      <trkpt lat="46.74528" lon="5.68087">
        <ele>512.4</ele>
        <time>2019-11-26T10:37:03Z</time>
      </trkpt>
      <trkpt lat="46.74528" lon="5.68093">
        <ele>512.9</ele>
        <time>2019-11-26T10:37:08Z</time>
      </trkpt>
      <trkpt lat="46.74531" lon="5.681">
        <ele>513.5</ele>
        <time>2019-11-26T10:37:14Z</time>
      </trkpt>
      <trkpt lat="46.74535" lon="5.68103">
        <ele>514.7</ele>
        <time>2019-11-26T10:37:23Z</time>
      </trkpt>
      <trkpt lat="46.74539" lon="5.68102">
        <ele>516.3</ele>
        <time>2019-11-26T10:37:34Z</time>
      </trkpt>
      <trkpt lat="46.74542" lon="5.68096">
        <ele>517.5</ele>
        <time>2019-11-26T10:37:42Z</time>
      </trkpt>
      <trkpt lat="46.74537" lon="5.68098">
        <ele>520.2</ele>
        <time>2019-11-26T10:38:57Z</time>
      </trkpt>
      <trkpt lat="46.74537" lon="5.68105">
        <ele>520</ele>
        <time>2019-11-26T10:39:42Z</time>
      </trkpt>
      <trkpt lat="46.74535" lon="5.68111">
        <ele>520.2</ele>
        <time>2019-11-26T10:39:45Z</time>
      </trkpt>
      <trkpt lat="46.74532" lon="5.68117">
        <ele>520.8</ele>
        <time>2019-11-26T10:39:51Z</time>
      </trkpt>
      <trkpt lat="46.74528" lon="5.6812">
        <ele>521.1</ele>
        <time>2019-11-26T10:39:57Z</time>
      </trkpt>
      <trkpt lat="46.74525" lon="5.68125">
        <ele>521</ele>
        <time>2019-11-26T10:40:03Z</time>
      </trkpt>
      <trkpt lat="46.74524" lon="5.68132">
        <ele>520.8</ele>
        <time>2019-11-26T10:40:10Z</time>
      </trkpt>
      <trkpt lat="46.74523" lon="5.68138">
        <ele>520.6</ele>
        <time>2019-11-26T10:40:15Z</time>
      </trkpt>
      <trkpt lat="46.74522" lon="5.68145">
        <ele>520.6</ele>
        <time>2019-11-26T10:40:19Z</time>
      </trkpt>
      <trkpt lat="46.74521" lon="5.68152">
        <ele>520.6</ele>
        <time>2019-11-26T10:40:23Z</time>
      </trkpt>
      <trkpt lat="46.74522" lon="5.68159">
        <ele>520.2</ele>
        <time>2019-11-26T10:40:30Z</time>
      </trkpt>
      <trkpt lat="46.74523" lon="5.68166">
        <ele>519.7</ele>
        <time>2019-11-26T10:40:37Z</time>
      </trkpt>
      <trkpt lat="46.74523" lon="5.68174">
        <ele>519.4</ele>
        <time>2019-11-26T10:40:40Z</time>
      </trkpt>
      <trkpt lat="46.74525" lon="5.6818">
        <ele>519.2</ele>
        <time>2019-11-26T10:40:44Z</time>
      </trkpt>
      <trkpt lat="46.74526" lon="5.68187">
        <ele>519.1</ele>
        <time>2019-11-26T10:40:48Z</time>
      </trkpt>
      <trkpt lat="46.74528" lon="5.68193">
        <ele>519.1</ele>
        <time>2019-11-26T10:40:53Z</time>
      </trkpt>
      <trkpt lat="46.7453" lon="5.68199">
        <ele>518.9</ele>
        <time>2019-11-26T10:40:58Z</time>
      </trkpt>
      <trkpt lat="46.74533" lon="5.68206">
        <ele>518.7</ele>
        <time>2019-11-26T10:41:03Z</time>
      </trkpt>
      <trkpt lat="46.74534" lon="5.68212">
        <ele>518.7</ele>
        <time>2019-11-26T10:41:08Z</time>
      </trkpt>
      <trkpt lat="46.74535" lon="5.68219">
        <ele>518.8</ele>
        <time>2019-11-26T10:41:13Z</time>
      </trkpt>
      <trkpt lat="46.74536" lon="5.68225">
        <ele>518.9</ele>
        <time>2019-11-26T10:41:17Z</time>
      </trkpt>
      <trkpt lat="46.74537" lon="5.68233">
        <ele>519.1</ele>
        <time>2019-11-26T10:41:22Z</time>
      </trkpt>
      <trkpt lat="46.74539" lon="5.6824">
        <ele>519.5</ele>
        <time>2019-11-26T10:41:27Z</time>
      </trkpt>
      <trkpt lat="46.7454" lon="5.68248">
        <ele>519.6</ele>
        <time>2019-11-26T10:41:33Z</time>
      </trkpt>
      <trkpt lat="46.74542" lon="5.68255">
        <ele>519.7</ele>
        <time>2019-11-26T10:41:37Z</time>
      </trkpt>
      <trkpt lat="46.74543" lon="5.68261">
        <ele>519.8</ele>
        <time>2019-11-26T10:41:41Z</time>
      </trkpt>
      <trkpt lat="46.74545" lon="5.68268">
        <ele>519.7</ele>
        <time>2019-11-26T10:41:46Z</time>
      </trkpt>
      <trkpt lat="46.74546" lon="5.68276">
        <ele>519.5</ele>
        <time>2019-11-26T10:41:51Z</time>
      </trkpt>
      <trkpt lat="46.74547" lon="5.68283">
        <ele>519.4</ele>
        <time>2019-11-26T10:41:55Z</time>
      </trkpt>
      <trkpt lat="46.7455" lon="5.68289">
        <ele>519.5</ele>
        <time>2019-11-26T10:41:59Z</time>
      </trkpt>
      <trkpt lat="46.74551" lon="5.68297">
        <ele>519.6</ele>
        <time>2019-11-26T10:42:04Z</time>
      </trkpt>
      <trkpt lat="46.74553" lon="5.68303">
        <ele>519.8</ele>
        <time>2019-11-26T10:42:09Z</time>
      </trkpt>
      <trkpt lat="46.74555" lon="5.6831">
        <ele>520</ele>
        <time>2019-11-26T10:42:14Z</time>
      </trkpt>
      <trkpt lat="46.74556" lon="5.68317">
        <ele>520.6</ele>
        <time>2019-11-26T10:42:20Z</time>
      </trkpt>
      <trkpt lat="46.74558" lon="5.68324">
        <ele>520.9</ele>
        <time>2019-11-26T10:42:24Z</time>
      </trkpt>
      <trkpt lat="46.74561" lon="5.6833">
        <ele>521.3</ele>
        <time>2019-11-26T10:42:29Z</time>
      </trkpt>
      <trkpt lat="46.74564" lon="5.68335">
        <ele>521.8</ele>
        <time>2019-11-26T10:42:33Z</time>
      </trkpt>
      <trkpt lat="46.74567" lon="5.68341">
        <ele>522.3</ele>
        <time>2019-11-26T10:42:38Z</time>
      </trkpt>
      <trkpt lat="46.74571" lon="5.68345">
        <ele>522.9</ele>
        <time>2019-11-26T10:42:44Z</time>
      </trkpt>
      <trkpt lat="46.74575" lon="5.68349">
        <ele>523.3</ele>
        <time>2019-11-26T10:42:49Z</time>
      </trkpt>
      <trkpt lat="46.74579" lon="5.68354">
        <ele>523.6</ele>
        <time>2019-11-26T10:42:55Z</time>
      </trkpt>
      <trkpt lat="46.74583" lon="5.6836">
        <ele>524</ele>
        <time>2019-11-26T10:43:00Z</time>
      </trkpt>
      <trkpt lat="46.74586" lon="5.68364">
        <ele>524.3</ele>
        <time>2019-11-26T10:43:05Z</time>
      </trkpt>
      <trkpt lat="46.7459" lon="5.68369">
        <ele>524.6</ele>
        <time>2019-11-26T10:43:09Z</time>
      </trkpt>
      <trkpt lat="46.74594" lon="5.68374">
        <ele>524.8</ele>
        <time>2019-11-26T10:43:13Z</time>
      </trkpt>
      <trkpt lat="46.74598" lon="5.68378">
        <ele>525</ele>
        <time>2019-11-26T10:43:18Z</time>
      </trkpt>
      <trkpt lat="46.74602" lon="5.68381">
        <ele>525.3</ele>
        <time>2019-11-26T10:43:23Z</time>
      </trkpt>
      <trkpt lat="46.74607" lon="5.68385">
        <ele>525.5</ele>
        <time>2019-11-26T10:43:29Z</time>
      </trkpt>
      <trkpt lat="46.74611" lon="5.68389">
        <ele>525.8</ele>
        <time>2019-11-26T10:43:34Z</time>
      </trkpt>
      <trkpt lat="46.74615" lon="5.68392">
        <ele>526</ele>
        <time>2019-11-26T10:43:39Z</time>
      </trkpt>
      <trkpt lat="46.74619" lon="5.68394">
        <ele>526.4</ele>
        <time>2019-11-26T10:43:45Z</time>
      </trkpt>
      <trkpt lat="46.74624" lon="5.68396">
        <ele>526.6</ele>
        <time>2019-11-26T10:43:49Z</time>
      </trkpt>
      <trkpt lat="46.74629" lon="5.68399">
        <ele>527.1</ele>
        <time>2019-11-26T10:43:54Z</time>
      </trkpt>
      <trkpt lat="46.74634" lon="5.684">
        <ele>527.6</ele>
        <time>2019-11-26T10:44:01Z</time>
      </trkpt>
      <trkpt lat="46.74639" lon="5.684">
        <ele>527.7</ele>
        <time>2019-11-26T10:44:08Z</time>
      </trkpt>
      <trkpt lat="46.74644" lon="5.684">
        <ele>527.6</ele>
        <time>2019-11-26T10:44:13Z</time>
      </trkpt>
      <trkpt lat="46.7465" lon="5.684">
        <ele>527.4</ele>
        <time>2019-11-26T10:44:17Z</time>
      </trkpt>
      <trkpt lat="46.74654" lon="5.684">
        <ele>527.4</ele>
        <time>2019-11-26T10:44:22Z</time>
      </trkpt>
      <trkpt lat="46.74659" lon="5.68401">
        <ele>527.6</ele>
        <time>2019-11-26T10:44:29Z</time>
      </trkpt>
      <trkpt lat="46.74665" lon="5.68403">
        <ele>527.9</ele>
        <time>2019-11-26T10:44:34Z</time>
      </trkpt>
      <trkpt lat="46.7467" lon="5.68404">
        <ele>528.2</ele>
        <time>2019-11-26T10:44:37Z</time>
      </trkpt>
      <trkpt lat="46.74675" lon="5.68405">
        <ele>528.7</ele>
        <time>2019-11-26T10:44:41Z</time>
      </trkpt>
      <trkpt lat="46.7468" lon="5.68407">
        <ele>529</ele>
        <time>2019-11-26T10:44:45Z</time>
      </trkpt>
      <trkpt lat="46.74685" lon="5.68409">
        <ele>529.5</ele>
        <time>2019-11-26T10:44:50Z</time>
      </trkpt>
      <trkpt lat="46.7469" lon="5.68413">
        <ele>530</ele>
        <time>2019-11-26T10:44:56Z</time>
      </trkpt>
      <trkpt lat="46.74695" lon="5.68416">
        <ele>530.1</ele>
        <time>2019-11-26T10:45:01Z</time>
      </trkpt>
      <trkpt lat="46.74699" lon="5.68419">
        <ele>530.1</ele>
        <time>2019-11-26T10:45:05Z</time>
      </trkpt>
      <trkpt lat="46.74704" lon="5.68421">
        <ele>530.2</ele>
        <time>2019-11-26T10:45:09Z</time>
      </trkpt>
      <trkpt lat="46.74709" lon="5.68424">
        <ele>530.4</ele>
        <time>2019-11-26T10:45:16Z</time>
      </trkpt>
      <trkpt lat="46.74713" lon="5.68427">
        <ele>530.7</ele>
        <time>2019-11-26T10:45:21Z</time>
      </trkpt>
      <trkpt lat="46.74717" lon="5.6843">
        <ele>531</ele>
        <time>2019-11-26T10:45:25Z</time>
      </trkpt>
      <trkpt lat="46.74721" lon="5.68435">
        <ele>531.3</ele>
        <time>2019-11-26T10:45:30Z</time>
      </trkpt>
      <trkpt lat="46.74725" lon="5.68439">
        <ele>531.7</ele>
        <time>2019-11-26T10:45:35Z</time>
      </trkpt>
      <trkpt lat="46.7473" lon="5.68442">
        <ele>532</ele>
        <time>2019-11-26T10:45:41Z</time>
      </trkpt>
      <trkpt lat="46.74735" lon="5.68443">
        <ele>532.3</ele>
        <time>2019-11-26T10:45:46Z</time>
      </trkpt>
      <trkpt lat="46.7474" lon="5.68444">
        <ele>532.6</ele>
        <time>2019-11-26T10:45:50Z</time>
      </trkpt>
      <trkpt lat="46.74745" lon="5.68445">
        <ele>533.1</ele>
        <time>2019-11-26T10:45:56Z</time>
      </trkpt>
      <trkpt lat="46.74751" lon="5.68447">
        <ele>533.6</ele>
        <time>2019-11-26T10:46:01Z</time>
      </trkpt>
      <trkpt lat="46.74755" lon="5.6845">
        <ele>534</ele>
        <time>2019-11-26T10:46:05Z</time>
      </trkpt>
      <trkpt lat="46.7476" lon="5.68452">
        <ele>534.3</ele>
        <time>2019-11-26T10:46:09Z</time>
      </trkpt>
      <trkpt lat="46.74765" lon="5.68454">
        <ele>534.6</ele>
        <time>2019-11-26T10:46:14Z</time>
      </trkpt>
      <trkpt lat="46.7477" lon="5.68455">
        <ele>534.6</ele>
        <time>2019-11-26T10:46:21Z</time>
      </trkpt>
      <trkpt lat="46.74775" lon="5.68454">
        <ele>534.6</ele>
        <time>2019-11-26T10:46:26Z</time>
      </trkpt>
      <trkpt lat="46.7478" lon="5.68455">
        <ele>534.6</ele>
        <time>2019-11-26T10:46:31Z</time>
      </trkpt>
      <trkpt lat="46.74785" lon="5.68455">
        <ele>534.8</ele>
        <time>2019-11-26T10:46:37Z</time>
      </trkpt>
      <trkpt lat="46.74791" lon="5.68453">
        <ele>535</ele>
        <time>2019-11-26T10:46:41Z</time>
      </trkpt>
      <trkpt lat="46.74796" lon="5.68453">
        <ele>535.3</ele>
        <time>2019-11-26T10:46:45Z</time>
      </trkpt>
      <trkpt lat="46.748" lon="5.68454">
        <ele>535.7</ele>
        <time>2019-11-26T10:46:51Z</time>
      </trkpt>
      <trkpt lat="46.74805" lon="5.68455">
        <ele>535.9</ele>
        <time>2019-11-26T10:46:56Z</time>
      </trkpt>
      <trkpt lat="46.7481" lon="5.68454">
        <ele>536</ele>
        <time>2019-11-26T10:47:01Z</time>
      </trkpt>
      <trkpt lat="46.74816" lon="5.68451">
        <ele>536.1</ele>
        <time>2019-11-26T10:47:06Z</time>
      </trkpt>
      <trkpt lat="46.74821" lon="5.6845">
        <ele>536.3</ele>
        <time>2019-11-26T10:47:10Z</time>
      </trkpt>
      <trkpt lat="46.74826" lon="5.6845">
        <ele>536.6</ele>
        <time>2019-11-26T10:47:15Z</time>
      </trkpt>
      <trkpt lat="46.74831" lon="5.6845">
        <ele>536.8</ele>
        <time>2019-11-26T10:47:18Z</time>
      </trkpt>
      <trkpt lat="46.74836" lon="5.68451">
        <ele>537.3</ele>
        <time>2019-11-26T10:47:22Z</time>
      </trkpt>
      <trkpt lat="46.7484" lon="5.68451">
        <ele>537.7</ele>
        <time>2019-11-26T10:47:26Z</time>
      </trkpt>
      <trkpt lat="46.74845" lon="5.6845">
        <ele>538.2</ele>
        <time>2019-11-26T10:47:31Z</time>
      </trkpt>
      <trkpt lat="46.7485" lon="5.68449">
        <ele>538.8</ele>
        <time>2019-11-26T10:47:37Z</time>
      </trkpt>
      <trkpt lat="46.74855" lon="5.6845">
        <ele>539.2</ele>
        <time>2019-11-26T10:47:41Z</time>
      </trkpt>
      <trkpt lat="46.7486" lon="5.6845">
        <ele>539.6</ele>
        <time>2019-11-26T10:47:46Z</time>
      </trkpt>
      <trkpt lat="46.74865" lon="5.6845">
        <ele>540.1</ele>
        <time>2019-11-26T10:47:53Z</time>
      </trkpt>
      <trkpt lat="46.7487" lon="5.68448">
        <ele>540.4</ele>
        <time>2019-11-26T10:47:59Z</time>
      </trkpt>
      <trkpt lat="46.74875" lon="5.68448">
        <ele>540.7</ele>
        <time>2019-11-26T10:48:05Z</time>
      </trkpt>
      <trkpt lat="46.74879" lon="5.68447">
        <ele>541.4</ele>
        <time>2019-11-26T10:48:15Z</time>
      </trkpt>
      <trkpt lat="46.74884" lon="5.68449">
        <ele>541.7</ele>
        <time>2019-11-26T10:48:22Z</time>
      </trkpt>
      <trkpt lat="46.74888" lon="5.68447">
        <ele>541.7</ele>
        <time>2019-11-26T10:48:26Z</time>
      </trkpt>
      <trkpt lat="46.74893" lon="5.68446">
        <ele>541.5</ele>
        <time>2019-11-26T10:48:31Z</time>
      </trkpt>
      <trkpt lat="46.74898" lon="5.68446">
        <ele>541.3</ele>
        <time>2019-11-26T10:48:34Z</time>
      </trkpt>
      <trkpt lat="46.74903" lon="5.68444">
        <ele>541</ele>
        <time>2019-11-26T10:48:38Z</time>
      </trkpt>
      <trkpt lat="46.74907" lon="5.68439">
        <ele>540.6</ele>
        <time>2019-11-26T10:48:45Z</time>
      </trkpt>
      <trkpt lat="46.74911" lon="5.68435">
        <ele>540.4</ele>
        <time>2019-11-26T10:48:51Z</time>
      </trkpt>
      <trkpt lat="46.74914" lon="5.68428">
        <ele>540.4</ele>
        <time>2019-11-26T10:48:57Z</time>
      </trkpt>
      <trkpt lat="46.74917" lon="5.68424">
        <ele>540.4</ele>
        <time>2019-11-26T10:49:00Z</time>
      </trkpt>
      <trkpt lat="46.7492" lon="5.68418">
        <ele>540.4</ele>
        <time>2019-11-26T10:49:06Z</time>
      </trkpt>
      <trkpt lat="46.74923" lon="5.68412">
        <ele>539.9</ele>
        <time>2019-11-26T10:49:12Z</time>
      </trkpt>
      <trkpt lat="46.74926" lon="5.68407">
        <ele>539.4</ele>
        <time>2019-11-26T10:49:16Z</time>
      </trkpt>
      <trkpt lat="46.7493" lon="5.68404">
        <ele>538.5</ele>
        <time>2019-11-26T10:49:22Z</time>
      </trkpt>
      <trkpt lat="46.74934" lon="5.68398">
        <ele>538</ele>
        <time>2019-11-26T10:49:26Z</time>
      </trkpt>
      <trkpt lat="46.74937" lon="5.68391">
        <ele>537.6</ele>
        <time>2019-11-26T10:49:29Z</time>
      </trkpt>
      <trkpt lat="46.7494" lon="5.68385">
        <ele>537.1</ele>
        <time>2019-11-26T10:49:32Z</time>
      </trkpt>
      <trkpt lat="46.74944" lon="5.68381">
        <ele>536</ele>
        <time>2019-11-26T10:49:37Z</time>
      </trkpt>
      <trkpt lat="46.74948" lon="5.68377">
        <ele>535.1</ele>
        <time>2019-11-26T10:49:43Z</time>
      </trkpt>
      <trkpt lat="46.74951" lon="5.68372">
        <ele>534.7</ele>
        <time>2019-11-26T10:49:46Z</time>
      </trkpt>
      <trkpt lat="46.74955" lon="5.68368">
        <ele>534.3</ele>
        <time>2019-11-26T10:49:50Z</time>
      </trkpt>
      <trkpt lat="46.7496" lon="5.68364">
        <ele>534.1</ele>
        <time>2019-11-26T10:49:54Z</time>
      </trkpt>
      <trkpt lat="46.74965" lon="5.68361">
        <ele>534</ele>
        <time>2019-11-26T10:49:57Z</time>
      </trkpt>
      <trkpt lat="46.7497" lon="5.68357">
        <ele>533.9</ele>
        <time>2019-11-26T10:50:00Z</time>
      </trkpt>
      <trkpt lat="46.74974" lon="5.68354">
        <ele>533.9</ele>
        <time>2019-11-26T10:50:03Z</time>
      </trkpt>
      <trkpt lat="46.74978" lon="5.6835">
        <ele>533.9</ele>
        <time>2019-11-26T10:50:06Z</time>
      </trkpt>
      <trkpt lat="46.74983" lon="5.68348">
        <ele>533.8</ele>
        <time>2019-11-26T10:50:12Z</time>
      </trkpt>
      <trkpt lat="46.74988" lon="5.68347">
        <ele>533.9</ele>
        <time>2019-11-26T10:50:17Z</time>
      </trkpt>
      <trkpt lat="46.74993" lon="5.68347">
        <ele>533.9</ele>
        <time>2019-11-26T10:50:21Z</time>
      </trkpt>
      <trkpt lat="46.74999" lon="5.68346">
        <ele>533.8</ele>
        <time>2019-11-26T10:50:26Z</time>
      </trkpt>
      <trkpt lat="46.75003" lon="5.68345">
        <ele>533.4</ele>
        <time>2019-11-26T10:50:31Z</time>
      </trkpt>
      <trkpt lat="46.75008" lon="5.68341">
        <ele>532.8</ele>
        <time>2019-11-26T10:50:37Z</time>
      </trkpt>
      <trkpt lat="46.75013" lon="5.68339">
        <ele>532.1</ele>
        <time>2019-11-26T10:50:43Z</time>
      </trkpt>
      <trkpt lat="46.75018" lon="5.68341">
        <ele>531.6</ele>
        <time>2019-11-26T10:50:47Z</time>
      </trkpt>
      <trkpt lat="46.75023" lon="5.68342">
        <ele>530.9</ele>
        <time>2019-11-26T10:50:52Z</time>
      </trkpt>
      <trkpt lat="46.75028" lon="5.68343">
        <ele>530.3</ele>
        <time>2019-11-26T10:50:58Z</time>
      </trkpt>
      <trkpt lat="46.75034" lon="5.68343">
        <ele>529.6</ele>
        <time>2019-11-26T10:51:06Z</time>
      </trkpt>
      <trkpt lat="46.75039" lon="5.68345">
        <ele>529.4</ele>
        <time>2019-11-26T10:51:11Z</time>
      </trkpt>
      <trkpt lat="46.75044" lon="5.68347">
        <ele>529.2</ele>
        <time>2019-11-26T10:51:15Z</time>
      </trkpt>
      <trkpt lat="46.75048" lon="5.6835">
        <ele>529</ele>
        <time>2019-11-26T10:51:18Z</time>
      </trkpt>
      <trkpt lat="46.75053" lon="5.68351">
        <ele>528.8</ele>
        <time>2019-11-26T10:51:22Z</time>
      </trkpt>
      <trkpt lat="46.75058" lon="5.68353">
        <ele>528.7</ele>
        <time>2019-11-26T10:51:27Z</time>
      </trkpt>
      <trkpt lat="46.75062" lon="5.68355">
        <ele>528.7</ele>
        <time>2019-11-26T10:51:31Z</time>
      </trkpt>
      <trkpt lat="46.75067" lon="5.68356">
        <ele>528.7</ele>
        <time>2019-11-26T10:51:35Z</time>
      </trkpt>
      <trkpt lat="46.75072" lon="5.68358">
        <ele>528.7</ele>
        <time>2019-11-26T10:51:41Z</time>
      </trkpt>
      <trkpt lat="46.75077" lon="5.6836">
        <ele>528.7</ele>
        <time>2019-11-26T10:51:46Z</time>
      </trkpt>
      <trkpt lat="46.75082" lon="5.68361">
        <ele>528.6</ele>
        <time>2019-11-26T10:51:51Z</time>
      </trkpt>
      <trkpt lat="46.75086" lon="5.68363">
        <ele>528.7</ele>
        <time>2019-11-26T10:51:55Z</time>
      </trkpt>
      <trkpt lat="46.75092" lon="5.68367">
        <ele>528.7</ele>
        <time>2019-11-26T10:51:59Z</time>
      </trkpt>
      <trkpt lat="46.75096" lon="5.68369">
        <ele>528.5</ele>
        <time>2019-11-26T10:52:03Z</time>
      </trkpt>
      <trkpt lat="46.75101" lon="5.68371">
        <ele>528.2</ele>
        <time>2019-11-26T10:52:10Z</time>
      </trkpt>
      <trkpt lat="46.75106" lon="5.68373">
        <ele>528.1</ele>
        <time>2019-11-26T10:52:15Z</time>
      </trkpt>
      <trkpt lat="46.75112" lon="5.68374">
        <ele>528.1</ele>
        <time>2019-11-26T10:52:19Z</time>
      </trkpt>
      <trkpt lat="46.75116" lon="5.68376">
        <ele>528.1</ele>
        <time>2019-11-26T10:52:22Z</time>
      </trkpt>
      <trkpt lat="46.75121" lon="5.68379">
        <ele>528</ele>
        <time>2019-11-26T10:52:26Z</time>
      </trkpt>
      <trkpt lat="46.75126" lon="5.68383">
        <ele>527.9</ele>
        <time>2019-11-26T10:52:30Z</time>
      </trkpt>
      <trkpt lat="46.7513" lon="5.68388">
        <ele>527.9</ele>
        <time>2019-11-26T10:52:35Z</time>
      </trkpt>
      <trkpt lat="46.75135" lon="5.68392">
        <ele>527.9</ele>
        <time>2019-11-26T10:52:40Z</time>
      </trkpt>
      <trkpt lat="46.7514" lon="5.68396">
        <ele>527.7</ele>
        <time>2019-11-26T10:52:44Z</time>
      </trkpt>
      <trkpt lat="46.75145" lon="5.68397">
        <ele>527.5</ele>
        <time>2019-11-26T10:52:50Z</time>
      </trkpt>
      <trkpt lat="46.7515" lon="5.68399">
        <ele>527.3</ele>
        <time>2019-11-26T10:52:54Z</time>
      </trkpt>
      <trkpt lat="46.75155" lon="5.68401">
        <ele>526.9</ele>
        <time>2019-11-26T10:52:59Z</time>
      </trkpt>
      <trkpt lat="46.7516" lon="5.68403">
        <ele>526.5</ele>
        <time>2019-11-26T10:53:05Z</time>
      </trkpt>
      <trkpt lat="46.75165" lon="5.68405">
        <ele>526.2</ele>
        <time>2019-11-26T10:53:09Z</time>
      </trkpt>
      <trkpt lat="46.75169" lon="5.68407">
        <ele>525.8</ele>
        <time>2019-11-26T10:53:14Z</time>
      </trkpt>
      <trkpt lat="46.75173" lon="5.6841">
        <ele>525.5</ele>
        <time>2019-11-26T10:53:20Z</time>
      </trkpt>
      <trkpt lat="46.75178" lon="5.68411">
        <ele>525</ele>
        <time>2019-11-26T10:53:25Z</time>
      </trkpt>
      <trkpt lat="46.75184" lon="5.68412">
        <ele>524.7</ele>
        <time>2019-11-26T10:53:29Z</time>
      </trkpt>
      <trkpt lat="46.75189" lon="5.68414">
        <ele>524.4</ele>
        <time>2019-11-26T10:53:33Z</time>
      </trkpt>
      <trkpt lat="46.75194" lon="5.68416">
        <ele>523.9</ele>
        <time>2019-11-26T10:53:38Z</time>
      </trkpt>
      <trkpt lat="46.75199" lon="5.68416">
        <ele>523.5</ele>
        <time>2019-11-26T10:53:43Z</time>
      </trkpt>
      <trkpt lat="46.75204" lon="5.68417">
        <ele>523.4</ele>
        <time>2019-11-26T10:53:47Z</time>
      </trkpt>
      <trkpt lat="46.75209" lon="5.68419">
        <ele>523.1</ele>
        <time>2019-11-26T10:53:52Z</time>
      </trkpt>
      <trkpt lat="46.75215" lon="5.6842">
        <ele>523</ele>
        <time>2019-11-26T10:53:57Z</time>
      </trkpt>
      <trkpt lat="46.75219" lon="5.68422">
        <ele>522.9</ele>
        <time>2019-11-26T10:54:01Z</time>
      </trkpt>
      <trkpt lat="46.75224" lon="5.68424">
        <ele>522.8</ele>
        <time>2019-11-26T10:54:05Z</time>
      </trkpt>
      <trkpt lat="46.75229" lon="5.68426">
        <ele>522.6</ele>
        <time>2019-11-26T10:54:09Z</time>
      </trkpt>
      <trkpt lat="46.75234" lon="5.68427">
        <ele>522.6</ele>
        <time>2019-11-26T10:54:14Z</time>
      </trkpt>
      <trkpt lat="46.75239" lon="5.68428">
        <ele>522.7</ele>
        <time>2019-11-26T10:54:20Z</time>
      </trkpt>
      <trkpt lat="46.75244" lon="5.6843">
        <ele>522.9</ele>
        <time>2019-11-26T10:54:24Z</time>
      </trkpt>
      <trkpt lat="46.75249" lon="5.68429">
        <ele>523.2</ele>
        <time>2019-11-26T10:54:29Z</time>
      </trkpt>
      <trkpt lat="46.75254" lon="5.68429">
        <ele>523.6</ele>
        <time>2019-11-26T10:54:33Z</time>
      </trkpt>
      <trkpt lat="46.75259" lon="5.68428">
        <ele>523.9</ele>
        <time>2019-11-26T10:54:37Z</time>
      </trkpt>
      <trkpt lat="46.75263" lon="5.68424">
        <ele>524</ele>
        <time>2019-11-26T10:54:41Z</time>
      </trkpt>
      <trkpt lat="46.75267" lon="5.68421">
        <ele>524.1</ele>
        <time>2019-11-26T10:54:44Z</time>
      </trkpt>
      <trkpt lat="46.75271" lon="5.68416">
        <ele>524.2</ele>
        <time>2019-11-26T10:54:48Z</time>
      </trkpt>
      <trkpt lat="46.75275" lon="5.68411">
        <ele>524.4</ele>
        <time>2019-11-26T10:54:52Z</time>
      </trkpt>
      <trkpt lat="46.75279" lon="5.68406">
        <ele>524.5</ele>
        <time>2019-11-26T10:54:56Z</time>
      </trkpt>
      <trkpt lat="46.75282" lon="5.68401">
        <ele>524.7</ele>
        <time>2019-11-26T10:55:03Z</time>
      </trkpt>
      <trkpt lat="46.75286" lon="5.68395">
        <ele>525</ele>
        <time>2019-11-26T10:55:09Z</time>
      </trkpt>
      <trkpt lat="46.7529" lon="5.68391">
        <ele>525.1</ele>
        <time>2019-11-26T10:55:14Z</time>
      </trkpt>
      <trkpt lat="46.75294" lon="5.68386">
        <ele>525.1</ele>
        <time>2019-11-26T10:55:18Z</time>
      </trkpt>
      <trkpt lat="46.75298" lon="5.68382">
        <ele>525.2</ele>
        <time>2019-11-26T10:55:21Z</time>
      </trkpt>
      <trkpt lat="46.75303" lon="5.68377">
        <ele>525.3</ele>
        <time>2019-11-26T10:55:25Z</time>
      </trkpt>
      <trkpt lat="46.75308" lon="5.68373">
        <ele>525.3</ele>
        <time>2019-11-26T10:55:29Z</time>
      </trkpt>
      <trkpt lat="46.75313" lon="5.68371">
        <ele>525.3</ele>
        <time>2019-11-26T10:55:33Z</time>
      </trkpt>
      <trkpt lat="46.75317" lon="5.68368">
        <ele>525.4</ele>
        <time>2019-11-26T10:55:37Z</time>
      </trkpt>
      <trkpt lat="46.75322" lon="5.68365">
        <ele>525.3</ele>
        <time>2019-11-26T10:55:42Z</time>
      </trkpt>
      <trkpt lat="46.75326" lon="5.68361">
        <ele>525.2</ele>
        <time>2019-11-26T10:55:46Z</time>
      </trkpt>
      <trkpt lat="46.75329" lon="5.68355">
        <ele>525.1</ele>
        <time>2019-11-26T10:55:51Z</time>
      </trkpt>
      <trkpt lat="46.75331" lon="5.68347">
        <ele>525</ele>
        <time>2019-11-26T10:55:56Z</time>
      </trkpt>
      <trkpt lat="46.75332" lon="5.6834">
        <ele>525</ele>
        <time>2019-11-26T10:55:59Z</time>
      </trkpt>
      <trkpt lat="46.75332" lon="5.68333">
        <ele>525</ele>
        <time>2019-11-26T10:56:02Z</time>
      </trkpt>
      <trkpt lat="46.75333" lon="5.68325">
        <ele>524.9</ele>
        <time>2019-11-26T10:56:06Z</time>
      </trkpt>
      <trkpt lat="46.75334" lon="5.68318">
        <ele>524.9</ele>
        <time>2019-11-26T10:56:10Z</time>
      </trkpt>
      <trkpt lat="46.75336" lon="5.68311">
        <ele>524.8</ele>
        <time>2019-11-26T10:56:15Z</time>
      </trkpt>
      <trkpt lat="46.75337" lon="5.68304">
        <ele>524.8</ele>
        <time>2019-11-26T10:56:20Z</time>
      </trkpt>
      <trkpt lat="46.75338" lon="5.68297">
        <ele>524.6</ele>
        <time>2019-11-26T10:56:25Z</time>
      </trkpt>
      <trkpt lat="46.75338" lon="5.68288">
        <ele>524.5</ele>
        <time>2019-11-26T10:56:29Z</time>
      </trkpt>
      <trkpt lat="46.75338" lon="5.68281">
        <ele>524.2</ele>
        <time>2019-11-26T10:56:33Z</time>
      </trkpt>
      <trkpt lat="46.7534" lon="5.68275">
        <ele>524.1</ele>
        <time>2019-11-26T10:56:38Z</time>
      </trkpt>
      <trkpt lat="46.75344" lon="5.68255">
        <ele>524.4</ele>
        <time>2019-11-26T10:56:51Z</time>
      </trkpt>
      <trkpt lat="46.75343" lon="5.68247">
        <ele>524.4</ele>
        <time>2019-11-26T10:56:59Z</time>
      </trkpt>
      <trkpt lat="46.75342" lon="5.68239">
        <ele>524.4</ele>
        <time>2019-11-26T10:57:04Z</time>
      </trkpt>
      <trkpt lat="46.75342" lon="5.68232">
        <ele>524.5</ele>
        <time>2019-11-26T10:57:08Z</time>
      </trkpt>
      <trkpt lat="46.75342" lon="5.68225">
        <ele>524.6</ele>
        <time>2019-11-26T10:57:12Z</time>
      </trkpt>
      <trkpt lat="46.75343" lon="5.68219">
        <ele>524.8</ele>
        <time>2019-11-26T10:57:17Z</time>
      </trkpt>
      <trkpt lat="46.75343" lon="5.6821">
        <ele>525.1</ele>
        <time>2019-11-26T10:57:21Z</time>
      </trkpt>
      <trkpt lat="46.75344" lon="5.68203">
        <ele>525.4</ele>
        <time>2019-11-26T10:57:25Z</time>
      </trkpt>
      <trkpt lat="46.75344" lon="5.68196">
        <ele>525.5</ele>
        <time>2019-11-26T10:57:29Z</time>
      </trkpt>
      <trkpt lat="46.75344" lon="5.68189">
        <ele>525.8</ele>
        <time>2019-11-26T10:57:34Z</time>
      </trkpt>
      <trkpt lat="46.75344" lon="5.68181">
        <ele>526.1</ele>
        <time>2019-11-26T10:57:41Z</time>
      </trkpt>
      <trkpt lat="46.75344" lon="5.68173">
        <ele>526.3</ele>
        <time>2019-11-26T10:57:46Z</time>
      </trkpt>
      <trkpt lat="46.75343" lon="5.68166">
        <ele>526.5</ele>
        <time>2019-11-26T10:57:51Z</time>
      </trkpt>
      <trkpt lat="46.75342" lon="5.68159">
        <ele>526.7</ele>
        <time>2019-11-26T10:57:55Z</time>
      </trkpt>
      <trkpt lat="46.75342" lon="5.68151">
        <ele>527</ele>
        <time>2019-11-26T10:58:00Z</time>
      </trkpt>
      <trkpt lat="46.75342" lon="5.68144">
        <ele>527.4</ele>
        <time>2019-11-26T10:58:05Z</time>
      </trkpt>
      <trkpt lat="46.7534" lon="5.68137">
        <ele>527.7</ele>
        <time>2019-11-26T10:58:10Z</time>
      </trkpt>
      <trkpt lat="46.75338" lon="5.6813">
        <ele>528</ele>
        <time>2019-11-26T10:58:14Z</time>
      </trkpt>
      <trkpt lat="46.75336" lon="5.68123">
        <ele>528.2</ele>
        <time>2019-11-26T10:58:19Z</time>
      </trkpt>
      <trkpt lat="46.75334" lon="5.68117">
        <ele>528.2</ele>
        <time>2019-11-26T10:58:24Z</time>
      </trkpt>
      <trkpt lat="46.75333" lon="5.6811">
        <ele>528.3</ele>
        <time>2019-11-26T10:58:28Z</time>
      </trkpt>
      <trkpt lat="46.75333" lon="5.68103">
        <ele>528.4</ele>
        <time>2019-11-26T10:58:33Z</time>
      </trkpt>
      <trkpt lat="46.75334" lon="5.68096">
        <ele>528.5</ele>
        <time>2019-11-26T10:58:38Z</time>
      </trkpt>
      <trkpt lat="46.75333" lon="5.68088">
        <ele>528.6</ele>
        <time>2019-11-26T10:58:43Z</time>
      </trkpt>
      <trkpt lat="46.7533" lon="5.68083">
        <ele>528.6</ele>
        <time>2019-11-26T10:58:46Z</time>
      </trkpt>
      <trkpt lat="46.75327" lon="5.68077">
        <ele>528.5</ele>
        <time>2019-11-26T10:58:51Z</time>
      </trkpt>
      <trkpt lat="46.75325" lon="5.68071">
        <ele>528.4</ele>
        <time>2019-11-26T10:58:57Z</time>
      </trkpt>
      <trkpt lat="46.75324" lon="5.68064">
        <ele>528.2</ele>
        <time>2019-11-26T10:59:03Z</time>
      </trkpt>
      <trkpt lat="46.75321" lon="5.68058">
        <ele>527.8</ele>
        <time>2019-11-26T10:59:10Z</time>
      </trkpt>
      <trkpt lat="46.75319" lon="5.68051">
        <ele>527.7</ele>
        <time>2019-11-26T10:59:17Z</time>
      </trkpt>
      <trkpt lat="46.75317" lon="5.68045">
        <ele>527.8</ele>
        <time>2019-11-26T10:59:22Z</time>
      </trkpt>
      <trkpt lat="46.75314" lon="5.6804">
        <ele>527.8</ele>
        <time>2019-11-26T10:59:28Z</time>
      </trkpt>
      <trkpt lat="46.7531" lon="5.68036">
        <ele>527.8</ele>
        <time>2019-11-26T10:59:33Z</time>
      </trkpt>
      <trkpt lat="46.75307" lon="5.6803">
        <ele>527.5</ele>
        <time>2019-11-26T10:59:39Z</time>
      </trkpt>
      <trkpt lat="46.75304" lon="5.68024">
        <ele>527.1</ele>
        <time>2019-11-26T10:59:44Z</time>
      </trkpt>
      <trkpt lat="46.75301" lon="5.68018">
        <ele>526.9</ele>
        <time>2019-11-26T10:59:48Z</time>
      </trkpt>
      <trkpt lat="46.75298" lon="5.68011">
        <ele>526.7</ele>
        <time>2019-11-26T10:59:52Z</time>
      </trkpt>
      <trkpt lat="46.75297" lon="5.68004">
        <ele>526.5</ele>
        <time>2019-11-26T10:59:55Z</time>
      </trkpt>
      <trkpt lat="46.75294" lon="5.67997">
        <ele>526.3</ele>
        <time>2019-11-26T11:00:00Z</time>
      </trkpt>
      <trkpt lat="46.75294" lon="5.67989">
        <ele>526.2</ele>
        <time>2019-11-26T11:00:07Z</time>
      </trkpt>
      <trkpt lat="46.75294" lon="5.67982">
        <ele>526.2</ele>
        <time>2019-11-26T11:00:10Z</time>
      </trkpt>
      <trkpt lat="46.75296" lon="5.67976">
        <ele>526.2</ele>
        <time>2019-11-26T11:00:15Z</time>
      </trkpt>
      <trkpt lat="46.75294" lon="5.67969">
        <ele>526.6</ele>
        <time>2019-11-26T11:00:20Z</time>
      </trkpt>
      <trkpt lat="46.7529" lon="5.67964">
        <ele>527.3</ele>
        <time>2019-11-26T11:00:26Z</time>
      </trkpt>
      <trkpt lat="46.75286" lon="5.67958">
        <ele>527.8</ele>
        <time>2019-11-26T11:00:31Z</time>
      </trkpt>
      <trkpt lat="46.75283" lon="5.67952">
        <ele>528</ele>
        <time>2019-11-26T11:00:35Z</time>
      </trkpt>
      <trkpt lat="46.75279" lon="5.67947">
        <ele>528.1</ele>
        <time>2019-11-26T11:00:41Z</time>
      </trkpt>
      <trkpt lat="46.75276" lon="5.67941">
        <ele>527.7</ele>
        <time>2019-11-26T11:00:45Z</time>
      </trkpt>
      <trkpt lat="46.75274" lon="5.67935">
        <ele>527.1</ele>
        <time>2019-11-26T11:00:50Z</time>
      </trkpt>
      <trkpt lat="46.75271" lon="5.67928">
        <ele>526.5</ele>
        <time>2019-11-26T11:00:55Z</time>
      </trkpt>
      <trkpt lat="46.75269" lon="5.67922">
        <ele>525.6</ele>
        <time>2019-11-26T11:01:01Z</time>
      </trkpt>
      <trkpt lat="46.75268" lon="5.67915">
        <ele>524.1</ele>
        <time>2019-11-26T11:01:11Z</time>
      </trkpt>
      <trkpt lat="46.75268" lon="5.67909">
        <ele>522.5</ele>
        <time>2019-11-26T11:01:35Z</time>
      </trkpt>
      <trkpt lat="46.75265" lon="5.67904">
        <ele>520.3</ele>
        <time>2019-11-26T11:01:45Z</time>
      </trkpt>
      <trkpt lat="46.75265" lon="5.67897">
        <ele>516.7</ele>
        <time>2019-11-26T11:01:56Z</time>
      </trkpt>
      <trkpt lat="46.75262" lon="5.67891">
        <ele>512.2</ele>
        <time>2019-11-26T11:02:13Z</time>
      </trkpt>
      <trkpt lat="46.75259" lon="5.67885">
        <ele>510.2</ele>
        <time>2019-11-26T11:02:21Z</time>
      </trkpt>
      <trkpt lat="46.75255" lon="5.6788">
        <ele>508</ele>
        <time>2019-11-26T11:02:29Z</time>
      </trkpt>
      <trkpt lat="46.75251" lon="5.67876">
        <ele>506</ele>
        <time>2019-11-26T11:02:36Z</time>
      </trkpt>
      <trkpt lat="46.75247" lon="5.67873">
        <ele>503</ele>
        <time>2019-11-26T11:02:51Z</time>
      </trkpt>
      <trkpt lat="46.75242" lon="5.67872">
        <ele>499.9</ele>
        <time>2019-11-26T11:03:05Z</time>
      </trkpt>
      <trkpt lat="46.75234" lon="5.67874">
        <ele>498.8</ele>
        <time>2019-11-26T11:03:18Z</time>
      </trkpt>
      <trkpt lat="46.75228" lon="5.67874">
        <ele>500</ele>
        <time>2019-11-26T11:03:25Z</time>
      </trkpt>
      <trkpt lat="46.75222" lon="5.67874">
        <ele>500.6</ele>
        <time>2019-11-26T11:03:27Z</time>
      </trkpt>
      <trkpt lat="46.75218" lon="5.67874">
        <ele>501.4</ele>
        <time>2019-11-26T11:03:30Z</time>
      </trkpt>
      <trkpt lat="46.75213" lon="5.67875">
        <ele>502.9</ele>
        <time>2019-11-26T11:03:35Z</time>
      </trkpt>
      <trkpt lat="46.75201" lon="5.67881">
        <ele>507.9</ele>
        <time>2019-11-26T11:03:46Z</time>
      </trkpt>
      <trkpt lat="46.75195" lon="5.67884">
        <ele>508</ele>
        <time>2019-11-26T11:03:48Z</time>
      </trkpt>
      <trkpt lat="46.7519" lon="5.67886">
        <ele>508.3</ele>
        <time>2019-11-26T11:03:51Z</time>
      </trkpt>
      <trkpt lat="46.75185" lon="5.67887">
        <ele>508.6</ele>
        <time>2019-11-26T11:03:55Z</time>
      </trkpt>
      <trkpt lat="46.7518" lon="5.67886">
        <ele>508.5</ele>
        <time>2019-11-26T11:04:01Z</time>
      </trkpt>
      <trkpt lat="46.75175" lon="5.67884">
        <ele>508.1</ele>
        <time>2019-11-26T11:04:06Z</time>
      </trkpt>
      <trkpt lat="46.75169" lon="5.67884">
        <ele>508.2</ele>
        <time>2019-11-26T11:04:10Z</time>
      </trkpt>
      <trkpt lat="46.75165" lon="5.67884">
        <ele>508.1</ele>
        <time>2019-11-26T11:04:15Z</time>
      </trkpt>
      <trkpt lat="46.7516" lon="5.67882">
        <ele>508.9</ele>
        <time>2019-11-26T11:04:25Z</time>
      </trkpt>
      <trkpt lat="46.75155" lon="5.67883">
        <ele>509.5</ele>
        <time>2019-11-26T11:04:29Z</time>
      </trkpt>
      <trkpt lat="46.75151" lon="5.67883">
        <ele>510.5</ele>
        <time>2019-11-26T11:04:37Z</time>
      </trkpt>
      <trkpt lat="46.75146" lon="5.67881">
        <ele>511.1</ele>
        <time>2019-11-26T11:04:42Z</time>
      </trkpt>
      <trkpt lat="46.75141" lon="5.67881">
        <ele>511.3</ele>
        <time>2019-11-26T11:04:45Z</time>
      </trkpt>
      <trkpt lat="46.75136" lon="5.67881">
        <ele>511.6</ele>
        <time>2019-11-26T11:04:48Z</time>
      </trkpt>
      <trkpt lat="46.75132" lon="5.67883">
        <ele>512.2</ele>
        <time>2019-11-26T11:04:51Z</time>
      </trkpt>
      <trkpt lat="46.75126" lon="5.67885">
        <ele>512.8</ele>
        <time>2019-11-26T11:04:55Z</time>
      </trkpt>
      <trkpt lat="46.75122" lon="5.67884">
        <ele>513.5</ele>
        <time>2019-11-26T11:05:02Z</time>
      </trkpt>
      <trkpt lat="46.75116" lon="5.67886">
        <ele>513.6</ele>
        <time>2019-11-26T11:05:05Z</time>
      </trkpt>
      <trkpt lat="46.75101" lon="5.67889">
        <ele>513.2</ele>
        <time>2019-11-26T11:05:17Z</time>
      </trkpt>
      <trkpt lat="46.75096" lon="5.6789">
        <ele>512.7</ele>
        <time>2019-11-26T11:05:23Z</time>
      </trkpt>
      <trkpt lat="46.75091" lon="5.67889">
        <ele>512.1</ele>
        <time>2019-11-26T11:05:27Z</time>
      </trkpt>
      <trkpt lat="46.75086" lon="5.67889">
        <ele>511.5</ele>
        <time>2019-11-26T11:05:31Z</time>
      </trkpt>
      <trkpt lat="46.75081" lon="5.67887">
        <ele>510.8</ele>
        <time>2019-11-26T11:05:36Z</time>
      </trkpt>
      <trkpt lat="46.75076" lon="5.67886">
        <ele>509.6</ele>
        <time>2019-11-26T11:05:42Z</time>
      </trkpt>
      <trkpt lat="46.75071" lon="5.67887">
        <ele>508.5</ele>
        <time>2019-11-26T11:05:46Z</time>
      </trkpt>
      <trkpt lat="46.75059" lon="5.67892">
        <ele>492</ele>
        <time>2019-11-26T11:06:21Z</time>
      </trkpt>
      <trkpt lat="46.75042" lon="5.6791">
        <ele>486.8</ele>
        <time>2019-11-26T11:06:51Z</time>
      </trkpt>
      <trkpt lat="46.75038" lon="5.67915">
        <ele>486.7</ele>
        <time>2019-11-26T11:06:58Z</time>
      </trkpt>
      <trkpt lat="46.75034" lon="5.67918">
        <ele>486.5</ele>
        <time>2019-11-26T11:07:01Z</time>
      </trkpt>
      <trkpt lat="46.75029" lon="5.67922">
        <ele>486.2</ele>
        <time>2019-11-26T11:07:04Z</time>
      </trkpt>
      <trkpt lat="46.75025" lon="5.67925">
        <ele>485.7</ele>
        <time>2019-11-26T11:07:07Z</time>
      </trkpt>
      <trkpt lat="46.7502" lon="5.67927">
        <ele>485.1</ele>
        <time>2019-11-26T11:07:11Z</time>
      </trkpt>
      <trkpt lat="46.75016" lon="5.67926">
        <ele>484.1</ele>
        <time>2019-11-26T11:07:17Z</time>
      </trkpt>
      <trkpt lat="46.75011" lon="5.67923">
        <ele>483</ele>
        <time>2019-11-26T11:07:24Z</time>
      </trkpt>
      <trkpt lat="46.7501" lon="5.67911">
        <ele>481.4</ele>
        <time>2019-11-26T11:07:41Z</time>
      </trkpt>
      <trkpt lat="46.75011" lon="5.67903">
        <ele>481.3</ele>
        <time>2019-11-26T11:07:46Z</time>
      </trkpt>
      <trkpt lat="46.75013" lon="5.67897">
        <ele>481</ele>
        <time>2019-11-26T11:07:52Z</time>
      </trkpt>
      <trkpt lat="46.75017" lon="5.67874">
        <ele>475.5</ele>
        <time>2019-11-26T11:08:19Z</time>
      </trkpt>
      <trkpt lat="46.75018" lon="5.67867">
        <ele>474.9</ele>
        <time>2019-11-26T11:08:24Z</time>
      </trkpt>
      <trkpt lat="46.75019" lon="5.6786">
        <ele>473.8</ele>
        <time>2019-11-26T11:08:32Z</time>
      </trkpt>
      <trkpt lat="46.7502" lon="5.67853">
        <ele>472.2</ele>
        <time>2019-11-26T11:08:42Z</time>
      </trkpt>
      <trkpt lat="46.7502" lon="5.67846">
        <ele>470.9</ele>
        <time>2019-11-26T11:08:48Z</time>
      </trkpt>
      <trkpt lat="46.75022" lon="5.6784">
        <ele>469.6</ele>
        <time>2019-11-26T11:08:54Z</time>
      </trkpt>
      <trkpt lat="46.75024" lon="5.67834">
        <ele>468.5</ele>
        <time>2019-11-26T11:09:02Z</time>
      </trkpt>
      <trkpt lat="46.75026" lon="5.67827">
        <ele>467.5</ele>
        <time>2019-11-26T11:09:08Z</time>
      </trkpt>
      <trkpt lat="46.75026" lon="5.6782">
        <ele>466.2</ele>
        <time>2019-11-26T11:09:16Z</time>
      </trkpt>
      <trkpt lat="46.75036" lon="5.67803">
        <ele>463</ele>
        <time>2019-11-26T11:09:31Z</time>
      </trkpt>
      <trkpt lat="46.75038" lon="5.67797">
        <ele>462.1</ele>
        <time>2019-11-26T11:09:38Z</time>
      </trkpt>
      <trkpt lat="46.7504" lon="5.67791">
        <ele>461.2</ele>
        <time>2019-11-26T11:09:45Z</time>
      </trkpt>
      <trkpt lat="46.75042" lon="5.67783">
        <ele>459</ele>
        <time>2019-11-26T11:10:01Z</time>
      </trkpt>
      <trkpt lat="46.75045" lon="5.67778">
        <ele>457.1</ele>
        <time>2019-11-26T11:10:13Z</time>
      </trkpt>
      <trkpt lat="46.75047" lon="5.67772">
        <ele>455.7</ele>
        <time>2019-11-26T11:10:21Z</time>
      </trkpt>
      <trkpt lat="46.75048" lon="5.67764">
        <ele>454.9</ele>
        <time>2019-11-26T11:10:26Z</time>
      </trkpt>
      <trkpt lat="46.7505" lon="5.67758">
        <ele>454.2</ele>
        <time>2019-11-26T11:10:30Z</time>
      </trkpt>
      <trkpt lat="46.75052" lon="5.67751">
        <ele>453.3</ele>
        <time>2019-11-26T11:10:35Z</time>
      </trkpt>
      <trkpt lat="46.75054" lon="5.67744">
        <ele>452.6</ele>
        <time>2019-11-26T11:10:39Z</time>
      </trkpt>
      <trkpt lat="46.75055" lon="5.67737">
        <ele>451.5</ele>
        <time>2019-11-26T11:10:46Z</time>
      </trkpt>
      <trkpt lat="46.75057" lon="5.67728">
        <ele>449.1</ele>
        <time>2019-11-26T11:11:01Z</time>
      </trkpt>
      <trkpt lat="46.7506" lon="5.67722">
        <ele>448.5</ele>
        <time>2019-11-26T11:11:04Z</time>
      </trkpt>
      <trkpt lat="46.75065" lon="5.67718">
        <ele>447.6</ele>
        <time>2019-11-26T11:11:09Z</time>
      </trkpt>
      <trkpt lat="46.75068" lon="5.67712">
        <ele>446.7</ele>
        <time>2019-11-26T11:11:14Z</time>
      </trkpt>
      <trkpt lat="46.75072" lon="5.67708">
        <ele>446</ele>
        <time>2019-11-26T11:11:19Z</time>
      </trkpt>
      <trkpt lat="46.75074" lon="5.67701">
        <ele>445.2</ele>
        <time>2019-11-26T11:11:24Z</time>
      </trkpt>
      <trkpt lat="46.75077" lon="5.67695">
        <ele>438.6</ele>
        <time>2019-11-26T11:11:56Z</time>
      </trkpt>
      <trkpt lat="46.75081" lon="5.67692">
        <ele>436.5</ele>
        <time>2019-11-26T11:12:06Z</time>
      </trkpt>
      <trkpt lat="46.75085" lon="5.6769">
        <ele>435.9</ele>
        <time>2019-11-26T11:12:14Z</time>
      </trkpt>
      <trkpt lat="46.75089" lon="5.67687">
        <ele>435.7</ele>
        <time>2019-11-26T11:12:18Z</time>
      </trkpt>
      <trkpt lat="46.75093" lon="5.67684">
        <ele>435.5</ele>
        <time>2019-11-26T11:12:24Z</time>
      </trkpt>
      <trkpt lat="46.75097" lon="5.67679">
        <ele>435.2</ele>
        <time>2019-11-26T11:12:29Z</time>
      </trkpt>
      <trkpt lat="46.75102" lon="5.67676">
        <ele>435.1</ele>
        <time>2019-11-26T11:12:33Z</time>
      </trkpt>
      <trkpt lat="46.75106" lon="5.67674">
        <ele>434.9</ele>
        <time>2019-11-26T11:12:39Z</time>
      </trkpt>
      <trkpt lat="46.75111" lon="5.67672">
        <ele>434.7</ele>
        <time>2019-11-26T11:12:43Z</time>
      </trkpt>
      <trkpt lat="46.75115" lon="5.67669">
        <ele>434.4</ele>
        <time>2019-11-26T11:12:52Z</time>
      </trkpt>
      <trkpt lat="46.75122" lon="5.6766">
        <ele>434.2</ele>
        <time>2019-11-26T11:13:03Z</time>
      </trkpt>
      <trkpt lat="46.75127" lon="5.67658">
        <ele>433.6</ele>
        <time>2019-11-26T11:13:09Z</time>
      </trkpt>
      <trkpt lat="46.7514" lon="5.67651">
        <ele>432.2</ele>
        <time>2019-11-26T11:13:19Z</time>
      </trkpt>
      <trkpt lat="46.75144" lon="5.67646">
        <ele>431.7</ele>
        <time>2019-11-26T11:13:25Z</time>
      </trkpt>
      <trkpt lat="46.75148" lon="5.67642">
        <ele>431.2</ele>
        <time>2019-11-26T11:13:30Z</time>
      </trkpt>
      <trkpt lat="46.75153" lon="5.67639">
        <ele>430.8</ele>
        <time>2019-11-26T11:13:33Z</time>
      </trkpt>
      <trkpt lat="46.75158" lon="5.67636">
        <ele>430.5</ele>
        <time>2019-11-26T11:13:36Z</time>
      </trkpt>
      <trkpt lat="46.75163" lon="5.67634">
        <ele>430.1</ele>
        <time>2019-11-26T11:13:40Z</time>
      </trkpt>
      <trkpt lat="46.75168" lon="5.67632">
        <ele>429.8</ele>
        <time>2019-11-26T11:13:44Z</time>
      </trkpt>
      <trkpt lat="46.75175" lon="5.67631">
        <ele>429.6</ele>
        <time>2019-11-26T11:13:49Z</time>
      </trkpt>
      <trkpt lat="46.7518" lon="5.67631">
        <ele>429.5</ele>
        <time>2019-11-26T11:13:54Z</time>
      </trkpt>
      <trkpt lat="46.75184" lon="5.67628">
        <ele>429.1</ele>
        <time>2019-11-26T11:14:00Z</time>
      </trkpt>
      <trkpt lat="46.75189" lon="5.67623">
        <ele>428.7</ele>
        <time>2019-11-26T11:14:05Z</time>
      </trkpt>
      <trkpt lat="46.75193" lon="5.67619">
        <ele>428.4</ele>
        <time>2019-11-26T11:14:08Z</time>
      </trkpt>
      <trkpt lat="46.75198" lon="5.67616">
        <ele>427.9</ele>
        <time>2019-11-26T11:14:15Z</time>
      </trkpt>
      <trkpt lat="46.75202" lon="5.67615">
        <ele>427.4</ele>
        <time>2019-11-26T11:14:22Z</time>
      </trkpt>
      <trkpt lat="46.75207" lon="5.67612">
        <ele>427.1</ele>
        <time>2019-11-26T11:14:26Z</time>
      </trkpt>
      <trkpt lat="46.75212" lon="5.67609">
        <ele>426.8</ele>
        <time>2019-11-26T11:14:30Z</time>
      </trkpt>
      <trkpt lat="46.75221" lon="5.67604">
        <ele>425.2</ele>
        <time>2019-11-26T11:14:40Z</time>
      </trkpt>
      <trkpt lat="46.75225" lon="5.67599">
        <ele>424.8</ele>
        <time>2019-11-26T11:14:44Z</time>
      </trkpt>
      <trkpt lat="46.7523" lon="5.67596">
        <ele>424.4</ele>
        <time>2019-11-26T11:14:49Z</time>
      </trkpt>
      <trkpt lat="46.75234" lon="5.67592">
        <ele>424.2</ele>
        <time>2019-11-26T11:14:52Z</time>
      </trkpt>
      <trkpt lat="46.75238" lon="5.67589">
        <ele>423.8</ele>
        <time>2019-11-26T11:14:58Z</time>
      </trkpt>
      <trkpt lat="46.75243" lon="5.67591">
        <ele>423.1</ele>
        <time>2019-11-26T11:15:04Z</time>
      </trkpt>
      <trkpt lat="46.75248" lon="5.67592">
        <ele>422.6</ele>
        <time>2019-11-26T11:15:10Z</time>
      </trkpt>
      <trkpt lat="46.75265" lon="5.67596">
        <ele>420.3</ele>
        <time>2019-11-26T11:15:22Z</time>
      </trkpt>
      <trkpt lat="46.7527" lon="5.67597">
        <ele>420</ele>
        <time>2019-11-26T11:15:26Z</time>
      </trkpt>
      <trkpt lat="46.75275" lon="5.67597">
        <ele>420</ele>
        <time>2019-11-26T11:15:31Z</time>
      </trkpt>
      <trkpt lat="46.7528" lon="5.67597">
        <ele>420.3</ele>
        <time>2019-11-26T11:15:37Z</time>
      </trkpt>
      <trkpt lat="46.75286" lon="5.67595">
        <ele>419.8</ele>
        <time>2019-11-26T11:15:51Z</time>
      </trkpt>
      <trkpt lat="46.75291" lon="5.67596">
        <ele>418.7</ele>
        <time>2019-11-26T11:15:56Z</time>
      </trkpt>
      <trkpt lat="46.75302" lon="5.67593">
        <ele>415.9</ele>
        <time>2019-11-26T11:16:08Z</time>
      </trkpt>
      <trkpt lat="46.75306" lon="5.67592">
        <ele>415.4</ele>
        <time>2019-11-26T11:16:12Z</time>
      </trkpt>
      <trkpt lat="46.75312" lon="5.67589">
        <ele>415.1</ele>
        <time>2019-11-26T11:16:16Z</time>
      </trkpt>
      <trkpt lat="46.75317" lon="5.67586">
        <ele>414.8</ele>
        <time>2019-11-26T11:16:19Z</time>
      </trkpt>
      <trkpt lat="46.75321" lon="5.67584">
        <ele>414.5</ele>
        <time>2019-11-26T11:16:22Z</time>
      </trkpt>
      <trkpt lat="46.75326" lon="5.67582">
        <ele>414.1</ele>
        <time>2019-11-26T11:16:26Z</time>
      </trkpt>
      <trkpt lat="46.75331" lon="5.67582">
        <ele>413.7</ele>
        <time>2019-11-26T11:16:30Z</time>
      </trkpt>
      <trkpt lat="46.75336" lon="5.67583">
        <ele>413.6</ele>
        <time>2019-11-26T11:16:34Z</time>
      </trkpt>
      <trkpt lat="46.75342" lon="5.67585">
        <ele>413.5</ele>
        <time>2019-11-26T11:16:38Z</time>
      </trkpt>
      <trkpt lat="46.75358" lon="5.67588">
        <ele>413.5</ele>
        <time>2019-11-26T11:16:50Z</time>
      </trkpt>
      <trkpt lat="46.75368" lon="5.67595">
        <ele>413.7</ele>
        <time>2019-11-26T11:17:01Z</time>
      </trkpt>
      <trkpt lat="46.75372" lon="5.67599">
        <ele>413.2</ele>
        <time>2019-11-26T11:17:06Z</time>
      </trkpt>
      <trkpt lat="46.75376" lon="5.67602">
        <ele>412.3</ele>
        <time>2019-11-26T11:17:11Z</time>
      </trkpt>
      <trkpt lat="46.75381" lon="5.67603">
        <ele>410.6</ele>
        <time>2019-11-26T11:17:17Z</time>
      </trkpt>
      <trkpt lat="46.75392" lon="5.67607">
        <ele>405.9</ele>
        <time>2019-11-26T11:17:28Z</time>
      </trkpt>
      <trkpt lat="46.75398" lon="5.67607">
        <ele>404.7</ele>
        <time>2019-11-26T11:17:33Z</time>
      </trkpt>
      <trkpt lat="46.75403" lon="5.67606">
        <ele>403.8</ele>
        <time>2019-11-26T11:17:36Z</time>
      </trkpt>
      <trkpt lat="46.75409" lon="5.67607">
        <ele>402.6</ele>
        <time>2019-11-26T11:17:41Z</time>
      </trkpt>
      <trkpt lat="46.75425" lon="5.67615">
        <ele>398.8</ele>
        <time>2019-11-26T11:17:59Z</time>
      </trkpt>
      <trkpt lat="46.7543" lon="5.67615">
        <ele>397.8</ele>
        <time>2019-11-26T11:18:06Z</time>
      </trkpt>
      <trkpt lat="46.75434" lon="5.67614">
        <ele>396.8</ele>
        <time>2019-11-26T11:18:11Z</time>
      </trkpt>
      <trkpt lat="46.75439" lon="5.67615">
        <ele>396</ele>
        <time>2019-11-26T11:18:14Z</time>
      </trkpt>
      <trkpt lat="46.75444" lon="5.67617">
        <ele>394.7</ele>
        <time>2019-11-26T11:18:19Z</time>
      </trkpt>
      <trkpt lat="46.75449" lon="5.67618">
        <ele>393.4</ele>
        <time>2019-11-26T11:18:24Z</time>
      </trkpt>
      <trkpt lat="46.75454" lon="5.6762">
        <ele>391.9</ele>
        <time>2019-11-26T11:18:30Z</time>
      </trkpt>
      <trkpt lat="46.75457" lon="5.67627">
        <ele>390.9</ele>
        <time>2019-11-26T11:18:34Z</time>
      </trkpt>
      <trkpt lat="46.7546" lon="5.6763">
        <ele>390.2</ele>
        <time>2019-11-26T11:18:37Z</time>
      </trkpt>
      <trkpt lat="46.75465" lon="5.67632">
        <ele>389.6</ele>
        <time>2019-11-26T11:18:40Z</time>
      </trkpt>
      <trkpt lat="46.75469" lon="5.67634">
        <ele>388.9</ele>
        <time>2019-11-26T11:18:45Z</time>
      </trkpt>
      <trkpt lat="46.75475" lon="5.67637">
        <ele>388.4</ele>
        <time>2019-11-26T11:18:48Z</time>
      </trkpt>
      <trkpt lat="46.75481" lon="5.67638">
        <ele>387.4</ele>
        <time>2019-11-26T11:18:52Z</time>
      </trkpt>
      <trkpt lat="46.75485" lon="5.67639">
        <ele>385.8</ele>
        <time>2019-11-26T11:18:58Z</time>
      </trkpt>
      <trkpt lat="46.755" lon="5.67641">
        <ele>378.3</ele>
        <time>2019-11-26T11:19:18Z</time>
      </trkpt>
      <trkpt lat="46.75505" lon="5.67643">
        <ele>376.5</ele>
        <time>2019-11-26T11:19:23Z</time>
      </trkpt>
      <trkpt lat="46.7551" lon="5.67644">
        <ele>373.6</ele>
        <time>2019-11-26T11:19:30Z</time>
      </trkpt>
      <trkpt lat="46.75525" lon="5.67645">
        <ele>370.9</ele>
        <time>2019-11-26T11:19:49Z</time>
      </trkpt>
      <trkpt lat="46.75537" lon="5.67647">
        <ele>369.7</ele>
        <time>2019-11-26T11:20:07Z</time>
      </trkpt>
      <trkpt lat="46.75542" lon="5.67649">
        <ele>369.5</ele>
        <time>2019-11-26T11:20:10Z</time>
      </trkpt>
      <trkpt lat="46.75547" lon="5.67651">
        <ele>368.9</ele>
        <time>2019-11-26T11:20:15Z</time>
      </trkpt>
      <trkpt lat="46.75552" lon="5.67653">
        <ele>367.3</ele>
        <time>2019-11-26T11:20:23Z</time>
      </trkpt>
      <trkpt lat="46.75573" lon="5.67659">
        <ele>361.9</ele>
        <time>2019-11-26T11:20:42Z</time>
      </trkpt>
      <trkpt lat="46.75579" lon="5.67659">
        <ele>361.8</ele>
        <time>2019-11-26T11:20:45Z</time>
      </trkpt>
      <trkpt lat="46.75587" lon="5.67659">
        <ele>361.6</ele>
        <time>2019-11-26T11:20:48Z</time>
      </trkpt>
      <trkpt lat="46.75592" lon="5.67658">
        <ele>361.5</ele>
        <time>2019-11-26T11:20:51Z</time>
      </trkpt>
      <trkpt lat="46.75597" lon="5.67656">
        <ele>361.5</ele>
        <time>2019-11-26T11:20:54Z</time>
      </trkpt>
      <trkpt lat="46.75602" lon="5.67652">
        <ele>362.2</ele>
        <time>2019-11-26T11:20:58Z</time>
      </trkpt>
      <trkpt lat="46.75606" lon="5.67647">
        <ele>362.7</ele>
        <time>2019-11-26T11:21:00Z</time>
      </trkpt>
      <trkpt lat="46.7561" lon="5.67642">
        <ele>363.6</ele>
        <time>2019-11-26T11:21:03Z</time>
      </trkpt>
      <trkpt lat="46.75613" lon="5.67633">
        <ele>364.7</ele>
        <time>2019-11-26T11:21:07Z</time>
      </trkpt>
      <trkpt lat="46.75615" lon="5.67628">
        <ele>365.3</ele>
        <time>2019-11-26T11:21:09Z</time>
      </trkpt>
      <trkpt lat="46.75618" lon="5.6762">
        <ele>366.1</ele>
        <time>2019-11-26T11:21:12Z</time>
      </trkpt>
      <trkpt lat="46.75617" lon="5.67613">
        <ele>367.3</ele>
        <time>2019-11-26T11:21:18Z</time>
      </trkpt>
      <trkpt lat="46.75612" lon="5.67611">
        <ele>368.6</ele>
        <time>2019-11-26T11:21:25Z</time>
      </trkpt>
      <trkpt lat="46.75608" lon="5.67609">
        <ele>369.7</ele>
        <time>2019-11-26T11:21:30Z</time>
      </trkpt>
      <trkpt lat="46.75603" lon="5.67608">
        <ele>370.8</ele>
        <time>2019-11-26T11:21:35Z</time>
      </trkpt>
      <trkpt lat="46.75598" lon="5.67607">
        <ele>371.4</ele>
        <time>2019-11-26T11:21:40Z</time>
      </trkpt>
      <trkpt lat="46.75593" lon="5.67607">
        <ele>371.5</ele>
        <time>2019-11-26T11:21:45Z</time>
      </trkpt>
      <trkpt lat="46.75589" lon="5.67605">
        <ele>371.8</ele>
        <time>2019-11-26T11:21:49Z</time>
      </trkpt>
      <trkpt lat="46.75579" lon="5.676">
        <ele>373.8</ele>
        <time>2019-11-26T11:21:58Z</time>
      </trkpt>
      <trkpt lat="46.75574" lon="5.67597">
        <ele>374.3</ele>
        <time>2019-11-26T11:22:02Z</time>
      </trkpt>
      <trkpt lat="46.75569" lon="5.67595">
        <ele>374.9</ele>
        <time>2019-11-26T11:22:05Z</time>
      </trkpt>
      <trkpt lat="46.75564" lon="5.67594">
        <ele>375.7</ele>
        <time>2019-11-26T11:22:09Z</time>
      </trkpt>
      <trkpt lat="46.75559" lon="5.67591">
        <ele>376.7</ele>
        <time>2019-11-26T11:22:13Z</time>
      </trkpt>
      <trkpt lat="46.75555" lon="5.67589">
        <ele>377.8</ele>
        <time>2019-11-26T11:22:17Z</time>
      </trkpt>
      <trkpt lat="46.7555" lon="5.67586">
        <ele>378.9</ele>
        <time>2019-11-26T11:22:22Z</time>
      </trkpt>
      <trkpt lat="46.75545" lon="5.67582">
        <ele>379.7</ele>
        <time>2019-11-26T11:22:26Z</time>
      </trkpt>
      <trkpt lat="46.7554" lon="5.67579">
        <ele>380.2</ele>
        <time>2019-11-26T11:22:29Z</time>
      </trkpt>
      <trkpt lat="46.75536" lon="5.67576">
        <ele>380.7</ele>
        <time>2019-11-26T11:22:32Z</time>
      </trkpt>
      <trkpt lat="46.75531" lon="5.67572">
        <ele>381.3</ele>
        <time>2019-11-26T11:22:36Z</time>
      </trkpt>
      <trkpt lat="46.75526" lon="5.6757">
        <ele>382.2</ele>
        <time>2019-11-26T11:22:41Z</time>
      </trkpt>
      <trkpt lat="46.75521" lon="5.67571">
        <ele>383.8</ele>
        <time>2019-11-26T11:22:48Z</time>
      </trkpt>
      <trkpt lat="46.75515" lon="5.6757">
        <ele>384.4</ele>
        <time>2019-11-26T11:22:54Z</time>
      </trkpt>
      <trkpt lat="46.7551" lon="5.67568">
        <ele>384.2</ele>
        <time>2019-11-26T11:22:59Z</time>
      </trkpt>
      <trkpt lat="46.75505" lon="5.67566">
        <ele>383.6</ele>
        <time>2019-11-26T11:23:04Z</time>
      </trkpt>
      <trkpt lat="46.755" lon="5.67561">
        <ele>383.2</ele>
        <time>2019-11-26T11:23:09Z</time>
      </trkpt>
      <trkpt lat="46.75496" lon="5.67556">
        <ele>383.4</ele>
        <time>2019-11-26T11:23:15Z</time>
      </trkpt>
      <trkpt lat="46.75492" lon="5.67551">
        <ele>384.1</ele>
        <time>2019-11-26T11:23:18Z</time>
      </trkpt>
      <trkpt lat="46.75488" lon="5.67546">
        <ele>385.5</ele>
        <time>2019-11-26T11:23:23Z</time>
      </trkpt>
      <trkpt lat="46.75485" lon="5.67541">
        <ele>386.1</ele>
        <time>2019-11-26T11:23:25Z</time>
      </trkpt>
      <trkpt lat="46.75481" lon="5.67536">
        <ele>386.9</ele>
        <time>2019-11-26T11:23:28Z</time>
      </trkpt>
      <trkpt lat="46.75477" lon="5.67531">
        <ele>387.5</ele>
        <time>2019-11-26T11:23:31Z</time>
      </trkpt>
      <trkpt lat="46.75474" lon="5.67526">
        <ele>388</ele>
        <time>2019-11-26T11:23:35Z</time>
      </trkpt>
      <trkpt lat="46.75471" lon="5.67521">
        <ele>388.3</ele>
        <time>2019-11-26T11:23:42Z</time>
      </trkpt>
      <trkpt lat="46.75468" lon="5.67515">
        <ele>387.1</ele>
        <time>2019-11-26T11:23:49Z</time>
      </trkpt>
      <trkpt lat="46.75464" lon="5.67511">
        <ele>385</ele>
        <time>2019-11-26T11:23:55Z</time>
      </trkpt>
      <trkpt lat="46.75461" lon="5.67505">
        <ele>382.8</ele>
        <time>2019-11-26T11:24:01Z</time>
      </trkpt>
      <trkpt lat="46.75457" lon="5.67501">
        <ele>381.2</ele>
        <time>2019-11-26T11:24:06Z</time>
      </trkpt>
      <trkpt lat="46.75451" lon="5.675">
        <ele>380.2</ele>
        <time>2019-11-26T11:24:10Z</time>
      </trkpt>
      <trkpt lat="46.75446" lon="5.67498">
        <ele>379.6</ele>
        <time>2019-11-26T11:24:14Z</time>
      </trkpt>
      <trkpt lat="46.75441" lon="5.67497">
        <ele>379.2</ele>
        <time>2019-11-26T11:24:18Z</time>
      </trkpt>
      <trkpt lat="46.75431" lon="5.67487">
        <ele>376.9</ele>
        <time>2019-11-26T11:24:32Z</time>
      </trkpt>
      <trkpt lat="46.75419" lon="5.67477">
        <ele>369.3</ele>
        <time>2019-11-26T11:24:47Z</time>
      </trkpt>
      <trkpt lat="46.75414" lon="5.67476">
        <ele>367.9</ele>
        <time>2019-11-26T11:24:51Z</time>
      </trkpt>
      <trkpt lat="46.75409" lon="5.67475">
        <ele>366.9</ele>
        <time>2019-11-26T11:24:54Z</time>
      </trkpt>
      <trkpt lat="46.75405" lon="5.67472">
        <ele>365.5</ele>
        <time>2019-11-26T11:24:58Z</time>
      </trkpt>
      <trkpt lat="46.75401" lon="5.67471">
        <ele>364.2</ele>
        <time>2019-11-26T11:25:02Z</time>
      </trkpt>
      <trkpt lat="46.75396" lon="5.67471">
        <ele>363.3</ele>
        <time>2019-11-26T11:25:05Z</time>
      </trkpt>
      <trkpt lat="46.75392" lon="5.67471">
        <ele>362.6</ele>
        <time>2019-11-26T11:25:08Z</time>
      </trkpt>
      <trkpt lat="46.75387" lon="5.6747">
        <ele>362</ele>
        <time>2019-11-26T11:25:11Z</time>
      </trkpt>
      <trkpt lat="46.75382" lon="5.67468">
        <ele>361.7</ele>
        <time>2019-11-26T11:25:14Z</time>
      </trkpt>
      <trkpt lat="46.75377" lon="5.67466">
        <ele>361.6</ele>
        <time>2019-11-26T11:25:18Z</time>
      </trkpt>
      <trkpt lat="46.75372" lon="5.67464">
        <ele>361.5</ele>
        <time>2019-11-26T11:25:22Z</time>
      </trkpt>
      <trkpt lat="46.75368" lon="5.67462">
        <ele>361.5</ele>
        <time>2019-11-26T11:25:26Z</time>
      </trkpt>
      <trkpt lat="46.75364" lon="5.67458">
        <ele>361.2</ele>
        <time>2019-11-26T11:25:30Z</time>
      </trkpt>
      <trkpt lat="46.7536" lon="5.67454">
        <ele>360.8</ele>
        <time>2019-11-26T11:25:34Z</time>
      </trkpt>
      <trkpt lat="46.75355" lon="5.6745">
        <ele>360</ele>
        <time>2019-11-26T11:25:39Z</time>
      </trkpt>
      <trkpt lat="46.75352" lon="5.67444">
        <ele>359.4</ele>
        <time>2019-11-26T11:25:43Z</time>
      </trkpt>
      <trkpt lat="46.75347" lon="5.67439">
        <ele>358.8</ele>
        <time>2019-11-26T11:25:47Z</time>
      </trkpt>
      <trkpt lat="46.75343" lon="5.67434">
        <ele>357.7</ele>
        <time>2019-11-26T11:25:53Z</time>
      </trkpt>
      <trkpt lat="46.75339" lon="5.6743">
        <ele>356.5</ele>
        <time>2019-11-26T11:25:59Z</time>
      </trkpt>
      <trkpt lat="46.75335" lon="5.67428">
        <ele>355.6</ele>
        <time>2019-11-26T11:26:03Z</time>
      </trkpt>
      <trkpt lat="46.7533" lon="5.67425">
        <ele>354.7</ele>
        <time>2019-11-26T11:26:08Z</time>
      </trkpt>
      <trkpt lat="46.75324" lon="5.67423">
        <ele>354.1</ele>
        <time>2019-11-26T11:26:12Z</time>
      </trkpt>
      <trkpt lat="46.75319" lon="5.67424">
        <ele>353.6</ele>
        <time>2019-11-26T11:26:16Z</time>
      </trkpt>
      <trkpt lat="46.75314" lon="5.67427">
        <ele>352.9</ele>
        <time>2019-11-26T11:26:21Z</time>
      </trkpt>
      <trkpt lat="46.753" lon="5.67431">
        <ele>351.1</ele>
        <time>2019-11-26T11:26:32Z</time>
      </trkpt>
      <trkpt lat="46.75294" lon="5.67431">
        <ele>350.7</ele>
        <time>2019-11-26T11:26:36Z</time>
      </trkpt>
      <trkpt lat="46.75289" lon="5.6743">
        <ele>350.3</ele>
        <time>2019-11-26T11:26:40Z</time>
      </trkpt>
      <trkpt lat="46.75284" lon="5.6743">
        <ele>350</ele>
        <time>2019-11-26T11:26:43Z</time>
      </trkpt>
      <trkpt lat="46.75279" lon="5.67429">
        <ele>349.7</ele>
        <time>2019-11-26T11:26:47Z</time>
      </trkpt>
      <trkpt lat="46.75274" lon="5.67427">
        <ele>349.2</ele>
        <time>2019-11-26T11:26:52Z</time>
      </trkpt>
      <trkpt lat="46.7527" lon="5.67423">
        <ele>348.7</ele>
        <time>2019-11-26T11:26:57Z</time>
      </trkpt>
      <trkpt lat="46.75266" lon="5.67419">
        <ele>348.4</ele>
        <time>2019-11-26T11:27:01Z</time>
      </trkpt>
      <trkpt lat="46.75261" lon="5.67416">
        <ele>348.2</ele>
        <time>2019-11-26T11:27:05Z</time>
      </trkpt>
      <trkpt lat="46.75257" lon="5.67413">
        <ele>348.2</ele>
        <time>2019-11-26T11:27:09Z</time>
      </trkpt>
      <trkpt lat="46.75252" lon="5.6741">
        <ele>348</ele>
        <time>2019-11-26T11:27:13Z</time>
      </trkpt>
      <trkpt lat="46.75248" lon="5.67408">
        <ele>347.7</ele>
        <time>2019-11-26T11:27:17Z</time>
      </trkpt>
      <trkpt lat="46.75243" lon="5.67407">
        <ele>347</ele>
        <time>2019-11-26T11:27:21Z</time>
      </trkpt>
      <trkpt lat="46.75238" lon="5.67406">
        <ele>346.2</ele>
        <time>2019-11-26T11:27:25Z</time>
      </trkpt>
      <trkpt lat="46.75233" lon="5.67406">
        <ele>345</ele>
        <time>2019-11-26T11:27:30Z</time>
      </trkpt>
      <trkpt lat="46.75228" lon="5.67406">
        <ele>342.9</ele>
        <time>2019-11-26T11:27:37Z</time>
      </trkpt>
      <trkpt lat="46.75223" lon="5.67407">
        <ele>341.2</ele>
        <time>2019-11-26T11:27:42Z</time>
      </trkpt>
      <trkpt lat="46.75217" lon="5.67407">
        <ele>339.2</ele>
        <time>2019-11-26T11:27:47Z</time>
      </trkpt>
      <trkpt lat="46.75212" lon="5.67405">
        <ele>336.5</ele>
        <time>2019-11-26T11:27:53Z</time>
      </trkpt>
      <trkpt lat="46.75207" lon="5.67404">
        <ele>334.6</ele>
        <time>2019-11-26T11:27:58Z</time>
      </trkpt>
      <trkpt lat="46.75202" lon="5.67402">
        <ele>333.3</ele>
        <time>2019-11-26T11:28:02Z</time>
      </trkpt>
      <trkpt lat="46.75198" lon="5.67401">
        <ele>332.3</ele>
        <time>2019-11-26T11:28:06Z</time>
      </trkpt>
      <trkpt lat="46.75183" lon="5.674">
        <ele>330.4</ele>
        <time>2019-11-26T11:28:17Z</time>
      </trkpt>
      <trkpt lat="46.75178" lon="5.67401">
        <ele>330.6</ele>
        <time>2019-11-26T11:28:20Z</time>
      </trkpt>
      <trkpt lat="46.75174" lon="5.67402">
        <ele>330.8</ele>
        <time>2019-11-26T11:28:23Z</time>
      </trkpt>
      <trkpt lat="46.75168" lon="5.67405">
        <ele>331.2</ele>
        <time>2019-11-26T11:28:26Z</time>
      </trkpt>
      <trkpt lat="46.75163" lon="5.67404">
        <ele>331.7</ele>
        <time>2019-11-26T11:28:30Z</time>
      </trkpt>
      <trkpt lat="46.75158" lon="5.67403">
        <ele>332.4</ele>
        <time>2019-11-26T11:28:34Z</time>
      </trkpt>
      <trkpt lat="46.75153" lon="5.67401">
        <ele>333</ele>
        <time>2019-11-26T11:28:38Z</time>
      </trkpt>
      <trkpt lat="46.75147" lon="5.67399">
        <ele>333.6</ele>
        <time>2019-11-26T11:28:42Z</time>
      </trkpt>
      <trkpt lat="46.75135" lon="5.67394">
        <ele>335.8</ele>
        <time>2019-11-26T11:28:52Z</time>
      </trkpt>
      <trkpt lat="46.7513" lon="5.67391">
        <ele>336.2</ele>
        <time>2019-11-26T11:28:56Z</time>
      </trkpt>
      <trkpt lat="46.75126" lon="5.67388">
        <ele>336.7</ele>
        <time>2019-11-26T11:29:01Z</time>
      </trkpt>
      <trkpt lat="46.75121" lon="5.67387">
        <ele>336.8</ele>
        <time>2019-11-26T11:29:06Z</time>
      </trkpt>
      <trkpt lat="46.75116" lon="5.67386">
        <ele>336.5</ele>
        <time>2019-11-26T11:29:11Z</time>
      </trkpt>
      <trkpt lat="46.75111" lon="5.67383">
        <ele>335.8</ele>
        <time>2019-11-26T11:29:16Z</time>
      </trkpt>
      <trkpt lat="46.75106" lon="5.67382">
        <ele>335.3</ele>
        <time>2019-11-26T11:29:20Z</time>
      </trkpt>
      <trkpt lat="46.75103" lon="5.67377">
        <ele>334.8</ele>
        <time>2019-11-26T11:29:24Z</time>
      </trkpt>
      <trkpt lat="46.75099" lon="5.67372">
        <ele>334.1</ele>
        <time>2019-11-26T11:29:28Z</time>
      </trkpt>
      <trkpt lat="46.75095" lon="5.6737">
        <ele>333.7</ele>
        <time>2019-11-26T11:29:32Z</time>
      </trkpt>
      <trkpt lat="46.75089" lon="5.6737">
        <ele>333.8</ele>
        <time>2019-11-26T11:29:36Z</time>
      </trkpt>
      <trkpt lat="46.75084" lon="5.6737">
        <ele>334.2</ele>
        <time>2019-11-26T11:29:40Z</time>
      </trkpt>
      <trkpt lat="46.75079" lon="5.67367">
        <ele>334.7</ele>
        <time>2019-11-26T11:29:45Z</time>
      </trkpt>
      <trkpt lat="46.75075" lon="5.67366">
        <ele>335.1</ele>
        <time>2019-11-26T11:29:49Z</time>
      </trkpt>
      <trkpt lat="46.7507" lon="5.67366">
        <ele>335.4</ele>
        <time>2019-11-26T11:29:54Z</time>
      </trkpt>
      <trkpt lat="46.75065" lon="5.67365">
        <ele>335.5</ele>
        <time>2019-11-26T11:29:59Z</time>
      </trkpt>
      <trkpt lat="46.75061" lon="5.67364">
        <ele>334.9</ele>
        <time>2019-11-26T11:30:05Z</time>
      </trkpt>
      <trkpt lat="46.75055" lon="5.67362">
        <ele>334.1</ele>
        <time>2019-11-26T11:30:10Z</time>
      </trkpt>
      <trkpt lat="46.75043" lon="5.67361">
        <ele>332.5</ele>
        <time>2019-11-26T11:30:20Z</time>
      </trkpt>
      <trkpt lat="46.75038" lon="5.67359">
        <ele>332</ele>
        <time>2019-11-26T11:30:25Z</time>
      </trkpt>
      <trkpt lat="46.75033" lon="5.67358">
        <ele>331.7</ele>
        <time>2019-11-26T11:30:32Z</time>
      </trkpt>
      <trkpt lat="46.75029" lon="5.67359">
        <ele>331.3</ele>
        <time>2019-11-26T11:30:37Z</time>
      </trkpt>
      <trkpt lat="46.75025" lon="5.67363">
        <ele>331</ele>
        <time>2019-11-26T11:30:41Z</time>
      </trkpt>
      <trkpt lat="46.7502" lon="5.67364">
        <ele>330.7</ele>
        <time>2019-11-26T11:30:45Z</time>
      </trkpt>
      <trkpt lat="46.75015" lon="5.67368">
        <ele>330.6</ele>
        <time>2019-11-26T11:30:49Z</time>
      </trkpt>
      <trkpt lat="46.75011" lon="5.67372">
        <ele>330.3</ele>
        <time>2019-11-26T11:30:53Z</time>
      </trkpt>
      <trkpt lat="46.75007" lon="5.67378">
        <ele>330.1</ele>
        <time>2019-11-26T11:30:57Z</time>
      </trkpt>
      <trkpt lat="46.75003" lon="5.67381">
        <ele>329.8</ele>
        <time>2019-11-26T11:31:01Z</time>
      </trkpt>
      <trkpt lat="46.74998" lon="5.67384">
        <ele>329.2</ele>
        <time>2019-11-26T11:31:06Z</time>
      </trkpt>
      <trkpt lat="46.74994" lon="5.67387">
        <ele>328.5</ele>
        <time>2019-11-26T11:31:11Z</time>
      </trkpt>
      <trkpt lat="46.74989" lon="5.67389">
        <ele>327.3</ele>
        <time>2019-11-26T11:31:17Z</time>
      </trkpt>
      <trkpt lat="46.74985" lon="5.67392">
        <ele>326</ele>
        <time>2019-11-26T11:31:22Z</time>
      </trkpt>
      <trkpt lat="46.7498" lon="5.67396">
        <ele>324.2</ele>
        <time>2019-11-26T11:31:28Z</time>
      </trkpt>
      <trkpt lat="46.74978" lon="5.67401">
        <ele>323.1</ele>
        <time>2019-11-26T11:31:32Z</time>
      </trkpt>
      <trkpt lat="46.74975" lon="5.67409">
        <ele>322.6</ele>
        <time>2019-11-26T11:31:35Z</time>
      </trkpt>
      <trkpt lat="46.74972" lon="5.67416">
        <ele>322.3</ele>
        <time>2019-11-26T11:31:38Z</time>
      </trkpt>
      <trkpt lat="46.74967" lon="5.67414">
        <ele>321.5</ele>
        <time>2019-11-26T11:31:49Z</time>
      </trkpt>
      <trkpt lat="46.74966" lon="5.6742">
        <ele>321.2</ele>
        <time>2019-11-26T11:32:17Z</time>
      </trkpt>
      <trkpt lat="46.74965" lon="5.67427">
        <ele>321.3</ele>
        <time>2019-11-26T11:32:27Z</time>
      </trkpt>
      <trkpt lat="46.74957" lon="5.67447">
        <ele>320</ele>
        <time>2019-11-26T11:32:42Z</time>
      </trkpt>
      <trkpt lat="46.74954" lon="5.67453">
        <ele>320.1</ele>
        <time>2019-11-26T11:32:46Z</time>
      </trkpt>
      <trkpt lat="46.7495" lon="5.67456">
        <ele>320.2</ele>
        <time>2019-11-26T11:32:50Z</time>
      </trkpt>
      <trkpt lat="46.74945" lon="5.67454">
        <ele>320</ele>
        <time>2019-11-26T11:32:55Z</time>
      </trkpt>
      <trkpt lat="46.74941" lon="5.67448">
        <ele>319.5</ele>
        <time>2019-11-26T11:32:59Z</time>
      </trkpt>
      <trkpt lat="46.74938" lon="5.67441">
        <ele>318.8</ele>
        <time>2019-11-26T11:33:03Z</time>
      </trkpt>
      <trkpt lat="46.74937" lon="5.67434">
        <ele>318.1</ele>
        <time>2019-11-26T11:33:07Z</time>
      </trkpt>
      <trkpt lat="46.74936" lon="5.67412">
        <ele>316.7</ele>
        <time>2019-11-26T11:33:16Z</time>
      </trkpt>
      <trkpt lat="46.74937" lon="5.67404">
        <ele>316.9</ele>
        <time>2019-11-26T11:33:21Z</time>
      </trkpt>
      <trkpt lat="46.74934" lon="5.67396">
        <ele>317</ele>
        <time>2019-11-26T11:33:24Z</time>
      </trkpt>
      <trkpt lat="46.74933" lon="5.67389">
        <ele>317.1</ele>
        <time>2019-11-26T11:33:26Z</time>
      </trkpt>
      <trkpt lat="46.74932" lon="5.67382">
        <ele>317.2</ele>
        <time>2019-11-26T11:33:54Z</time>
      </trkpt>
      <trkpt lat="46.74935" lon="5.67349">
        <ele>310.7</ele>
        <time>2019-11-26T11:34:29Z</time>
      </trkpt>
      <trkpt lat="46.74936" lon="5.67341">
        <ele>310</ele>
        <time>2019-11-26T11:34:32Z</time>
      </trkpt>
      <trkpt lat="46.74936" lon="5.67333">
        <ele>309.4</ele>
        <time>2019-11-26T11:34:37Z</time>
      </trkpt>
      <trkpt lat="46.74937" lon="5.67307">
        <ele>305.9</ele>
        <time>2019-11-26T11:34:54Z</time>
      </trkpt>
      <trkpt lat="46.74937" lon="5.67299">
        <ele>306.5</ele>
        <time>2019-11-26T11:34:57Z</time>
      </trkpt>
      <trkpt lat="46.74937" lon="5.67291">
        <ele>307.8</ele>
        <time>2019-11-26T11:35:01Z</time>
      </trkpt>
      <trkpt lat="46.74936" lon="5.67284">
        <ele>308.9</ele>
        <time>2019-11-26T11:35:04Z</time>
      </trkpt>
      <trkpt lat="46.74935" lon="5.67276">
        <ele>310.2</ele>
        <time>2019-11-26T11:35:07Z</time>
      </trkpt>
      <trkpt lat="46.74934" lon="5.67269">
        <ele>312</ele>
        <time>2019-11-26T11:35:11Z</time>
      </trkpt>
      <trkpt lat="46.74934" lon="5.67261">
        <ele>313.4</ele>
        <time>2019-11-26T11:35:14Z</time>
      </trkpt>
      <trkpt lat="46.74935" lon="5.67254">
        <ele>315.4</ele>
        <time>2019-11-26T11:35:19Z</time>
      </trkpt>
      <trkpt lat="46.74935" lon="5.67247">
        <ele>318</ele>
        <time>2019-11-26T11:35:26Z</time>
      </trkpt>
      <trkpt lat="46.74925" lon="5.67216">
        <ele>320.4</ele>
        <time>2019-11-26T11:35:50Z</time>
      </trkpt>
      <trkpt lat="46.74922" lon="5.67211">
        <ele>320.6</ele>
        <time>2019-11-26T11:35:54Z</time>
      </trkpt>
      <trkpt lat="46.74918" lon="5.67205">
        <ele>320.9</ele>
        <time>2019-11-26T11:35:58Z</time>
      </trkpt>
      <trkpt lat="46.74914" lon="5.67199">
        <ele>321.3</ele>
        <time>2019-11-26T11:36:02Z</time>
      </trkpt>
      <trkpt lat="46.74911" lon="5.67193">
        <ele>321.8</ele>
        <time>2019-11-26T11:36:06Z</time>
      </trkpt>
      <trkpt lat="46.74907" lon="5.67186">
        <ele>322.4</ele>
        <time>2019-11-26T11:36:10Z</time>
      </trkpt>
      <trkpt lat="46.74905" lon="5.67179">
        <ele>322.7</ele>
        <time>2019-11-26T11:36:13Z</time>
      </trkpt>
      <trkpt lat="46.74902" lon="5.67174">
        <ele>322.5</ele>
        <time>2019-11-26T11:36:17Z</time>
      </trkpt>
      <trkpt lat="46.74899" lon="5.67167">
        <ele>321.7</ele>
        <time>2019-11-26T11:36:22Z</time>
      </trkpt>
      <trkpt lat="46.74898" lon="5.6716">
        <ele>321.1</ele>
        <time>2019-11-26T11:36:25Z</time>
      </trkpt>
      <trkpt lat="46.74898" lon="5.67153">
        <ele>320.3</ele>
        <time>2019-11-26T11:36:29Z</time>
      </trkpt>
      <trkpt lat="46.749" lon="5.67144">
        <ele>320.1</ele>
        <time>2019-11-26T11:36:33Z</time>
      </trkpt>
      <trkpt lat="46.74901" lon="5.67136">
        <ele>320.3</ele>
        <time>2019-11-26T11:36:36Z</time>
      </trkpt>
      <trkpt lat="46.74903" lon="5.67129">
        <ele>320.7</ele>
        <time>2019-11-26T11:36:40Z</time>
      </trkpt>
      <trkpt lat="46.74906" lon="5.67124">
        <ele>321.4</ele>
        <time>2019-11-26T11:36:44Z</time>
      </trkpt>
      <trkpt lat="46.7491" lon="5.6712">
        <ele>322.2</ele>
        <time>2019-11-26T11:36:48Z</time>
      </trkpt>
      <trkpt lat="46.74913" lon="5.67116">
        <ele>322.6</ele>
        <time>2019-11-26T11:36:51Z</time>
      </trkpt>
      <trkpt lat="46.74917" lon="5.67112">
        <ele>323.2</ele>
        <time>2019-11-26T11:36:58Z</time>
      </trkpt>
      <trkpt lat="46.74914" lon="5.67106">
        <ele>323.3</ele>
        <time>2019-11-26T11:37:03Z</time>
      </trkpt>
      <trkpt lat="46.7491" lon="5.67101">
        <ele>323.4</ele>
        <time>2019-11-26T11:37:08Z</time>
      </trkpt>
      <trkpt lat="46.74907" lon="5.67096">
        <ele>323.6</ele>
        <time>2019-11-26T11:37:12Z</time>
      </trkpt>
      <trkpt lat="46.74902" lon="5.67092">
        <ele>323.8</ele>
        <time>2019-11-26T11:37:16Z</time>
      </trkpt>
      <trkpt lat="46.74898" lon="5.67088">
        <ele>323.9</ele>
        <time>2019-11-26T11:37:21Z</time>
      </trkpt>
      <trkpt lat="46.74894" lon="5.67083">
        <ele>323.5</ele>
        <time>2019-11-26T11:37:26Z</time>
      </trkpt>
      <trkpt lat="46.74891" lon="5.67078">
        <ele>323</ele>
        <time>2019-11-26T11:37:30Z</time>
      </trkpt>
      <trkpt lat="46.74889" lon="5.67072">
        <ele>322.6</ele>
        <time>2019-11-26T11:37:34Z</time>
      </trkpt>
      <trkpt lat="46.74883" lon="5.6705">
        <ele>322.9</ele>
        <time>2019-11-26T11:37:45Z</time>
      </trkpt>
      <trkpt lat="46.7488" lon="5.67044">
        <ele>323.2</ele>
        <time>2019-11-26T11:37:49Z</time>
      </trkpt>
      <trkpt lat="46.74876" lon="5.67039">
        <ele>323.5</ele>
        <time>2019-11-26T11:37:53Z</time>
      </trkpt>
      <trkpt lat="46.74875" lon="5.67033">
        <ele>323.4</ele>
        <time>2019-11-26T11:37:55Z</time>
      </trkpt>
      <trkpt lat="46.74874" lon="5.67024">
        <ele>323.3</ele>
        <time>2019-11-26T11:37:58Z</time>
      </trkpt>
      <trkpt lat="46.74872" lon="5.67016">
        <ele>323</ele>
        <time>2019-11-26T11:38:01Z</time>
      </trkpt>
      <trkpt lat="46.74868" lon="5.67011">
        <ele>322.9</ele>
        <time>2019-11-26T11:38:05Z</time>
      </trkpt>
      <trkpt lat="46.74864" lon="5.67006">
        <ele>322.7</ele>
        <time>2019-11-26T11:38:10Z</time>
      </trkpt>
      <trkpt lat="46.74862" lon="5.66999">
        <ele>322.5</ele>
        <time>2019-11-26T11:38:16Z</time>
      </trkpt>
      <trkpt lat="46.74855" lon="5.66988">
        <ele>322</ele>
        <time>2019-11-26T11:38:34Z</time>
      </trkpt>
      <trkpt lat="46.74858" lon="5.66994">
        <ele>321.6</ele>
        <time>2019-11-26T11:38:50Z</time>
      </trkpt>
      <trkpt lat="46.74861" lon="5.67">
        <ele>321.4</ele>
        <time>2019-11-26T11:38:55Z</time>
      </trkpt>
      <trkpt lat="46.74857" lon="5.66996">
        <ele>321</ele>
        <time>2019-11-26T11:39:13Z</time>
      </trkpt>
      <trkpt lat="46.74855" lon="5.66989">
        <ele>320.5</ele>
        <time>2019-11-26T11:39:20Z</time>
      </trkpt>
      <trkpt lat="46.74853" lon="5.66984">
        <ele>319.6</ele>
        <time>2019-11-26T11:39:26Z</time>
      </trkpt>
      <trkpt lat="46.74849" lon="5.66977">
        <ele>318.6</ele>
        <time>2019-11-26T11:39:31Z</time>
      </trkpt>
      <trkpt lat="46.74845" lon="5.66959">
        <ele>316</ele>
        <time>2019-11-26T11:39:40Z</time>
      </trkpt>
      <trkpt lat="46.74847" lon="5.66963">
        <ele>315.3</ele>
        <time>2019-11-26T11:40:03Z</time>
      </trkpt>
      <trkpt lat="46.7485" lon="5.66971">
        <ele>315.1</ele>
        <time>2019-11-26T11:40:06Z</time>
      </trkpt>
      <trkpt lat="46.74852" lon="5.66978">
        <ele>314.9</ele>
        <time>2019-11-26T11:40:10Z</time>
      </trkpt>
      <trkpt lat="46.74854" lon="5.66984">
        <ele>314.9</ele>
        <time>2019-11-26T11:40:13Z</time>
      </trkpt>
      <trkpt lat="46.74855" lon="5.66991">
        <ele>314.8</ele>
        <time>2019-11-26T11:40:16Z</time>
      </trkpt>
      <trkpt lat="46.74857" lon="5.66998">
        <ele>314.8</ele>
        <time>2019-11-26T11:40:20Z</time>
      </trkpt>
      <trkpt lat="46.74858" lon="5.67004">
        <ele>314.6</ele>
        <time>2019-11-26T11:40:25Z</time>
      </trkpt>
      <trkpt lat="46.74855" lon="5.66999">
        <ele>313.8</ele>
        <time>2019-11-26T11:40:39Z</time>
      </trkpt>
      <trkpt lat="46.74852" lon="5.66991">
        <ele>313.7</ele>
        <time>2019-11-26T11:40:54Z</time>
      </trkpt>
      <trkpt lat="46.74848" lon="5.66989">
        <ele>315.9</ele>
        <time>2019-11-26T11:41:51Z</time>
      </trkpt>
      <trkpt lat="46.74844" lon="5.66985">
        <ele>317</ele>
        <time>2019-11-26T11:42:03Z</time>
      </trkpt>
      <trkpt lat="46.74852" lon="5.66974">
        <ele>322.6</ele>
        <time>2019-11-26T12:16:19Z</time>
      </trkpt>
      <trkpt lat="46.74853" lon="5.66967">
        <ele>321.9</ele>
        <time>2019-11-26T12:16:22Z</time>
      </trkpt>
      <trkpt lat="46.74852" lon="5.66959">
        <ele>321</ele>
        <time>2019-11-26T12:16:26Z</time>
      </trkpt>
      <trkpt lat="46.7485" lon="5.66953">
        <ele>320.7</ele>
        <time>2019-11-26T12:16:29Z</time>
      </trkpt>
      <trkpt lat="46.74849" lon="5.66946">
        <ele>321.2</ele>
        <time>2019-11-26T12:16:35Z</time>
      </trkpt>
      <trkpt lat="46.74846" lon="5.66941">
        <ele>322</ele>
        <time>2019-11-26T12:16:38Z</time>
      </trkpt>
      <trkpt lat="46.74843" lon="5.66935">
        <ele>323</ele>
        <time>2019-11-26T12:16:41Z</time>
      </trkpt>
      <trkpt lat="46.74841" lon="5.66928">
        <ele>324.7</ele>
        <time>2019-11-26T12:16:45Z</time>
      </trkpt>
      <trkpt lat="46.74838" lon="5.66921">
        <ele>326.5</ele>
        <time>2019-11-26T12:16:49Z</time>
      </trkpt>
      <trkpt lat="46.74835" lon="5.66915">
        <ele>328.9</ele>
        <time>2019-11-26T12:16:58Z</time>
      </trkpt>
      <trkpt lat="46.74831" lon="5.66912">
        <ele>328.4</ele>
        <time>2019-11-26T12:17:03Z</time>
      </trkpt>
      <trkpt lat="46.74828" lon="5.66907">
        <ele>326.5</ele>
        <time>2019-11-26T12:17:12Z</time>
      </trkpt>
      <trkpt lat="46.74824" lon="5.66902">
        <ele>325.9</ele>
        <time>2019-11-26T12:17:17Z</time>
      </trkpt>
      <trkpt lat="46.74821" lon="5.66897">
        <ele>325.8</ele>
        <time>2019-11-26T12:17:21Z</time>
      </trkpt>
      <trkpt lat="46.74816" lon="5.66893">
        <ele>325.9</ele>
        <time>2019-11-26T12:17:26Z</time>
      </trkpt>
      <trkpt lat="46.74812" lon="5.6689">
        <ele>325.9</ele>
        <time>2019-11-26T12:17:30Z</time>
      </trkpt>
      <trkpt lat="46.7481" lon="5.66885">
        <ele>325.4</ele>
        <time>2019-11-26T12:17:34Z</time>
      </trkpt>
      <trkpt lat="46.74808" lon="5.66878">
        <ele>324.5</ele>
        <time>2019-11-26T12:17:38Z</time>
      </trkpt>
      <trkpt lat="46.74807" lon="5.66869">
        <ele>323.3</ele>
        <time>2019-11-26T12:17:42Z</time>
      </trkpt>
      <trkpt lat="46.74806" lon="5.66863">
        <ele>322.1</ele>
        <time>2019-11-26T12:17:46Z</time>
      </trkpt>
      <trkpt lat="46.74802" lon="5.66857">
        <ele>320.4</ele>
        <time>2019-11-26T12:17:52Z</time>
      </trkpt>
      <trkpt lat="46.74798" lon="5.66855">
        <ele>319.5</ele>
        <time>2019-11-26T12:17:55Z</time>
      </trkpt>
      <trkpt lat="46.74794" lon="5.66851">
        <ele>318.6</ele>
        <time>2019-11-26T12:17:58Z</time>
      </trkpt>
      <trkpt lat="46.74791" lon="5.66845">
        <ele>317.2</ele>
        <time>2019-11-26T12:18:03Z</time>
      </trkpt>
      <trkpt lat="46.74789" lon="5.66838">
        <ele>316.2</ele>
        <time>2019-11-26T12:18:07Z</time>
      </trkpt>
      <trkpt lat="46.74787" lon="5.66831">
        <ele>314.8</ele>
        <time>2019-11-26T12:18:12Z</time>
      </trkpt>
      <trkpt lat="46.74786" lon="5.66823">
        <ele>314.2</ele>
        <time>2019-11-26T12:18:16Z</time>
      </trkpt>
      <trkpt lat="46.74787" lon="5.66816">
        <ele>313.9</ele>
        <time>2019-11-26T12:18:19Z</time>
      </trkpt>
      <trkpt lat="46.74788" lon="5.6681">
        <ele>313.7</ele>
        <time>2019-11-26T12:18:22Z</time>
      </trkpt>
      <trkpt lat="46.74786" lon="5.66803">
        <ele>313.7</ele>
        <time>2019-11-26T12:18:26Z</time>
      </trkpt>
      <trkpt lat="46.74784" lon="5.66797">
        <ele>313.9</ele>
        <time>2019-11-26T12:18:30Z</time>
      </trkpt>
      <trkpt lat="46.7478" lon="5.66791">
        <ele>314.4</ele>
        <time>2019-11-26T12:18:34Z</time>
      </trkpt>
      <trkpt lat="46.74776" lon="5.66785">
        <ele>315.2</ele>
        <time>2019-11-26T12:18:39Z</time>
      </trkpt>
      <trkpt lat="46.74774" lon="5.6678">
        <ele>315.7</ele>
        <time>2019-11-26T12:18:43Z</time>
      </trkpt>
      <trkpt lat="46.74772" lon="5.66773">
        <ele>316.4</ele>
        <time>2019-11-26T12:18:46Z</time>
      </trkpt>
      <trkpt lat="46.74769" lon="5.66766">
        <ele>317.2</ele>
        <time>2019-11-26T12:18:49Z</time>
      </trkpt>
      <trkpt lat="46.74768" lon="5.66759">
        <ele>318.6</ele>
        <time>2019-11-26T12:18:53Z</time>
      </trkpt>
      <trkpt lat="46.74766" lon="5.66752">
        <ele>320.4</ele>
        <time>2019-11-26T12:19:00Z</time>
      </trkpt>
      <trkpt lat="46.74765" lon="5.66743">
        <ele>321.6</ele>
        <time>2019-11-26T12:19:05Z</time>
      </trkpt>
      <trkpt lat="46.74764" lon="5.66736">
        <ele>322.2</ele>
        <time>2019-11-26T12:19:08Z</time>
      </trkpt>
      <trkpt lat="46.74763" lon="5.66729">
        <ele>322.9</ele>
        <time>2019-11-26T12:19:11Z</time>
      </trkpt>
      <trkpt lat="46.74762" lon="5.66722">
        <ele>323.9</ele>
        <time>2019-11-26T12:19:16Z</time>
      </trkpt>
      <trkpt lat="46.74759" lon="5.66714">
        <ele>323.4</ele>
        <time>2019-11-26T12:19:28Z</time>
      </trkpt>
      <trkpt lat="46.74756" lon="5.66709">
        <ele>322.5</ele>
        <time>2019-11-26T12:19:32Z</time>
      </trkpt>
      <trkpt lat="46.74753" lon="5.66701">
        <ele>322.1</ele>
        <time>2019-11-26T12:19:35Z</time>
      </trkpt>
      <trkpt lat="46.74751" lon="5.66695">
        <ele>322</ele>
        <time>2019-11-26T12:19:37Z</time>
      </trkpt>
      <trkpt lat="46.7475" lon="5.66688">
        <ele>322.1</ele>
        <time>2019-11-26T12:19:40Z</time>
      </trkpt>
      <trkpt lat="46.74749" lon="5.66681">
        <ele>322.5</ele>
        <time>2019-11-26T12:19:43Z</time>
      </trkpt>
      <trkpt lat="46.74749" lon="5.66674">
        <ele>323</ele>
        <time>2019-11-26T12:19:46Z</time>
      </trkpt>
      <trkpt lat="46.74749" lon="5.66666">
        <ele>324.8</ele>
        <time>2019-11-26T12:19:54Z</time>
      </trkpt>
      <trkpt lat="46.74748" lon="5.6666">
        <ele>325.9</ele>
        <time>2019-11-26T12:19:59Z</time>
      </trkpt>
      <trkpt lat="46.74746" lon="5.66652">
        <ele>326.6</ele>
        <time>2019-11-26T12:20:04Z</time>
      </trkpt>
      <trkpt lat="46.74744" lon="5.66645">
        <ele>326.8</ele>
        <time>2019-11-26T12:20:08Z</time>
      </trkpt>
      <trkpt lat="46.74743" lon="5.66636">
        <ele>327</ele>
        <time>2019-11-26T12:20:12Z</time>
      </trkpt>
      <trkpt lat="46.7474" lon="5.66629">
        <ele>327.2</ele>
        <time>2019-11-26T12:20:16Z</time>
      </trkpt>
      <trkpt lat="46.74738" lon="5.66622">
        <ele>327.4</ele>
        <time>2019-11-26T12:20:20Z</time>
      </trkpt>
      <trkpt lat="46.74737" lon="5.66614">
        <ele>327.3</ele>
        <time>2019-11-26T12:20:24Z</time>
      </trkpt>
      <trkpt lat="46.74737" lon="5.66607">
        <ele>327.2</ele>
        <time>2019-11-26T12:20:26Z</time>
      </trkpt>
      <trkpt lat="46.74738" lon="5.66598">
        <ele>327.2</ele>
        <time>2019-11-26T12:20:29Z</time>
      </trkpt>
      <trkpt lat="46.74737" lon="5.66591">
        <ele>327.2</ele>
        <time>2019-11-26T12:20:34Z</time>
      </trkpt>
      <trkpt lat="46.74738" lon="5.66585">
        <ele>327.4</ele>
        <time>2019-11-26T12:20:41Z</time>
      </trkpt>
      <trkpt lat="46.74741" lon="5.66578">
        <ele>327.5</ele>
        <time>2019-11-26T12:20:46Z</time>
      </trkpt>
      <trkpt lat="46.74743" lon="5.66572">
        <ele>327.4</ele>
        <time>2019-11-26T12:20:51Z</time>
      </trkpt>
      <trkpt lat="46.74746" lon="5.66565">
        <ele>327.2</ele>
        <time>2019-11-26T12:20:57Z</time>
      </trkpt>
      <trkpt lat="46.74748" lon="5.66559">
        <ele>326.8</ele>
        <time>2019-11-26T12:21:02Z</time>
      </trkpt>
      <trkpt lat="46.74749" lon="5.66552">
        <ele>326</ele>
        <time>2019-11-26T12:21:06Z</time>
      </trkpt>
      <trkpt lat="46.74751" lon="5.66546">
        <ele>324.6</ele>
        <time>2019-11-26T12:21:11Z</time>
      </trkpt>
      <trkpt lat="46.74755" lon="5.66541">
        <ele>320.2</ele>
        <time>2019-11-26T12:21:22Z</time>
      </trkpt>
      <trkpt lat="46.7476" lon="5.66542">
        <ele>319.7</ele>
        <time>2019-11-26T12:21:25Z</time>
      </trkpt>
      <trkpt lat="46.74765" lon="5.66539">
        <ele>319.4</ele>
        <time>2019-11-26T12:21:29Z</time>
      </trkpt>
      <trkpt lat="46.74769" lon="5.66535">
        <ele>319.4</ele>
        <time>2019-11-26T12:21:34Z</time>
      </trkpt>
      <trkpt lat="46.74771" lon="5.66528">
        <ele>319.4</ele>
        <time>2019-11-26T12:21:39Z</time>
      </trkpt>
      <trkpt lat="46.74771" lon="5.66521">
        <ele>319.3</ele>
        <time>2019-11-26T12:21:42Z</time>
      </trkpt>
      <trkpt lat="46.74771" lon="5.66513">
        <ele>319.3</ele>
        <time>2019-11-26T12:21:45Z</time>
      </trkpt>
      <trkpt lat="46.74771" lon="5.66504">
        <ele>319.3</ele>
        <time>2019-11-26T12:21:48Z</time>
      </trkpt>
      <trkpt lat="46.7477" lon="5.66498">
        <ele>319.5</ele>
        <time>2019-11-26T12:21:51Z</time>
      </trkpt>
      <trkpt lat="46.74769" lon="5.66491">
        <ele>319.5</ele>
        <time>2019-11-26T12:21:55Z</time>
      </trkpt>
      <trkpt lat="46.74767" lon="5.66483">
        <ele>319.8</ele>
        <time>2019-11-26T12:21:59Z</time>
      </trkpt>
      <trkpt lat="46.74766" lon="5.66477">
        <ele>320.2</ele>
        <time>2019-11-26T12:22:02Z</time>
      </trkpt>
      <trkpt lat="46.74764" lon="5.6647">
        <ele>320.9</ele>
        <time>2019-11-26T12:22:06Z</time>
      </trkpt>
      <trkpt lat="46.74764" lon="5.66462">
        <ele>321.9</ele>
        <time>2019-11-26T12:22:11Z</time>
      </trkpt>
      <trkpt lat="46.74764" lon="5.66454">
        <ele>322.6</ele>
        <time>2019-11-26T12:22:16Z</time>
      </trkpt>
      <trkpt lat="46.74764" lon="5.66447">
        <ele>323.6</ele>
        <time>2019-11-26T12:22:25Z</time>
      </trkpt>
      <trkpt lat="46.74763" lon="5.6644">
        <ele>323.4</ele>
        <time>2019-11-26T12:22:29Z</time>
      </trkpt>
      <trkpt lat="46.74763" lon="5.66433">
        <ele>322.5</ele>
        <time>2019-11-26T12:22:33Z</time>
      </trkpt>
      <trkpt lat="46.74763" lon="5.66426">
        <ele>321.1</ele>
        <time>2019-11-26T12:22:38Z</time>
      </trkpt>
      <trkpt lat="46.74764" lon="5.66418">
        <ele>318.7</ele>
        <time>2019-11-26T12:22:44Z</time>
      </trkpt>
      <trkpt lat="46.74765" lon="5.66412">
        <ele>316.2</ele>
        <time>2019-11-26T12:22:50Z</time>
      </trkpt>
      <trkpt lat="46.74767" lon="5.66406">
        <ele>313.7</ele>
        <time>2019-11-26T12:22:56Z</time>
      </trkpt>
      <trkpt lat="46.74769" lon="5.66399">
        <ele>310.3</ele>
        <time>2019-11-26T12:23:04Z</time>
      </trkpt>
      <trkpt lat="46.74773" lon="5.66394">
        <ele>307.6</ele>
        <time>2019-11-26T12:23:10Z</time>
      </trkpt>
      <trkpt lat="46.74776" lon="5.66389">
        <ele>305.7</ele>
        <time>2019-11-26T12:23:16Z</time>
      </trkpt>
      <trkpt lat="46.74777" lon="5.66382">
        <ele>305.3</ele>
        <time>2019-11-26T12:23:23Z</time>
      </trkpt>
      <trkpt lat="46.74777" lon="5.66375">
        <ele>305.9</ele>
        <time>2019-11-26T12:23:29Z</time>
      </trkpt>
      <trkpt lat="46.74779" lon="5.66369">
        <ele>306.8</ele>
        <time>2019-11-26T12:23:35Z</time>
      </trkpt>
      <trkpt lat="46.74782" lon="5.66364">
        <ele>307.7</ele>
        <time>2019-11-26T12:23:41Z</time>
      </trkpt>
      <trkpt lat="46.74785" lon="5.66358">
        <ele>308.7</ele>
        <time>2019-11-26T12:23:50Z</time>
      </trkpt>
      <trkpt lat="46.74788" lon="5.66351">
        <ele>309.8</ele>
        <time>2019-11-26T12:23:59Z</time>
      </trkpt>
      <trkpt lat="46.74791" lon="5.66346">
        <ele>310.5</ele>
        <time>2019-11-26T12:24:02Z</time>
      </trkpt>
      <trkpt lat="46.74794" lon="5.66342">
        <ele>311.5</ele>
        <time>2019-11-26T12:24:07Z</time>
      </trkpt>
      <trkpt lat="46.74799" lon="5.66336">
        <ele>312.3</ele>
        <time>2019-11-26T12:24:11Z</time>
      </trkpt>
      <trkpt lat="46.74803" lon="5.66331">
        <ele>313.5</ele>
        <time>2019-11-26T12:24:16Z</time>
      </trkpt>
      <trkpt lat="46.74807" lon="5.66327">
        <ele>314.8</ele>
        <time>2019-11-26T12:24:20Z</time>
      </trkpt>
      <trkpt lat="46.74811" lon="5.66323">
        <ele>317.2</ele>
        <time>2019-11-26T12:24:31Z</time>
      </trkpt>
      <trkpt lat="46.74815" lon="5.6632">
        <ele>319.5</ele>
        <time>2019-11-26T12:24:37Z</time>
      </trkpt>
      <trkpt lat="46.74821" lon="5.6632">
        <ele>323.2</ele>
        <time>2019-11-26T12:24:49Z</time>
      </trkpt>
      <trkpt lat="46.74826" lon="5.66321">
        <ele>325.1</ele>
        <time>2019-11-26T12:24:58Z</time>
      </trkpt>
      <trkpt lat="46.7483" lon="5.66324">
        <ele>326.9</ele>
        <time>2019-11-26T12:25:05Z</time>
      </trkpt>
      <trkpt lat="46.74836" lon="5.66326">
        <ele>328.8</ele>
        <time>2019-11-26T12:25:16Z</time>
      </trkpt>
      <trkpt lat="46.74842" lon="5.66326">
        <ele>329.3</ele>
        <time>2019-11-26T12:25:19Z</time>
      </trkpt>
      <trkpt lat="46.74847" lon="5.66328">
        <ele>329.7</ele>
        <time>2019-11-26T12:25:23Z</time>
      </trkpt>
      <trkpt lat="46.74852" lon="5.6633">
        <ele>330.2</ele>
        <time>2019-11-26T12:25:29Z</time>
      </trkpt>
      <trkpt lat="46.74856" lon="5.66329">
        <ele>331.1</ele>
        <time>2019-11-26T12:25:39Z</time>
      </trkpt>
      <trkpt lat="46.74861" lon="5.66329">
        <ele>333.1</ele>
        <time>2019-11-26T12:25:51Z</time>
      </trkpt>
      <trkpt lat="46.74865" lon="5.66331">
        <ele>333.7</ele>
        <time>2019-11-26T12:25:54Z</time>
      </trkpt>
      <trkpt lat="46.7487" lon="5.66332">
        <ele>334.4</ele>
        <time>2019-11-26T12:25:58Z</time>
      </trkpt>
      <trkpt lat="46.74875" lon="5.66331">
        <ele>335.9</ele>
        <time>2019-11-26T12:26:07Z</time>
      </trkpt>
      <trkpt lat="46.7488" lon="5.66328">
        <ele>336.9</ele>
        <time>2019-11-26T12:26:14Z</time>
      </trkpt>
      <trkpt lat="46.74884" lon="5.66325">
        <ele>337.3</ele>
        <time>2019-11-26T12:26:25Z</time>
      </trkpt>
      <trkpt lat="46.7489" lon="5.66324">
        <ele>334.2</ele>
        <time>2019-11-26T12:26:40Z</time>
      </trkpt>
      <trkpt lat="46.74896" lon="5.66321">
        <ele>333.8</ele>
        <time>2019-11-26T12:26:42Z</time>
      </trkpt>
      <trkpt lat="46.74901" lon="5.6632">
        <ele>333.3</ele>
        <time>2019-11-26T12:26:44Z</time>
      </trkpt>
      <trkpt lat="46.74905" lon="5.66319">
        <ele>332.2</ele>
        <time>2019-11-26T12:26:48Z</time>
      </trkpt>
      <trkpt lat="46.74912" lon="5.66319">
        <ele>328.1</ele>
        <time>2019-11-26T12:27:02Z</time>
      </trkpt>
      <trkpt lat="46.74923" lon="5.66323">
        <ele>328.5</ele>
        <time>2019-11-26T12:27:29Z</time>
      </trkpt>
      <trkpt lat="46.74928" lon="5.66325">
        <ele>330.6</ele>
        <time>2019-11-26T12:27:41Z</time>
      </trkpt>
      <trkpt lat="46.74939" lon="5.6632">
        <ele>337.5</ele>
        <time>2019-11-26T12:28:02Z</time>
      </trkpt>
      <trkpt lat="46.74949" lon="5.6632">
        <ele>342.5</ele>
        <time>2019-11-26T12:28:11Z</time>
      </trkpt>
      <trkpt lat="46.7496" lon="5.66331">
        <ele>342.9</ele>
        <time>2019-11-26T12:28:33Z</time>
      </trkpt>
      <trkpt lat="46.74964" lon="5.66332">
        <ele>342.7</ele>
        <time>2019-11-26T12:28:37Z</time>
      </trkpt>
      <trkpt lat="46.74976" lon="5.66339">
        <ele>338.5</ele>
        <time>2019-11-26T12:29:10Z</time>
      </trkpt>
      <trkpt lat="46.74981" lon="5.66341">
        <ele>337.5</ele>
        <time>2019-11-26T12:29:17Z</time>
      </trkpt>
      <trkpt lat="46.74988" lon="5.66348">
        <ele>339.4</ele>
        <time>2019-11-26T12:29:44Z</time>
      </trkpt>
      <trkpt lat="46.74993" lon="5.66352">
        <ele>339.6</ele>
        <time>2019-11-26T12:29:47Z</time>
      </trkpt>
      <trkpt lat="46.74997" lon="5.66356">
        <ele>339.7</ele>
        <time>2019-11-26T12:29:49Z</time>
      </trkpt>
      <trkpt lat="46.75003" lon="5.66365">
        <ele>337.8</ele>
        <time>2019-11-26T12:30:23Z</time>
      </trkpt>
      <trkpt lat="46.75008" lon="5.66376">
        <ele>339</ele>
        <time>2019-11-26T12:30:40Z</time>
      </trkpt>
      <trkpt lat="46.7501" lon="5.66382">
        <ele>339</ele>
        <time>2019-11-26T12:30:50Z</time>
      </trkpt>
      <trkpt lat="46.75013" lon="5.664">
        <ele>347.6</ele>
        <time>2019-11-26T12:31:23Z</time>
      </trkpt>
      <trkpt lat="46.75011" lon="5.66411">
        <ele>359.6</ele>
        <time>2019-11-26T12:32:35Z</time>
      </trkpt>
      <trkpt lat="46.75013" lon="5.66423">
        <ele>369.9</ele>
        <time>2019-11-26T12:33:47Z</time>
      </trkpt>
      <trkpt lat="46.75015" lon="5.66429">
        <ele>373</ele>
        <time>2019-11-26T12:33:58Z</time>
      </trkpt>
      <trkpt lat="46.75036" lon="5.66426">
        <ele>397.2</ele>
        <time>2019-11-26T12:35:58Z</time>
      </trkpt>
      <trkpt lat="46.75043" lon="5.66426">
        <ele>400.2</ele>
        <time>2019-11-26T12:36:18Z</time>
      </trkpt>
      <trkpt lat="46.75047" lon="5.66426">
        <ele>401.3</ele>
        <time>2019-11-26T12:36:28Z</time>
      </trkpt>
      <trkpt lat="46.7507" lon="5.66415">
        <ele>409.6</ele>
        <time>2019-11-26T12:37:07Z</time>
      </trkpt>
      <trkpt lat="46.75083" lon="5.66413">
        <ele>406.8</ele>
        <time>2019-11-26T12:37:53Z</time>
      </trkpt>
      <trkpt lat="46.75088" lon="5.66417">
        <ele>406.4</ele>
        <time>2019-11-26T12:37:57Z</time>
      </trkpt>
      <trkpt lat="46.75093" lon="5.66419">
        <ele>405.5</ele>
        <time>2019-11-26T12:38:07Z</time>
      </trkpt>
      <trkpt lat="46.75098" lon="5.66421">
        <ele>406</ele>
        <time>2019-11-26T12:38:18Z</time>
      </trkpt>
      <trkpt lat="46.75116" lon="5.6642">
        <ele>409.4</ele>
        <time>2019-11-26T12:38:51Z</time>
      </trkpt>
      <trkpt lat="46.75121" lon="5.66418">
        <ele>410.7</ele>
        <time>2019-11-26T12:38:56Z</time>
      </trkpt>
      <trkpt lat="46.75126" lon="5.66418">
        <ele>412.2</ele>
        <time>2019-11-26T12:39:04Z</time>
      </trkpt>
      <trkpt lat="46.75142" lon="5.66418">
        <ele>420.2</ele>
        <time>2019-11-26T12:39:52Z</time>
      </trkpt>
      <trkpt lat="46.75152" lon="5.66415">
        <ele>418.9</ele>
        <time>2019-11-26T12:40:05Z</time>
      </trkpt>
      <trkpt lat="46.75182" lon="5.66399">
        <ele>405.3</ele>
        <time>2019-11-26T12:40:49Z</time>
      </trkpt>
      <trkpt lat="46.75186" lon="5.66397">
        <ele>405</ele>
        <time>2019-11-26T12:40:58Z</time>
      </trkpt>
      <trkpt lat="46.75203" lon="5.6639">
        <ele>394.8</ele>
        <time>2019-11-26T12:41:45Z</time>
      </trkpt>
      <trkpt lat="46.75206" lon="5.66386">
        <ele>394.2</ele>
        <time>2019-11-26T12:41:52Z</time>
      </trkpt>
      <trkpt lat="46.75212" lon="5.66381">
        <ele>393</ele>
        <time>2019-11-26T12:42:03Z</time>
      </trkpt>
      <trkpt lat="46.75218" lon="5.66369">
        <ele>394.2</ele>
        <time>2019-11-26T12:42:30Z</time>
      </trkpt>
      <trkpt lat="46.75222" lon="5.66365">
        <ele>394.5</ele>
        <time>2019-11-26T12:42:35Z</time>
      </trkpt>
      <trkpt lat="46.75225" lon="5.66361">
        <ele>394.8</ele>
        <time>2019-11-26T12:42:39Z</time>
      </trkpt>
      <trkpt lat="46.75227" lon="5.66355">
        <ele>395.4</ele>
        <time>2019-11-26T12:42:45Z</time>
      </trkpt>
      <trkpt lat="46.7523" lon="5.66349">
        <ele>397.3</ele>
        <time>2019-11-26T12:42:55Z</time>
      </trkpt>
      <trkpt lat="46.75238" lon="5.66344">
        <ele>407.6</ele>
        <time>2019-11-26T12:43:25Z</time>
      </trkpt>
      <trkpt lat="46.75243" lon="5.66341">
        <ele>409.6</ele>
        <time>2019-11-26T12:43:28Z</time>
      </trkpt>
      <trkpt lat="46.75248" lon="5.66337">
        <ele>413.2</ele>
        <time>2019-11-26T12:43:34Z</time>
      </trkpt>
      <trkpt lat="46.75258" lon="5.66318">
        <ele>430.9</ele>
        <time>2019-11-26T12:44:10Z</time>
      </trkpt>
      <trkpt lat="46.75267" lon="5.66302">
        <ele>446.8</ele>
        <time>2019-11-26T12:45:22Z</time>
      </trkpt>
      <trkpt lat="46.75273" lon="5.66299">
        <ele>449</ele>
        <time>2019-11-26T12:45:49Z</time>
      </trkpt>
      <trkpt lat="46.75277" lon="5.66294">
        <ele>449.4</ele>
        <time>2019-11-26T12:45:55Z</time>
      </trkpt>
      <trkpt lat="46.75279" lon="5.66287">
        <ele>451.8</ele>
        <time>2019-11-26T12:46:06Z</time>
      </trkpt>
      <trkpt lat="46.75288" lon="5.66269">
        <ele>462.3</ele>
        <time>2019-11-26T12:46:28Z</time>
      </trkpt>
      <trkpt lat="46.7529" lon="5.66264">
        <ele>465.5</ele>
        <time>2019-11-26T12:46:39Z</time>
      </trkpt>
      <trkpt lat="46.75295" lon="5.66259">
        <ele>468.9</ele>
        <time>2019-11-26T12:46:50Z</time>
      </trkpt>
      <trkpt lat="46.75305" lon="5.66249">
        <ele>474.5</ele>
        <time>2019-11-26T12:47:04Z</time>
      </trkpt>
      <trkpt lat="46.75332" lon="5.66219">
        <ele>489.8</ele>
        <time>2019-11-26T12:48:48Z</time>
      </trkpt>
      <trkpt lat="46.75337" lon="5.66221">
        <ele>490.1</ele>
        <time>2019-11-26T12:48:53Z</time>
      </trkpt>
      <trkpt lat="46.75342" lon="5.66224">
        <ele>490.1</ele>
        <time>2019-11-26T12:48:58Z</time>
      </trkpt>
      <trkpt lat="46.75346" lon="5.66226">
        <ele>489.9</ele>
        <time>2019-11-26T12:49:05Z</time>
      </trkpt>
      <trkpt lat="46.75352" lon="5.66226">
        <ele>489.2</ele>
        <time>2019-11-26T12:49:10Z</time>
      </trkpt>
      <trkpt lat="46.75364" lon="5.66233">
        <ele>484.6</ele>
        <time>2019-11-26T12:49:35Z</time>
      </trkpt>
      <trkpt lat="46.75365" lon="5.66239">
        <ele>481.2</ele>
        <time>2019-11-26T12:49:45Z</time>
      </trkpt>
      <trkpt lat="46.75368" lon="5.66246">
        <ele>477.4</ele>
        <time>2019-11-26T12:49:56Z</time>
      </trkpt>
      <trkpt lat="46.75374" lon="5.66252">
        <ele>476.4</ele>
        <time>2019-11-26T12:50:00Z</time>
      </trkpt>
      <trkpt lat="46.7538" lon="5.66251">
        <ele>473.6</ele>
        <time>2019-11-26T12:50:14Z</time>
      </trkpt>
      <trkpt lat="46.7538" lon="5.66244">
        <ele>469.1</ele>
        <time>2019-11-26T12:50:30Z</time>
      </trkpt>
      <trkpt lat="46.75379" lon="5.66232">
        <ele>464.4</ele>
        <time>2019-11-26T12:50:46Z</time>
      </trkpt>
      <trkpt lat="46.75378" lon="5.66225">
        <ele>464.1</ele>
        <time>2019-11-26T12:50:58Z</time>
      </trkpt>
      <trkpt lat="46.75379" lon="5.66219">
        <ele>465.9</ele>
        <time>2019-11-26T12:51:06Z</time>
      </trkpt>
      <trkpt lat="46.75382" lon="5.66212">
        <ele>468.1</ele>
        <time>2019-11-26T12:51:15Z</time>
      </trkpt>
      <trkpt lat="46.75381" lon="5.66206">
        <ele>469.1</ele>
        <time>2019-11-26T12:51:24Z</time>
      </trkpt>
      <trkpt lat="46.75378" lon="5.66198">
        <ele>475.3</ele>
        <time>2019-11-26T12:51:48Z</time>
      </trkpt>
      <trkpt lat="46.75371" lon="5.66193">
        <ele>477.4</ele>
        <time>2019-11-26T12:52:15Z</time>
      </trkpt>
      <trkpt lat="46.7537" lon="5.66173">
        <ele>479.3</ele>
        <time>2019-11-26T12:53:59Z</time>
      </trkpt>
      <trkpt lat="46.75368" lon="5.66167">
        <ele>480.3</ele>
        <time>2019-11-26T12:54:06Z</time>
      </trkpt>
      <trkpt lat="46.75365" lon="5.66161">
        <ele>481.6</ele>
        <time>2019-11-26T12:54:19Z</time>
      </trkpt>
      <trkpt lat="46.75362" lon="5.66155">
        <ele>482.3</ele>
        <time>2019-11-26T12:54:26Z</time>
      </trkpt>
      <trkpt lat="46.75359" lon="5.66149">
        <ele>482.9</ele>
        <time>2019-11-26T12:54:31Z</time>
      </trkpt>
      <trkpt lat="46.75356" lon="5.66143">
        <ele>483.8</ele>
        <time>2019-11-26T12:54:36Z</time>
      </trkpt>
      <trkpt lat="46.75352" lon="5.66137">
        <ele>484.5</ele>
        <time>2019-11-26T12:54:39Z</time>
      </trkpt>
      <trkpt lat="46.75354" lon="5.6612">
        <ele>487.8</ele>
        <time>2019-11-26T12:55:03Z</time>
      </trkpt>
      <trkpt lat="46.75357" lon="5.66116">
        <ele>488.3</ele>
        <time>2019-11-26T12:55:08Z</time>
      </trkpt>
      <trkpt lat="46.75362" lon="5.66112">
        <ele>488.6</ele>
        <time>2019-11-26T12:55:12Z</time>
      </trkpt>
      <trkpt lat="46.75364" lon="5.66105">
        <ele>488.8</ele>
        <time>2019-11-26T12:55:15Z</time>
      </trkpt>
      <trkpt lat="46.75365" lon="5.66097">
        <ele>489</ele>
        <time>2019-11-26T12:55:19Z</time>
      </trkpt>
      <trkpt lat="46.75369" lon="5.6608">
        <ele>488.2</ele>
        <time>2019-11-26T12:55:42Z</time>
      </trkpt>
      <trkpt lat="46.75371" lon="5.66073">
        <ele>486.8</ele>
        <time>2019-11-26T12:55:46Z</time>
      </trkpt>
      <trkpt lat="46.75373" lon="5.66067">
        <ele>483.5</ele>
        <time>2019-11-26T12:55:57Z</time>
      </trkpt>
      <trkpt lat="46.75375" lon="5.66061">
        <ele>483.4</ele>
        <time>2019-11-26T12:56:04Z</time>
      </trkpt>
      <trkpt lat="46.75377" lon="5.66054">
        <ele>483.6</ele>
        <time>2019-11-26T12:56:07Z</time>
      </trkpt>
      <trkpt lat="46.7538" lon="5.66049">
        <ele>484.1</ele>
        <time>2019-11-26T12:56:12Z</time>
      </trkpt>
      <trkpt lat="46.75381" lon="5.66042">
        <ele>485.7</ele>
        <time>2019-11-26T12:56:30Z</time>
      </trkpt>
      <trkpt lat="46.75379" lon="5.66034">
        <ele>487.6</ele>
        <time>2019-11-26T12:56:39Z</time>
      </trkpt>
      <trkpt lat="46.75377" lon="5.6601">
        <ele>489.7</ele>
        <time>2019-11-26T12:56:49Z</time>
      </trkpt>
      <trkpt lat="46.75376" lon="5.66003">
        <ele>490.1</ele>
        <time>2019-11-26T12:56:52Z</time>
      </trkpt>
      <trkpt lat="46.75376" lon="5.65979">
        <ele>495.6</ele>
        <time>2019-11-26T12:57:19Z</time>
      </trkpt>
      <trkpt lat="46.75376" lon="5.65972">
        <ele>495.4</ele>
        <time>2019-11-26T12:57:22Z</time>
      </trkpt>
      <trkpt lat="46.75376" lon="5.65965">
        <ele>494.7</ele>
        <time>2019-11-26T12:57:26Z</time>
      </trkpt>
      <trkpt lat="46.75378" lon="5.65957">
        <ele>493.9</ele>
        <time>2019-11-26T12:57:32Z</time>
      </trkpt>
      <trkpt lat="46.75381" lon="5.65942">
        <ele>491.9</ele>
        <time>2019-11-26T12:57:53Z</time>
      </trkpt>
      <trkpt lat="46.75382" lon="5.65934">
        <ele>491.5</ele>
        <time>2019-11-26T12:57:57Z</time>
      </trkpt>
      <trkpt lat="46.75386" lon="5.65917">
        <ele>490.2</ele>
        <time>2019-11-26T12:58:11Z</time>
      </trkpt>
      <trkpt lat="46.75385" lon="5.65909">
        <ele>490.5</ele>
        <time>2019-11-26T12:58:19Z</time>
      </trkpt>
      <trkpt lat="46.75385" lon="5.65882">
        <ele>492.2</ele>
        <time>2019-11-26T12:58:33Z</time>
      </trkpt>
      <trkpt lat="46.75385" lon="5.65875">
        <ele>492.8</ele>
        <time>2019-11-26T12:58:36Z</time>
      </trkpt>
      <trkpt lat="46.75387" lon="5.65869">
        <ele>493.8</ele>
        <time>2019-11-26T12:58:40Z</time>
      </trkpt>
      <trkpt lat="46.75387" lon="5.65862">
        <ele>494.7</ele>
        <time>2019-11-26T12:58:44Z</time>
      </trkpt>
      <trkpt lat="46.75389" lon="5.65855">
        <ele>495.8</ele>
        <time>2019-11-26T12:58:49Z</time>
      </trkpt>
      <trkpt lat="46.75392" lon="5.6585">
        <ele>496.6</ele>
        <time>2019-11-26T12:58:53Z</time>
      </trkpt>
      <trkpt lat="46.75391" lon="5.65842">
        <ele>496.9</ele>
        <time>2019-11-26T12:58:59Z</time>
      </trkpt>
      <trkpt lat="46.7539" lon="5.65835">
        <ele>496.7</ele>
        <time>2019-11-26T12:59:04Z</time>
      </trkpt>
      <trkpt lat="46.75388" lon="5.65829">
        <ele>496</ele>
        <time>2019-11-26T12:59:11Z</time>
      </trkpt>
      <trkpt lat="46.7539" lon="5.65823">
        <ele>494.9</ele>
        <time>2019-11-26T12:59:21Z</time>
      </trkpt>
      <trkpt lat="46.75394" lon="5.65817">
        <ele>494.5</ele>
        <time>2019-11-26T12:59:28Z</time>
      </trkpt>
      <trkpt lat="46.75395" lon="5.65811">
        <ele>494.6</ele>
        <time>2019-11-26T12:59:33Z</time>
      </trkpt>
      <trkpt lat="46.75396" lon="5.65803">
        <ele>494.7</ele>
        <time>2019-11-26T12:59:37Z</time>
      </trkpt>
      <trkpt lat="46.75398" lon="5.65795">
        <ele>494.8</ele>
        <time>2019-11-26T12:59:41Z</time>
      </trkpt>
      <trkpt lat="46.75399" lon="5.65788">
        <ele>495.3</ele>
        <time>2019-11-26T12:59:46Z</time>
      </trkpt>
      <trkpt lat="46.754" lon="5.65781">
        <ele>495.6</ele>
        <time>2019-11-26T12:59:53Z</time>
      </trkpt>
      <trkpt lat="46.754" lon="5.65771">
        <ele>495.5</ele>
        <time>2019-11-26T12:59:56Z</time>
      </trkpt>
      <trkpt lat="46.75401" lon="5.65764">
        <ele>495.3</ele>
        <time>2019-11-26T13:00:00Z</time>
      </trkpt>
      <trkpt lat="46.75402" lon="5.65757">
        <ele>495.2</ele>
        <time>2019-11-26T13:00:02Z</time>
      </trkpt>
      <trkpt lat="46.75402" lon="5.65751">
        <ele>494.9</ele>
        <time>2019-11-26T13:00:05Z</time>
      </trkpt>
      <trkpt lat="46.75403" lon="5.65744">
        <ele>494.2</ele>
        <time>2019-11-26T13:00:12Z</time>
      </trkpt>
      <trkpt lat="46.75405" lon="5.65738">
        <ele>493.6</ele>
        <time>2019-11-26T13:00:21Z</time>
      </trkpt>
      <trkpt lat="46.75406" lon="5.65731">
        <ele>493.2</ele>
        <time>2019-11-26T13:00:28Z</time>
      </trkpt>
      <trkpt lat="46.75409" lon="5.65725">
        <ele>492.8</ele>
        <time>2019-11-26T13:00:31Z</time>
      </trkpt>
      <trkpt lat="46.75411" lon="5.65719">
        <ele>492.4</ele>
        <time>2019-11-26T13:00:34Z</time>
      </trkpt>
      <trkpt lat="46.75412" lon="5.65712">
        <ele>491.8</ele>
        <time>2019-11-26T13:00:39Z</time>
      </trkpt>
      <trkpt lat="46.75412" lon="5.65701">
        <ele>491.2</ele>
        <time>2019-11-26T13:00:49Z</time>
      </trkpt>
      <trkpt lat="46.75411" lon="5.65694">
        <ele>491.9</ele>
        <time>2019-11-26T13:00:54Z</time>
      </trkpt>
      <trkpt lat="46.75412" lon="5.65687">
        <ele>492.5</ele>
        <time>2019-11-26T13:00:57Z</time>
      </trkpt>
      <trkpt lat="46.75412" lon="5.6568">
        <ele>493.1</ele>
        <time>2019-11-26T13:01:02Z</time>
      </trkpt>
      <trkpt lat="46.7541" lon="5.65674">
        <ele>493.5</ele>
        <time>2019-11-26T13:01:09Z</time>
      </trkpt>
      <trkpt lat="46.75409" lon="5.65667">
        <ele>493.5</ele>
        <time>2019-11-26T13:01:16Z</time>
      </trkpt>
      <trkpt lat="46.75408" lon="5.65661">
        <ele>493.5</ele>
        <time>2019-11-26T13:01:22Z</time>
      </trkpt>
      <trkpt lat="46.75405" lon="5.65653">
        <ele>493.6</ele>
        <time>2019-11-26T13:01:29Z</time>
      </trkpt>
      <trkpt lat="46.75403" lon="5.65646">
        <ele>493.5</ele>
        <time>2019-11-26T13:01:35Z</time>
      </trkpt>
      <trkpt lat="46.75401" lon="5.65639">
        <ele>493.6</ele>
        <time>2019-11-26T13:01:40Z</time>
      </trkpt>
      <trkpt lat="46.75399" lon="5.65632">
        <ele>493.7</ele>
        <time>2019-11-26T13:01:43Z</time>
      </trkpt>
      <trkpt lat="46.75397" lon="5.65624">
        <ele>493.7</ele>
        <time>2019-11-26T13:01:47Z</time>
      </trkpt>
      <trkpt lat="46.75396" lon="5.65615">
        <ele>493.6</ele>
        <time>2019-11-26T13:01:52Z</time>
      </trkpt>
      <trkpt lat="46.75395" lon="5.65608">
        <ele>493.4</ele>
        <time>2019-11-26T13:01:55Z</time>
      </trkpt>
      <trkpt lat="46.75395" lon="5.65601">
        <ele>493</ele>
        <time>2019-11-26T13:01:59Z</time>
      </trkpt>
      <trkpt lat="46.75394" lon="5.65594">
        <ele>492.6</ele>
        <time>2019-11-26T13:02:05Z</time>
      </trkpt>
      <trkpt lat="46.75391" lon="5.65588">
        <ele>493.3</ele>
        <time>2019-11-26T13:02:10Z</time>
      </trkpt>
      <trkpt lat="46.75389" lon="5.65582">
        <ele>494.1</ele>
        <time>2019-11-26T13:02:15Z</time>
      </trkpt>
      <trkpt lat="46.75388" lon="5.65575">
        <ele>494.5</ele>
        <time>2019-11-26T13:02:22Z</time>
      </trkpt>
      <trkpt lat="46.75387" lon="5.65568">
        <ele>494.6</ele>
        <time>2019-11-26T13:02:25Z</time>
      </trkpt>
      <trkpt lat="46.75387" lon="5.65562">
        <ele>494.2</ele>
        <time>2019-11-26T13:02:31Z</time>
      </trkpt>
      <trkpt lat="46.75386" lon="5.65554">
        <ele>493.8</ele>
        <time>2019-11-26T13:02:36Z</time>
      </trkpt>
      <trkpt lat="46.75385" lon="5.65546">
        <ele>493.8</ele>
        <time>2019-11-26T13:02:40Z</time>
      </trkpt>
      <trkpt lat="46.75384" lon="5.65539">
        <ele>494</ele>
        <time>2019-11-26T13:02:45Z</time>
      </trkpt>
      <trkpt lat="46.75385" lon="5.65533">
        <ele>494.9</ele>
        <time>2019-11-26T13:02:50Z</time>
      </trkpt>
      <trkpt lat="46.75385" lon="5.65525">
        <ele>495.9</ele>
        <time>2019-11-26T13:02:56Z</time>
      </trkpt>
      <trkpt lat="46.75387" lon="5.65519">
        <ele>496.1</ele>
        <time>2019-11-26T13:03:02Z</time>
      </trkpt>
      <trkpt lat="46.75396" lon="5.65501">
        <ele>491.4</ele>
        <time>2019-11-26T13:03:24Z</time>
      </trkpt>
      <trkpt lat="46.75398" lon="5.65494">
        <ele>491</ele>
        <time>2019-11-26T13:03:30Z</time>
      </trkpt>
      <trkpt lat="46.75401" lon="5.65488">
        <ele>490.1</ele>
        <time>2019-11-26T13:03:35Z</time>
      </trkpt>
      <trkpt lat="46.75405" lon="5.65484">
        <ele>488.3</ele>
        <time>2019-11-26T13:03:40Z</time>
      </trkpt>
      <trkpt lat="46.7541" lon="5.65479">
        <ele>486.3</ele>
        <time>2019-11-26T13:03:45Z</time>
      </trkpt>
      <trkpt lat="46.75414" lon="5.65475">
        <ele>485.2</ele>
        <time>2019-11-26T13:03:49Z</time>
      </trkpt>
      <trkpt lat="46.75418" lon="5.65471">
        <ele>484.5</ele>
        <time>2019-11-26T13:03:56Z</time>
      </trkpt>
      <trkpt lat="46.75422" lon="5.65468">
        <ele>483.7</ele>
        <time>2019-11-26T13:04:05Z</time>
      </trkpt>
      <trkpt lat="46.75434" lon="5.65462">
        <ele>481.4</ele>
        <time>2019-11-26T13:04:20Z</time>
      </trkpt>
      <trkpt lat="46.75439" lon="5.65462">
        <ele>480.9</ele>
        <time>2019-11-26T13:04:23Z</time>
      </trkpt>
      <trkpt lat="46.75444" lon="5.65461">
        <ele>480.4</ele>
        <time>2019-11-26T13:04:26Z</time>
      </trkpt>
      <trkpt lat="46.75454" lon="5.65463">
        <ele>478.5</ele>
        <time>2019-11-26T13:04:37Z</time>
      </trkpt>
      <trkpt lat="46.75459" lon="5.65464">
        <ele>478.6</ele>
        <time>2019-11-26T13:04:41Z</time>
      </trkpt>
      <trkpt lat="46.75464" lon="5.65465">
        <ele>478.9</ele>
        <time>2019-11-26T13:04:44Z</time>
      </trkpt>
      <trkpt lat="46.75469" lon="5.65466">
        <ele>479.4</ele>
        <time>2019-11-26T13:04:47Z</time>
      </trkpt>
      <trkpt lat="46.75473" lon="5.65468">
        <ele>480.1</ele>
        <time>2019-11-26T13:04:50Z</time>
      </trkpt>
      <trkpt lat="46.75487" lon="5.65475">
        <ele>482.9</ele>
        <time>2019-11-26T13:05:10Z</time>
      </trkpt>
      <trkpt lat="46.75492" lon="5.65477">
        <ele>482.1</ele>
        <time>2019-11-26T13:05:15Z</time>
      </trkpt>
      <trkpt lat="46.75496" lon="5.65479">
        <ele>481.5</ele>
        <time>2019-11-26T13:05:19Z</time>
      </trkpt>
      <trkpt lat="46.75502" lon="5.65481">
        <ele>481</ele>
        <time>2019-11-26T13:05:23Z</time>
      </trkpt>
      <trkpt lat="46.75506" lon="5.65484">
        <ele>480.4</ele>
        <time>2019-11-26T13:05:27Z</time>
      </trkpt>
      <trkpt lat="46.7551" lon="5.65487">
        <ele>479.5</ele>
        <time>2019-11-26T13:05:31Z</time>
      </trkpt>
      <trkpt lat="46.75515" lon="5.65488">
        <ele>478.9</ele>
        <time>2019-11-26T13:05:37Z</time>
      </trkpt>
      <trkpt lat="46.7553" lon="5.65484">
        <ele>479.8</ele>
        <time>2019-11-26T13:05:51Z</time>
      </trkpt>
      <trkpt lat="46.75533" lon="5.65478">
        <ele>480.8</ele>
        <time>2019-11-26T13:05:59Z</time>
      </trkpt>
      <trkpt lat="46.75533" lon="5.65471">
        <ele>482</ele>
        <time>2019-11-26T13:06:04Z</time>
      </trkpt>
      <trkpt lat="46.75529" lon="5.65468">
        <ele>483</ele>
        <time>2019-11-26T13:06:09Z</time>
      </trkpt>
      <trkpt lat="46.75526" lon="5.65462">
        <ele>483.4</ele>
        <time>2019-11-26T13:06:13Z</time>
      </trkpt>
      <trkpt lat="46.75523" lon="5.65456">
        <ele>483.7</ele>
        <time>2019-11-26T13:06:17Z</time>
      </trkpt>
      <trkpt lat="46.75519" lon="5.65451">
        <ele>484.1</ele>
        <time>2019-11-26T13:06:26Z</time>
      </trkpt>
      <trkpt lat="46.75513" lon="5.6545">
        <ele>484.4</ele>
        <time>2019-11-26T13:06:30Z</time>
      </trkpt>
      <trkpt lat="46.75507" lon="5.6545">
        <ele>484.5</ele>
        <time>2019-11-26T13:06:34Z</time>
      </trkpt>
      <trkpt lat="46.75503" lon="5.65445">
        <ele>484.6</ele>
        <time>2019-11-26T13:06:43Z</time>
      </trkpt>
      <trkpt lat="46.755" lon="5.6544">
        <ele>484.5</ele>
        <time>2019-11-26T13:06:47Z</time>
      </trkpt>
      <trkpt lat="46.75496" lon="5.65434">
        <ele>484.3</ele>
        <time>2019-11-26T13:06:50Z</time>
      </trkpt>
      <trkpt lat="46.75492" lon="5.65429">
        <ele>483.8</ele>
        <time>2019-11-26T13:06:54Z</time>
      </trkpt>
      <trkpt lat="46.75489" lon="5.65422">
        <ele>483.3</ele>
        <time>2019-11-26T13:07:00Z</time>
      </trkpt>
      <trkpt lat="46.75485" lon="5.65417">
        <ele>483.2</ele>
        <time>2019-11-26T13:07:04Z</time>
      </trkpt>
      <trkpt lat="46.75482" lon="5.65411">
        <ele>483.3</ele>
        <time>2019-11-26T13:07:10Z</time>
      </trkpt>
      <trkpt lat="46.75478" lon="5.65406">
        <ele>483.8</ele>
        <time>2019-11-26T13:07:14Z</time>
      </trkpt>
      <trkpt lat="46.75474" lon="5.65401">
        <ele>484.6</ele>
        <time>2019-11-26T13:07:20Z</time>
      </trkpt>
      <trkpt lat="46.75471" lon="5.65395">
        <ele>485.2</ele>
        <time>2019-11-26T13:07:25Z</time>
      </trkpt>
      <trkpt lat="46.75467" lon="5.6539">
        <ele>485.3</ele>
        <time>2019-11-26T13:07:27Z</time>
      </trkpt>
      <trkpt lat="46.75464" lon="5.65383">
        <ele>485.4</ele>
        <time>2019-11-26T13:07:31Z</time>
      </trkpt>
      <trkpt lat="46.7546" lon="5.65378">
        <ele>485.2</ele>
        <time>2019-11-26T13:07:35Z</time>
      </trkpt>
      <trkpt lat="46.75456" lon="5.65373">
        <ele>484.2</ele>
        <time>2019-11-26T13:07:42Z</time>
      </trkpt>
      <trkpt lat="46.75453" lon="5.65369">
        <ele>483.1</ele>
        <time>2019-11-26T13:07:48Z</time>
      </trkpt>
      <trkpt lat="46.75448" lon="5.65367">
        <ele>482</ele>
        <time>2019-11-26T13:07:55Z</time>
      </trkpt>
      <trkpt lat="46.75444" lon="5.65364">
        <ele>480.7</ele>
        <time>2019-11-26T13:08:02Z</time>
      </trkpt>
      <trkpt lat="46.7544" lon="5.65358">
        <ele>479.5</ele>
        <time>2019-11-26T13:08:07Z</time>
      </trkpt>
      <trkpt lat="46.75437" lon="5.65352">
        <ele>478</ele>
        <time>2019-11-26T13:08:12Z</time>
      </trkpt>
      <trkpt lat="46.75428" lon="5.65342">
        <ele>474.5</ele>
        <time>2019-11-26T13:08:24Z</time>
      </trkpt>
      <trkpt lat="46.75425" lon="5.65337">
        <ele>473.5</ele>
        <time>2019-11-26T13:08:29Z</time>
      </trkpt>
      <trkpt lat="46.75422" lon="5.65333">
        <ele>472.5</ele>
        <time>2019-11-26T13:08:34Z</time>
      </trkpt>
      <trkpt lat="46.75418" lon="5.65328">
        <ele>471.7</ele>
        <time>2019-11-26T13:08:38Z</time>
      </trkpt>
      <trkpt lat="46.75415" lon="5.65322">
        <ele>470.9</ele>
        <time>2019-11-26T13:08:41Z</time>
      </trkpt>
      <trkpt lat="46.75411" lon="5.65317">
        <ele>470.3</ele>
        <time>2019-11-26T13:08:46Z</time>
      </trkpt>
      <trkpt lat="46.75408" lon="5.65311">
        <ele>469.7</ele>
        <time>2019-11-26T13:08:52Z</time>
      </trkpt>
      <trkpt lat="46.75406" lon="5.65305">
        <ele>469.5</ele>
        <time>2019-11-26T13:08:56Z</time>
      </trkpt>
      <trkpt lat="46.75402" lon="5.65298">
        <ele>469.4</ele>
        <time>2019-11-26T13:08:59Z</time>
      </trkpt>
      <trkpt lat="46.75399" lon="5.65292">
        <ele>469.3</ele>
        <time>2019-11-26T13:09:02Z</time>
      </trkpt>
      <trkpt lat="46.75396" lon="5.65286">
        <ele>469</ele>
        <time>2019-11-26T13:09:07Z</time>
      </trkpt>
      <trkpt lat="46.75393" lon="5.65279">
        <ele>468.9</ele>
        <time>2019-11-26T13:09:12Z</time>
      </trkpt>
      <trkpt lat="46.75389" lon="5.65274">
        <ele>468.7</ele>
        <time>2019-11-26T13:09:19Z</time>
      </trkpt>
      <trkpt lat="46.75385" lon="5.6527">
        <ele>468.5</ele>
        <time>2019-11-26T13:09:25Z</time>
      </trkpt>
      <trkpt lat="46.75381" lon="5.65265">
        <ele>468.5</ele>
        <time>2019-11-26T13:09:29Z</time>
      </trkpt>
      <trkpt lat="46.75379" lon="5.6526">
        <ele>468.6</ele>
        <time>2019-11-26T13:09:33Z</time>
      </trkpt>
      <trkpt lat="46.75375" lon="5.65254">
        <ele>468.3</ele>
        <time>2019-11-26T13:09:39Z</time>
      </trkpt>
      <trkpt lat="46.75374" lon="5.65248">
        <ele>467.6</ele>
        <time>2019-11-26T13:09:46Z</time>
      </trkpt>
      <trkpt lat="46.75375" lon="5.65241">
        <ele>467</ele>
        <time>2019-11-26T13:09:52Z</time>
      </trkpt>
      <trkpt lat="46.75378" lon="5.65236">
        <ele>466.5</ele>
        <time>2019-11-26T13:09:58Z</time>
      </trkpt>
      <trkpt lat="46.7538" lon="5.65229">
        <ele>466.3</ele>
        <time>2019-11-26T13:10:02Z</time>
      </trkpt>
      <trkpt lat="46.75382" lon="5.65222">
        <ele>466.3</ele>
        <time>2019-11-26T13:10:06Z</time>
      </trkpt>
      <trkpt lat="46.75383" lon="5.65215">
        <ele>466.2</ele>
        <time>2019-11-26T13:10:10Z</time>
      </trkpt>
      <trkpt lat="46.75387" lon="5.65211">
        <ele>465.4</ele>
        <time>2019-11-26T13:10:15Z</time>
      </trkpt>
      <trkpt lat="46.75392" lon="5.65207">
        <ele>463.8</ele>
        <time>2019-11-26T13:10:23Z</time>
      </trkpt>
      <trkpt lat="46.75397" lon="5.65203">
        <ele>463</ele>
        <time>2019-11-26T13:10:27Z</time>
      </trkpt>
      <trkpt lat="46.75401" lon="5.65198">
        <ele>462.1</ele>
        <time>2019-11-26T13:10:32Z</time>
      </trkpt>
      <trkpt lat="46.75404" lon="5.65192">
        <ele>460.9</ele>
        <time>2019-11-26T13:10:37Z</time>
      </trkpt>
      <trkpt lat="46.75407" lon="5.65186">
        <ele>459.7</ele>
        <time>2019-11-26T13:10:42Z</time>
      </trkpt>
      <trkpt lat="46.7541" lon="5.65179">
        <ele>458.7</ele>
        <time>2019-11-26T13:10:46Z</time>
      </trkpt>
      <trkpt lat="46.75412" lon="5.65173">
        <ele>457.3</ele>
        <time>2019-11-26T13:10:51Z</time>
      </trkpt>
      <trkpt lat="46.75414" lon="5.65166">
        <ele>455.3</ele>
        <time>2019-11-26T13:10:57Z</time>
      </trkpt>
      <trkpt lat="46.75416" lon="5.6516">
        <ele>453.3</ele>
        <time>2019-11-26T13:11:04Z</time>
      </trkpt>
      <trkpt lat="46.75419" lon="5.65155">
        <ele>452.3</ele>
        <time>2019-11-26T13:11:08Z</time>
      </trkpt>
      <trkpt lat="46.75424" lon="5.65151">
        <ele>451.3</ele>
        <time>2019-11-26T13:11:12Z</time>
      </trkpt>
      <trkpt lat="46.75428" lon="5.65146">
        <ele>450.3</ele>
        <time>2019-11-26T13:11:16Z</time>
      </trkpt>
      <trkpt lat="46.75431" lon="5.6514">
        <ele>449.2</ele>
        <time>2019-11-26T13:11:20Z</time>
      </trkpt>
      <trkpt lat="46.75434" lon="5.65135">
        <ele>448.1</ele>
        <time>2019-11-26T13:11:24Z</time>
      </trkpt>
      <trkpt lat="46.75437" lon="5.65128">
        <ele>447.1</ele>
        <time>2019-11-26T13:11:28Z</time>
      </trkpt>
      <trkpt lat="46.75439" lon="5.6512">
        <ele>446.3</ele>
        <time>2019-11-26T13:11:32Z</time>
      </trkpt>
      <trkpt lat="46.75441" lon="5.65113">
        <ele>445.9</ele>
        <time>2019-11-26T13:11:36Z</time>
      </trkpt>
      <trkpt lat="46.75442" lon="5.65106">
        <ele>445.8</ele>
        <time>2019-11-26T13:11:41Z</time>
      </trkpt>
      <trkpt lat="46.75443" lon="5.65099">
        <ele>445.8</ele>
        <time>2019-11-26T13:11:45Z</time>
      </trkpt>
      <trkpt lat="46.75445" lon="5.65092">
        <ele>445.9</ele>
        <time>2019-11-26T13:11:49Z</time>
      </trkpt>
      <trkpt lat="46.75446" lon="5.65084">
        <ele>445.8</ele>
        <time>2019-11-26T13:11:55Z</time>
      </trkpt>
      <trkpt lat="46.75446" lon="5.65076">
        <ele>445.9</ele>
        <time>2019-11-26T13:12:00Z</time>
      </trkpt>
      <trkpt lat="46.75445" lon="5.65069">
        <ele>446.1</ele>
        <time>2019-11-26T13:12:05Z</time>
      </trkpt>
      <trkpt lat="46.75446" lon="5.65062">
        <ele>446.4</ele>
        <time>2019-11-26T13:12:10Z</time>
      </trkpt>
      <trkpt lat="46.75446" lon="5.65055">
        <ele>446.6</ele>
        <time>2019-11-26T13:12:14Z</time>
      </trkpt>
      <trkpt lat="46.75447" lon="5.65048">
        <ele>446.9</ele>
        <time>2019-11-26T13:12:18Z</time>
      </trkpt>
      <trkpt lat="46.75448" lon="5.65041">
        <ele>447.2</ele>
        <time>2019-11-26T13:12:22Z</time>
      </trkpt>
      <trkpt lat="46.7545" lon="5.65035">
        <ele>447.3</ele>
        <time>2019-11-26T13:12:26Z</time>
      </trkpt>
      <trkpt lat="46.75452" lon="5.65028">
        <ele>447.5</ele>
        <time>2019-11-26T13:12:32Z</time>
      </trkpt>
      <trkpt lat="46.75455" lon="5.65021">
        <ele>447.5</ele>
        <time>2019-11-26T13:12:36Z</time>
      </trkpt>
      <trkpt lat="46.75458" lon="5.65016">
        <ele>447.2</ele>
        <time>2019-11-26T13:12:41Z</time>
      </trkpt>
      <trkpt lat="46.75461" lon="5.65011">
        <ele>446.7</ele>
        <time>2019-11-26T13:12:46Z</time>
      </trkpt>
      <trkpt lat="46.75465" lon="5.65005">
        <ele>446.3</ele>
        <time>2019-11-26T13:12:50Z</time>
      </trkpt>
      <trkpt lat="46.75467" lon="5.64999">
        <ele>446</ele>
        <time>2019-11-26T13:12:54Z</time>
      </trkpt>
      <trkpt lat="46.75469" lon="5.64992">
        <ele>445.8</ele>
        <time>2019-11-26T13:12:58Z</time>
      </trkpt>
      <trkpt lat="46.75471" lon="5.64986">
        <ele>445.3</ele>
        <time>2019-11-26T13:13:03Z</time>
      </trkpt>
      <trkpt lat="46.75474" lon="5.6498">
        <ele>444.6</ele>
        <time>2019-11-26T13:13:08Z</time>
      </trkpt>
      <trkpt lat="46.75477" lon="5.64974">
        <ele>444</ele>
        <time>2019-11-26T13:13:12Z</time>
      </trkpt>
      <trkpt lat="46.75479" lon="5.64967">
        <ele>443.4</ele>
        <time>2019-11-26T13:13:17Z</time>
      </trkpt>
      <trkpt lat="46.75482" lon="5.64961">
        <ele>442.9</ele>
        <time>2019-11-26T13:13:22Z</time>
      </trkpt>
      <trkpt lat="46.75485" lon="5.64955">
        <ele>442.7</ele>
        <time>2019-11-26T13:13:30Z</time>
      </trkpt>
      <trkpt lat="46.75488" lon="5.64949">
        <ele>443.2</ele>
        <time>2019-11-26T13:13:37Z</time>
      </trkpt>
      <trkpt lat="46.75489" lon="5.6494">
        <ele>443.4</ele>
        <time>2019-11-26T13:13:43Z</time>
      </trkpt>
      <trkpt lat="46.7549" lon="5.64934">
        <ele>443.4</ele>
        <time>2019-11-26T13:13:48Z</time>
      </trkpt>
      <trkpt lat="46.75492" lon="5.64927">
        <ele>443.3</ele>
        <time>2019-11-26T13:13:54Z</time>
      </trkpt>
      <trkpt lat="46.75493" lon="5.64919">
        <ele>443.4</ele>
        <time>2019-11-26T13:13:59Z</time>
      </trkpt>
      <trkpt lat="46.75493" lon="5.64912">
        <ele>443.5</ele>
        <time>2019-11-26T13:14:03Z</time>
      </trkpt>
      <trkpt lat="46.75495" lon="5.64905">
        <ele>443.8</ele>
        <time>2019-11-26T13:14:07Z</time>
      </trkpt>
      <trkpt lat="46.75496" lon="5.64898">
        <ele>444.2</ele>
        <time>2019-11-26T13:14:13Z</time>
      </trkpt>
      <trkpt lat="46.75497" lon="5.6489">
        <ele>444.5</ele>
        <time>2019-11-26T13:14:19Z</time>
      </trkpt>
      <trkpt lat="46.75498" lon="5.64884">
        <ele>444.5</ele>
        <time>2019-11-26T13:14:23Z</time>
      </trkpt>
      <trkpt lat="46.755" lon="5.64876">
        <ele>444.6</ele>
        <time>2019-11-26T13:14:27Z</time>
      </trkpt>
      <trkpt lat="46.75501" lon="5.64869">
        <ele>444.7</ele>
        <time>2019-11-26T13:14:31Z</time>
      </trkpt>
      <trkpt lat="46.75503" lon="5.64863">
        <ele>444.6</ele>
        <time>2019-11-26T13:14:36Z</time>
      </trkpt>
      <trkpt lat="46.75506" lon="5.64858">
        <ele>444.6</ele>
        <time>2019-11-26T13:14:41Z</time>
      </trkpt>
      <trkpt lat="46.75508" lon="5.6485">
        <ele>444.5</ele>
        <time>2019-11-26T13:14:47Z</time>
      </trkpt>
      <trkpt lat="46.75509" lon="5.64843">
        <ele>444.4</ele>
        <time>2019-11-26T13:14:51Z</time>
      </trkpt>
      <trkpt lat="46.75511" lon="5.64835">
        <ele>444.3</ele>
        <time>2019-11-26T13:14:55Z</time>
      </trkpt>
      <trkpt lat="46.75513" lon="5.64829">
        <ele>444.3</ele>
        <time>2019-11-26T13:15:00Z</time>
      </trkpt>
      <trkpt lat="46.75515" lon="5.64822">
        <ele>444.3</ele>
        <time>2019-11-26T13:15:06Z</time>
      </trkpt>
      <trkpt lat="46.75518" lon="5.64816">
        <ele>444.3</ele>
        <time>2019-11-26T13:15:10Z</time>
      </trkpt>
      <trkpt lat="46.75521" lon="5.6481">
        <ele>444.2</ele>
        <time>2019-11-26T13:15:16Z</time>
      </trkpt>
      <trkpt lat="46.75524" lon="5.64804">
        <ele>443.9</ele>
        <time>2019-11-26T13:15:21Z</time>
      </trkpt>
      <trkpt lat="46.75527" lon="5.648">
        <ele>443.5</ele>
        <time>2019-11-26T13:15:26Z</time>
      </trkpt>
      <trkpt lat="46.7553" lon="5.64794">
        <ele>442.9</ele>
        <time>2019-11-26T13:15:31Z</time>
      </trkpt>
      <trkpt lat="46.75533" lon="5.64788">
        <ele>442.2</ele>
        <time>2019-11-26T13:15:37Z</time>
      </trkpt>
      <trkpt lat="46.75536" lon="5.64781">
        <ele>442</ele>
        <time>2019-11-26T13:15:41Z</time>
      </trkpt>
      <trkpt lat="46.75538" lon="5.64773">
        <ele>442.4</ele>
        <time>2019-11-26T13:15:46Z</time>
      </trkpt>
      <trkpt lat="46.7554" lon="5.64767">
        <ele>442.9</ele>
        <time>2019-11-26T13:15:50Z</time>
      </trkpt>
      <trkpt lat="46.75541" lon="5.6476">
        <ele>443.6</ele>
        <time>2019-11-26T13:15:55Z</time>
      </trkpt>
      <trkpt lat="46.75543" lon="5.64752">
        <ele>444.2</ele>
        <time>2019-11-26T13:15:59Z</time>
      </trkpt>
      <trkpt lat="46.75544" lon="5.64744">
        <ele>445.1</ele>
        <time>2019-11-26T13:16:04Z</time>
      </trkpt>
      <trkpt lat="46.75545" lon="5.64737">
        <ele>446.2</ele>
        <time>2019-11-26T13:16:11Z</time>
      </trkpt>
      <trkpt lat="46.75546" lon="5.64731">
        <ele>447.1</ele>
        <time>2019-11-26T13:16:18Z</time>
      </trkpt>
      <trkpt lat="46.75548" lon="5.64725">
        <ele>447.4</ele>
        <time>2019-11-26T13:16:23Z</time>
      </trkpt>
      <trkpt lat="46.75551" lon="5.64719">
        <ele>447.3</ele>
        <time>2019-11-26T13:16:28Z</time>
      </trkpt>
      <trkpt lat="46.75553" lon="5.64712">
        <ele>447.2</ele>
        <time>2019-11-26T13:16:33Z</time>
      </trkpt>
      <trkpt lat="46.75554" lon="5.64705">
        <ele>447</ele>
        <time>2019-11-26T13:16:38Z</time>
      </trkpt>
      <trkpt lat="46.75557" lon="5.64699">
        <ele>446.6</ele>
        <time>2019-11-26T13:16:42Z</time>
      </trkpt>
      <trkpt lat="46.75559" lon="5.64693">
        <ele>446</ele>
        <time>2019-11-26T13:16:46Z</time>
      </trkpt>
      <trkpt lat="46.75561" lon="5.64685">
        <ele>445</ele>
        <time>2019-11-26T13:16:51Z</time>
      </trkpt>
      <trkpt lat="46.75562" lon="5.64678">
        <ele>444.3</ele>
        <time>2019-11-26T13:16:55Z</time>
      </trkpt>
      <trkpt lat="46.75563" lon="5.6467">
        <ele>443.7</ele>
        <time>2019-11-26T13:16:59Z</time>
      </trkpt>
      <trkpt lat="46.75565" lon="5.64662">
        <ele>443.2</ele>
        <time>2019-11-26T13:17:03Z</time>
      </trkpt>
      <trkpt lat="46.75565" lon="5.64656">
        <ele>442.7</ele>
        <time>2019-11-26T13:17:07Z</time>
      </trkpt>
      <trkpt lat="46.75565" lon="5.64648">
        <ele>442.1</ele>
        <time>2019-11-26T13:17:11Z</time>
      </trkpt>
      <trkpt lat="46.75565" lon="5.64641">
        <ele>441.5</ele>
        <time>2019-11-26T13:17:16Z</time>
      </trkpt>
      <trkpt lat="46.75566" lon="5.64634">
        <ele>440.9</ele>
        <time>2019-11-26T13:17:20Z</time>
      </trkpt>
      <trkpt lat="46.75566" lon="5.64627">
        <ele>439.9</ele>
        <time>2019-11-26T13:17:28Z</time>
      </trkpt>
      <trkpt lat="46.75566" lon="5.6462">
        <ele>439.2</ele>
        <time>2019-11-26T13:17:34Z</time>
      </trkpt>
      <trkpt lat="46.75566" lon="5.64613">
        <ele>438.7</ele>
        <time>2019-11-26T13:17:37Z</time>
      </trkpt>
      <trkpt lat="46.75565" lon="5.64606">
        <ele>438.1</ele>
        <time>2019-11-26T13:17:41Z</time>
      </trkpt>
      <trkpt lat="46.75564" lon="5.64599">
        <ele>437.3</ele>
        <time>2019-11-26T13:17:46Z</time>
      </trkpt>
      <trkpt lat="46.75564" lon="5.64592">
        <ele>436.2</ele>
        <time>2019-11-26T13:17:52Z</time>
      </trkpt>
      <trkpt lat="46.75565" lon="5.64584">
        <ele>435.1</ele>
        <time>2019-11-26T13:17:57Z</time>
      </trkpt>
      <trkpt lat="46.75566" lon="5.64577">
        <ele>434</ele>
        <time>2019-11-26T13:18:02Z</time>
      </trkpt>
      <trkpt lat="46.75567" lon="5.6457">
        <ele>434</ele>
        <time>2019-11-26T13:18:08Z</time>
      </trkpt>
      <trkpt lat="46.75569" lon="5.64562">
        <ele>435.5</ele>
        <time>2019-11-26T13:18:13Z</time>
      </trkpt>
      <trkpt lat="46.7557" lon="5.64553">
        <ele>436.3</ele>
        <time>2019-11-26T13:18:15Z</time>
      </trkpt>
      <trkpt lat="46.7557" lon="5.64544">
        <ele>437.2</ele>
        <time>2019-11-26T13:18:17Z</time>
      </trkpt>
      <trkpt lat="46.7557" lon="5.64536">
        <ele>438.4</ele>
        <time>2019-11-26T13:18:20Z</time>
      </trkpt>
      <trkpt lat="46.7557" lon="5.64528">
        <ele>439.7</ele>
        <time>2019-11-26T13:18:24Z</time>
      </trkpt>
      <trkpt lat="46.75569" lon="5.64521">
        <ele>440.5</ele>
        <time>2019-11-26T13:18:28Z</time>
      </trkpt>
      <trkpt lat="46.75568" lon="5.64514">
        <ele>441</ele>
        <time>2019-11-26T13:18:32Z</time>
      </trkpt>
      <trkpt lat="46.75568" lon="5.64506">
        <ele>441.3</ele>
        <time>2019-11-26T13:18:36Z</time>
      </trkpt>
      <trkpt lat="46.75568" lon="5.64498">
        <ele>441.3</ele>
        <time>2019-11-26T13:18:41Z</time>
      </trkpt>
      <trkpt lat="46.75568" lon="5.64491">
        <ele>441.1</ele>
        <time>2019-11-26T13:18:47Z</time>
      </trkpt>
      <trkpt lat="46.75568" lon="5.64484">
        <ele>441</ele>
        <time>2019-11-26T13:18:51Z</time>
      </trkpt>
      <trkpt lat="46.75568" lon="5.64477">
        <ele>440.7</ele>
        <time>2019-11-26T13:18:55Z</time>
      </trkpt>
      <trkpt lat="46.75568" lon="5.64469">
        <ele>440.4</ele>
        <time>2019-11-26T13:18:59Z</time>
      </trkpt>
      <trkpt lat="46.75568" lon="5.64461">
        <ele>440.1</ele>
        <time>2019-11-26T13:19:04Z</time>
      </trkpt>
      <trkpt lat="46.75567" lon="5.64454">
        <ele>439.8</ele>
        <time>2019-11-26T13:19:08Z</time>
      </trkpt>
      <trkpt lat="46.75566" lon="5.64446">
        <ele>439.5</ele>
        <time>2019-11-26T13:19:12Z</time>
      </trkpt>
      <trkpt lat="46.75566" lon="5.64439">
        <ele>439.3</ele>
        <time>2019-11-26T13:19:16Z</time>
      </trkpt>
      <trkpt lat="46.75566" lon="5.64431">
        <ele>439.1</ele>
        <time>2019-11-26T13:19:21Z</time>
      </trkpt>
      <trkpt lat="46.75566" lon="5.64423">
        <ele>438.9</ele>
        <time>2019-11-26T13:19:25Z</time>
      </trkpt>
      <trkpt lat="46.75568" lon="5.64416">
        <ele>438.9</ele>
        <time>2019-11-26T13:19:29Z</time>
      </trkpt>
      <trkpt lat="46.75568" lon="5.64409">
        <ele>438.9</ele>
        <time>2019-11-26T13:19:33Z</time>
      </trkpt>
      <trkpt lat="46.75569" lon="5.64402">
        <ele>438.9</ele>
        <time>2019-11-26T13:19:37Z</time>
      </trkpt>
      <trkpt lat="46.75569" lon="5.64395">
        <ele>438.9</ele>
        <time>2019-11-26T13:19:41Z</time>
      </trkpt>
      <trkpt lat="46.75569" lon="5.64388">
        <ele>438.7</ele>
        <time>2019-11-26T13:19:45Z</time>
      </trkpt>
      <trkpt lat="46.75569" lon="5.64381">
        <ele>438.5</ele>
        <time>2019-11-26T13:19:50Z</time>
      </trkpt>
      <trkpt lat="46.75569" lon="5.64373">
        <ele>438.3</ele>
        <time>2019-11-26T13:19:54Z</time>
      </trkpt>
      <trkpt lat="46.75569" lon="5.64365">
        <ele>438.2</ele>
        <time>2019-11-26T13:19:57Z</time>
      </trkpt>
      <trkpt lat="46.75569" lon="5.64357">
        <ele>438.1</ele>
        <time>2019-11-26T13:20:01Z</time>
      </trkpt>
      <trkpt lat="46.75569" lon="5.6435">
        <ele>438.3</ele>
        <time>2019-11-26T13:20:05Z</time>
      </trkpt>
      <trkpt lat="46.75568" lon="5.64344">
        <ele>438.5</ele>
        <time>2019-11-26T13:20:08Z</time>
      </trkpt>
      <trkpt lat="46.75567" lon="5.64337">
        <ele>438.8</ele>
        <time>2019-11-26T13:20:12Z</time>
      </trkpt>
      <trkpt lat="46.75567" lon="5.6433">
        <ele>439.1</ele>
        <time>2019-11-26T13:20:16Z</time>
      </trkpt>
      <trkpt lat="46.75567" lon="5.64323">
        <ele>439.5</ele>
        <time>2019-11-26T13:20:20Z</time>
      </trkpt>
      <trkpt lat="46.75566" lon="5.64315">
        <ele>440</ele>
        <time>2019-11-26T13:20:24Z</time>
      </trkpt>
      <trkpt lat="46.75565" lon="5.64307">
        <ele>440.6</ele>
        <time>2019-11-26T13:20:28Z</time>
      </trkpt>
      <trkpt lat="46.75565" lon="5.643">
        <ele>441.3</ele>
        <time>2019-11-26T13:20:33Z</time>
      </trkpt>
      <trkpt lat="46.75565" lon="5.64293">
        <ele>442</ele>
        <time>2019-11-26T13:20:38Z</time>
      </trkpt>
      <trkpt lat="46.75565" lon="5.64285">
        <ele>442.5</ele>
        <time>2019-11-26T13:20:43Z</time>
      </trkpt>
      <trkpt lat="46.75565" lon="5.64277">
        <ele>442.9</ele>
        <time>2019-11-26T13:20:48Z</time>
      </trkpt>
      <trkpt lat="46.75566" lon="5.6427">
        <ele>443.2</ele>
        <time>2019-11-26T13:20:52Z</time>
      </trkpt>
      <trkpt lat="46.75566" lon="5.64262">
        <ele>443.5</ele>
        <time>2019-11-26T13:20:56Z</time>
      </trkpt>
      <trkpt lat="46.75567" lon="5.64254">
        <ele>443.7</ele>
        <time>2019-11-26T13:21:01Z</time>
      </trkpt>
      <trkpt lat="46.75567" lon="5.64247">
        <ele>443.9</ele>
        <time>2019-11-26T13:21:07Z</time>
      </trkpt>
      <trkpt lat="46.75567" lon="5.6424">
        <ele>444</ele>
        <time>2019-11-26T13:21:11Z</time>
      </trkpt>
      <trkpt lat="46.75568" lon="5.64232">
        <ele>444</ele>
        <time>2019-11-26T13:21:15Z</time>
      </trkpt>
      <trkpt lat="46.75568" lon="5.64225">
        <ele>443.8</ele>
        <time>2019-11-26T13:21:19Z</time>
      </trkpt>
      <trkpt lat="46.75568" lon="5.64219">
        <ele>443.4</ele>
        <time>2019-11-26T13:21:24Z</time>
      </trkpt>
      <trkpt lat="46.75569" lon="5.64211">
        <ele>443.2</ele>
        <time>2019-11-26T13:21:28Z</time>
      </trkpt>
      <trkpt lat="46.7557" lon="5.64204">
        <ele>443</ele>
        <time>2019-11-26T13:21:31Z</time>
      </trkpt>
      <trkpt lat="46.7557" lon="5.64196">
        <ele>442.7</ele>
        <time>2019-11-26T13:21:35Z</time>
      </trkpt>
      <trkpt lat="46.75571" lon="5.6419">
        <ele>442.6</ele>
        <time>2019-11-26T13:21:39Z</time>
      </trkpt>
      <trkpt lat="46.75571" lon="5.64182">
        <ele>442.7</ele>
        <time>2019-11-26T13:21:43Z</time>
      </trkpt>
      <trkpt lat="46.75572" lon="5.64174">
        <ele>442.7</ele>
        <time>2019-11-26T13:21:47Z</time>
      </trkpt>
      <trkpt lat="46.75571" lon="5.64167">
        <ele>442.6</ele>
        <time>2019-11-26T13:21:51Z</time>
      </trkpt>
      <trkpt lat="46.7557" lon="5.64159">
        <ele>442.4</ele>
        <time>2019-11-26T13:21:55Z</time>
      </trkpt>
      <trkpt lat="46.75567" lon="5.64153">
        <ele>442</ele>
        <time>2019-11-26T13:22:00Z</time>
      </trkpt>
      <trkpt lat="46.75565" lon="5.64147">
        <ele>441.7</ele>
        <time>2019-11-26T13:22:04Z</time>
      </trkpt>
      <trkpt lat="46.75564" lon="5.64139">
        <ele>441.3</ele>
        <time>2019-11-26T13:22:09Z</time>
      </trkpt>
      <trkpt lat="46.75563" lon="5.64132">
        <ele>441.1</ele>
        <time>2019-11-26T13:22:13Z</time>
      </trkpt>
      <trkpt lat="46.75562" lon="5.64124">
        <ele>441</ele>
        <time>2019-11-26T13:22:17Z</time>
      </trkpt>
      <trkpt lat="46.75561" lon="5.64116">
        <ele>441</ele>
        <time>2019-11-26T13:22:21Z</time>
      </trkpt>
      <trkpt lat="46.7556" lon="5.64108">
        <ele>441</ele>
        <time>2019-11-26T13:22:25Z</time>
      </trkpt>
      <trkpt lat="46.7556" lon="5.64101">
        <ele>440.8</ele>
        <time>2019-11-26T13:22:29Z</time>
      </trkpt>
      <trkpt lat="46.7556" lon="5.64093">
        <ele>440.8</ele>
        <time>2019-11-26T13:22:33Z</time>
      </trkpt>
      <trkpt lat="46.7556" lon="5.64086">
        <ele>440.7</ele>
        <time>2019-11-26T13:22:38Z</time>
      </trkpt>
      <trkpt lat="46.7556" lon="5.64079">
        <ele>440.7</ele>
        <time>2019-11-26T13:22:42Z</time>
      </trkpt>
      <trkpt lat="46.75561" lon="5.64071">
        <ele>440.5</ele>
        <time>2019-11-26T13:22:46Z</time>
      </trkpt>
      <trkpt lat="46.75561" lon="5.64063">
        <ele>440.2</ele>
        <time>2019-11-26T13:22:50Z</time>
      </trkpt>
      <trkpt lat="46.75561" lon="5.64056">
        <ele>439.8</ele>
        <time>2019-11-26T13:22:55Z</time>
      </trkpt>
      <trkpt lat="46.75562" lon="5.64049">
        <ele>439.6</ele>
        <time>2019-11-26T13:22:59Z</time>
      </trkpt>
      <trkpt lat="46.75562" lon="5.64042">
        <ele>439.4</ele>
        <time>2019-11-26T13:23:03Z</time>
      </trkpt>
      <trkpt lat="46.75564" lon="5.64034">
        <ele>439.3</ele>
        <time>2019-11-26T13:23:07Z</time>
      </trkpt>
      <trkpt lat="46.75564" lon="5.64026">
        <ele>439.2</ele>
        <time>2019-11-26T13:23:12Z</time>
      </trkpt>
      <trkpt lat="46.75565" lon="5.64019">
        <ele>439</ele>
        <time>2019-11-26T13:23:16Z</time>
      </trkpt>
      <trkpt lat="46.75566" lon="5.64011">
        <ele>438.6</ele>
        <time>2019-11-26T13:23:20Z</time>
      </trkpt>
      <trkpt lat="46.75566" lon="5.64005">
        <ele>438.2</ele>
        <time>2019-11-26T13:23:24Z</time>
      </trkpt>
      <trkpt lat="46.75567" lon="5.63998">
        <ele>437.9</ele>
        <time>2019-11-26T13:23:28Z</time>
      </trkpt>
      <trkpt lat="46.75568" lon="5.6399">
        <ele>437.7</ele>
        <time>2019-11-26T13:23:32Z</time>
      </trkpt>
      <trkpt lat="46.75568" lon="5.63983">
        <ele>437.6</ele>
        <time>2019-11-26T13:23:36Z</time>
      </trkpt>
      <trkpt lat="46.75568" lon="5.63975">
        <ele>437.2</ele>
        <time>2019-11-26T13:23:41Z</time>
      </trkpt>
      <trkpt lat="46.75569" lon="5.63968">
        <ele>436.9</ele>
        <time>2019-11-26T13:23:45Z</time>
      </trkpt>
      <trkpt lat="46.7557" lon="5.6396">
        <ele>436.6</ele>
        <time>2019-11-26T13:23:49Z</time>
      </trkpt>
      <trkpt lat="46.75571" lon="5.63953">
        <ele>436.3</ele>
        <time>2019-11-26T13:23:52Z</time>
      </trkpt>
      <trkpt lat="46.75571" lon="5.63945">
        <ele>436.2</ele>
        <time>2019-11-26T13:23:56Z</time>
      </trkpt>
      <trkpt lat="46.75572" lon="5.63939">
        <ele>436.3</ele>
        <time>2019-11-26T13:23:59Z</time>
      </trkpt>
      <trkpt lat="46.75573" lon="5.6393">
        <ele>436.4</ele>
        <time>2019-11-26T13:24:03Z</time>
      </trkpt>
      <trkpt lat="46.75574" lon="5.63923">
        <ele>436.5</ele>
        <time>2019-11-26T13:24:07Z</time>
      </trkpt>
      <trkpt lat="46.75574" lon="5.63916">
        <ele>436.6</ele>
        <time>2019-11-26T13:24:12Z</time>
      </trkpt>
      <trkpt lat="46.75575" lon="5.63908">
        <ele>436.9</ele>
        <time>2019-11-26T13:24:17Z</time>
      </trkpt>
      <trkpt lat="46.75574" lon="5.63901">
        <ele>437.3</ele>
        <time>2019-11-26T13:24:22Z</time>
      </trkpt>
      <trkpt lat="46.75574" lon="5.63893">
        <ele>437.6</ele>
        <time>2019-11-26T13:24:26Z</time>
      </trkpt>
      <trkpt lat="46.75573" lon="5.63885">
        <ele>437.9</ele>
        <time>2019-11-26T13:24:30Z</time>
      </trkpt>
      <trkpt lat="46.75573" lon="5.63878">
        <ele>438.2</ele>
        <time>2019-11-26T13:24:34Z</time>
      </trkpt>
      <trkpt lat="46.75573" lon="5.63871">
        <ele>438.5</ele>
        <time>2019-11-26T13:24:39Z</time>
      </trkpt>
      <trkpt lat="46.75571" lon="5.63865">
        <ele>439</ele>
        <time>2019-11-26T13:24:44Z</time>
      </trkpt>
      <trkpt lat="46.7557" lon="5.63858">
        <ele>439.2</ele>
        <time>2019-11-26T13:24:48Z</time>
      </trkpt>
      <trkpt lat="46.75568" lon="5.6385">
        <ele>439.5</ele>
        <time>2019-11-26T13:24:52Z</time>
      </trkpt>
      <trkpt lat="46.75567" lon="5.63843">
        <ele>439.8</ele>
        <time>2019-11-26T13:24:57Z</time>
      </trkpt>
      <trkpt lat="46.75565" lon="5.63836">
        <ele>440</ele>
        <time>2019-11-26T13:25:01Z</time>
      </trkpt>
      <trkpt lat="46.75564" lon="5.63827">
        <ele>440.2</ele>
        <time>2019-11-26T13:25:05Z</time>
      </trkpt>
      <trkpt lat="46.75563" lon="5.6382">
        <ele>440.4</ele>
        <time>2019-11-26T13:25:09Z</time>
      </trkpt>
      <trkpt lat="46.75562" lon="5.63813">
        <ele>440.7</ele>
        <time>2019-11-26T13:25:13Z</time>
      </trkpt>
      <trkpt lat="46.75561" lon="5.63806">
        <ele>440.8</ele>
        <time>2019-11-26T13:25:17Z</time>
      </trkpt>
      <trkpt lat="46.7556" lon="5.638">
        <ele>440.9</ele>
        <time>2019-11-26T13:25:21Z</time>
      </trkpt>
      <trkpt lat="46.7556" lon="5.63793">
        <ele>440.9</ele>
        <time>2019-11-26T13:25:25Z</time>
      </trkpt>
      <trkpt lat="46.75559" lon="5.63785">
        <ele>440.8</ele>
        <time>2019-11-26T13:25:29Z</time>
      </trkpt>
      <trkpt lat="46.75558" lon="5.63778">
        <ele>440.5</ele>
        <time>2019-11-26T13:25:33Z</time>
      </trkpt>
      <trkpt lat="46.75557" lon="5.6377">
        <ele>440.2</ele>
        <time>2019-11-26T13:25:37Z</time>
      </trkpt>
      <trkpt lat="46.75556" lon="5.63764">
        <ele>439.8</ele>
        <time>2019-11-26T13:25:41Z</time>
      </trkpt>
      <trkpt lat="46.75554" lon="5.63756">
        <ele>439.3</ele>
        <time>2019-11-26T13:25:46Z</time>
      </trkpt>
      <trkpt lat="46.75553" lon="5.6375">
        <ele>439</ele>
        <time>2019-11-26T13:25:50Z</time>
      </trkpt>
      <trkpt lat="46.75551" lon="5.63743">
        <ele>438.7</ele>
        <time>2019-11-26T13:25:54Z</time>
      </trkpt>
      <trkpt lat="46.7555" lon="5.63735">
        <ele>438.2</ele>
        <time>2019-11-26T13:26:01Z</time>
      </trkpt>
      <trkpt lat="46.75547" lon="5.63729">
        <ele>438.1</ele>
        <time>2019-11-26T13:26:07Z</time>
      </trkpt>
      <trkpt lat="46.75546" lon="5.63722">
        <ele>438</ele>
        <time>2019-11-26T13:26:11Z</time>
      </trkpt>
      <trkpt lat="46.75545" lon="5.63716">
        <ele>437.7</ele>
        <time>2019-11-26T13:26:16Z</time>
      </trkpt>
      <trkpt lat="46.75544" lon="5.63708">
        <ele>437.4</ele>
        <time>2019-11-26T13:26:21Z</time>
      </trkpt>
      <trkpt lat="46.75543" lon="5.63701">
        <ele>437.2</ele>
        <time>2019-11-26T13:26:26Z</time>
      </trkpt>
      <trkpt lat="46.75541" lon="5.63694">
        <ele>437.3</ele>
        <time>2019-11-26T13:26:30Z</time>
      </trkpt>
      <trkpt lat="46.7554" lon="5.63687">
        <ele>437.4</ele>
        <time>2019-11-26T13:26:34Z</time>
      </trkpt>
      <trkpt lat="46.75539" lon="5.63681">
        <ele>437.4</ele>
        <time>2019-11-26T13:26:37Z</time>
      </trkpt>
      <trkpt lat="46.75537" lon="5.63673">
        <ele>437.4</ele>
        <time>2019-11-26T13:26:41Z</time>
      </trkpt>
      <trkpt lat="46.75536" lon="5.63665">
        <ele>437.4</ele>
        <time>2019-11-26T13:26:45Z</time>
      </trkpt>
      <trkpt lat="46.75535" lon="5.63658">
        <ele>437.3</ele>
        <time>2019-11-26T13:26:49Z</time>
      </trkpt>
      <trkpt lat="46.75534" lon="5.6365">
        <ele>437.2</ele>
        <time>2019-11-26T13:26:53Z</time>
      </trkpt>
      <trkpt lat="46.75534" lon="5.63644">
        <ele>437.2</ele>
        <time>2019-11-26T13:26:57Z</time>
      </trkpt>
      <trkpt lat="46.75533" lon="5.63636">
        <ele>437.1</ele>
        <time>2019-11-26T13:27:02Z</time>
      </trkpt>
      <trkpt lat="46.75531" lon="5.63629">
        <ele>437</ele>
        <time>2019-11-26T13:27:06Z</time>
      </trkpt>
      <trkpt lat="46.75529" lon="5.63621">
        <ele>436.8</ele>
        <time>2019-11-26T13:27:10Z</time>
      </trkpt>
      <trkpt lat="46.75528" lon="5.63614">
        <ele>436.4</ele>
        <time>2019-11-26T13:27:15Z</time>
      </trkpt>
      <trkpt lat="46.75528" lon="5.63607">
        <ele>435.8</ele>
        <time>2019-11-26T13:27:20Z</time>
      </trkpt>
      <trkpt lat="46.75525" lon="5.63601">
        <ele>435.3</ele>
        <time>2019-11-26T13:27:24Z</time>
      </trkpt>
      <trkpt lat="46.75523" lon="5.63595">
        <ele>434.8</ele>
        <time>2019-11-26T13:27:28Z</time>
      </trkpt>
      <trkpt lat="46.75519" lon="5.63591">
        <ele>434.5</ele>
        <time>2019-11-26T13:27:32Z</time>
      </trkpt>
      <trkpt lat="46.75515" lon="5.63588">
        <ele>434.3</ele>
        <time>2019-11-26T13:27:37Z</time>
      </trkpt>
      <trkpt lat="46.7551" lon="5.63586">
        <ele>434.3</ele>
        <time>2019-11-26T13:27:42Z</time>
      </trkpt>
      <trkpt lat="46.75505" lon="5.63586">
        <ele>434.3</ele>
        <time>2019-11-26T13:27:47Z</time>
      </trkpt>
      <trkpt lat="46.755" lon="5.63585">
        <ele>434.1</ele>
        <time>2019-11-26T13:27:51Z</time>
      </trkpt>
      <trkpt lat="46.75495" lon="5.63583">
        <ele>433.9</ele>
        <time>2019-11-26T13:27:54Z</time>
      </trkpt>
      <trkpt lat="46.7549" lon="5.63582">
        <ele>433.8</ele>
        <time>2019-11-26T13:27:57Z</time>
      </trkpt>
      <trkpt lat="46.75486" lon="5.6358">
        <ele>433.7</ele>
        <time>2019-11-26T13:28:01Z</time>
      </trkpt>
      <trkpt lat="46.75481" lon="5.63577">
        <ele>433.6</ele>
        <time>2019-11-26T13:28:05Z</time>
      </trkpt>
      <trkpt lat="46.75476" lon="5.63575">
        <ele>433.1</ele>
        <time>2019-11-26T13:28:10Z</time>
      </trkpt>
      <trkpt lat="46.75471" lon="5.63572">
        <ele>432.4</ele>
        <time>2019-11-26T13:28:16Z</time>
      </trkpt>
      <trkpt lat="46.75467" lon="5.6357">
        <ele>432.3</ele>
        <time>2019-11-26T13:28:21Z</time>
      </trkpt>
      <trkpt lat="46.75463" lon="5.63566">
        <ele>432.7</ele>
        <time>2019-11-26T13:28:27Z</time>
      </trkpt>
      <trkpt lat="46.75459" lon="5.63561">
        <ele>433.5</ele>
        <time>2019-11-26T13:28:33Z</time>
      </trkpt>
      <trkpt lat="46.75455" lon="5.63556">
        <ele>434.2</ele>
        <time>2019-11-26T13:28:38Z</time>
      </trkpt>
      <trkpt lat="46.75453" lon="5.6355">
        <ele>435.2</ele>
        <time>2019-11-26T13:28:44Z</time>
      </trkpt>
      <trkpt lat="46.7545" lon="5.63544">
        <ele>436.2</ele>
        <time>2019-11-26T13:28:52Z</time>
      </trkpt>
      <trkpt lat="46.7544" lon="5.6353">
        <ele>438.3</ele>
        <time>2019-11-26T13:29:06Z</time>
      </trkpt>
      <trkpt lat="46.75435" lon="5.63526">
        <ele>438.7</ele>
        <time>2019-11-26T13:29:11Z</time>
      </trkpt>
      <trkpt lat="46.75431" lon="5.63524">
        <ele>439.1</ele>
        <time>2019-11-26T13:29:15Z</time>
      </trkpt>
      <trkpt lat="46.75427" lon="5.6352">
        <ele>439.7</ele>
        <time>2019-11-26T13:29:21Z</time>
      </trkpt>
      <trkpt lat="46.75405" lon="5.63512">
        <ele>444.6</ele>
        <time>2019-11-26T13:30:21Z</time>
      </trkpt>
      <trkpt lat="46.75402" lon="5.63506">
        <ele>444.4</ele>
        <time>2019-11-26T13:30:26Z</time>
      </trkpt>
      <trkpt lat="46.75396" lon="5.63494">
        <ele>443.5</ele>
        <time>2019-11-26T13:30:34Z</time>
      </trkpt>
      <trkpt lat="46.75392" lon="5.63488">
        <ele>443</ele>
        <time>2019-11-26T13:30:37Z</time>
      </trkpt>
      <trkpt lat="46.75386" lon="5.63475">
        <ele>441</ele>
        <time>2019-11-26T13:30:50Z</time>
      </trkpt>
      <trkpt lat="46.75384" lon="5.63467">
        <ele>440.7</ele>
        <time>2019-11-26T13:30:53Z</time>
      </trkpt>
      <trkpt lat="46.75381" lon="5.63453">
        <ele>440.5</ele>
        <time>2019-11-26T13:30:56Z</time>
      </trkpt>
      <trkpt lat="46.75378" lon="5.63444">
        <ele>440.3</ele>
        <time>2019-11-26T13:30:58Z</time>
      </trkpt>
      <trkpt lat="46.75376" lon="5.63438">
        <ele>440.2</ele>
        <time>2019-11-26T13:31:00Z</time>
      </trkpt>
      <trkpt lat="46.75375" lon="5.63431">
        <ele>440.2</ele>
        <time>2019-11-26T13:31:02Z</time>
      </trkpt>
      <trkpt lat="46.75373" lon="5.63424">
        <ele>440.3</ele>
        <time>2019-11-26T13:31:05Z</time>
      </trkpt>
      <trkpt lat="46.75372" lon="5.63417">
        <ele>440.4</ele>
        <time>2019-11-26T13:31:10Z</time>
      </trkpt>
      <trkpt lat="46.75372" lon="5.63408">
        <ele>440.4</ele>
        <time>2019-11-26T13:31:14Z</time>
      </trkpt>
      <trkpt lat="46.75372" lon="5.63399">
        <ele>440.4</ele>
        <time>2019-11-26T13:31:17Z</time>
      </trkpt>
      <trkpt lat="46.75373" lon="5.63393">
        <ele>440.2</ele>
        <time>2019-11-26T13:31:19Z</time>
      </trkpt>
      <trkpt lat="46.75374" lon="5.63385">
        <ele>440</ele>
        <time>2019-11-26T13:31:23Z</time>
      </trkpt>
      <trkpt lat="46.75376" lon="5.63377">
        <ele>439.6</ele>
        <time>2019-11-26T13:31:27Z</time>
      </trkpt>
      <trkpt lat="46.75376" lon="5.63371">
        <ele>439.3</ele>
        <time>2019-11-26T13:31:30Z</time>
      </trkpt>
      <trkpt lat="46.75377" lon="5.63364">
        <ele>439</ele>
        <time>2019-11-26T13:31:33Z</time>
      </trkpt>
      <trkpt lat="46.75379" lon="5.63357">
        <ele>438.8</ele>
        <time>2019-11-26T13:31:37Z</time>
      </trkpt>
      <trkpt lat="46.75382" lon="5.63352">
        <ele>438.5</ele>
        <time>2019-11-26T13:31:40Z</time>
      </trkpt>
      <trkpt lat="46.75386" lon="5.63347">
        <ele>437.9</ele>
        <time>2019-11-26T13:31:43Z</time>
      </trkpt>
      <trkpt lat="46.75389" lon="5.63343">
        <ele>436.8</ele>
        <time>2019-11-26T13:31:48Z</time>
      </trkpt>
      <trkpt lat="46.75394" lon="5.63338">
        <ele>435</ele>
        <time>2019-11-26T13:31:54Z</time>
      </trkpt>
      <trkpt lat="46.75398" lon="5.63334">
        <ele>433.7</ele>
        <time>2019-11-26T13:31:58Z</time>
      </trkpt>
      <trkpt lat="46.75403" lon="5.63329">
        <ele>431.7</ele>
        <time>2019-11-26T13:32:04Z</time>
      </trkpt>
      <trkpt lat="46.75406" lon="5.63323">
        <ele>430.1</ele>
        <time>2019-11-26T13:32:09Z</time>
      </trkpt>
      <trkpt lat="46.75409" lon="5.63315">
        <ele>429.4</ele>
        <time>2019-11-26T13:32:12Z</time>
      </trkpt>
      <trkpt lat="46.75411" lon="5.63309">
        <ele>428.9</ele>
        <time>2019-11-26T13:32:14Z</time>
      </trkpt>
      <trkpt lat="46.75414" lon="5.63302">
        <ele>428.2</ele>
        <time>2019-11-26T13:32:17Z</time>
      </trkpt>
      <trkpt lat="46.75415" lon="5.63295">
        <ele>427.7</ele>
        <time>2019-11-26T13:32:20Z</time>
      </trkpt>
      <trkpt lat="46.75417" lon="5.63289">
        <ele>427</ele>
        <time>2019-11-26T13:32:25Z</time>
      </trkpt>
      <trkpt lat="46.75419" lon="5.63282">
        <ele>426.7</ele>
        <time>2019-11-26T13:32:30Z</time>
      </trkpt>
      <trkpt lat="46.7542" lon="5.63275">
        <ele>426.5</ele>
        <time>2019-11-26T13:32:34Z</time>
      </trkpt>
      <trkpt lat="46.75421" lon="5.63267">
        <ele>426.1</ele>
        <time>2019-11-26T13:32:38Z</time>
      </trkpt>
      <trkpt lat="46.75424" lon="5.63259">
        <ele>425.9</ele>
        <time>2019-11-26T13:32:41Z</time>
      </trkpt>
      <trkpt lat="46.75427" lon="5.63252">
        <ele>425.9</ele>
        <time>2019-11-26T13:32:45Z</time>
      </trkpt>
      <trkpt lat="46.75432" lon="5.63234">
        <ele>427.7</ele>
        <time>2019-11-26T13:32:57Z</time>
      </trkpt>
      <trkpt lat="46.75431" lon="5.63219">
        <ele>429.4</ele>
        <time>2019-11-26T13:33:08Z</time>
      </trkpt>
      <trkpt lat="46.7543" lon="5.63212">
        <ele>428.9</ele>
        <time>2019-11-26T13:33:13Z</time>
      </trkpt>
      <trkpt lat="46.7543" lon="5.63205">
        <ele>428.6</ele>
        <time>2019-11-26T13:33:19Z</time>
      </trkpt>
      <trkpt lat="46.75431" lon="5.63198">
        <ele>429.3</ele>
        <time>2019-11-26T13:33:26Z</time>
      </trkpt>
      <trkpt lat="46.75431" lon="5.63191">
        <ele>431.2</ele>
        <time>2019-11-26T13:33:34Z</time>
      </trkpt>
      <trkpt lat="46.7543" lon="5.63182">
        <ele>431.6</ele>
        <time>2019-11-26T13:33:37Z</time>
      </trkpt>
      <trkpt lat="46.75429" lon="5.63174">
        <ele>432</ele>
        <time>2019-11-26T13:33:40Z</time>
      </trkpt>
      <trkpt lat="46.75428" lon="5.63165">
        <ele>432.1</ele>
        <time>2019-11-26T13:33:42Z</time>
      </trkpt>
      <trkpt lat="46.75426" lon="5.63157">
        <ele>432.2</ele>
        <time>2019-11-26T13:33:45Z</time>
      </trkpt>
      <trkpt lat="46.75425" lon="5.63144">
        <ele>432.9</ele>
        <time>2019-11-26T13:33:59Z</time>
      </trkpt>
      <trkpt lat="46.75424" lon="5.63137">
        <ele>432.9</ele>
        <time>2019-11-26T13:34:03Z</time>
      </trkpt>
      <trkpt lat="46.75423" lon="5.63127">
        <ele>433</ele>
        <time>2019-11-26T13:34:08Z</time>
      </trkpt>
      <trkpt lat="46.75422" lon="5.63119">
        <ele>433</ele>
        <time>2019-11-26T13:34:11Z</time>
      </trkpt>
      <trkpt lat="46.75421" lon="5.63112">
        <ele>432.9</ele>
        <time>2019-11-26T13:34:13Z</time>
      </trkpt>
      <trkpt lat="46.75418" lon="5.63104">
        <ele>432.8</ele>
        <time>2019-11-26T13:34:16Z</time>
      </trkpt>
      <trkpt lat="46.75415" lon="5.63098">
        <ele>432.5</ele>
        <time>2019-11-26T13:34:19Z</time>
      </trkpt>
      <trkpt lat="46.75412" lon="5.63092">
        <ele>431.7</ele>
        <time>2019-11-26T13:34:25Z</time>
      </trkpt>
      <trkpt lat="46.75411" lon="5.63085">
        <ele>431.3</ele>
        <time>2019-11-26T13:34:30Z</time>
      </trkpt>
      <trkpt lat="46.7541" lon="5.63077">
        <ele>430.7</ele>
        <time>2019-11-26T13:34:34Z</time>
      </trkpt>
      <trkpt lat="46.7541" lon="5.63071">
        <ele>430</ele>
        <time>2019-11-26T13:34:39Z</time>
      </trkpt>
      <trkpt lat="46.75411" lon="5.63064">
        <ele>429.3</ele>
        <time>2019-11-26T13:34:47Z</time>
      </trkpt>
      <trkpt lat="46.75412" lon="5.63056">
        <ele>429.1</ele>
        <time>2019-11-26T13:34:51Z</time>
      </trkpt>
      <trkpt lat="46.75414" lon="5.63049">
        <ele>428.8</ele>
        <time>2019-11-26T13:34:56Z</time>
      </trkpt>
      <trkpt lat="46.75414" lon="5.63041">
        <ele>428.6</ele>
        <time>2019-11-26T13:34:59Z</time>
      </trkpt>
      <trkpt lat="46.75413" lon="5.63033">
        <ele>428.2</ele>
        <time>2019-11-26T13:35:05Z</time>
      </trkpt>
      <trkpt lat="46.75413" lon="5.63026">
        <ele>428.4</ele>
        <time>2019-11-26T13:35:09Z</time>
      </trkpt>
      <trkpt lat="46.75413" lon="5.63018">
        <ele>429.2</ele>
        <time>2019-11-26T13:35:15Z</time>
      </trkpt>
      <trkpt lat="46.75411" lon="5.63012">
        <ele>429.7</ele>
        <time>2019-11-26T13:35:18Z</time>
      </trkpt>
      <trkpt lat="46.75411" lon="5.63005">
        <ele>430.4</ele>
        <time>2019-11-26T13:35:22Z</time>
      </trkpt>
      <trkpt lat="46.7541" lon="5.62998">
        <ele>431.2</ele>
        <time>2019-11-26T13:35:28Z</time>
      </trkpt>
      <trkpt lat="46.75408" lon="5.62992">
        <ele>431.7</ele>
        <time>2019-11-26T13:35:33Z</time>
      </trkpt>
      <trkpt lat="46.75406" lon="5.62986">
        <ele>432.2</ele>
        <time>2019-11-26T13:35:39Z</time>
      </trkpt>
      <trkpt lat="46.75405" lon="5.62978">
        <ele>433.1</ele>
        <time>2019-11-26T13:35:46Z</time>
      </trkpt>
      <trkpt lat="46.75403" lon="5.62971">
        <ele>433.6</ele>
        <time>2019-11-26T13:35:51Z</time>
      </trkpt>
      <trkpt lat="46.75402" lon="5.62964">
        <ele>434</ele>
        <time>2019-11-26T13:35:56Z</time>
      </trkpt>
      <trkpt lat="46.75399" lon="5.62959">
        <ele>434.3</ele>
        <time>2019-11-26T13:36:01Z</time>
      </trkpt>
      <trkpt lat="46.75396" lon="5.62953">
        <ele>434.4</ele>
        <time>2019-11-26T13:36:05Z</time>
      </trkpt>
      <trkpt lat="46.75393" lon="5.62947">
        <ele>434.7</ele>
        <time>2019-11-26T13:36:13Z</time>
      </trkpt>
      <trkpt lat="46.7539" lon="5.6293">
        <ele>434.7</ele>
        <time>2019-11-26T13:36:29Z</time>
      </trkpt>
      <trkpt lat="46.75388" lon="5.62921">
        <ele>434.9</ele>
        <time>2019-11-26T13:36:33Z</time>
      </trkpt>
      <trkpt lat="46.75386" lon="5.62915">
        <ele>435.1</ele>
        <time>2019-11-26T13:36:37Z</time>
      </trkpt>
      <trkpt lat="46.75382" lon="5.6291">
        <ele>435.2</ele>
        <time>2019-11-26T13:36:42Z</time>
      </trkpt>
      <trkpt lat="46.75379" lon="5.62904">
        <ele>435</ele>
        <time>2019-11-26T13:36:46Z</time>
      </trkpt>
      <trkpt lat="46.75376" lon="5.62899">
        <ele>434.6</ele>
        <time>2019-11-26T13:36:52Z</time>
      </trkpt>
      <trkpt lat="46.75373" lon="5.62893">
        <ele>434.3</ele>
        <time>2019-11-26T13:36:57Z</time>
      </trkpt>
      <trkpt lat="46.75372" lon="5.62886">
        <ele>434.4</ele>
        <time>2019-11-26T13:37:03Z</time>
      </trkpt>
      <trkpt lat="46.75375" lon="5.6288">
        <ele>436.2</ele>
        <time>2019-11-26T13:37:12Z</time>
      </trkpt>
      <trkpt lat="46.75382" lon="5.62867">
        <ele>439.5</ele>
        <time>2019-11-26T13:37:25Z</time>
      </trkpt>
      <trkpt lat="46.75384" lon="5.62846">
        <ele>441.2</ele>
        <time>2019-11-26T13:37:41Z</time>
      </trkpt>
      <trkpt lat="46.75382" lon="5.62839">
        <ele>441.2</ele>
        <time>2019-11-26T13:37:44Z</time>
      </trkpt>
      <trkpt lat="46.7538" lon="5.62832">
        <ele>441.2</ele>
        <time>2019-11-26T13:37:47Z</time>
      </trkpt>
      <trkpt lat="46.7538" lon="5.62824">
        <ele>441.3</ele>
        <time>2019-11-26T13:37:52Z</time>
      </trkpt>
      <trkpt lat="46.75379" lon="5.62817">
        <ele>441.2</ele>
        <time>2019-11-26T13:37:55Z</time>
      </trkpt>
      <trkpt lat="46.75376" lon="5.62811">
        <ele>441.2</ele>
        <time>2019-11-26T13:37:58Z</time>
      </trkpt>
      <trkpt lat="46.75372" lon="5.62807">
        <ele>441</ele>
        <time>2019-11-26T13:38:01Z</time>
      </trkpt>
      <trkpt lat="46.75367" lon="5.62805">
        <ele>441</ele>
        <time>2019-11-26T13:38:05Z</time>
      </trkpt>
      <trkpt lat="46.75365" lon="5.62798">
        <ele>441.3</ele>
        <time>2019-11-26T13:38:10Z</time>
      </trkpt>
      <trkpt lat="46.75362" lon="5.62791">
        <ele>441.6</ele>
        <time>2019-11-26T13:38:14Z</time>
      </trkpt>
      <trkpt lat="46.7536" lon="5.62784">
        <ele>442</ele>
        <time>2019-11-26T13:38:18Z</time>
      </trkpt>
      <trkpt lat="46.75358" lon="5.62777">
        <ele>442.3</ele>
        <time>2019-11-26T13:38:22Z</time>
      </trkpt>
      <trkpt lat="46.75357" lon="5.6277">
        <ele>442.8</ele>
        <time>2019-11-26T13:38:27Z</time>
      </trkpt>
      <trkpt lat="46.75366" lon="5.62757">
        <ele>451</ele>
        <time>2019-11-26T13:39:45Z</time>
      </trkpt>
      <trkpt lat="46.75368" lon="5.62751">
        <ele>451</ele>
        <time>2019-11-26T13:39:49Z</time>
      </trkpt>
      <trkpt lat="46.75367" lon="5.62731">
        <ele>449.9</ele>
        <time>2019-11-26T13:40:00Z</time>
      </trkpt>
      <trkpt lat="46.75374" lon="5.62722">
        <ele>447.8</ele>
        <time>2019-11-26T13:40:12Z</time>
      </trkpt>
      <trkpt lat="46.75384" lon="5.62708">
        <ele>446.6</ele>
        <time>2019-11-26T13:40:26Z</time>
      </trkpt>
      <trkpt lat="46.75386" lon="5.62701">
        <ele>445.9</ele>
        <time>2019-11-26T13:40:34Z</time>
      </trkpt>
      <trkpt lat="46.75385" lon="5.62694">
        <ele>445.7</ele>
        <time>2019-11-26T13:40:39Z</time>
      </trkpt>
      <trkpt lat="46.75386" lon="5.62687">
        <ele>445.5</ele>
        <time>2019-11-26T13:40:43Z</time>
      </trkpt>
      <trkpt lat="46.75389" lon="5.62681">
        <ele>445.6</ele>
        <time>2019-11-26T13:40:49Z</time>
      </trkpt>
      <trkpt lat="46.75392" lon="5.62676">
        <ele>445.4</ele>
        <time>2019-11-26T13:40:56Z</time>
      </trkpt>
      <trkpt lat="46.75404" lon="5.62676">
        <ele>439.6</ele>
        <time>2019-11-26T13:42:45Z</time>
      </trkpt>
      <trkpt lat="46.75409" lon="5.62677">
        <ele>439.8</ele>
        <time>2019-11-26T13:42:51Z</time>
      </trkpt>
      <trkpt lat="46.75417" lon="5.62669">
        <ele>438.1</ele>
        <time>2019-11-26T13:44:21Z</time>
      </trkpt>
      <trkpt lat="46.75421" lon="5.62666">
        <ele>438.1</ele>
        <time>2019-11-26T13:44:25Z</time>
      </trkpt>
      <trkpt lat="46.75425" lon="5.62661">
        <ele>438.1</ele>
        <time>2019-11-26T13:44:31Z</time>
      </trkpt>
      <trkpt lat="46.75429" lon="5.62658">
        <ele>438.1</ele>
        <time>2019-11-26T13:44:36Z</time>
      </trkpt>
      <trkpt lat="46.75433" lon="5.62655">
        <ele>438</ele>
        <time>2019-11-26T13:44:45Z</time>
      </trkpt>
      <trkpt lat="46.75437" lon="5.62652">
        <ele>437.8</ele>
        <time>2019-11-26T13:44:49Z</time>
      </trkpt>
      <trkpt lat="46.75441" lon="5.62648">
        <ele>437.5</ele>
        <time>2019-11-26T13:44:54Z</time>
      </trkpt>
      <trkpt lat="46.75462" lon="5.62641">
        <ele>440.5</ele>
        <time>2019-11-26T13:45:28Z</time>
      </trkpt>
      <trkpt lat="46.75466" lon="5.62639">
        <ele>440.2</ele>
        <time>2019-11-26T13:45:35Z</time>
      </trkpt>
      <trkpt lat="46.75471" lon="5.62637">
        <ele>439.9</ele>
        <time>2019-11-26T13:45:38Z</time>
      </trkpt>
      <trkpt lat="46.75476" lon="5.6263">
        <ele>439.6</ele>
        <time>2019-11-26T13:45:42Z</time>
      </trkpt>
      <trkpt lat="46.75479" lon="5.62624">
        <ele>439.3</ele>
        <time>2019-11-26T13:45:46Z</time>
      </trkpt>
      <trkpt lat="46.75482" lon="5.62619">
        <ele>439.2</ele>
        <time>2019-11-26T13:45:52Z</time>
      </trkpt>
      <trkpt lat="46.75487" lon="5.62611">
        <ele>438.7</ele>
        <time>2019-11-26T13:46:06Z</time>
      </trkpt>
      <trkpt lat="46.75519" lon="5.62597">
        <ele>441.3</ele>
        <time>2019-11-26T13:46:41Z</time>
      </trkpt>
      <trkpt lat="46.75524" lon="5.62596">
        <ele>442.6</ele>
        <time>2019-11-26T13:46:47Z</time>
      </trkpt>
      <trkpt lat="46.75528" lon="5.62593">
        <ele>443.3</ele>
        <time>2019-11-26T13:46:50Z</time>
      </trkpt>
      <trkpt lat="46.75537" lon="5.62581">
        <ele>444.3</ele>
        <time>2019-11-26T13:47:06Z</time>
      </trkpt>
      <trkpt lat="46.75538" lon="5.62574">
        <ele>443.3</ele>
        <time>2019-11-26T13:47:11Z</time>
      </trkpt>
      <trkpt lat="46.75542" lon="5.62561">
        <ele>438.4</ele>
        <time>2019-11-26T13:47:23Z</time>
      </trkpt>
      <trkpt lat="46.75547" lon="5.62556">
        <ele>437.9</ele>
        <time>2019-11-26T13:47:26Z</time>
      </trkpt>
      <trkpt lat="46.7556" lon="5.62547">
        <ele>437</ele>
        <time>2019-11-26T13:47:36Z</time>
      </trkpt>
      <trkpt lat="46.75566" lon="5.62545">
        <ele>437.5</ele>
        <time>2019-11-26T13:47:41Z</time>
      </trkpt>
      <trkpt lat="46.75569" lon="5.62541">
        <ele>437.8</ele>
        <time>2019-11-26T13:47:46Z</time>
      </trkpt>
      <trkpt lat="46.75573" lon="5.62536">
        <ele>437.9</ele>
        <time>2019-11-26T13:47:51Z</time>
      </trkpt>
      <trkpt lat="46.75575" lon="5.6253">
        <ele>437.7</ele>
        <time>2019-11-26T13:47:56Z</time>
      </trkpt>
      <trkpt lat="46.75575" lon="5.62522">
        <ele>436.9</ele>
        <time>2019-11-26T13:48:02Z</time>
      </trkpt>
      <trkpt lat="46.75572" lon="5.62516">
        <ele>435.7</ele>
        <time>2019-11-26T13:48:09Z</time>
      </trkpt>
      <trkpt lat="46.75575" lon="5.62501">
        <ele>433.3</ele>
        <time>2019-11-26T13:48:22Z</time>
      </trkpt>
      <trkpt lat="46.75577" lon="5.62495">
        <ele>433.1</ele>
        <time>2019-11-26T13:48:25Z</time>
      </trkpt>
      <trkpt lat="46.75579" lon="5.62488">
        <ele>432.8</ele>
        <time>2019-11-26T13:48:29Z</time>
      </trkpt>
      <trkpt lat="46.75579" lon="5.62481">
        <ele>432.7</ele>
        <time>2019-11-26T13:48:35Z</time>
      </trkpt>
      <trkpt lat="46.7558" lon="5.62461">
        <ele>431.7</ele>
        <time>2019-11-26T13:48:55Z</time>
      </trkpt>
      <trkpt lat="46.75578" lon="5.62454">
        <ele>430.1</ele>
        <time>2019-11-26T13:49:04Z</time>
      </trkpt>
      <trkpt lat="46.75574" lon="5.6245">
        <ele>428.5</ele>
        <time>2019-11-26T13:49:12Z</time>
      </trkpt>
      <trkpt lat="46.75572" lon="5.62444">
        <ele>428.8</ele>
        <time>2019-11-26T13:49:26Z</time>
      </trkpt>
      <trkpt lat="46.7555" lon="5.62422">
        <ele>434.8</ele>
        <time>2019-11-26T13:49:59Z</time>
      </trkpt>
      <trkpt lat="46.75547" lon="5.62416">
        <ele>434.8</ele>
        <time>2019-11-26T13:50:03Z</time>
      </trkpt>
      <trkpt lat="46.75542" lon="5.62413">
        <ele>434.4</ele>
        <time>2019-11-26T13:50:08Z</time>
      </trkpt>
      <trkpt lat="46.7553" lon="5.62408">
        <ele>430.9</ele>
        <time>2019-11-26T13:50:19Z</time>
      </trkpt>
      <trkpt lat="46.75526" lon="5.62405">
        <ele>429</ele>
        <time>2019-11-26T13:50:26Z</time>
      </trkpt>
      <trkpt lat="46.75521" lon="5.62403">
        <ele>427.7</ele>
        <time>2019-11-26T13:50:33Z</time>
      </trkpt>
      <trkpt lat="46.75517" lon="5.62399">
        <ele>427.5</ele>
        <time>2019-11-26T13:50:39Z</time>
      </trkpt>
      <trkpt lat="46.75512" lon="5.62394">
        <ele>427.2</ele>
        <time>2019-11-26T13:50:42Z</time>
      </trkpt>
      <trkpt lat="46.75508" lon="5.62391">
        <ele>426.9</ele>
        <time>2019-11-26T13:50:44Z</time>
      </trkpt>
      <trkpt lat="46.75502" lon="5.6239">
        <ele>426.3</ele>
        <time>2019-11-26T13:50:47Z</time>
      </trkpt>
      <trkpt lat="46.75497" lon="5.62389">
        <ele>425.6</ele>
        <time>2019-11-26T13:50:52Z</time>
      </trkpt>
      <trkpt lat="46.75492" lon="5.62387">
        <ele>425.5</ele>
        <time>2019-11-26T13:51:00Z</time>
      </trkpt>
      <trkpt lat="46.75482" lon="5.62386">
        <ele>428.2</ele>
        <time>2019-11-26T13:51:17Z</time>
      </trkpt>
      <trkpt lat="46.75478" lon="5.6239">
        <ele>430.2</ele>
        <time>2019-11-26T13:51:24Z</time>
      </trkpt>
      <trkpt lat="46.75472" lon="5.62399">
        <ele>432.5</ele>
        <time>2019-11-26T13:51:32Z</time>
      </trkpt>
      <trkpt lat="46.75468" lon="5.62404">
        <ele>432.3</ele>
        <time>2019-11-26T13:51:37Z</time>
      </trkpt>
      <trkpt lat="46.75463" lon="5.62409">
        <ele>432.2</ele>
        <time>2019-11-26T13:51:40Z</time>
      </trkpt>
      <trkpt lat="46.75459" lon="5.62413">
        <ele>431.6</ele>
        <time>2019-11-26T13:51:45Z</time>
      </trkpt>
      <trkpt lat="46.75455" lon="5.62417">
        <ele>430.9</ele>
        <time>2019-11-26T13:51:50Z</time>
      </trkpt>
      <trkpt lat="46.75446" lon="5.62431">
        <ele>429.3</ele>
        <time>2019-11-26T13:52:02Z</time>
      </trkpt>
      <trkpt lat="46.7544" lon="5.62448">
        <ele>429.8</ele>
        <time>2019-11-26T13:52:13Z</time>
      </trkpt>
      <trkpt lat="46.75437" lon="5.62454">
        <ele>431.1</ele>
        <time>2019-11-26T13:52:20Z</time>
      </trkpt>
      <trkpt lat="46.75432" lon="5.62458">
        <ele>432.9</ele>
        <time>2019-11-26T13:52:29Z</time>
      </trkpt>
      <trkpt lat="46.75428" lon="5.6246">
        <ele>434.2</ele>
        <time>2019-11-26T13:52:37Z</time>
      </trkpt>
      <trkpt lat="46.75423" lon="5.62455">
        <ele>434.2</ele>
        <time>2019-11-26T13:52:42Z</time>
      </trkpt>
      <trkpt lat="46.7542" lon="5.62448">
        <ele>433.7</ele>
        <time>2019-11-26T13:52:45Z</time>
      </trkpt>
      <trkpt lat="46.75416" lon="5.62445">
        <ele>432.6</ele>
        <time>2019-11-26T13:52:49Z</time>
      </trkpt>
      <trkpt lat="46.75411" lon="5.62445">
        <ele>431.3</ele>
        <time>2019-11-26T13:52:53Z</time>
      </trkpt>
      <trkpt lat="46.75406" lon="5.62446">
        <ele>429.8</ele>
        <time>2019-11-26T13:52:58Z</time>
      </trkpt>
      <trkpt lat="46.754" lon="5.62447">
        <ele>428.6</ele>
        <time>2019-11-26T13:53:03Z</time>
      </trkpt>
      <trkpt lat="46.75378" lon="5.62452">
        <ele>423.9</ele>
        <time>2019-11-26T13:53:27Z</time>
      </trkpt>
      <trkpt lat="46.75373" lon="5.62452">
        <ele>423</ele>
        <time>2019-11-26T13:53:30Z</time>
      </trkpt>
      <trkpt lat="46.75368" lon="5.62452">
        <ele>421.7</ele>
        <time>2019-11-26T13:53:34Z</time>
      </trkpt>
      <trkpt lat="46.75364" lon="5.62452">
        <ele>420.1</ele>
        <time>2019-11-26T13:53:39Z</time>
      </trkpt>
      <trkpt lat="46.75358" lon="5.62451">
        <ele>417.9</ele>
        <time>2019-11-26T13:53:46Z</time>
      </trkpt>
      <trkpt lat="46.75353" lon="5.62446">
        <ele>417.1</ele>
        <time>2019-11-26T13:53:49Z</time>
      </trkpt>
      <trkpt lat="46.7535" lon="5.62441">
        <ele>416.6</ele>
        <time>2019-11-26T13:53:53Z</time>
      </trkpt>
      <trkpt lat="46.75346" lon="5.62435">
        <ele>416.3</ele>
        <time>2019-11-26T13:53:59Z</time>
      </trkpt>
      <trkpt lat="46.75342" lon="5.62432">
        <ele>415.9</ele>
        <time>2019-11-26T13:54:03Z</time>
      </trkpt>
      <trkpt lat="46.75338" lon="5.6243">
        <ele>415.1</ele>
        <time>2019-11-26T13:54:08Z</time>
      </trkpt>
      <trkpt lat="46.75332" lon="5.62429">
        <ele>414.3</ele>
        <time>2019-11-26T13:54:12Z</time>
      </trkpt>
      <trkpt lat="46.75327" lon="5.62429">
        <ele>413.2</ele>
        <time>2019-11-26T13:54:17Z</time>
      </trkpt>
      <trkpt lat="46.75322" lon="5.6243">
        <ele>411.8</ele>
        <time>2019-11-26T13:54:23Z</time>
      </trkpt>
      <trkpt lat="46.75319" lon="5.62425">
        <ele>410.5</ele>
        <time>2019-11-26T13:54:29Z</time>
      </trkpt>
      <trkpt lat="46.75317" lon="5.62418">
        <ele>409.6</ele>
        <time>2019-11-26T13:54:43Z</time>
      </trkpt>
      <trkpt lat="46.75315" lon="5.62412">
        <ele>411</ele>
        <time>2019-11-26T13:54:59Z</time>
      </trkpt>
      <trkpt lat="46.75312" lon="5.62405">
        <ele>412.2</ele>
        <time>2019-11-26T13:55:27Z</time>
      </trkpt>
      <trkpt lat="46.75311" lon="5.62414">
        <ele>419.6</ele>
        <time>2019-11-26T13:57:58Z</time>
      </trkpt>
      <trkpt lat="46.75313" lon="5.62421">
        <ele>420.3</ele>
        <time>2019-11-26T13:58:04Z</time>
      </trkpt>
      <trkpt lat="46.75315" lon="5.62415">
        <ele>420.4</ele>
        <time>2019-11-26T13:58:47Z</time>
      </trkpt>
      <trkpt lat="46.75316" lon="5.62408">
        <ele>419.9</ele>
        <time>2019-11-26T13:58:53Z</time>
      </trkpt>
      <trkpt lat="46.75311" lon="5.62411">
        <ele>417.3</ele>
        <time>2019-11-26T14:02:00Z</time>
      </trkpt>
      <trkpt lat="46.75318" lon="5.62417">
        <ele>422.4</ele>
        <time>2019-11-26T14:04:44Z</time>
      </trkpt>
      <trkpt lat="46.75323" lon="5.6242">
        <ele>422.4</ele>
        <time>2019-11-26T14:04:50Z</time>
      </trkpt>
      <trkpt lat="46.75327" lon="5.62425">
        <ele>422.1</ele>
        <time>2019-11-26T14:04:56Z</time>
      </trkpt>
      <trkpt lat="46.75331" lon="5.62427">
        <ele>421.3</ele>
        <time>2019-11-26T14:05:05Z</time>
      </trkpt>
      <trkpt lat="46.75335" lon="5.62431">
        <ele>420</ele>
        <time>2019-11-26T14:05:17Z</time>
      </trkpt>
      <trkpt lat="46.75337" lon="5.62437">
        <ele>419.7</ele>
        <time>2019-11-26T14:05:24Z</time>
      </trkpt>
      <trkpt lat="46.75338" lon="5.62444">
        <ele>419.6</ele>
        <time>2019-11-26T14:05:28Z</time>
      </trkpt>
      <trkpt lat="46.75341" lon="5.62451">
        <ele>419.5</ele>
        <time>2019-11-26T14:05:32Z</time>
      </trkpt>
      <trkpt lat="46.75343" lon="5.62458">
        <ele>419.5</ele>
        <time>2019-11-26T14:05:36Z</time>
      </trkpt>
      <trkpt lat="46.75345" lon="5.62464">
        <ele>419.5</ele>
        <time>2019-11-26T14:05:41Z</time>
      </trkpt>
      <trkpt lat="46.75348" lon="5.62469">
        <ele>419.8</ele>
        <time>2019-11-26T14:05:46Z</time>
      </trkpt>
      <trkpt lat="46.75349" lon="5.62477">
        <ele>420.7</ele>
        <time>2019-11-26T14:05:55Z</time>
      </trkpt>
      <trkpt lat="46.75347" lon="5.62483">
        <ele>421.6</ele>
        <time>2019-11-26T14:06:01Z</time>
      </trkpt>
      <trkpt lat="46.7535" lon="5.62488">
        <ele>423</ele>
        <time>2019-11-26T14:06:11Z</time>
      </trkpt>
      <trkpt lat="46.75355" lon="5.62487">
        <ele>424.1</ele>
        <time>2019-11-26T14:06:18Z</time>
      </trkpt>
      <trkpt lat="46.75357" lon="5.62493">
        <ele>426</ele>
        <time>2019-11-26T14:06:30Z</time>
      </trkpt>
      <trkpt lat="46.75359" lon="5.625">
        <ele>426.8</ele>
        <time>2019-11-26T14:06:35Z</time>
      </trkpt>
      <trkpt lat="46.75364" lon="5.62503">
        <ele>427.6</ele>
        <time>2019-11-26T14:06:41Z</time>
      </trkpt>
      <trkpt lat="46.75369" lon="5.62503">
        <ele>428.1</ele>
        <time>2019-11-26T14:06:45Z</time>
      </trkpt>
      <trkpt lat="46.75373" lon="5.62504">
        <ele>429.1</ele>
        <time>2019-11-26T14:06:50Z</time>
      </trkpt>
      <trkpt lat="46.75379" lon="5.62506">
        <ele>430.1</ele>
        <time>2019-11-26T14:06:54Z</time>
      </trkpt>
      <trkpt lat="46.75383" lon="5.6251">
        <ele>431.4</ele>
        <time>2019-11-26T14:07:00Z</time>
      </trkpt>
      <trkpt lat="46.75386" lon="5.62514">
        <ele>432</ele>
        <time>2019-11-26T14:07:07Z</time>
      </trkpt>
      <trkpt lat="46.75386" lon="5.62521">
        <ele>434.4</ele>
        <time>2019-11-26T14:07:33Z</time>
      </trkpt>
      <trkpt lat="46.75387" lon="5.62528">
        <ele>434.8</ele>
        <time>2019-11-26T14:07:46Z</time>
      </trkpt>
      <trkpt lat="46.75388" lon="5.62535">
        <ele>434</ele>
        <time>2019-11-26T14:07:58Z</time>
      </trkpt>
      <trkpt lat="46.7539" lon="5.62542">
        <ele>433.3</ele>
        <time>2019-11-26T14:08:04Z</time>
      </trkpt>
      <trkpt lat="46.75392" lon="5.62548">
        <ele>432.9</ele>
        <time>2019-11-26T14:08:08Z</time>
      </trkpt>
      <trkpt lat="46.75395" lon="5.62554">
        <ele>432.4</ele>
        <time>2019-11-26T14:08:14Z</time>
      </trkpt>
      <trkpt lat="46.75397" lon="5.62561">
        <ele>432.4</ele>
        <time>2019-11-26T14:08:20Z</time>
      </trkpt>
      <trkpt lat="46.75399" lon="5.62567">
        <ele>432.7</ele>
        <time>2019-11-26T14:08:26Z</time>
      </trkpt>
      <trkpt lat="46.754" lon="5.62574">
        <ele>432.8</ele>
        <time>2019-11-26T14:08:32Z</time>
      </trkpt>
      <trkpt lat="46.75402" lon="5.6258">
        <ele>432.6</ele>
        <time>2019-11-26T14:08:43Z</time>
      </trkpt>
      <trkpt lat="46.75405" lon="5.62586">
        <ele>432</ele>
        <time>2019-11-26T14:08:49Z</time>
      </trkpt>
      <trkpt lat="46.75409" lon="5.6259">
        <ele>431.1</ele>
        <time>2019-11-26T14:08:55Z</time>
      </trkpt>
      <trkpt lat="46.7541" lon="5.62597">
        <ele>430.3</ele>
        <time>2019-11-26T14:09:01Z</time>
      </trkpt>
      <trkpt lat="46.75408" lon="5.62603">
        <ele>429.9</ele>
        <time>2019-11-26T14:09:05Z</time>
      </trkpt>
      <trkpt lat="46.75405" lon="5.62609">
        <ele>429.2</ele>
        <time>2019-11-26T14:09:11Z</time>
      </trkpt>
      <trkpt lat="46.75402" lon="5.62614">
        <ele>427.5</ele>
        <time>2019-11-26T14:09:20Z</time>
      </trkpt>
      <trkpt lat="46.75399" lon="5.62621">
        <ele>426.5</ele>
        <time>2019-11-26T14:09:24Z</time>
      </trkpt>
      <trkpt lat="46.75396" lon="5.62625">
        <ele>423.6</ele>
        <time>2019-11-26T14:09:35Z</time>
      </trkpt>
      <trkpt lat="46.75391" lon="5.62625">
        <ele>417.3</ele>
        <time>2019-11-26T14:09:58Z</time>
      </trkpt>
      <trkpt lat="46.75386" lon="5.62625">
        <ele>415.9</ele>
        <time>2019-11-26T14:10:05Z</time>
      </trkpt>
      <trkpt lat="46.75363" lon="5.62629">
        <ele>399.7</ele>
        <time>2019-11-26T14:11:24Z</time>
      </trkpt>
      <trkpt lat="46.75359" lon="5.62627">
        <ele>399.2</ele>
        <time>2019-11-26T14:11:34Z</time>
      </trkpt>
      <trkpt lat="46.75353" lon="5.62628">
        <ele>397.9</ele>
        <time>2019-11-26T14:11:42Z</time>
      </trkpt>
      <trkpt lat="46.75349" lon="5.62625">
        <ele>397.1</ele>
        <time>2019-11-26T14:11:47Z</time>
      </trkpt>
      <trkpt lat="46.75332" lon="5.62614">
        <ele>400.9</ele>
        <time>2019-11-26T14:12:08Z</time>
      </trkpt>
      <trkpt lat="46.75328" lon="5.62612">
        <ele>401.4</ele>
        <time>2019-11-26T14:12:12Z</time>
      </trkpt>
      <trkpt lat="46.75323" lon="5.62611">
        <ele>402.2</ele>
        <time>2019-11-26T14:15:25Z</time>
      </trkpt>
      <trkpt lat="46.75319" lon="5.62607">
        <ele>401.8</ele>
        <time>2019-11-26T14:15:34Z</time>
      </trkpt>
      <trkpt lat="46.75314" lon="5.62606">
        <ele>400.9</ele>
        <time>2019-11-26T14:15:41Z</time>
      </trkpt>
      <trkpt lat="46.7531" lon="5.62611">
        <ele>399.5</ele>
        <time>2019-11-26T14:15:48Z</time>
      </trkpt>
      <trkpt lat="46.75307" lon="5.62616">
        <ele>398.7</ele>
        <time>2019-11-26T14:15:52Z</time>
      </trkpt>
      <trkpt lat="46.75302" lon="5.62619">
        <ele>397.3</ele>
        <time>2019-11-26T14:15:58Z</time>
      </trkpt>
      <trkpt lat="46.75297" lon="5.6262">
        <ele>396.4</ele>
        <time>2019-11-26T14:16:02Z</time>
      </trkpt>
      <trkpt lat="46.75292" lon="5.62619">
        <ele>395.5</ele>
        <time>2019-11-26T14:16:06Z</time>
      </trkpt>
      <trkpt lat="46.75287" lon="5.62617">
        <ele>394.4</ele>
        <time>2019-11-26T14:16:11Z</time>
      </trkpt>
      <trkpt lat="46.75282" lon="5.62612">
        <ele>393.4</ele>
        <time>2019-11-26T14:16:15Z</time>
      </trkpt>
      <trkpt lat="46.75276" lon="5.62611">
        <ele>392.7</ele>
        <time>2019-11-26T14:16:19Z</time>
      </trkpt>
      <trkpt lat="46.75277" lon="5.62617">
        <ele>388.8</ele>
        <time>2019-11-26T14:16:50Z</time>
      </trkpt>
      <trkpt lat="46.75274" lon="5.62622">
        <ele>387.2</ele>
        <time>2019-11-26T14:17:24Z</time>
      </trkpt>
      <trkpt lat="46.7527" lon="5.62625">
        <ele>386.7</ele>
        <time>2019-11-26T14:17:33Z</time>
      </trkpt>
      <trkpt lat="46.75265" lon="5.62629">
        <ele>386.5</ele>
        <time>2019-11-26T14:17:39Z</time>
      </trkpt>
      <trkpt lat="46.7526" lon="5.6263">
        <ele>386.2</ele>
        <time>2019-11-26T14:17:47Z</time>
      </trkpt>
      <trkpt lat="46.75256" lon="5.62631">
        <ele>385.7</ele>
        <time>2019-11-26T14:17:57Z</time>
      </trkpt>
      <trkpt lat="46.75252" lon="5.62634">
        <ele>384.8</ele>
        <time>2019-11-26T14:18:07Z</time>
      </trkpt>
      <trkpt lat="46.75248" lon="5.62639">
        <ele>384.5</ele>
        <time>2019-11-26T14:18:12Z</time>
      </trkpt>
      <trkpt lat="46.75245" lon="5.62645">
        <ele>384.2</ele>
        <time>2019-11-26T14:18:17Z</time>
      </trkpt>
      <trkpt lat="46.75241" lon="5.6265">
        <ele>383.8</ele>
        <time>2019-11-26T14:18:23Z</time>
      </trkpt>
      <trkpt lat="46.75239" lon="5.62656">
        <ele>383.5</ele>
        <time>2019-11-26T14:18:27Z</time>
      </trkpt>
      <trkpt lat="46.75235" lon="5.62662">
        <ele>382.9</ele>
        <time>2019-11-26T14:18:32Z</time>
      </trkpt>
      <trkpt lat="46.75232" lon="5.62668">
        <ele>382.4</ele>
        <time>2019-11-26T14:18:37Z</time>
      </trkpt>
      <trkpt lat="46.75231" lon="5.62675">
        <ele>382</ele>
        <time>2019-11-26T14:18:41Z</time>
      </trkpt>
      <trkpt lat="46.75229" lon="5.62681">
        <ele>381.6</ele>
        <time>2019-11-26T14:18:45Z</time>
      </trkpt>
      <trkpt lat="46.75228" lon="5.62688">
        <ele>381.5</ele>
        <time>2019-11-26T14:18:50Z</time>
      </trkpt>
      <trkpt lat="46.75228" lon="5.62696">
        <ele>381.5</ele>
        <time>2019-11-26T14:18:55Z</time>
      </trkpt>
      <trkpt lat="46.75228" lon="5.62704">
        <ele>381.5</ele>
        <time>2019-11-26T14:18:59Z</time>
      </trkpt>
      <trkpt lat="46.75228" lon="5.62711">
        <ele>381.6</ele>
        <time>2019-11-26T14:19:03Z</time>
      </trkpt>
      <trkpt lat="46.75228" lon="5.62718">
        <ele>381.7</ele>
        <time>2019-11-26T14:19:08Z</time>
      </trkpt>
      <trkpt lat="46.75228" lon="5.62725">
        <ele>381.6</ele>
        <time>2019-11-26T14:19:13Z</time>
      </trkpt>
      <trkpt lat="46.75229" lon="5.62733">
        <ele>381.2</ele>
        <time>2019-11-26T14:19:18Z</time>
      </trkpt>
      <trkpt lat="46.75229" lon="5.62741">
        <ele>380.7</ele>
        <time>2019-11-26T14:19:23Z</time>
      </trkpt>
      <trkpt lat="46.7523" lon="5.62748">
        <ele>380.2</ele>
        <time>2019-11-26T14:19:28Z</time>
      </trkpt>
      <trkpt lat="46.75231" lon="5.62755">
        <ele>379.9</ele>
        <time>2019-11-26T14:19:33Z</time>
      </trkpt>
      <trkpt lat="46.7523" lon="5.62762">
        <ele>379.7</ele>
        <time>2019-11-26T14:19:38Z</time>
      </trkpt>
      <trkpt lat="46.75232" lon="5.62768">
        <ele>379.4</ele>
        <time>2019-11-26T14:19:44Z</time>
      </trkpt>
      <trkpt lat="46.75234" lon="5.62776">
        <ele>379</ele>
        <time>2019-11-26T14:19:49Z</time>
      </trkpt>
      <trkpt lat="46.75235" lon="5.62783">
        <ele>378.5</ele>
        <time>2019-11-26T14:19:53Z</time>
      </trkpt>
      <trkpt lat="46.75235" lon="5.6279">
        <ele>377.9</ele>
        <time>2019-11-26T14:19:58Z</time>
      </trkpt>
      <trkpt lat="46.75234" lon="5.62798">
        <ele>377.3</ele>
        <time>2019-11-26T14:20:04Z</time>
      </trkpt>
      <trkpt lat="46.75232" lon="5.62805">
        <ele>377</ele>
        <time>2019-11-26T14:20:09Z</time>
      </trkpt>
      <trkpt lat="46.75231" lon="5.62813">
        <ele>377</ele>
        <time>2019-11-26T14:20:13Z</time>
      </trkpt>
      <trkpt lat="46.7523" lon="5.62821">
        <ele>376.8</ele>
        <time>2019-11-26T14:20:18Z</time>
      </trkpt>
      <trkpt lat="46.75228" lon="5.62829">
        <ele>376.6</ele>
        <time>2019-11-26T14:20:22Z</time>
      </trkpt>
      <trkpt lat="46.75226" lon="5.62835">
        <ele>375.7</ele>
        <time>2019-11-26T14:20:31Z</time>
      </trkpt>
      <trkpt lat="46.75225" lon="5.62842">
        <ele>374.7</ele>
        <time>2019-11-26T14:20:38Z</time>
      </trkpt>
      <trkpt lat="46.75223" lon="5.6285">
        <ele>374.3</ele>
        <time>2019-11-26T14:20:42Z</time>
      </trkpt>
      <trkpt lat="46.75222" lon="5.62857">
        <ele>374</ele>
        <time>2019-11-26T14:20:45Z</time>
      </trkpt>
      <trkpt lat="46.7522" lon="5.62864">
        <ele>373.8</ele>
        <time>2019-11-26T14:20:48Z</time>
      </trkpt>
      <trkpt lat="46.75219" lon="5.6287">
        <ele>373.4</ele>
        <time>2019-11-26T14:20:52Z</time>
      </trkpt>
      <trkpt lat="46.75219" lon="5.62878">
        <ele>373</ele>
        <time>2019-11-26T14:20:56Z</time>
      </trkpt>
      <trkpt lat="46.75219" lon="5.62885">
        <ele>372.5</ele>
        <time>2019-11-26T14:21:00Z</time>
      </trkpt>
      <trkpt lat="46.75218" lon="5.62892">
        <ele>371.6</ele>
        <time>2019-11-26T14:21:05Z</time>
      </trkpt>
      <trkpt lat="46.75215" lon="5.62898">
        <ele>370.5</ele>
        <time>2019-11-26T14:21:12Z</time>
      </trkpt>
      <trkpt lat="46.75213" lon="5.62905">
        <ele>370</ele>
        <time>2019-11-26T14:21:18Z</time>
      </trkpt>
      <trkpt lat="46.75212" lon="5.62912">
        <ele>369.6</ele>
        <time>2019-11-26T14:21:23Z</time>
      </trkpt>
      <trkpt lat="46.75211" lon="5.62919">
        <ele>369.2</ele>
        <time>2019-11-26T14:21:29Z</time>
      </trkpt>
      <trkpt lat="46.75211" lon="5.62925">
        <ele>368.7</ele>
        <time>2019-11-26T14:21:35Z</time>
      </trkpt>
      <trkpt lat="46.7521" lon="5.62932">
        <ele>368.5</ele>
        <time>2019-11-26T14:21:38Z</time>
      </trkpt>
      <trkpt lat="46.75208" lon="5.62938">
        <ele>368.4</ele>
        <time>2019-11-26T14:21:41Z</time>
      </trkpt>
      <trkpt lat="46.75205" lon="5.62944">
        <ele>368.2</ele>
        <time>2019-11-26T14:21:44Z</time>
      </trkpt>
      <trkpt lat="46.75201" lon="5.62949">
        <ele>368.1</ele>
        <time>2019-11-26T14:21:47Z</time>
      </trkpt>
      <trkpt lat="46.75198" lon="5.62954">
        <ele>367.5</ele>
        <time>2019-11-26T14:21:55Z</time>
      </trkpt>
      <trkpt lat="46.75193" lon="5.62955">
        <ele>367.2</ele>
        <time>2019-11-26T14:22:00Z</time>
      </trkpt>
      <trkpt lat="46.75189" lon="5.62952">
        <ele>366.9</ele>
        <time>2019-11-26T14:22:05Z</time>
      </trkpt>
      <trkpt lat="46.75183" lon="5.62951">
        <ele>366.7</ele>
        <time>2019-11-26T14:22:09Z</time>
      </trkpt>
      <trkpt lat="46.75178" lon="5.62954">
        <ele>366.7</ele>
        <time>2019-11-26T14:22:13Z</time>
      </trkpt>
      <trkpt lat="46.75173" lon="5.62955">
        <ele>367.6</ele>
        <time>2019-11-26T14:22:22Z</time>
      </trkpt>
      <trkpt lat="46.75168" lon="5.62954">
        <ele>369.2</ele>
        <time>2019-11-26T14:22:30Z</time>
      </trkpt>
      <trkpt lat="46.75163" lon="5.62953">
        <ele>369.8</ele>
        <time>2019-11-26T14:22:34Z</time>
      </trkpt>
      <trkpt lat="46.75158" lon="5.62952">
        <ele>370.2</ele>
        <time>2019-11-26T14:22:37Z</time>
      </trkpt>
      <trkpt lat="46.75153" lon="5.6295">
        <ele>370.6</ele>
        <time>2019-11-26T14:22:43Z</time>
      </trkpt>
      <trkpt lat="46.75145" lon="5.62941">
        <ele>371.9</ele>
        <time>2019-11-26T14:23:03Z</time>
      </trkpt>
      <trkpt lat="46.75141" lon="5.62936">
        <ele>372.9</ele>
        <time>2019-11-26T14:23:09Z</time>
      </trkpt>
      <trkpt lat="46.75136" lon="5.62933">
        <ele>373.3</ele>
        <time>2019-11-26T14:23:13Z</time>
      </trkpt>
      <trkpt lat="46.75131" lon="5.6293">
        <ele>373.5</ele>
        <time>2019-11-26T14:23:17Z</time>
      </trkpt>
      <trkpt lat="46.75126" lon="5.62927">
        <ele>373.4</ele>
        <time>2019-11-26T14:23:20Z</time>
      </trkpt>
      <trkpt lat="46.75121" lon="5.62923">
        <ele>373.3</ele>
        <time>2019-11-26T14:23:22Z</time>
      </trkpt>
      <trkpt lat="46.75116" lon="5.62921">
        <ele>373.2</ele>
        <time>2019-11-26T14:23:24Z</time>
      </trkpt>
      <trkpt lat="46.75111" lon="5.6292">
        <ele>373</ele>
        <time>2019-11-26T14:23:26Z</time>
      </trkpt>
      <trkpt lat="46.75106" lon="5.62919">
        <ele>372.7</ele>
        <time>2019-11-26T14:23:29Z</time>
      </trkpt>
      <trkpt lat="46.75102" lon="5.62916">
        <ele>372</ele>
        <time>2019-11-26T14:23:34Z</time>
      </trkpt>
      <trkpt lat="46.75098" lon="5.62912">
        <ele>371.2</ele>
        <time>2019-11-26T14:23:39Z</time>
      </trkpt>
      <trkpt lat="46.75094" lon="5.62909">
        <ele>370.2</ele>
        <time>2019-11-26T14:23:44Z</time>
      </trkpt>
      <trkpt lat="46.75089" lon="5.62907">
        <ele>369.2</ele>
        <time>2019-11-26T14:23:48Z</time>
      </trkpt>
      <trkpt lat="46.75084" lon="5.62906">
        <ele>368.2</ele>
        <time>2019-11-26T14:23:53Z</time>
      </trkpt>
      <trkpt lat="46.75079" lon="5.62904">
        <ele>367.3</ele>
        <time>2019-11-26T14:23:57Z</time>
      </trkpt>
      <trkpt lat="46.75074" lon="5.62902">
        <ele>366.1</ele>
        <time>2019-11-26T14:24:01Z</time>
      </trkpt>
      <trkpt lat="46.7507" lon="5.629">
        <ele>364.8</ele>
        <time>2019-11-26T14:24:04Z</time>
      </trkpt>
      <trkpt lat="46.75065" lon="5.62898">
        <ele>363.1</ele>
        <time>2019-11-26T14:24:08Z</time>
      </trkpt>
      <trkpt lat="46.7506" lon="5.62897">
        <ele>360.6</ele>
        <time>2019-11-26T14:24:13Z</time>
      </trkpt>
      <trkpt lat="46.75055" lon="5.62894">
        <ele>358.2</ele>
        <time>2019-11-26T14:24:18Z</time>
      </trkpt>
      <trkpt lat="46.7505" lon="5.62893">
        <ele>356.2</ele>
        <time>2019-11-26T14:24:22Z</time>
      </trkpt>
      <trkpt lat="46.75045" lon="5.62891">
        <ele>354.4</ele>
        <time>2019-11-26T14:24:26Z</time>
      </trkpt>
      <trkpt lat="46.75041" lon="5.62888">
        <ele>351.8</ele>
        <time>2019-11-26T14:24:33Z</time>
      </trkpt>
      <trkpt lat="46.75037" lon="5.62883">
        <ele>349.9</ele>
        <time>2019-11-26T14:24:38Z</time>
      </trkpt>
      <trkpt lat="46.75034" lon="5.62877">
        <ele>348.5</ele>
        <time>2019-11-26T14:24:42Z</time>
      </trkpt>
      <trkpt lat="46.75031" lon="5.62872">
        <ele>346.9</ele>
        <time>2019-11-26T14:24:47Z</time>
      </trkpt>
      <trkpt lat="46.7502" lon="5.62853">
        <ele>343.1</ele>
        <time>2019-11-26T14:25:06Z</time>
      </trkpt>
      <trkpt lat="46.75017" lon="5.62849">
        <ele>343.3</ele>
        <time>2019-11-26T14:25:18Z</time>
      </trkpt>
      <trkpt lat="46.75013" lon="5.62844">
        <ele>340.1</ele>
        <time>2019-11-26T14:25:34Z</time>
      </trkpt>
      <trkpt lat="46.75009" lon="5.6284">
        <ele>339.1</ele>
        <time>2019-11-26T14:25:40Z</time>
      </trkpt>
      <trkpt lat="46.75004" lon="5.62837">
        <ele>338.5</ele>
        <time>2019-11-26T14:25:45Z</time>
      </trkpt>
      <trkpt lat="46.75" lon="5.62835">
        <ele>338.4</ele>
        <time>2019-11-26T14:25:49Z</time>
      </trkpt>
      <trkpt lat="46.74995" lon="5.62831">
        <ele>338.2</ele>
        <time>2019-11-26T14:25:54Z</time>
      </trkpt>
      <trkpt lat="46.74992" lon="5.62826">
        <ele>337.9</ele>
        <time>2019-11-26T14:26:00Z</time>
      </trkpt>
      <trkpt lat="46.74988" lon="5.62823">
        <ele>338</ele>
        <time>2019-11-26T14:26:07Z</time>
      </trkpt>
      <trkpt lat="46.74984" lon="5.62819">
        <ele>338</ele>
        <time>2019-11-26T14:26:14Z</time>
      </trkpt>
      <trkpt lat="46.74981" lon="5.62813">
        <ele>338.1</ele>
        <time>2019-11-26T14:26:22Z</time>
      </trkpt>
      <trkpt lat="46.74977" lon="5.62809">
        <ele>338.1</ele>
        <time>2019-11-26T14:26:29Z</time>
      </trkpt>
      <trkpt lat="46.74972" lon="5.62806">
        <ele>337.9</ele>
        <time>2019-11-26T14:26:34Z</time>
      </trkpt>
      <trkpt lat="46.74968" lon="5.62803">
        <ele>337.8</ele>
        <time>2019-11-26T14:26:40Z</time>
      </trkpt>
      <trkpt lat="46.74964" lon="5.628">
        <ele>337.7</ele>
        <time>2019-11-26T14:26:47Z</time>
      </trkpt>
      <trkpt lat="46.7496" lon="5.62796">
        <ele>337.8</ele>
        <time>2019-11-26T14:26:52Z</time>
      </trkpt>
      <trkpt lat="46.74956" lon="5.62793">
        <ele>337.8</ele>
        <time>2019-11-26T14:26:59Z</time>
      </trkpt>
      <trkpt lat="46.74953" lon="5.62787">
        <ele>337.6</ele>
        <time>2019-11-26T14:27:04Z</time>
      </trkpt>
      <trkpt lat="46.74949" lon="5.62782">
        <ele>337.5</ele>
        <time>2019-11-26T14:27:08Z</time>
      </trkpt>
      <trkpt lat="46.74945" lon="5.62778">
        <ele>337</ele>
        <time>2019-11-26T14:27:15Z</time>
      </trkpt>
      <trkpt lat="46.74941" lon="5.62775">
        <ele>336.9</ele>
        <time>2019-11-26T14:27:22Z</time>
      </trkpt>
      <trkpt lat="46.74943" lon="5.62767">
        <ele>336.8</ele>
        <time>2019-11-26T14:27:36Z</time>
      </trkpt>
      <trkpt lat="46.74936" lon="5.62772">
        <ele>336.1</ele>
        <time>2019-11-26T14:28:58Z</time>
      </trkpt>
      <trkpt lat="46.74933" lon="5.62767">
        <ele>336.3</ele>
        <time>2019-11-26T14:29:02Z</time>
      </trkpt>
      <trkpt lat="46.74928" lon="5.62766">
        <ele>336.5</ele>
        <time>2019-11-26T14:29:06Z</time>
      </trkpt>
      <trkpt lat="46.74924" lon="5.62763">
        <ele>336.6</ele>
        <time>2019-11-26T14:29:10Z</time>
      </trkpt>
      <trkpt lat="46.74919" lon="5.62759">
        <ele>336.7</ele>
        <time>2019-11-26T14:29:14Z</time>
      </trkpt>
      <trkpt lat="46.74916" lon="5.62754">
        <ele>336.7</ele>
        <time>2019-11-26T14:29:18Z</time>
      </trkpt>
      <trkpt lat="46.74911" lon="5.6275">
        <ele>337</ele>
        <time>2019-11-26T14:29:23Z</time>
      </trkpt>
      <trkpt lat="46.74907" lon="5.62749">
        <ele>337.2</ele>
        <time>2019-11-26T14:29:27Z</time>
      </trkpt>
      <trkpt lat="46.74902" lon="5.62748">
        <ele>337.4</ele>
        <time>2019-11-26T14:29:31Z</time>
      </trkpt>
      <trkpt lat="46.74898" lon="5.62747">
        <ele>337.6</ele>
        <time>2019-11-26T14:29:35Z</time>
      </trkpt>
      <trkpt lat="46.74893" lon="5.62744">
        <ele>337.6</ele>
        <time>2019-11-26T14:29:40Z</time>
      </trkpt>
      <trkpt lat="46.74888" lon="5.62743">
        <ele>337.5</ele>
        <time>2019-11-26T14:29:44Z</time>
      </trkpt>
      <trkpt lat="46.74883" lon="5.62743">
        <ele>337.4</ele>
        <time>2019-11-26T14:29:48Z</time>
      </trkpt>
      <trkpt lat="46.74878" lon="5.62745">
        <ele>337.3</ele>
        <time>2019-11-26T14:29:53Z</time>
      </trkpt>
      <trkpt lat="46.74874" lon="5.62745">
        <ele>337.1</ele>
        <time>2019-11-26T14:29:57Z</time>
      </trkpt>
      <trkpt lat="46.74869" lon="5.62746">
        <ele>336.9</ele>
        <time>2019-11-26T14:30:01Z</time>
      </trkpt>
      <trkpt lat="46.74864" lon="5.62747">
        <ele>336.7</ele>
        <time>2019-11-26T14:30:05Z</time>
      </trkpt>
      <trkpt lat="46.74859" lon="5.62747">
        <ele>336.3</ele>
        <time>2019-11-26T14:30:10Z</time>
      </trkpt>
      <trkpt lat="46.74853" lon="5.62747">
        <ele>335.7</ele>
        <time>2019-11-26T14:30:15Z</time>
      </trkpt>
      <trkpt lat="46.74848" lon="5.62748">
        <ele>335.2</ele>
        <time>2019-11-26T14:30:20Z</time>
      </trkpt>
      <trkpt lat="46.74843" lon="5.6275">
        <ele>334.3</ele>
        <time>2019-11-26T14:30:26Z</time>
      </trkpt>
      <trkpt lat="46.74839" lon="5.62751">
        <ele>333.4</ele>
        <time>2019-11-26T14:30:31Z</time>
      </trkpt>
      <trkpt lat="46.74833" lon="5.6275">
        <ele>332.5</ele>
        <time>2019-11-26T14:30:36Z</time>
      </trkpt>
      <trkpt lat="46.74827" lon="5.62749">
        <ele>332.1</ele>
        <time>2019-11-26T14:30:40Z</time>
      </trkpt>
      <trkpt lat="46.74822" lon="5.62749">
        <ele>331.6</ele>
        <time>2019-11-26T14:30:45Z</time>
      </trkpt>
      <trkpt lat="46.74818" lon="5.62748">
        <ele>331.3</ele>
        <time>2019-11-26T14:30:49Z</time>
      </trkpt>
      <trkpt lat="46.74812" lon="5.62745">
        <ele>331.1</ele>
        <time>2019-11-26T14:30:53Z</time>
      </trkpt>
      <trkpt lat="46.74808" lon="5.62745">
        <ele>331</ele>
        <time>2019-11-26T14:30:57Z</time>
      </trkpt>
      <trkpt lat="46.74803" lon="5.62743">
        <ele>330.9</ele>
        <time>2019-11-26T14:31:03Z</time>
      </trkpt>
      <trkpt lat="46.74798" lon="5.62741">
        <ele>330.8</ele>
        <time>2019-11-26T14:31:07Z</time>
      </trkpt>
      <trkpt lat="46.74793" lon="5.62738">
        <ele>330.3</ele>
        <time>2019-11-26T14:31:13Z</time>
      </trkpt>
      <trkpt lat="46.74788" lon="5.62736">
        <ele>329.9</ele>
        <time>2019-11-26T14:31:17Z</time>
      </trkpt>
      <trkpt lat="46.74783" lon="5.62735">
        <ele>329.4</ele>
        <time>2019-11-26T14:31:21Z</time>
      </trkpt>
      <trkpt lat="46.74778" lon="5.62733">
        <ele>328.6</ele>
        <time>2019-11-26T14:31:26Z</time>
      </trkpt>
      <trkpt lat="46.74774" lon="5.62733">
        <ele>327.7</ele>
        <time>2019-11-26T14:31:31Z</time>
      </trkpt>
      <trkpt lat="46.74769" lon="5.62735">
        <ele>326.9</ele>
        <time>2019-11-26T14:31:37Z</time>
      </trkpt>
      <trkpt lat="46.74764" lon="5.62738">
        <ele>325.3</ele>
        <time>2019-11-26T14:31:44Z</time>
      </trkpt>
      <trkpt lat="46.7476" lon="5.62743">
        <ele>324.3</ele>
        <time>2019-11-26T14:31:48Z</time>
      </trkpt>
      <trkpt lat="46.74756" lon="5.62748">
        <ele>323.3</ele>
        <time>2019-11-26T14:31:52Z</time>
      </trkpt>
      <trkpt lat="46.74752" lon="5.62753">
        <ele>322.4</ele>
        <time>2019-11-26T14:31:56Z</time>
      </trkpt>
      <trkpt lat="46.74748" lon="5.62757">
        <ele>321.7</ele>
        <time>2019-11-26T14:31:59Z</time>
      </trkpt>
      <trkpt lat="46.74745" lon="5.6276">
        <ele>321.2</ele>
        <time>2019-11-26T14:32:02Z</time>
      </trkpt>
      <trkpt lat="46.74741" lon="5.62765">
        <ele>320.2</ele>
        <time>2019-11-26T14:32:07Z</time>
      </trkpt>
      <trkpt lat="46.74738" lon="5.62772">
        <ele>319.6</ele>
        <time>2019-11-26T14:32:11Z</time>
      </trkpt>
      <trkpt lat="46.74735" lon="5.62777">
        <ele>319.3</ele>
        <time>2019-11-26T14:32:14Z</time>
      </trkpt>
      <trkpt lat="46.74731" lon="5.62781">
        <ele>319.2</ele>
        <time>2019-11-26T14:32:18Z</time>
      </trkpt>
      <trkpt lat="46.74726" lon="5.62786">
        <ele>319.1</ele>
        <time>2019-11-26T14:32:23Z</time>
      </trkpt>
      <trkpt lat="46.74722" lon="5.62789">
        <ele>319.1</ele>
        <time>2019-11-26T14:32:27Z</time>
      </trkpt>
      <trkpt lat="46.74717" lon="5.62791">
        <ele>319.1</ele>
        <time>2019-11-26T14:32:32Z</time>
      </trkpt>
      <trkpt lat="46.74712" lon="5.62792">
        <ele>319.1</ele>
        <time>2019-11-26T14:32:37Z</time>
      </trkpt>
      <trkpt lat="46.74708" lon="5.62795">
        <ele>319.1</ele>
        <time>2019-11-26T14:32:43Z</time>
      </trkpt>
      <trkpt lat="46.74703" lon="5.628">
        <ele>319</ele>
        <time>2019-11-26T14:32:48Z</time>
      </trkpt>
      <trkpt lat="46.74699" lon="5.62804">
        <ele>318.7</ele>
        <time>2019-11-26T14:32:52Z</time>
      </trkpt>
      <trkpt lat="46.74695" lon="5.62808">
        <ele>318.4</ele>
        <time>2019-11-26T14:32:58Z</time>
      </trkpt>
      <trkpt lat="46.74691" lon="5.62811">
        <ele>318.4</ele>
        <time>2019-11-26T14:33:01Z</time>
      </trkpt>
      <trkpt lat="46.74687" lon="5.62814">
        <ele>318.3</ele>
        <time>2019-11-26T14:33:06Z</time>
      </trkpt>
      <trkpt lat="46.74681" lon="5.62816">
        <ele>318.2</ele>
        <time>2019-11-26T14:33:11Z</time>
      </trkpt>
      <trkpt lat="46.74677" lon="5.62816">
        <ele>317.9</ele>
        <time>2019-11-26T14:33:18Z</time>
      </trkpt>
      <trkpt lat="46.74675" lon="5.6281">
        <ele>316.3</ele>
        <time>2019-11-26T14:33:34Z</time>
      </trkpt>
      <trkpt lat="46.7467" lon="5.62803">
        <ele>315.9</ele>
        <time>2019-11-26T14:34:05Z</time>
      </trkpt>
      <trkpt lat="46.74666" lon="5.628">
        <ele>316.7</ele>
        <time>2019-11-26T14:34:11Z</time>
      </trkpt>
      <trkpt lat="46.74662" lon="5.62795">
        <ele>317.4</ele>
        <time>2019-11-26T14:34:17Z</time>
      </trkpt>
      <trkpt lat="46.74659" lon="5.6279">
        <ele>318</ele>
        <time>2019-11-26T14:34:23Z</time>
      </trkpt>
      <trkpt lat="46.74656" lon="5.62784">
        <ele>318.4</ele>
        <time>2019-11-26T14:34:31Z</time>
      </trkpt>
      <trkpt lat="46.74652" lon="5.62779">
        <ele>318.5</ele>
        <time>2019-11-26T14:34:38Z</time>
      </trkpt>
      <trkpt lat="46.74647" lon="5.62777">
        <ele>318.3</ele>
        <time>2019-11-26T14:34:44Z</time>
      </trkpt>
      <trkpt lat="46.74642" lon="5.62777">
        <ele>317.5</ele>
        <time>2019-11-26T14:34:52Z</time>
      </trkpt>
      <trkpt lat="46.74637" lon="5.62776">
        <ele>316.5</ele>
        <time>2019-11-26T14:34:58Z</time>
      </trkpt>
      <trkpt lat="46.74633" lon="5.62779">
        <ele>315.5</ele>
        <time>2019-11-26T14:35:05Z</time>
      </trkpt>
      <trkpt lat="46.74628" lon="5.62782">
        <ele>314.9</ele>
        <time>2019-11-26T14:35:10Z</time>
      </trkpt>
      <trkpt lat="46.74623" lon="5.62781">
        <ele>313.8</ele>
        <time>2019-11-26T14:35:19Z</time>
      </trkpt>
      <trkpt lat="46.7462" lon="5.62777">
        <ele>312.6</ele>
        <time>2019-11-26T14:35:26Z</time>
      </trkpt>
      <trkpt lat="46.74616" lon="5.62773">
        <ele>310.8</ele>
        <time>2019-11-26T14:35:34Z</time>
      </trkpt>
      <trkpt lat="46.74613" lon="5.62768">
        <ele>309.5</ele>
        <time>2019-11-26T14:35:39Z</time>
      </trkpt>
      <trkpt lat="46.7461" lon="5.62762">
        <ele>308.1</ele>
        <time>2019-11-26T14:35:45Z</time>
      </trkpt>
      <trkpt lat="46.74605" lon="5.62758">
        <ele>306.5</ele>
        <time>2019-11-26T14:35:51Z</time>
      </trkpt>
      <trkpt lat="46.74601" lon="5.62754">
        <ele>305.3</ele>
        <time>2019-11-26T14:35:55Z</time>
      </trkpt>
      <trkpt lat="46.74596" lon="5.62751">
        <ele>303.5</ele>
        <time>2019-11-26T14:36:03Z</time>
      </trkpt>
      <trkpt lat="46.7459" lon="5.62751">
        <ele>302.8</ele>
        <time>2019-11-26T14:36:09Z</time>
      </trkpt>
      <trkpt lat="46.74585" lon="5.62752">
        <ele>302.6</ele>
        <time>2019-11-26T14:36:12Z</time>
      </trkpt>
      <trkpt lat="46.7458" lon="5.62751">
        <ele>302.4</ele>
        <time>2019-11-26T14:36:15Z</time>
      </trkpt>
      <trkpt lat="46.74574" lon="5.6275">
        <ele>302.1</ele>
        <time>2019-11-26T14:36:19Z</time>
      </trkpt>
      <trkpt lat="46.7457" lon="5.62747">
        <ele>301.6</ele>
        <time>2019-11-26T14:36:23Z</time>
      </trkpt>
      <trkpt lat="46.74566" lon="5.62744">
        <ele>300.7</ele>
        <time>2019-11-26T14:36:30Z</time>
      </trkpt>
      <trkpt lat="46.74561" lon="5.62742">
        <ele>299.8</ele>
        <time>2019-11-26T14:36:35Z</time>
      </trkpt>
      <trkpt lat="46.74556" lon="5.62741">
        <ele>299.2</ele>
        <time>2019-11-26T14:36:39Z</time>
      </trkpt>
      <trkpt lat="46.74551" lon="5.62737">
        <ele>298.4</ele>
        <time>2019-11-26T14:36:44Z</time>
      </trkpt>
      <trkpt lat="46.74547" lon="5.62733">
        <ele>297.2</ele>
        <time>2019-11-26T14:36:49Z</time>
      </trkpt>
      <trkpt lat="46.74543" lon="5.62729">
        <ele>295.4</ele>
        <time>2019-11-26T14:36:55Z</time>
      </trkpt>
      <trkpt lat="46.74539" lon="5.62725">
        <ele>294.1</ele>
        <time>2019-11-26T14:36:59Z</time>
      </trkpt>
      <trkpt lat="46.74535" lon="5.62723">
        <ele>292.4</ele>
        <time>2019-11-26T14:37:04Z</time>
      </trkpt>
      <trkpt lat="46.7453" lon="5.62719">
        <ele>290.8</ele>
        <time>2019-11-26T14:37:09Z</time>
      </trkpt>
      <trkpt lat="46.74525" lon="5.62719">
        <ele>287.9</ele>
        <time>2019-11-26T14:37:19Z</time>
      </trkpt>
      <trkpt lat="46.7452" lon="5.62716">
        <ele>287.1</ele>
        <time>2019-11-26T14:37:25Z</time>
      </trkpt>
      <trkpt lat="46.74515" lon="5.62712">
        <ele>286.8</ele>
        <time>2019-11-26T14:37:28Z</time>
      </trkpt>
      <trkpt lat="46.74511" lon="5.62709">
        <ele>286.5</ele>
        <time>2019-11-26T14:37:33Z</time>
      </trkpt>
      <trkpt lat="46.745" lon="5.62699">
        <ele>286.6</ele>
        <time>2019-11-26T14:37:41Z</time>
      </trkpt>
      <trkpt lat="46.74495" lon="5.62696">
        <ele>286.5</ele>
        <time>2019-11-26T14:37:44Z</time>
      </trkpt>
      <trkpt lat="46.74491" lon="5.62692">
        <ele>286.4</ele>
        <time>2019-11-26T14:37:49Z</time>
      </trkpt>
      <trkpt lat="46.74483" lon="5.62675">
        <ele>286</ele>
        <time>2019-11-26T14:38:01Z</time>
      </trkpt>
      <trkpt lat="46.74486" lon="5.62668">
        <ele>285.8</ele>
        <time>2019-11-26T14:38:07Z</time>
      </trkpt>
      <trkpt lat="46.74486" lon="5.62662">
        <ele>285.9</ele>
        <time>2019-11-26T14:38:13Z</time>
      </trkpt>
      <trkpt lat="46.74492" lon="5.6266">
        <ele>284.9</ele>
        <time>2019-11-26T14:38:27Z</time>
      </trkpt>
      <trkpt lat="46.74489" lon="5.62655">
        <ele>283.5</ele>
        <time>2019-11-26T14:38:41Z</time>
      </trkpt>
      <trkpt lat="46.74485" lon="5.6265">
        <ele>282.9</ele>
        <time>2019-11-26T14:38:46Z</time>
      </trkpt>
      <trkpt lat="46.74481" lon="5.62647">
        <ele>281.8</ele>
        <time>2019-11-26T14:38:52Z</time>
      </trkpt>
      <trkpt lat="46.74476" lon="5.62647">
        <ele>280.9</ele>
        <time>2019-11-26T14:38:56Z</time>
      </trkpt>
      <trkpt lat="46.7447" lon="5.62648">
        <ele>280.2</ele>
        <time>2019-11-26T14:39:00Z</time>
      </trkpt>
      <trkpt lat="46.74465" lon="5.62648">
        <ele>279.5</ele>
        <time>2019-11-26T14:39:04Z</time>
      </trkpt>
      <trkpt lat="46.7446" lon="5.62649">
        <ele>278.8</ele>
        <time>2019-11-26T14:39:09Z</time>
      </trkpt>
      <trkpt lat="46.74455" lon="5.62652">
        <ele>277.2</ele>
        <time>2019-11-26T14:39:17Z</time>
      </trkpt>
      <trkpt lat="46.7445" lon="5.62656">
        <ele>276.3</ele>
        <time>2019-11-26T14:39:21Z</time>
      </trkpt>
      <trkpt lat="46.74446" lon="5.6266">
        <ele>275.8</ele>
        <time>2019-11-26T14:39:24Z</time>
      </trkpt>
      <trkpt lat="46.74441" lon="5.62664">
        <ele>275.3</ele>
        <time>2019-11-26T14:39:28Z</time>
      </trkpt>
      <trkpt lat="46.74435" lon="5.62666">
        <ele>274.8</ele>
        <time>2019-11-26T14:39:32Z</time>
      </trkpt>
      <trkpt lat="46.7443" lon="5.62667">
        <ele>274.5</ele>
        <time>2019-11-26T14:39:36Z</time>
      </trkpt>
      <trkpt lat="46.74427" lon="5.62661">
        <ele>274.1</ele>
        <time>2019-11-26T14:39:41Z</time>
      </trkpt>
      <trkpt lat="46.74426" lon="5.62653">
        <ele>273.7</ele>
        <time>2019-11-26T14:39:45Z</time>
      </trkpt>
      <trkpt lat="46.74425" lon="5.62646">
        <ele>273.7</ele>
        <time>2019-11-26T14:39:48Z</time>
      </trkpt>
      <trkpt lat="46.74424" lon="5.62639">
        <ele>273.7</ele>
        <time>2019-11-26T14:39:51Z</time>
      </trkpt>
      <trkpt lat="46.74423" lon="5.62631">
        <ele>273.9</ele>
        <time>2019-11-26T14:39:54Z</time>
      </trkpt>
      <trkpt lat="46.7442" lon="5.62634">
        <ele>278.3</ele>
        <time>2019-11-26T14:40:15Z</time>
      </trkpt>
      <trkpt lat="46.74419" lon="5.62642">
        <ele>278.1</ele>
        <time>2019-11-26T14:40:19Z</time>
      </trkpt>
      <trkpt lat="46.74417" lon="5.62648">
        <ele>277.9</ele>
        <time>2019-11-26T14:40:24Z</time>
      </trkpt>
      <trkpt lat="46.74413" lon="5.62653">
        <ele>277.7</ele>
        <time>2019-11-26T14:40:27Z</time>
      </trkpt>
      <trkpt lat="46.74409" lon="5.62658">
        <ele>277.4</ele>
        <time>2019-11-26T14:40:31Z</time>
      </trkpt>
      <trkpt lat="46.74405" lon="5.62663">
        <ele>276.7</ele>
        <time>2019-11-26T14:40:38Z</time>
      </trkpt>
      <trkpt lat="46.74402" lon="5.62669">
        <ele>276.1</ele>
        <time>2019-11-26T14:40:42Z</time>
      </trkpt>
      <trkpt lat="46.74399" lon="5.62674">
        <ele>275.2</ele>
        <time>2019-11-26T14:40:49Z</time>
      </trkpt>
      <trkpt lat="46.74396" lon="5.62679">
        <ele>274.7</ele>
        <time>2019-11-26T14:40:55Z</time>
      </trkpt>
      <trkpt lat="46.74392" lon="5.62682">
        <ele>274.4</ele>
        <time>2019-11-26T14:41:02Z</time>
      </trkpt>
      <trkpt lat="46.74389" lon="5.62688">
        <ele>275.2</ele>
        <time>2019-11-26T14:41:12Z</time>
      </trkpt>
    </trkseg>
  </trk>
</gpx>